<?xml version="1.0" encoding="UTF-8" standalone="no" ?>
<gpx xmlns="http://www.topografix.com/GPX/1/1" xmlns:xsi="http://www.w3.org/2001/XMLSchema-instance" xsi:schemaLocation="http://www.topografix.com/GPX/1/1 http://www.topografix.com/GPX/1/1/gpx.xsd" version="1.1" creator="VisuGPX - https://www.visugpx.com">
  <metadata>
    <name>6. Nonette-Vichy</name>
  </metadata>
  <trk>
    <name><![CDATA[Avignon - Chiddes - 633.3km]]></name>
    <extensions>
      <line xmlns="http://www.topografix.com/GPX/gpx_style/0/2">
        <color>0000FF</color>
        <width>4</width>
      </line>
    </extensions>
    <trkseg>
      <trkpt lat="45.47598" lon="3.29552">
        <ele>393</ele>
        <time>2022-02-14T12:19:09.57Z</time>
      </trkpt>
      <trkpt lat="45.47579" lon="3.29735">
        <ele>394.75</ele>
        <time>2022-02-14T12:19:35.49Z</time>
      </trkpt>
      <trkpt lat="45.47573" lon="3.29779">
        <ele>394</ele>
        <time>2022-02-14T12:19:41.89Z</time>
      </trkpt>
      <trkpt lat="45.47567" lon="3.29868">
        <ele>394.25</ele>
        <time>2022-02-14T12:19:54.44Z</time>
      </trkpt>
      <trkpt lat="45.47567" lon="3.29888">
        <ele>394.75</ele>
        <time>2022-02-14T12:19:57.21Z</time>
      </trkpt>
      <trkpt lat="45.47591" lon="3.29938">
        <ele>396.5</ele>
        <time>2022-02-14T12:20:05.64Z</time>
      </trkpt>
      <trkpt lat="45.47598" lon="3.29946">
        <ele>397.25</ele>
        <time>2022-02-14T12:20:07.52Z</time>
      </trkpt>
      <trkpt lat="45.4761" lon="3.29955">
        <ele>398.25</ele>
        <time>2022-02-14T12:20:10.16Z</time>
      </trkpt>
      <trkpt lat="45.47622" lon="3.2997">
        <ele>399</ele>
        <time>2022-02-14T12:20:13.41Z</time>
      </trkpt>
      <trkpt lat="45.47641" lon="3.30023">
        <ele>401.25</ele>
        <time>2022-02-14T12:20:21.80Z</time>
      </trkpt>
      <trkpt lat="45.47641" lon="3.30066">
        <ele>403.5</ele>
        <time>2022-02-14T12:20:27.71Z</time>
      </trkpt>
      <trkpt lat="45.47624" lon="3.30183">
        <ele>410</ele>
        <time>2022-02-14T12:20:44.53Z</time>
      </trkpt>
      <trkpt lat="45.47616" lon="3.30236">
        <ele>411.5</ele>
        <time>2022-02-14T12:20:52.08Z</time>
      </trkpt>
      <trkpt lat="45.47602" lon="3.30345">
        <ele>417</ele>
        <time>2022-02-14T12:21:07.70Z</time>
      </trkpt>
      <trkpt lat="45.47601" lon="3.30383">
        <ele>419.75</ele>
        <time>2022-02-14T12:21:13.01Z</time>
      </trkpt>
      <trkpt lat="45.47596" lon="3.3043">
        <ele>421.75</ele>
        <time>2022-02-14T12:21:19.61Z</time>
      </trkpt>
      <trkpt lat="45.47583" lon="3.30516">
        <ele>423.25</ele>
        <time>2022-02-14T12:21:31.95Z</time>
      </trkpt>
      <trkpt lat="45.4758" lon="3.3055">
        <ele>425.25</ele>
        <time>2022-02-14T12:21:36.76Z</time>
      </trkpt>
      <trkpt lat="45.47577" lon="3.30571">
        <ele>426.25</ele>
        <time>2022-02-14T12:21:39.80Z</time>
      </trkpt>
      <trkpt lat="45.47572" lon="3.30596">
        <ele>427.25</ele>
        <time>2022-02-14T12:21:43.43Z</time>
      </trkpt>
      <trkpt lat="45.47569" lon="3.30622">
        <ele>429</ele>
        <time>2022-02-14T12:21:47.13Z</time>
      </trkpt>
      <trkpt lat="45.47568" lon="3.30646">
        <ele>431</ele>
        <time>2022-02-14T12:21:50.57Z</time>
      </trkpt>
      <trkpt lat="45.47562" lon="3.30685">
        <ele>434</ele>
        <time>2022-02-14T12:21:56.06Z</time>
      </trkpt>
      <trkpt lat="45.47545" lon="3.30762">
        <ele>438.75</ele>
        <time>2022-02-14T12:22:07.40Z</time>
      </trkpt>
      <trkpt lat="45.47534" lon="3.30824">
        <ele>442</ele>
        <time>2022-02-14T12:22:16.38Z</time>
      </trkpt>
      <trkpt lat="45.47526" lon="3.30855">
        <ele>444.25</ele>
        <time>2022-02-14T12:22:21.03Z</time>
      </trkpt>
      <trkpt lat="45.47511" lon="3.30891">
        <ele>446.25</ele>
        <time>2022-02-14T12:22:26.96Z</time>
      </trkpt>
      <trkpt lat="45.47485" lon="3.30936">
        <ele>449.25</ele>
        <time>2022-02-14T12:22:35.09Z</time>
      </trkpt>
      <trkpt lat="45.47454" lon="3.30978">
        <ele>453.25</ele>
        <time>2022-02-14T12:22:43.54Z</time>
      </trkpt>
      <trkpt lat="45.47397" lon="3.31043">
        <ele>459.25</ele>
        <time>2022-02-14T12:22:58.15Z</time>
      </trkpt>
      <trkpt lat="45.47386" lon="3.31053">
        <ele>459.75</ele>
        <time>2022-02-14T12:23:00.88Z</time>
      </trkpt>
      <trkpt lat="45.47368" lon="3.31059">
        <ele>458.75</ele>
        <time>2022-02-14T12:23:04.55Z</time>
      </trkpt>
      <trkpt lat="45.47349" lon="3.31062">
        <ele>457</ele>
        <time>2022-02-14T12:23:08.34Z</time>
      </trkpt>
      <trkpt lat="45.47337" lon="3.31066">
        <ele>456.5</ele>
        <time>2022-02-14T12:23:10.80Z</time>
      </trkpt>
      <trkpt lat="45.47329" lon="3.31076">
        <ele>457.5</ele>
        <time>2022-02-14T12:23:12.94Z</time>
      </trkpt>
      <trkpt lat="45.47326" lon="3.31087">
        <ele>459.5</ele>
        <time>2022-02-14T12:23:14.57Z</time>
      </trkpt>
      <trkpt lat="45.47328" lon="3.31098">
        <ele>462.75</ele>
        <time>2022-02-14T12:23:16.26Z</time>
      </trkpt>
      <trkpt lat="45.47335" lon="3.31106">
        <ele>465.5</ele>
        <time>2022-02-14T12:23:17.97Z</time>
      </trkpt>
      <trkpt lat="45.47345" lon="3.31109">
        <ele>467.25</ele>
        <time>2022-02-14T12:23:20.08Z</time>
      </trkpt>
      <trkpt lat="45.47364" lon="3.31104">
        <ele>468.5</ele>
        <time>2022-02-14T12:23:23.90Z</time>
      </trkpt>
      <trkpt lat="45.47386" lon="3.31096">
        <ele>469.5</ele>
        <time>2022-02-14T12:23:28.45Z</time>
      </trkpt>
      <trkpt lat="45.47416" lon="3.31083">
        <ele>470.75</ele>
        <time>2022-02-14T12:23:34.70Z</time>
      </trkpt>
      <trkpt lat="45.47477" lon="3.31053">
        <ele>473.25</ele>
        <time>2022-02-14T12:23:47.74Z</time>
      </trkpt>
      <trkpt lat="45.47543" lon="3.3103">
        <ele>477</ele>
        <time>2022-02-14T12:24:01.26Z</time>
      </trkpt>
      <trkpt lat="45.47593" lon="3.31005">
        <ele>479.5</ele>
        <time>2022-02-14T12:24:11.96Z</time>
      </trkpt>
      <trkpt lat="45.47609" lon="3.31002">
        <ele>480</ele>
        <time>2022-02-14T12:24:15.10Z</time>
      </trkpt>
      <trkpt lat="45.47622" lon="3.31007">
        <ele>480.5</ele>
        <time>2022-02-14T12:24:17.71Z</time>
      </trkpt>
      <trkpt lat="45.47631" lon="3.31022">
        <ele>481.5</ele>
        <time>2022-02-14T12:24:20.53Z</time>
      </trkpt>
      <trkpt lat="45.47633" lon="3.31038">
        <ele>482.25</ele>
        <time>2022-02-14T12:24:22.78Z</time>
      </trkpt>
      <trkpt lat="45.47632" lon="3.31062">
        <ele>483</ele>
        <time>2022-02-14T12:24:26.21Z</time>
      </trkpt>
      <trkpt lat="45.47628" lon="3.31113">
        <ele>484.25</ele>
        <time>2022-02-14T12:24:33.32Z</time>
      </trkpt>
      <trkpt lat="45.47623" lon="3.31144">
        <ele>484.75</ele>
        <time>2022-02-14T12:24:37.81Z</time>
      </trkpt>
      <trkpt lat="45.47595" lon="3.31291">
        <ele>484.75</ele>
        <time>2022-02-14T12:24:59.28Z</time>
      </trkpt>
      <trkpt lat="45.47592" lon="3.31312">
        <ele>484.75</ele>
        <time>2022-02-14T12:25:02.17Z</time>
      </trkpt>
      <trkpt lat="45.47556" lon="3.31583">
        <ele>481.75</ele>
        <time>2022-02-14T12:25:40.87Z</time>
      </trkpt>
      <trkpt lat="45.47553" lon="3.31625">
        <ele>481.5</ele>
        <time>2022-02-14T12:25:46.85Z</time>
      </trkpt>
      <trkpt lat="45.47553" lon="3.31661">
        <ele>481</ele>
        <time>2022-02-14T12:25:51.80Z</time>
      </trkpt>
      <trkpt lat="45.47563" lon="3.31758">
        <ele>482</ele>
        <time>2022-02-14T12:26:05.57Z</time>
      </trkpt>
      <trkpt lat="45.47563" lon="3.31777">
        <ele>482</ele>
        <time>2022-02-14T12:26:08.22Z</time>
      </trkpt>
      <trkpt lat="45.47559" lon="3.31835">
        <ele>482.25</ele>
        <time>2022-02-14T12:26:16.50Z</time>
      </trkpt>
      <trkpt lat="45.47556" lon="3.31853">
        <ele>482.5</ele>
        <time>2022-02-14T12:26:19.07Z</time>
      </trkpt>
      <trkpt lat="45.47552" lon="3.31877">
        <ele>482.5</ele>
        <time>2022-02-14T12:26:22.52Z</time>
      </trkpt>
      <trkpt lat="45.47533" lon="3.31966">
        <ele>483.75</ele>
        <time>2022-02-14T12:26:35.60Z</time>
      </trkpt>
      <trkpt lat="45.47523" lon="3.32009">
        <ele>484.5</ele>
        <time>2022-02-14T12:26:41.80Z</time>
      </trkpt>
      <trkpt lat="45.47519" lon="3.32036">
        <ele>485.25</ele>
        <time>2022-02-14T12:26:45.75Z</time>
      </trkpt>
      <trkpt lat="45.47516" lon="3.3206">
        <ele>485.75</ele>
        <time>2022-02-14T12:26:49.14Z</time>
      </trkpt>
      <trkpt lat="45.47515" lon="3.3208">
        <ele>486</ele>
        <time>2022-02-14T12:26:51.98Z</time>
      </trkpt>
      <trkpt lat="45.47516" lon="3.32112">
        <ele>486</ele>
        <time>2022-02-14T12:26:56.40Z</time>
      </trkpt>
      <trkpt lat="45.47519" lon="3.32151">
        <ele>486</ele>
        <time>2022-02-14T12:27:01.92Z</time>
      </trkpt>
      <trkpt lat="45.47568" lon="3.32127">
        <ele>483.25</ele>
        <time>2022-02-14T12:27:12.33Z</time>
      </trkpt>
      <trkpt lat="45.47596" lon="3.32115">
        <ele>481.75</ele>
        <time>2022-02-14T12:27:18.11Z</time>
      </trkpt>
      <trkpt lat="45.47617" lon="3.3211">
        <ele>480.75</ele>
        <time>2022-02-14T12:27:22.46Z</time>
      </trkpt>
      <trkpt lat="45.47759" lon="3.32089">
        <ele>473.75</ele>
        <time>2022-02-14T12:27:51.03Z</time>
      </trkpt>
      <trkpt lat="45.47805" lon="3.32082">
        <ele>472.5</ele>
        <time>2022-02-14T12:28:00.34Z</time>
      </trkpt>
      <trkpt lat="45.4784" lon="3.32078">
        <ele>471.75</ele>
        <time>2022-02-14T12:28:07.38Z</time>
      </trkpt>
      <trkpt lat="45.4794" lon="3.32073">
        <ele>469</ele>
        <time>2022-02-14T12:28:27.25Z</time>
      </trkpt>
      <trkpt lat="45.47955" lon="3.3207">
        <ele>468.75</ele>
        <time>2022-02-14T12:28:30.39Z</time>
      </trkpt>
      <trkpt lat="45.4797" lon="3.32063">
        <ele>468.25</ele>
        <time>2022-02-14T12:28:33.55Z</time>
      </trkpt>
      <trkpt lat="45.47997" lon="3.32047">
        <ele>467.5</ele>
        <time>2022-02-14T12:28:39.37Z</time>
      </trkpt>
      <trkpt lat="45.48072" lon="3.31996">
        <ele>467</ele>
        <time>2022-02-14T12:28:56.02Z</time>
      </trkpt>
      <trkpt lat="45.48087" lon="3.31985">
        <ele>466.75</ele>
        <time>2022-02-14T12:28:59.32Z</time>
      </trkpt>
      <trkpt lat="45.48099" lon="3.3197">
        <ele>466.25</ele>
        <time>2022-02-14T12:29:02.61Z</time>
      </trkpt>
      <trkpt lat="45.4811" lon="3.31953">
        <ele>466.25</ele>
        <time>2022-02-14T12:29:05.80Z</time>
      </trkpt>
      <trkpt lat="45.48142" lon="3.31887">
        <ele>466</ele>
        <time>2022-02-14T12:29:17.02Z</time>
      </trkpt>
      <trkpt lat="45.48153" lon="3.3186">
        <ele>466</ele>
        <time>2022-02-14T12:29:21.43Z</time>
      </trkpt>
      <trkpt lat="45.48163" lon="3.31819">
        <ele>466</ele>
        <time>2022-02-14T12:29:27.54Z</time>
      </trkpt>
      <trkpt lat="45.48168" lon="3.31778">
        <ele>466.5</ele>
        <time>2022-02-14T12:29:33.30Z</time>
      </trkpt>
      <trkpt lat="45.48171" lon="3.31756">
        <ele>466.75</ele>
        <time>2022-02-14T12:29:36.44Z</time>
      </trkpt>
      <trkpt lat="45.48172" lon="3.31749">
        <ele>466.75</ele>
        <time>2022-02-14T12:29:37.42Z</time>
      </trkpt>
      <trkpt lat="45.48218" lon="3.31734">
        <ele>464.5</ele>
        <time>2022-02-14T12:29:46.91Z</time>
      </trkpt>
      <trkpt lat="45.48242" lon="3.31726">
        <ele>463.5</ele>
        <time>2022-02-14T12:29:51.82Z</time>
      </trkpt>
      <trkpt lat="45.48267" lon="3.31717">
        <ele>462.25</ele>
        <time>2022-02-14T12:29:56.99Z</time>
      </trkpt>
      <trkpt lat="45.48476" lon="3.31606">
        <ele>454.25</ele>
        <time>2022-02-14T12:30:41.64Z</time>
      </trkpt>
      <trkpt lat="45.48546" lon="3.3157">
        <ele>452.5</ele>
        <time>2022-02-14T12:30:56.41Z</time>
      </trkpt>
      <trkpt lat="45.48599" lon="3.31549">
        <ele>451.25</ele>
        <time>2022-02-14T12:31:07.55Z</time>
      </trkpt>
      <trkpt lat="45.48627" lon="3.31538">
        <ele>450.5</ele>
        <time>2022-02-14T12:31:13.36Z</time>
      </trkpt>
      <trkpt lat="45.48651" lon="3.31531">
        <ele>450.25</ele>
        <time>2022-02-14T12:31:18.29Z</time>
      </trkpt>
      <trkpt lat="45.48707" lon="3.31525">
        <ele>448</ele>
        <time>2022-02-14T12:31:29.53Z</time>
      </trkpt>
      <trkpt lat="45.48719" lon="3.31524">
        <ele>447.25</ele>
        <time>2022-02-14T12:31:31.81Z</time>
      </trkpt>
      <trkpt lat="45.48739" lon="3.31527">
        <ele>446.5</ele>
        <time>2022-02-14T12:31:35.93Z</time>
      </trkpt>
      <trkpt lat="45.48755" lon="3.31532">
        <ele>445.5</ele>
        <time>2022-02-14T12:31:39.07Z</time>
      </trkpt>
      <trkpt lat="45.48774" lon="3.31544">
        <ele>444.25</ele>
        <time>2022-02-14T12:31:43.30Z</time>
      </trkpt>
      <trkpt lat="45.48852" lon="3.31605">
        <ele>437.5</ele>
        <time>2022-02-14T12:32:01.15Z</time>
      </trkpt>
      <trkpt lat="45.48887" lon="3.31631">
        <ele>433.25</ele>
        <time>2022-02-14T12:32:08.99Z</time>
      </trkpt>
      <trkpt lat="45.48965" lon="3.31698">
        <ele>422.25</ele>
        <time>2022-02-14T12:32:27.19Z</time>
      </trkpt>
      <trkpt lat="45.48988" lon="3.3172">
        <ele>420</ele>
        <time>2022-02-14T12:32:32.68Z</time>
      </trkpt>
      <trkpt lat="45.49037" lon="3.31762">
        <ele>416.75</ele>
        <time>2022-02-14T12:32:44.15Z</time>
      </trkpt>
      <trkpt lat="45.49045" lon="3.31768">
        <ele>416.5</ele>
        <time>2022-02-14T12:32:45.93Z</time>
      </trkpt>
      <trkpt lat="45.49049" lon="3.31775">
        <ele>416.25</ele>
        <time>2022-02-14T12:32:47.15Z</time>
      </trkpt>
      <trkpt lat="45.49048" lon="3.31787">
        <ele>416.5</ele>
        <time>2022-02-14T12:32:48.89Z</time>
      </trkpt>
      <trkpt lat="45.49041" lon="3.31832">
        <ele>417.5</ele>
        <time>2022-02-14T12:32:55.35Z</time>
      </trkpt>
      <trkpt lat="45.49042" lon="3.31842">
        <ele>417.5</ele>
        <time>2022-02-14T12:32:56.75Z</time>
      </trkpt>
      <trkpt lat="45.4905" lon="3.31872">
        <ele>417.25</ele>
        <time>2022-02-14T12:33:01.33Z</time>
      </trkpt>
      <trkpt lat="45.49052" lon="3.31891">
        <ele>417.5</ele>
        <time>2022-02-14T12:33:03.92Z</time>
      </trkpt>
      <trkpt lat="45.49052" lon="3.31909">
        <ele>417.5</ele>
        <time>2022-02-14T12:33:06.56Z</time>
      </trkpt>
      <trkpt lat="45.49055" lon="3.3191">
        <ele>417.5</ele>
        <time>2022-02-14T12:33:07.14Z</time>
      </trkpt>
      <trkpt lat="45.4908" lon="3.31933">
        <ele>417</ele>
        <time>2022-02-14T12:33:13.10Z</time>
      </trkpt>
      <trkpt lat="45.49085" lon="3.31936">
        <ele>416.75</ele>
        <time>2022-02-14T12:33:14.24Z</time>
      </trkpt>
      <trkpt lat="45.49093" lon="3.31941">
        <ele>416.75</ele>
        <time>2022-02-14T12:33:15.88Z</time>
      </trkpt>
      <trkpt lat="45.49115" lon="3.31947">
        <ele>416.5</ele>
        <time>2022-02-14T12:33:20.46Z</time>
      </trkpt>
      <trkpt lat="45.49122" lon="3.31949">
        <ele>416.25</ele>
        <time>2022-02-14T12:33:21.90Z</time>
      </trkpt>
      <trkpt lat="45.49135" lon="3.31953">
        <ele>416.25</ele>
        <time>2022-02-14T12:33:24.53Z</time>
      </trkpt>
      <trkpt lat="45.49143" lon="3.31957">
        <ele>416.25</ele>
        <time>2022-02-14T12:33:26.08Z</time>
      </trkpt>
      <trkpt lat="45.49148" lon="3.31962">
        <ele>416.25</ele>
        <time>2022-02-14T12:33:27.37Z</time>
      </trkpt>
      <trkpt lat="45.49153" lon="3.31933">
        <ele>415.5</ele>
        <time>2022-02-14T12:33:31.58Z</time>
      </trkpt>
      <trkpt lat="45.49154" lon="3.31927">
        <ele>415.5</ele>
        <time>2022-02-14T12:33:32.40Z</time>
      </trkpt>
      <trkpt lat="45.49156" lon="3.31919">
        <ele>415.25</ele>
        <time>2022-02-14T12:33:33.57Z</time>
      </trkpt>
      <trkpt lat="45.49169" lon="3.31873">
        <ele>414.5</ele>
        <time>2022-02-14T12:33:40.55Z</time>
      </trkpt>
      <trkpt lat="45.49207" lon="3.31785">
        <ele>415.25</ele>
        <time>2022-02-14T12:33:55.02Z</time>
      </trkpt>
      <trkpt lat="45.49218" lon="3.31766">
        <ele>415.25</ele>
        <time>2022-02-14T12:33:58.47Z</time>
      </trkpt>
      <trkpt lat="45.49262" lon="3.31691">
        <ele>415.75</ele>
        <time>2022-02-14T12:34:12.22Z</time>
      </trkpt>
      <trkpt lat="45.49273" lon="3.31653">
        <ele>416</ele>
        <time>2022-02-14T12:34:17.96Z</time>
      </trkpt>
      <trkpt lat="45.49282" lon="3.31602">
        <ele>414.75</ele>
        <time>2022-02-14T12:34:25.36Z</time>
      </trkpt>
      <trkpt lat="45.49297" lon="3.31552">
        <ele>413.5</ele>
        <time>2022-02-14T12:34:32.94Z</time>
      </trkpt>
      <trkpt lat="45.49321" lon="3.31521">
        <ele>413.25</ele>
        <time>2022-02-14T12:34:39.47Z</time>
      </trkpt>
      <trkpt lat="45.49347" lon="3.31488">
        <ele>413.5</ele>
        <time>2022-02-14T12:34:46.46Z</time>
      </trkpt>
      <trkpt lat="45.4937" lon="3.3141">
        <ele>412.25</ele>
        <time>2022-02-14T12:34:58.29Z</time>
      </trkpt>
      <trkpt lat="45.49422" lon="3.31312">
        <ele>411.25</ele>
        <time>2022-02-14T12:35:15.43Z</time>
      </trkpt>
      <trkpt lat="45.49439" lon="3.31291">
        <ele>411.25</ele>
        <time>2022-02-14T12:35:20Z</time>
      </trkpt>
      <trkpt lat="45.49457" lon="3.31276">
        <ele>411.25</ele>
        <time>2022-02-14T12:35:24.17Z</time>
      </trkpt>
      <trkpt lat="45.49488" lon="3.31254">
        <ele>410.75</ele>
        <time>2022-02-14T12:35:30.99Z</time>
      </trkpt>
      <trkpt lat="45.49503" lon="3.31238">
        <ele>410.5</ele>
        <time>2022-02-14T12:35:34.82Z</time>
      </trkpt>
      <trkpt lat="45.4953" lon="3.31178">
        <ele>409.75</ele>
        <time>2022-02-14T12:35:44.91Z</time>
      </trkpt>
      <trkpt lat="45.49561" lon="3.31123">
        <ele>409</ele>
        <time>2022-02-14T12:35:54.76Z</time>
      </trkpt>
      <trkpt lat="45.49588" lon="3.31087">
        <ele>407.5</ele>
        <time>2022-02-14T12:36:02.10Z</time>
      </trkpt>
      <trkpt lat="45.49649" lon="3.31045">
        <ele>408</ele>
        <time>2022-02-14T12:36:15.71Z</time>
      </trkpt>
      <trkpt lat="45.4988" lon="3.30945">
        <ele>405.75</ele>
        <time>2022-02-14T12:37:03.96Z</time>
      </trkpt>
      <trkpt lat="45.49891" lon="3.30945">
        <ele>405.75</ele>
        <time>2022-02-14T12:37:06.19Z</time>
      </trkpt>
      <trkpt lat="45.49908" lon="3.30948">
        <ele>405.5</ele>
        <time>2022-02-14T12:37:09.68Z</time>
      </trkpt>
      <trkpt lat="45.49948" lon="3.30952">
        <ele>404.5</ele>
        <time>2022-02-14T12:37:17.64Z</time>
      </trkpt>
      <trkpt lat="45.50113" lon="3.30995">
        <ele>400.75</ele>
        <time>2022-02-14T12:37:51.09Z</time>
      </trkpt>
      <trkpt lat="45.50152" lon="3.31007">
        <ele>400</ele>
        <time>2022-02-14T12:37:59.10Z</time>
      </trkpt>
      <trkpt lat="45.50187" lon="3.31016">
        <ele>399.75</ele>
        <time>2022-02-14T12:38:06.14Z</time>
      </trkpt>
      <trkpt lat="45.50227" lon="3.31031">
        <ele>400.25</ele>
        <time>2022-02-14T12:38:14.58Z</time>
      </trkpt>
      <trkpt lat="45.50253" lon="3.31042">
        <ele>400.25</ele>
        <time>2022-02-14T12:38:20.04Z</time>
      </trkpt>
      <trkpt lat="45.50283" lon="3.31052">
        <ele>400</ele>
        <time>2022-02-14T12:38:26.03Z</time>
      </trkpt>
      <trkpt lat="45.503" lon="3.31056">
        <ele>399.5</ele>
        <time>2022-02-14T12:38:29.47Z</time>
      </trkpt>
      <trkpt lat="45.50357" lon="3.31069">
        <ele>398.75</ele>
        <time>2022-02-14T12:38:41.18Z</time>
      </trkpt>
      <trkpt lat="45.50446" lon="3.31084">
        <ele>396.75</ele>
        <time>2022-02-14T12:38:59.10Z</time>
      </trkpt>
      <trkpt lat="45.5045" lon="3.31084">
        <ele>396.75</ele>
        <time>2022-02-14T12:38:59.82Z</time>
      </trkpt>
      <trkpt lat="45.50492" lon="3.311">
        <ele>396.25</ele>
        <time>2022-02-14T12:39:08.50Z</time>
      </trkpt>
      <trkpt lat="45.50526" lon="3.31121">
        <ele>396</ele>
        <time>2022-02-14T12:39:15.94Z</time>
      </trkpt>
      <trkpt lat="45.50542" lon="3.31132">
        <ele>395.75</ele>
        <time>2022-02-14T12:39:19.45Z</time>
      </trkpt>
      <trkpt lat="45.50555" lon="3.31145">
        <ele>395.25</ele>
        <time>2022-02-14T12:39:22.55Z</time>
      </trkpt>
      <trkpt lat="45.50604" lon="3.31163">
        <ele>393.25</ele>
        <time>2022-02-14T12:39:32.79Z</time>
      </trkpt>
      <trkpt lat="45.50634" lon="3.31172">
        <ele>392.75</ele>
        <time>2022-02-14T12:39:38.81Z</time>
      </trkpt>
      <trkpt lat="45.50647" lon="3.31179">
        <ele>392.25</ele>
        <time>2022-02-14T12:39:41.59Z</time>
      </trkpt>
      <trkpt lat="45.50672" lon="3.31197">
        <ele>391.5</ele>
        <time>2022-02-14T12:39:47.28Z</time>
      </trkpt>
      <trkpt lat="45.50695" lon="3.31221">
        <ele>391</ele>
        <time>2022-02-14T12:39:52.89Z</time>
      </trkpt>
      <trkpt lat="45.50723" lon="3.31251">
        <ele>390.25</ele>
        <time>2022-02-14T12:39:59.98Z</time>
      </trkpt>
      <trkpt lat="45.50743" lon="3.31279">
        <ele>390.25</ele>
        <time>2022-02-14T12:40:05.47Z</time>
      </trkpt>
      <trkpt lat="45.50759" lon="3.31313">
        <ele>390.75</ele>
        <time>2022-02-14T12:40:11.28Z</time>
      </trkpt>
      <trkpt lat="45.50784" lon="3.31373">
        <ele>391</ele>
        <time>2022-02-14T12:40:21.12Z</time>
      </trkpt>
      <trkpt lat="45.50813" lon="3.31436">
        <ele>391</ele>
        <time>2022-02-14T12:40:31.64Z</time>
      </trkpt>
      <trkpt lat="45.50845" lon="3.31507">
        <ele>391</ele>
        <time>2022-02-14T12:40:43.44Z</time>
      </trkpt>
      <trkpt lat="45.50866" lon="3.31547">
        <ele>391</ele>
        <time>2022-02-14T12:40:50.51Z</time>
      </trkpt>
      <trkpt lat="45.50915" lon="3.31628">
        <ele>391.5</ele>
        <time>2022-02-14T12:41:05.58Z</time>
      </trkpt>
      <trkpt lat="45.5093" lon="3.31647">
        <ele>391.5</ele>
        <time>2022-02-14T12:41:09.52Z</time>
      </trkpt>
      <trkpt lat="45.50945" lon="3.3166">
        <ele>391.5</ele>
        <time>2022-02-14T12:41:13.04Z</time>
      </trkpt>
      <trkpt lat="45.50966" lon="3.31672">
        <ele>391.25</ele>
        <time>2022-02-14T12:41:17.50Z</time>
      </trkpt>
      <trkpt lat="45.50979" lon="3.31686">
        <ele>391</ele>
        <time>2022-02-14T12:41:20.74Z</time>
      </trkpt>
      <trkpt lat="45.50988" lon="3.31704">
        <ele>391</ele>
        <time>2022-02-14T12:41:23.88Z</time>
      </trkpt>
      <trkpt lat="45.50998" lon="3.31735">
        <ele>391</ele>
        <time>2022-02-14T12:41:28.67Z</time>
      </trkpt>
      <trkpt lat="45.51009" lon="3.31787">
        <ele>390.75</ele>
        <time>2022-02-14T12:41:36.19Z</time>
      </trkpt>
      <trkpt lat="45.51019" lon="3.31818">
        <ele>391</ele>
        <time>2022-02-14T12:41:41.09Z</time>
      </trkpt>
      <trkpt lat="45.51026" lon="3.31834">
        <ele>390.75</ele>
        <time>2022-02-14T12:41:43.72Z</time>
      </trkpt>
      <trkpt lat="45.51035" lon="3.31855">
        <ele>390.75</ele>
        <time>2022-02-14T12:41:47.10Z</time>
      </trkpt>
      <trkpt lat="45.5104" lon="3.31863">
        <ele>390.75</ele>
        <time>2022-02-14T12:41:48.68Z</time>
      </trkpt>
      <trkpt lat="45.51079" lon="3.3192">
        <ele>390.75</ele>
        <time>2022-02-14T12:41:59.74Z</time>
      </trkpt>
      <trkpt lat="45.51084" lon="3.3193">
        <ele>391</ele>
        <time>2022-02-14T12:42:01.50Z</time>
      </trkpt>
      <trkpt lat="45.51087" lon="3.31934">
        <ele>391</ele>
        <time>2022-02-14T12:42:02.42Z</time>
      </trkpt>
      <trkpt lat="45.5107" lon="3.31975">
        <ele>391.5</ele>
        <time>2022-02-14T12:42:09.10Z</time>
      </trkpt>
      <trkpt lat="45.51073" lon="3.31978">
        <ele>391.5</ele>
        <time>2022-02-14T12:42:09.79Z</time>
      </trkpt>
      <trkpt lat="45.51082" lon="3.31984">
        <ele>391.75</ele>
        <time>2022-02-14T12:42:11.81Z</time>
      </trkpt>
      <trkpt lat="45.5111" lon="3.31997">
        <ele>391</ele>
        <time>2022-02-14T12:42:17.74Z</time>
      </trkpt>
      <trkpt lat="45.51129" lon="3.32001">
        <ele>390.25</ele>
        <time>2022-02-14T12:42:21.46Z</time>
      </trkpt>
      <trkpt lat="45.51147" lon="3.32002">
        <ele>389.5</ele>
        <time>2022-02-14T12:42:25.14Z</time>
      </trkpt>
      <trkpt lat="45.51158" lon="3.32002">
        <ele>389</ele>
        <time>2022-02-14T12:42:27.34Z</time>
      </trkpt>
      <trkpt lat="45.51171" lon="3.32004">
        <ele>388.75</ele>
        <time>2022-02-14T12:42:29.83Z</time>
      </trkpt>
      <trkpt lat="45.5118" lon="3.32006">
        <ele>388.25</ele>
        <time>2022-02-14T12:42:31.82Z</time>
      </trkpt>
      <trkpt lat="45.51236" lon="3.32022">
        <ele>386.75</ele>
        <time>2022-02-14T12:42:43.24Z</time>
      </trkpt>
      <trkpt lat="45.51257" lon="3.32039">
        <ele>386.25</ele>
        <time>2022-02-14T12:42:47.96Z</time>
      </trkpt>
      <trkpt lat="45.51274" lon="3.32056">
        <ele>385.5</ele>
        <time>2022-02-14T12:42:52.13Z</time>
      </trkpt>
      <trkpt lat="45.51295" lon="3.32077">
        <ele>384.75</ele>
        <time>2022-02-14T12:42:57.36Z</time>
      </trkpt>
      <trkpt lat="45.51299" lon="3.32087">
        <ele>384.75</ele>
        <time>2022-02-14T12:42:58.92Z</time>
      </trkpt>
      <trkpt lat="45.51323" lon="3.32126">
        <ele>384</ele>
        <time>2022-02-14T12:43:06.14Z</time>
      </trkpt>
      <trkpt lat="45.51357" lon="3.32172">
        <ele>384.25</ele>
        <time>2022-02-14T12:43:15.51Z</time>
      </trkpt>
      <trkpt lat="45.5136" lon="3.32177">
        <ele>384.25</ele>
        <time>2022-02-14T12:43:16.47Z</time>
      </trkpt>
      <trkpt lat="45.51383" lon="3.32205">
        <ele>385</ele>
        <time>2022-02-14T12:43:22.52Z</time>
      </trkpt>
      <trkpt lat="45.51392" lon="3.32218">
        <ele>385.25</ele>
        <time>2022-02-14T12:43:25.06Z</time>
      </trkpt>
      <trkpt lat="45.51403" lon="3.32235">
        <ele>385.5</ele>
        <time>2022-02-14T12:43:28.31Z</time>
      </trkpt>
      <trkpt lat="45.51401" lon="3.32252">
        <ele>385.75</ele>
        <time>2022-02-14T12:43:30.78Z</time>
      </trkpt>
      <trkpt lat="45.51396" lon="3.32274">
        <ele>386</ele>
        <time>2022-02-14T12:43:33.96Z</time>
      </trkpt>
      <trkpt lat="45.51394" lon="3.32285">
        <ele>386.25</ele>
        <time>2022-02-14T12:43:35.51Z</time>
      </trkpt>
      <trkpt lat="45.51391" lon="3.32302">
        <ele>386.25</ele>
        <time>2022-02-14T12:43:37.95Z</time>
      </trkpt>
      <trkpt lat="45.51389" lon="3.32316">
        <ele>386.5</ele>
        <time>2022-02-14T12:43:39.95Z</time>
      </trkpt>
      <trkpt lat="45.51389" lon="3.3233">
        <ele>386.75</ele>
        <time>2022-02-14T12:43:42Z</time>
      </trkpt>
      <trkpt lat="45.51389" lon="3.32341">
        <ele>386.75</ele>
        <time>2022-02-14T12:43:43.58Z</time>
      </trkpt>
      <trkpt lat="45.51391" lon="3.32357">
        <ele>386.5</ele>
        <time>2022-02-14T12:43:45.84Z</time>
      </trkpt>
      <trkpt lat="45.51398" lon="3.32386">
        <ele>386.25</ele>
        <time>2022-02-14T12:43:50.06Z</time>
      </trkpt>
      <trkpt lat="45.51404" lon="3.32405">
        <ele>386</ele>
        <time>2022-02-14T12:43:52.98Z</time>
      </trkpt>
      <trkpt lat="45.51428" lon="3.32468">
        <ele>385.5</ele>
        <time>2022-02-14T12:44:03.02Z</time>
      </trkpt>
      <trkpt lat="45.51433" lon="3.32478">
        <ele>385.25</ele>
        <time>2022-02-14T12:44:04.79Z</time>
      </trkpt>
      <trkpt lat="45.5144" lon="3.3249">
        <ele>385.25</ele>
        <time>2022-02-14T12:44:07.03Z</time>
      </trkpt>
      <trkpt lat="45.5145" lon="3.32504">
        <ele>385.25</ele>
        <time>2022-02-14T12:44:09.70Z</time>
      </trkpt>
      <trkpt lat="45.51474" lon="3.32531">
        <ele>385.75</ele>
        <time>2022-02-14T12:44:15.79Z</time>
      </trkpt>
      <trkpt lat="45.51552" lon="3.32605">
        <ele>386.75</ele>
        <time>2022-02-14T12:44:34.63Z</time>
      </trkpt>
      <trkpt lat="45.51565" lon="3.32621">
        <ele>387</ele>
        <time>2022-02-14T12:44:38.06Z</time>
      </trkpt>
      <trkpt lat="45.51571" lon="3.32635">
        <ele>387.25</ele>
        <time>2022-02-14T12:44:40.37Z</time>
      </trkpt>
      <trkpt lat="45.51576" lon="3.32648">
        <ele>387.5</ele>
        <time>2022-02-14T12:44:42.46Z</time>
      </trkpt>
      <trkpt lat="45.51582" lon="3.32669">
        <ele>387.75</ele>
        <time>2022-02-14T12:44:45.53Z</time>
      </trkpt>
      <trkpt lat="45.51584" lon="3.32677">
        <ele>387.75</ele>
        <time>2022-02-14T12:44:46.81Z</time>
      </trkpt>
      <trkpt lat="45.51588" lon="3.32695">
        <ele>388.25</ele>
        <time>2022-02-14T12:44:49.42Z</time>
      </trkpt>
      <trkpt lat="45.51592" lon="3.3272">
        <ele>388.5</ele>
        <time>2022-02-14T12:44:53.08Z</time>
      </trkpt>
      <trkpt lat="45.51598" lon="3.3271">
        <ele>388.25</ele>
        <time>2022-02-14T12:44:54.95Z</time>
      </trkpt>
      <trkpt lat="45.5161" lon="3.32692">
        <ele>388</ele>
        <time>2022-02-14T12:44:58.49Z</time>
      </trkpt>
      <trkpt lat="45.51662" lon="3.32588">
        <ele>386</ele>
        <time>2022-02-14T12:45:16.42Z</time>
      </trkpt>
      <trkpt lat="45.51728" lon="3.3246">
        <ele>385</ele>
        <time>2022-02-14T12:45:38.63Z</time>
      </trkpt>
      <trkpt lat="45.51747" lon="3.32434">
        <ele>385</ele>
        <time>2022-02-14T12:45:43.90Z</time>
      </trkpt>
      <trkpt lat="45.51772" lon="3.32412">
        <ele>384.5</ele>
        <time>2022-02-14T12:45:49.84Z</time>
      </trkpt>
      <trkpt lat="45.51801" lon="3.32391">
        <ele>384</ele>
        <time>2022-02-14T12:45:56.29Z</time>
      </trkpt>
      <trkpt lat="45.51836" lon="3.32388">
        <ele>383.5</ele>
        <time>2022-02-14T12:46:03.30Z</time>
      </trkpt>
      <trkpt lat="45.51868" lon="3.32386">
        <ele>383.5</ele>
        <time>2022-02-14T12:46:09.65Z</time>
      </trkpt>
      <trkpt lat="45.51886" lon="3.32383">
        <ele>383.5</ele>
        <time>2022-02-14T12:46:13.29Z</time>
      </trkpt>
      <trkpt lat="45.51907" lon="3.32372">
        <ele>383.25</ele>
        <time>2022-02-14T12:46:17.87Z</time>
      </trkpt>
      <trkpt lat="45.51927" lon="3.32356">
        <ele>383.25</ele>
        <time>2022-02-14T12:46:22.37Z</time>
      </trkpt>
      <trkpt lat="45.51981" lon="3.32299">
        <ele>383</ele>
        <time>2022-02-14T12:46:35.87Z</time>
      </trkpt>
      <trkpt lat="45.52003" lon="3.3228">
        <ele>383</ele>
        <time>2022-02-14T12:46:40.92Z</time>
      </trkpt>
      <trkpt lat="45.52024" lon="3.32266">
        <ele>383</ele>
        <time>2022-02-14T12:46:45.52Z</time>
      </trkpt>
      <trkpt lat="45.52086" lon="3.32232">
        <ele>382.5</ele>
        <time>2022-02-14T12:46:58.97Z</time>
      </trkpt>
      <trkpt lat="45.52099" lon="3.32225">
        <ele>382.25</ele>
        <time>2022-02-14T12:47:01.66Z</time>
      </trkpt>
      <trkpt lat="45.52112" lon="3.32212">
        <ele>382</ele>
        <time>2022-02-14T12:47:04.78Z</time>
      </trkpt>
      <trkpt lat="45.52124" lon="3.32189">
        <ele>381.5</ele>
        <time>2022-02-14T12:47:08.83Z</time>
      </trkpt>
      <trkpt lat="45.52135" lon="3.3216">
        <ele>381</ele>
        <time>2022-02-14T12:47:13.40Z</time>
      </trkpt>
      <trkpt lat="45.52167" lon="3.32074">
        <ele>380.75</ele>
        <time>2022-02-14T12:47:27.09Z</time>
      </trkpt>
      <trkpt lat="45.52185" lon="3.32011">
        <ele>380.25</ele>
        <time>2022-02-14T12:47:36.56Z</time>
      </trkpt>
      <trkpt lat="45.52193" lon="3.31987">
        <ele>380.25</ele>
        <time>2022-02-14T12:47:40.31Z</time>
      </trkpt>
      <trkpt lat="45.52253" lon="3.31868">
        <ele>380.25</ele>
        <time>2022-02-14T12:48:00.86Z</time>
      </trkpt>
      <trkpt lat="45.52287" lon="3.31808">
        <ele>379.25</ele>
        <time>2022-02-14T12:48:11.64Z</time>
      </trkpt>
      <trkpt lat="45.5236" lon="3.31702">
        <ele>378.25</ele>
        <time>2022-02-14T12:48:32.50Z</time>
      </trkpt>
      <trkpt lat="45.52377" lon="3.31683">
        <ele>378</ele>
        <time>2022-02-14T12:48:36.85Z</time>
      </trkpt>
      <trkpt lat="45.52392" lon="3.31672">
        <ele>378</ele>
        <time>2022-02-14T12:48:40.26Z</time>
      </trkpt>
      <trkpt lat="45.52434" lon="3.31652">
        <ele>378.5</ele>
        <time>2022-02-14T12:48:49Z</time>
      </trkpt>
      <trkpt lat="45.52447" lon="3.31642">
        <ele>378.75</ele>
        <time>2022-02-14T12:48:51.94Z</time>
      </trkpt>
      <trkpt lat="45.52524" lon="3.31577">
        <ele>378.75</ele>
        <time>2022-02-14T12:49:09.84Z</time>
      </trkpt>
      <trkpt lat="45.52557" lon="3.31547">
        <ele>378.5</ele>
        <time>2022-02-14T12:49:17.75Z</time>
      </trkpt>
      <trkpt lat="45.52561" lon="3.31542">
        <ele>378.5</ele>
        <time>2022-02-14T12:49:18.76Z</time>
      </trkpt>
      <trkpt lat="45.52582" lon="3.31511">
        <ele>378</ele>
        <time>2022-02-14T12:49:24.87Z</time>
      </trkpt>
      <trkpt lat="45.52662" lon="3.31381">
        <ele>377.5</ele>
        <time>2022-02-14T12:49:48.99Z</time>
      </trkpt>
      <trkpt lat="45.52677" lon="3.31351">
        <ele>377.25</ele>
        <time>2022-02-14T12:49:54.20Z</time>
      </trkpt>
      <trkpt lat="45.52685" lon="3.31333">
        <ele>377</ele>
        <time>2022-02-14T12:49:57.20Z</time>
      </trkpt>
      <trkpt lat="45.52715" lon="3.31249">
        <ele>377.25</ele>
        <time>2022-02-14T12:50:10.38Z</time>
      </trkpt>
      <trkpt lat="45.52729" lon="3.31219">
        <ele>377</ele>
        <time>2022-02-14T12:50:15.49Z</time>
      </trkpt>
      <trkpt lat="45.52764" lon="3.31166">
        <ele>376</ele>
        <time>2022-02-14T12:50:25.67Z</time>
      </trkpt>
      <trkpt lat="45.5278" lon="3.3115">
        <ele>376.25</ele>
        <time>2022-02-14T12:50:29.60Z</time>
      </trkpt>
      <trkpt lat="45.52788" lon="3.31146">
        <ele>376.5</ele>
        <time>2022-02-14T12:50:31.16Z</time>
      </trkpt>
      <trkpt lat="45.52797" lon="3.31142">
        <ele>376.75</ele>
        <time>2022-02-14T12:50:33.07Z</time>
      </trkpt>
      <trkpt lat="45.5282" lon="3.31133">
        <ele>377</ele>
        <time>2022-02-14T12:50:38Z</time>
      </trkpt>
      <trkpt lat="45.52853" lon="3.31112">
        <ele>377.75</ele>
        <time>2022-02-14T12:50:45.18Z</time>
      </trkpt>
      <trkpt lat="45.52884" lon="3.31091">
        <ele>378.25</ele>
        <time>2022-02-14T12:50:51.93Z</time>
      </trkpt>
      <trkpt lat="45.52903" lon="3.31074">
        <ele>378</ele>
        <time>2022-02-14T12:50:56.43Z</time>
      </trkpt>
      <trkpt lat="45.5291" lon="3.3106">
        <ele>378</ele>
        <time>2022-02-14T12:50:58.79Z</time>
      </trkpt>
      <trkpt lat="45.52914" lon="3.31041">
        <ele>378</ele>
        <time>2022-02-14T12:51:01.58Z</time>
      </trkpt>
      <trkpt lat="45.52916" lon="3.31024">
        <ele>378</ele>
        <time>2022-02-14T12:51:04.10Z</time>
      </trkpt>
      <trkpt lat="45.52919" lon="3.31002">
        <ele>378</ele>
        <time>2022-02-14T12:51:07.23Z</time>
      </trkpt>
      <trkpt lat="45.52926" lon="3.30981">
        <ele>377.75</ele>
        <time>2022-02-14T12:51:10.47Z</time>
      </trkpt>
      <trkpt lat="45.52938" lon="3.30963">
        <ele>377.5</ele>
        <time>2022-02-14T12:51:14.02Z</time>
      </trkpt>
      <trkpt lat="45.53058" lon="3.30844">
        <ele>377.25</ele>
        <time>2022-02-14T12:51:43.15Z</time>
      </trkpt>
      <trkpt lat="45.53131" lon="3.30773">
        <ele>377.25</ele>
        <time>2022-02-14T12:52:00.88Z</time>
      </trkpt>
      <trkpt lat="45.53135" lon="3.30771">
        <ele>377.25</ele>
        <time>2022-02-14T12:52:01.78Z</time>
      </trkpt>
      <trkpt lat="45.53138" lon="3.3077">
        <ele>377.25</ele>
        <time>2022-02-14T12:52:02.28Z</time>
      </trkpt>
      <trkpt lat="45.53142" lon="3.3077">
        <ele>377.5</ele>
        <time>2022-02-14T12:52:03.01Z</time>
      </trkpt>
      <trkpt lat="45.53243" lon="3.30745">
        <ele>377</ele>
        <time>2022-02-14T12:52:23.64Z</time>
      </trkpt>
      <trkpt lat="45.53332" lon="3.3072">
        <ele>378.5</ele>
        <time>2022-02-14T12:52:41.66Z</time>
      </trkpt>
      <trkpt lat="45.53343" lon="3.30718">
        <ele>378.5</ele>
        <time>2022-02-14T12:52:43.99Z</time>
      </trkpt>
      <trkpt lat="45.53398" lon="3.30719">
        <ele>378</ele>
        <time>2022-02-14T12:52:54.87Z</time>
      </trkpt>
      <trkpt lat="45.53413" lon="3.30722">
        <ele>378</ele>
        <time>2022-02-14T12:52:57.89Z</time>
      </trkpt>
      <trkpt lat="45.53427" lon="3.30728">
        <ele>377.75</ele>
        <time>2022-02-14T12:53:00.95Z</time>
      </trkpt>
      <trkpt lat="45.53629" lon="3.30829">
        <ele>376</ele>
        <time>2022-02-14T12:53:43.74Z</time>
      </trkpt>
      <trkpt lat="45.53655" lon="3.3084">
        <ele>376</ele>
        <time>2022-02-14T12:53:49.16Z</time>
      </trkpt>
      <trkpt lat="45.53704" lon="3.30857">
        <ele>376.75</ele>
        <time>2022-02-14T12:53:59.25Z</time>
      </trkpt>
      <trkpt lat="45.53752" lon="3.30872">
        <ele>377.5</ele>
        <time>2022-02-14T12:54:08.99Z</time>
      </trkpt>
      <trkpt lat="45.53784" lon="3.3088">
        <ele>377.25</ele>
        <time>2022-02-14T12:54:15.47Z</time>
      </trkpt>
      <trkpt lat="45.54014" lon="3.3093">
        <ele>377.75</ele>
        <time>2022-02-14T12:55:02.03Z</time>
      </trkpt>
      <trkpt lat="45.54039" lon="3.30937">
        <ele>378</ele>
        <time>2022-02-14T12:55:07.18Z</time>
      </trkpt>
      <trkpt lat="45.54094" lon="3.30948">
        <ele>378</ele>
        <time>2022-02-14T12:55:18.26Z</time>
      </trkpt>
      <trkpt lat="45.54147" lon="3.30957">
        <ele>378.25</ele>
        <time>2022-02-14T12:55:28.98Z</time>
      </trkpt>
      <trkpt lat="45.54182" lon="3.30969">
        <ele>378.5</ele>
        <time>2022-02-14T12:55:36.13Z</time>
      </trkpt>
      <trkpt lat="45.54211" lon="3.30971">
        <ele>378.25</ele>
        <time>2022-02-14T12:55:41.89Z</time>
      </trkpt>
      <trkpt lat="45.54225" lon="3.30973">
        <ele>378.25</ele>
        <time>2022-02-14T12:55:44.77Z</time>
      </trkpt>
      <trkpt lat="45.54241" lon="3.30982">
        <ele>378.5</ele>
        <time>2022-02-14T12:55:48.18Z</time>
      </trkpt>
      <trkpt lat="45.54245" lon="3.30985">
        <ele>378.5</ele>
        <time>2022-02-14T12:55:49.10Z</time>
      </trkpt>
      <trkpt lat="45.54266" lon="3.31003">
        <ele>378</ele>
        <time>2022-02-14T12:55:53.91Z</time>
      </trkpt>
      <trkpt lat="45.54276" lon="3.31021">
        <ele>377.5</ele>
        <time>2022-02-14T12:55:57.17Z</time>
      </trkpt>
      <trkpt lat="45.54283" lon="3.31047">
        <ele>377.5</ele>
        <time>2022-02-14T12:56:01.13Z</time>
      </trkpt>
      <trkpt lat="45.54299" lon="3.31128">
        <ele>377.75</ele>
        <time>2022-02-14T12:56:12.94Z</time>
      </trkpt>
      <trkpt lat="45.54305" lon="3.31141">
        <ele>378</ele>
        <time>2022-02-14T12:56:15.06Z</time>
      </trkpt>
      <trkpt lat="45.54316" lon="3.31152">
        <ele>378</ele>
        <time>2022-02-14T12:56:17.74Z</time>
      </trkpt>
      <trkpt lat="45.54331" lon="3.31158">
        <ele>377.75</ele>
        <time>2022-02-14T12:56:20.95Z</time>
      </trkpt>
      <trkpt lat="45.54345" lon="3.31155">
        <ele>377.75</ele>
        <time>2022-02-14T12:56:23.68Z</time>
      </trkpt>
      <trkpt lat="45.54377" lon="3.31137">
        <ele>377.75</ele>
        <time>2022-02-14T12:56:30.64Z</time>
      </trkpt>
      <trkpt lat="45.54392" lon="3.31132">
        <ele>377.75</ele>
        <time>2022-02-14T12:56:33.56Z</time>
      </trkpt>
      <trkpt lat="45.54416" lon="3.31135">
        <ele>377.75</ele>
        <time>2022-02-14T12:56:38.44Z</time>
      </trkpt>
      <trkpt lat="45.54438" lon="3.31144">
        <ele>377.5</ele>
        <time>2022-02-14T12:56:43.12Z</time>
      </trkpt>
      <trkpt lat="45.54501" lon="3.31178">
        <ele>377.25</ele>
        <time>2022-02-14T12:56:56.53Z</time>
      </trkpt>
      <trkpt lat="45.54517" lon="3.31188">
        <ele>377.25</ele>
        <time>2022-02-14T12:56:59.97Z</time>
      </trkpt>
      <trkpt lat="45.54616" lon="3.31274">
        <ele>377.75</ele>
        <time>2022-02-14T12:57:23.19Z</time>
      </trkpt>
      <trkpt lat="45.54632" lon="3.31285">
        <ele>377.5</ele>
        <time>2022-02-14T12:57:26.70Z</time>
      </trkpt>
      <trkpt lat="45.54646" lon="3.31293">
        <ele>377.5</ele>
        <time>2022-02-14T12:57:29.80Z</time>
      </trkpt>
      <trkpt lat="45.54661" lon="3.31299">
        <ele>377.25</ele>
        <time>2022-02-14T12:57:32.83Z</time>
      </trkpt>
      <trkpt lat="45.54668" lon="3.313">
        <ele>377</ele>
        <time>2022-02-14T12:57:34.28Z</time>
      </trkpt>
      <trkpt lat="45.54679" lon="3.31301">
        <ele>377.25</ele>
        <time>2022-02-14T12:57:36.41Z</time>
      </trkpt>
      <trkpt lat="45.54693" lon="3.31301">
        <ele>377.25</ele>
        <time>2022-02-14T12:57:39.27Z</time>
      </trkpt>
      <trkpt lat="45.54712" lon="3.31297">
        <ele>377.25</ele>
        <time>2022-02-14T12:57:43.03Z</time>
      </trkpt>
      <trkpt lat="45.54866" lon="3.31264">
        <ele>378</ele>
        <time>2022-02-14T12:58:14.28Z</time>
      </trkpt>
      <trkpt lat="45.54903" lon="3.31254">
        <ele>378</ele>
        <time>2022-02-14T12:58:21.87Z</time>
      </trkpt>
      <trkpt lat="45.54932" lon="3.31243">
        <ele>377.75</ele>
        <time>2022-02-14T12:58:27.86Z</time>
      </trkpt>
      <trkpt lat="45.54973" lon="3.31224">
        <ele>377.75</ele>
        <time>2022-02-14T12:58:36.48Z</time>
      </trkpt>
      <trkpt lat="45.54988" lon="3.31213">
        <ele>377.5</ele>
        <time>2022-02-14T12:58:39.85Z</time>
      </trkpt>
      <trkpt lat="45.55001" lon="3.312">
        <ele>377.25</ele>
        <time>2022-02-14T12:58:42.85Z</time>
      </trkpt>
      <trkpt lat="45.55034" lon="3.31155">
        <ele>377.25</ele>
        <time>2022-02-14T12:58:52.03Z</time>
      </trkpt>
      <trkpt lat="45.55044" lon="3.31146">
        <ele>377.5</ele>
        <time>2022-02-14T12:58:54.37Z</time>
      </trkpt>
      <trkpt lat="45.55056" lon="3.31137">
        <ele>377.75</ele>
        <time>2022-02-14T12:58:57.17Z</time>
      </trkpt>
      <trkpt lat="45.55078" lon="3.3113">
        <ele>378.25</ele>
        <time>2022-02-14T12:59:01.59Z</time>
      </trkpt>
      <trkpt lat="45.55095" lon="3.31127">
        <ele>378.25</ele>
        <time>2022-02-14T12:59:04.99Z</time>
      </trkpt>
      <trkpt lat="45.55113" lon="3.31128">
        <ele>378</ele>
        <time>2022-02-14T12:59:08.70Z</time>
      </trkpt>
      <trkpt lat="45.55131" lon="3.31131">
        <ele>377.75</ele>
        <time>2022-02-14T12:59:12.36Z</time>
      </trkpt>
      <trkpt lat="45.55142" lon="3.3113">
        <ele>377.5</ele>
        <time>2022-02-14T12:59:14.57Z</time>
      </trkpt>
      <trkpt lat="45.55151" lon="3.31125">
        <ele>377.5</ele>
        <time>2022-02-14T12:59:16.41Z</time>
      </trkpt>
      <trkpt lat="45.55155" lon="3.31117">
        <ele>377.5</ele>
        <time>2022-02-14T12:59:17.73Z</time>
      </trkpt>
      <trkpt lat="45.55165" lon="3.31097">
        <ele>377.75</ele>
        <time>2022-02-14T12:59:21.24Z</time>
      </trkpt>
      <trkpt lat="45.55192" lon="3.31045">
        <ele>379.75</ele>
        <time>2022-02-14T12:59:30.29Z</time>
      </trkpt>
      <trkpt lat="45.55215" lon="3.31">
        <ele>381.5</ele>
        <time>2022-02-14T12:59:38.03Z</time>
      </trkpt>
      <trkpt lat="45.55221" lon="3.30988">
        <ele>381.75</ele>
        <time>2022-02-14T12:59:40.22Z</time>
      </trkpt>
      <trkpt lat="45.55248" lon="3.30946">
        <ele>383.25</ele>
        <time>2022-02-14T12:59:48.13Z</time>
      </trkpt>
      <trkpt lat="45.55252" lon="3.30942">
        <ele>383.25</ele>
        <time>2022-02-14T12:59:49.11Z</time>
      </trkpt>
      <trkpt lat="45.55249" lon="3.30922">
        <ele>383.75</ele>
        <time>2022-02-14T12:59:51.94Z</time>
      </trkpt>
      <trkpt lat="45.55249" lon="3.30919">
        <ele>383.75</ele>
        <time>2022-02-14T12:59:52.45Z</time>
      </trkpt>
      <trkpt lat="45.55249" lon="3.30908">
        <ele>383.75</ele>
        <time>2022-02-14T12:59:53.90Z</time>
      </trkpt>
      <trkpt lat="45.55249" lon="3.30892">
        <ele>383.75</ele>
        <time>2022-02-14T12:59:56.19Z</time>
      </trkpt>
      <trkpt lat="45.55249" lon="3.30866">
        <ele>383.75</ele>
        <time>2022-02-14T12:59:59.82Z</time>
      </trkpt>
      <trkpt lat="45.55249" lon="3.30831">
        <ele>384</ele>
        <time>2022-02-14T13:00:04.68Z</time>
      </trkpt>
      <trkpt lat="45.55252" lon="3.30795">
        <ele>384.25</ele>
        <time>2022-02-14T13:00:09.85Z</time>
      </trkpt>
      <trkpt lat="45.55265" lon="3.30662">
        <ele>387.25</ele>
        <time>2022-02-14T13:00:28.63Z</time>
      </trkpt>
      <trkpt lat="45.55273" lon="3.30628">
        <ele>388</ele>
        <time>2022-02-14T13:00:33.62Z</time>
      </trkpt>
      <trkpt lat="45.55282" lon="3.30595">
        <ele>388.75</ele>
        <time>2022-02-14T13:00:38.61Z</time>
      </trkpt>
      <trkpt lat="45.55291" lon="3.30549">
        <ele>389.5</ele>
        <time>2022-02-14T13:00:45.29Z</time>
      </trkpt>
      <trkpt lat="45.55297" lon="3.30509">
        <ele>390.25</ele>
        <time>2022-02-14T13:00:51.08Z</time>
      </trkpt>
      <trkpt lat="45.55316" lon="3.30351">
        <ele>393.5</ele>
        <time>2022-02-14T13:01:13.47Z</time>
      </trkpt>
      <trkpt lat="45.55321" lon="3.30314">
        <ele>394.25</ele>
        <time>2022-02-14T13:01:18.75Z</time>
      </trkpt>
      <trkpt lat="45.55327" lon="3.30287">
        <ele>394.75</ele>
        <time>2022-02-14T13:01:22.69Z</time>
      </trkpt>
      <trkpt lat="45.55328" lon="3.30281">
        <ele>395</ele>
        <time>2022-02-14T13:01:23.49Z</time>
      </trkpt>
      <trkpt lat="45.55337" lon="3.30261">
        <ele>395.75</ele>
        <time>2022-02-14T13:01:26.92Z</time>
      </trkpt>
      <trkpt lat="45.55351" lon="3.30238">
        <ele>396.5</ele>
        <time>2022-02-14T13:01:31.22Z</time>
      </trkpt>
      <trkpt lat="45.55386" lon="3.30188">
        <ele>398</ele>
        <time>2022-02-14T13:01:41.11Z</time>
      </trkpt>
      <trkpt lat="45.55551" lon="3.2995">
        <ele>405.5</ele>
        <time>2022-02-14T13:02:27.91Z</time>
      </trkpt>
      <trkpt lat="45.55589" lon="3.29897">
        <ele>407.5</ele>
        <time>2022-02-14T13:02:38.61Z</time>
      </trkpt>
      <trkpt lat="45.55593" lon="3.29891">
        <ele>407.75</ele>
        <time>2022-02-14T13:02:39.84Z</time>
      </trkpt>
      <trkpt lat="45.55616" lon="3.29857">
        <ele>408.75</ele>
        <time>2022-02-14T13:02:46.39Z</time>
      </trkpt>
      <trkpt lat="45.55639" lon="3.29815">
        <ele>410</ele>
        <time>2022-02-14T13:02:53.90Z</time>
      </trkpt>
      <trkpt lat="45.55658" lon="3.29773">
        <ele>411.25</ele>
        <time>2022-02-14T13:03:00.85Z</time>
      </trkpt>
      <trkpt lat="45.55682" lon="3.29711">
        <ele>413.75</ele>
        <time>2022-02-14T13:03:10.70Z</time>
      </trkpt>
      <trkpt lat="45.55712" lon="3.2963">
        <ele>418.25</ele>
        <time>2022-02-14T13:03:23.59Z</time>
      </trkpt>
      <trkpt lat="45.55715" lon="3.29622">
        <ele>418.75</ele>
        <time>2022-02-14T13:03:24.85Z</time>
      </trkpt>
      <trkpt lat="45.55728" lon="3.29597">
        <ele>420.25</ele>
        <time>2022-02-14T13:03:29.16Z</time>
      </trkpt>
      <trkpt lat="45.5576" lon="3.29552">
        <ele>422.25</ele>
        <time>2022-02-14T13:03:38.15Z</time>
      </trkpt>
      <trkpt lat="45.55766" lon="3.29542">
        <ele>422.5</ele>
        <time>2022-02-14T13:03:40.02Z</time>
      </trkpt>
      <trkpt lat="45.55774" lon="3.29525">
        <ele>423.25</ele>
        <time>2022-02-14T13:03:42.95Z</time>
      </trkpt>
      <trkpt lat="45.5579" lon="3.29478">
        <ele>425.75</ele>
        <time>2022-02-14T13:03:50.29Z</time>
      </trkpt>
      <trkpt lat="45.55826" lon="3.29356">
        <ele>432</ele>
        <time>2022-02-14T13:04:08.78Z</time>
      </trkpt>
      <trkpt lat="45.55838" lon="3.29307">
        <ele>434</ele>
        <time>2022-02-14T13:04:16.09Z</time>
      </trkpt>
      <trkpt lat="45.55856" lon="3.29235">
        <ele>436.75</ele>
        <time>2022-02-14T13:04:26.68Z</time>
      </trkpt>
      <trkpt lat="45.55865" lon="3.29204">
        <ele>437.75</ele>
        <time>2022-02-14T13:04:31.47Z</time>
      </trkpt>
      <trkpt lat="45.55868" lon="3.29194">
        <ele>438</ele>
        <time>2022-02-14T13:04:33Z</time>
      </trkpt>
      <trkpt lat="45.55896" lon="3.29117">
        <ele>439</ele>
        <time>2022-02-14T13:04:45.05Z</time>
      </trkpt>
      <trkpt lat="45.55927" lon="3.29039">
        <ele>440.75</ele>
        <time>2022-02-14T13:04:57.68Z</time>
      </trkpt>
      <trkpt lat="45.55941" lon="3.29011">
        <ele>441.75</ele>
        <time>2022-02-14T13:05:02.55Z</time>
      </trkpt>
      <trkpt lat="45.55955" lon="3.28998">
        <ele>442</ele>
        <time>2022-02-14T13:05:05.83Z</time>
      </trkpt>
      <trkpt lat="45.5597" lon="3.28992">
        <ele>442</ele>
        <time>2022-02-14T13:05:09.09Z</time>
      </trkpt>
      <trkpt lat="45.56078" lon="3.28981">
        <ele>442.5</ele>
        <time>2022-02-14T13:05:30.64Z</time>
      </trkpt>
      <trkpt lat="45.56109" lon="3.28977">
        <ele>443.75</ele>
        <time>2022-02-14T13:05:36.91Z</time>
      </trkpt>
      <trkpt lat="45.56117" lon="3.28972">
        <ele>444</ele>
        <time>2022-02-14T13:05:38.65Z</time>
      </trkpt>
      <trkpt lat="45.56119" lon="3.2897">
        <ele>444.25</ele>
        <time>2022-02-14T13:05:39.09Z</time>
      </trkpt>
      <trkpt lat="45.56121" lon="3.28968">
        <ele>444.5</ele>
        <time>2022-02-14T13:05:39.65Z</time>
      </trkpt>
      <trkpt lat="45.56092" lon="3.28884">
        <ele>445.5</ele>
        <time>2022-02-14T13:05:52.78Z</time>
      </trkpt>
      <trkpt lat="45.56088" lon="3.28866">
        <ele>445.5</ele>
        <time>2022-02-14T13:05:55.41Z</time>
      </trkpt>
      <trkpt lat="45.56086" lon="3.28852">
        <ele>445.75</ele>
        <time>2022-02-14T13:05:57.41Z</time>
      </trkpt>
      <trkpt lat="45.5608" lon="3.28803">
        <ele>445.5</ele>
        <time>2022-02-14T13:06:04.42Z</time>
      </trkpt>
      <trkpt lat="45.56074" lon="3.28747">
        <ele>444.5</ele>
        <time>2022-02-14T13:06:12.32Z</time>
      </trkpt>
      <trkpt lat="45.56072" lon="3.28724">
        <ele>442.5</ele>
        <time>2022-02-14T13:06:15.62Z</time>
      </trkpt>
      <trkpt lat="45.56074" lon="3.28709">
        <ele>441.5</ele>
        <time>2022-02-14T13:06:17.74Z</time>
      </trkpt>
      <trkpt lat="45.56077" lon="3.28702">
        <ele>440.75</ele>
        <time>2022-02-14T13:06:18.90Z</time>
      </trkpt>
      <trkpt lat="45.56083" lon="3.28687">
        <ele>439.5</ele>
        <time>2022-02-14T13:06:21.25Z</time>
      </trkpt>
      <trkpt lat="45.56095" lon="3.28663">
        <ele>438.5</ele>
        <time>2022-02-14T13:06:25.43Z</time>
      </trkpt>
      <trkpt lat="45.56137" lon="3.28602">
        <ele>433.25</ele>
        <time>2022-02-14T13:06:37.34Z</time>
      </trkpt>
      <trkpt lat="45.56152" lon="3.28585">
        <ele>431.25</ele>
        <time>2022-02-14T13:06:41.23Z</time>
      </trkpt>
      <trkpt lat="45.56168" lon="3.28573">
        <ele>429.5</ele>
        <time>2022-02-14T13:06:44.81Z</time>
      </trkpt>
      <trkpt lat="45.56185" lon="3.28563">
        <ele>427.5</ele>
        <time>2022-02-14T13:06:48.59Z</time>
      </trkpt>
      <trkpt lat="45.56203" lon="3.28557">
        <ele>426.25</ele>
        <time>2022-02-14T13:06:52.13Z</time>
      </trkpt>
      <trkpt lat="45.56213" lon="3.28555">
        <ele>426</ele>
        <time>2022-02-14T13:06:54.22Z</time>
      </trkpt>
      <trkpt lat="45.56225" lon="3.28556">
        <ele>425.75</ele>
        <time>2022-02-14T13:06:56.64Z</time>
      </trkpt>
      <trkpt lat="45.56294" lon="3.28568">
        <ele>425.5</ele>
        <time>2022-02-14T13:07:10.51Z</time>
      </trkpt>
      <trkpt lat="45.56307" lon="3.28568">
        <ele>425</ele>
        <time>2022-02-14T13:07:13.05Z</time>
      </trkpt>
      <trkpt lat="45.56312" lon="3.28566">
        <ele>424.5</ele>
        <time>2022-02-14T13:07:14.24Z</time>
      </trkpt>
      <trkpt lat="45.56322" lon="3.28558">
        <ele>423.5</ele>
        <time>2022-02-14T13:07:16.54Z</time>
      </trkpt>
      <trkpt lat="45.56326" lon="3.28551">
        <ele>422.5</ele>
        <time>2022-02-14T13:07:17.73Z</time>
      </trkpt>
      <trkpt lat="45.56329" lon="3.28545">
        <ele>421.75</ele>
        <time>2022-02-14T13:07:18.80Z</time>
      </trkpt>
      <trkpt lat="45.5633" lon="3.28537">
        <ele>421</ele>
        <time>2022-02-14T13:07:19.88Z</time>
      </trkpt>
      <trkpt lat="45.56331" lon="3.28529">
        <ele>420</ele>
        <time>2022-02-14T13:07:21.08Z</time>
      </trkpt>
      <trkpt lat="45.5633" lon="3.2852">
        <ele>419.25</ele>
        <time>2022-02-14T13:07:22.26Z</time>
      </trkpt>
      <trkpt lat="45.56327" lon="3.28512">
        <ele>418.25</ele>
        <time>2022-02-14T13:07:23.55Z</time>
      </trkpt>
      <trkpt lat="45.56322" lon="3.28506">
        <ele>417.75</ele>
        <time>2022-02-14T13:07:24.78Z</time>
      </trkpt>
      <trkpt lat="45.56278" lon="3.28476">
        <ele>415.5</ele>
        <time>2022-02-14T13:07:34.50Z</time>
      </trkpt>
      <trkpt lat="45.56258" lon="3.28459">
        <ele>413.5</ele>
        <time>2022-02-14T13:07:39.27Z</time>
      </trkpt>
      <trkpt lat="45.56236" lon="3.28438">
        <ele>411.5</ele>
        <time>2022-02-14T13:07:44.55Z</time>
      </trkpt>
      <trkpt lat="45.56213" lon="3.28414">
        <ele>410</ele>
        <time>2022-02-14T13:07:50.15Z</time>
      </trkpt>
      <trkpt lat="45.56191" lon="3.28385">
        <ele>409.25</ele>
        <time>2022-02-14T13:07:56.22Z</time>
      </trkpt>
      <trkpt lat="45.56184" lon="3.28374">
        <ele>408.5</ele>
        <time>2022-02-14T13:07:58.30Z</time>
      </trkpt>
      <trkpt lat="45.56177" lon="3.28361">
        <ele>407.75</ele>
        <time>2022-02-14T13:08:00.57Z</time>
      </trkpt>
      <trkpt lat="45.56173" lon="3.2835">
        <ele>407</ele>
        <time>2022-02-14T13:08:02.25Z</time>
      </trkpt>
      <trkpt lat="45.5617" lon="3.28343">
        <ele>406.5</ele>
        <time>2022-02-14T13:08:03.53Z</time>
      </trkpt>
      <trkpt lat="45.56166" lon="3.28325">
        <ele>405.5</ele>
        <time>2022-02-14T13:08:06.15Z</time>
      </trkpt>
      <trkpt lat="45.56163" lon="3.28306">
        <ele>404.5</ele>
        <time>2022-02-14T13:08:08.84Z</time>
      </trkpt>
      <trkpt lat="45.56158" lon="3.28238">
        <ele>401.25</ele>
        <time>2022-02-14T13:08:18.44Z</time>
      </trkpt>
      <trkpt lat="45.56156" lon="3.28217">
        <ele>400.75</ele>
        <time>2022-02-14T13:08:21.36Z</time>
      </trkpt>
      <trkpt lat="45.5615" lon="3.2816">
        <ele>399</ele>
        <time>2022-02-14T13:08:29.35Z</time>
      </trkpt>
      <trkpt lat="45.56138" lon="3.2804">
        <ele>393.5</ele>
        <time>2022-02-14T13:08:46.34Z</time>
      </trkpt>
      <trkpt lat="45.56136" lon="3.28026">
        <ele>392.25</ele>
        <time>2022-02-14T13:08:48.35Z</time>
      </trkpt>
      <trkpt lat="45.56127" lon="3.27945">
        <ele>386.5</ele>
        <time>2022-02-14T13:08:59.93Z</time>
      </trkpt>
      <trkpt lat="45.56115" lon="3.27838">
        <ele>378.25</ele>
        <time>2022-02-14T13:09:15.01Z</time>
      </trkpt>
      <trkpt lat="45.56112" lon="3.27809">
        <ele>377</ele>
        <time>2022-02-14T13:09:19.15Z</time>
      </trkpt>
      <trkpt lat="45.56095" lon="3.27658">
        <ele>371.25</ele>
        <time>2022-02-14T13:09:40.62Z</time>
      </trkpt>
      <trkpt lat="45.56091" lon="3.2763">
        <ele>370.25</ele>
        <time>2022-02-14T13:09:44.63Z</time>
      </trkpt>
      <trkpt lat="45.56087" lon="3.27619">
        <ele>369.75</ele>
        <time>2022-02-14T13:09:46.27Z</time>
      </trkpt>
      <trkpt lat="45.56084" lon="3.27612">
        <ele>368.75</ele>
        <time>2022-02-14T13:09:47.56Z</time>
      </trkpt>
      <trkpt lat="45.56083" lon="3.27611">
        <ele>368.75</ele>
        <time>2022-02-14T13:09:47.75Z</time>
      </trkpt>
      <trkpt lat="45.56102" lon="3.27595">
        <ele>372.25</ele>
        <time>2022-02-14T13:09:52.15Z</time>
      </trkpt>
      <trkpt lat="45.56148" lon="3.27508">
        <ele>372</ele>
        <time>2022-02-14T13:10:07.30Z</time>
      </trkpt>
      <trkpt lat="45.56153" lon="3.27498">
        <ele>371.5</ele>
        <time>2022-02-14T13:10:09.08Z</time>
      </trkpt>
      <trkpt lat="45.56204" lon="3.27424">
        <ele>372.25</ele>
        <time>2022-02-14T13:10:23.66Z</time>
      </trkpt>
      <trkpt lat="45.56235" lon="3.27389">
        <ele>372</ele>
        <time>2022-02-14T13:10:31.57Z</time>
      </trkpt>
      <trkpt lat="45.56263" lon="3.27364">
        <ele>373.75</ele>
        <time>2022-02-14T13:10:38.19Z</time>
      </trkpt>
      <trkpt lat="45.56284" lon="3.27338">
        <ele>376.75</ele>
        <time>2022-02-14T13:10:43.63Z</time>
      </trkpt>
      <trkpt lat="45.56293" lon="3.27315">
        <ele>379.25</ele>
        <time>2022-02-14T13:10:47.41Z</time>
      </trkpt>
      <trkpt lat="45.56309" lon="3.27193">
        <ele>382.5</ele>
        <time>2022-02-14T13:11:04.75Z</time>
      </trkpt>
      <trkpt lat="45.56348" lon="3.27009">
        <ele>381.25</ele>
        <time>2022-02-14T13:11:31.61Z</time>
      </trkpt>
      <trkpt lat="45.56363" lon="3.26964">
        <ele>382.25</ele>
        <time>2022-02-14T13:11:38.63Z</time>
      </trkpt>
      <trkpt lat="45.56384" lon="3.26903">
        <ele>383.25</ele>
        <time>2022-02-14T13:11:48.25Z</time>
      </trkpt>
      <trkpt lat="45.56411" lon="3.26822">
        <ele>382.25</ele>
        <time>2022-02-14T13:12:00.78Z</time>
      </trkpt>
      <trkpt lat="45.56437" lon="3.26767">
        <ele>382</ele>
        <time>2022-02-14T13:12:10.04Z</time>
      </trkpt>
      <trkpt lat="45.56451" lon="3.26748">
        <ele>383</ele>
        <time>2022-02-14T13:12:13.85Z</time>
      </trkpt>
      <trkpt lat="45.56465" lon="3.26738">
        <ele>385.5</ele>
        <time>2022-02-14T13:12:17.08Z</time>
      </trkpt>
      <trkpt lat="45.56484" lon="3.26728">
        <ele>388.75</ele>
        <time>2022-02-14T13:12:21.10Z</time>
      </trkpt>
      <trkpt lat="45.56501" lon="3.26691">
        <ele>385.75</ele>
        <time>2022-02-14T13:12:27.28Z</time>
      </trkpt>
      <trkpt lat="45.56509" lon="3.26679">
        <ele>384.25</ele>
        <time>2022-02-14T13:12:29.50Z</time>
      </trkpt>
      <trkpt lat="45.56512" lon="3.26674">
        <ele>383.75</ele>
        <time>2022-02-14T13:12:30.56Z</time>
      </trkpt>
      <trkpt lat="45.56525" lon="3.26665">
        <ele>383.75</ele>
        <time>2022-02-14T13:12:33.39Z</time>
      </trkpt>
      <trkpt lat="45.56541" lon="3.26667">
        <ele>386</ele>
        <time>2022-02-14T13:12:36.54Z</time>
      </trkpt>
      <trkpt lat="45.56566" lon="3.26681">
        <ele>391.75</ele>
        <time>2022-02-14T13:12:41.89Z</time>
      </trkpt>
      <trkpt lat="45.56603" lon="3.26712">
        <ele>401.25</ele>
        <time>2022-02-14T13:12:50.44Z</time>
      </trkpt>
      <trkpt lat="45.5664" lon="3.26735">
        <ele>404</ele>
        <time>2022-02-14T13:12:58.65Z</time>
      </trkpt>
      <trkpt lat="45.56658" lon="3.26758">
        <ele>405</ele>
        <time>2022-02-14T13:13:03.47Z</time>
      </trkpt>
      <trkpt lat="45.56675" lon="3.26778">
        <ele>409</ele>
        <time>2022-02-14T13:13:07.86Z</time>
      </trkpt>
      <trkpt lat="45.56698" lon="3.26792">
        <ele>412.5</ele>
        <time>2022-02-14T13:13:12.87Z</time>
      </trkpt>
      <trkpt lat="45.56742" lon="3.2679">
        <ele>413.75</ele>
        <time>2022-02-14T13:13:21.70Z</time>
      </trkpt>
      <trkpt lat="45.56785" lon="3.26794">
        <ele>416.75</ele>
        <time>2022-02-14T13:13:30.17Z</time>
      </trkpt>
      <trkpt lat="45.56827" lon="3.26799">
        <ele>419.75</ele>
        <time>2022-02-14T13:13:38.75Z</time>
      </trkpt>
      <trkpt lat="45.56853" lon="3.26808">
        <ele>421.25</ele>
        <time>2022-02-14T13:13:44.09Z</time>
      </trkpt>
      <trkpt lat="45.56869" lon="3.26814">
        <ele>421.75</ele>
        <time>2022-02-14T13:13:47.36Z</time>
      </trkpt>
      <trkpt lat="45.56893" lon="3.26831">
        <ele>421.5</ele>
        <time>2022-02-14T13:13:52.71Z</time>
      </trkpt>
      <trkpt lat="45.56941" lon="3.2688">
        <ele>429.75</ele>
        <time>2022-02-14T13:14:04.48Z</time>
      </trkpt>
      <trkpt lat="45.56975" lon="3.26907">
        <ele>430.75</ele>
        <time>2022-02-14T13:14:12.21Z</time>
      </trkpt>
      <trkpt lat="45.57012" lon="3.26927">
        <ele>431.5</ele>
        <time>2022-02-14T13:14:20.26Z</time>
      </trkpt>
      <trkpt lat="45.57106" lon="3.26962">
        <ele>439</ele>
        <time>2022-02-14T13:14:39.55Z</time>
      </trkpt>
      <trkpt lat="45.57119" lon="3.26962">
        <ele>439.75</ele>
        <time>2022-02-14T13:14:42.29Z</time>
      </trkpt>
      <trkpt lat="45.57133" lon="3.2696">
        <ele>440.25</ele>
        <time>2022-02-14T13:14:45.07Z</time>
      </trkpt>
      <trkpt lat="45.57174" lon="3.26942">
        <ele>441.25</ele>
        <time>2022-02-14T13:14:53.67Z</time>
      </trkpt>
      <trkpt lat="45.5735" lon="3.26917">
        <ele>456.75</ele>
        <time>2022-02-14T13:15:28.90Z</time>
      </trkpt>
      <trkpt lat="45.57389" lon="3.2692">
        <ele>459.25</ele>
        <time>2022-02-14T13:15:36.89Z</time>
      </trkpt>
      <trkpt lat="45.57427" lon="3.26927">
        <ele>462.25</ele>
        <time>2022-02-14T13:15:44.47Z</time>
      </trkpt>
      <trkpt lat="45.57505" lon="3.26941">
        <ele>468.5</ele>
        <time>2022-02-14T13:16:00.29Z</time>
      </trkpt>
      <trkpt lat="45.57567" lon="3.26951">
        <ele>474.25</ele>
        <time>2022-02-14T13:16:12.74Z</time>
      </trkpt>
      <trkpt lat="45.5761" lon="3.26961">
        <ele>477.5</ele>
        <time>2022-02-14T13:16:21.34Z</time>
      </trkpt>
      <trkpt lat="45.57626" lon="3.2697">
        <ele>477.75</ele>
        <time>2022-02-14T13:16:24.76Z</time>
      </trkpt>
      <trkpt lat="45.57656" lon="3.2699">
        <ele>476.5</ele>
        <time>2022-02-14T13:16:31.51Z</time>
      </trkpt>
      <trkpt lat="45.5768" lon="3.27016">
        <ele>475.5</ele>
        <time>2022-02-14T13:16:37.37Z</time>
      </trkpt>
      <trkpt lat="45.57745" lon="3.27091">
        <ele>476</ele>
        <time>2022-02-14T13:16:54.11Z</time>
      </trkpt>
      <trkpt lat="45.57764" lon="3.27102">
        <ele>477.5</ele>
        <time>2022-02-14T13:16:58.36Z</time>
      </trkpt>
      <trkpt lat="45.57778" lon="3.27104">
        <ele>478.75</ele>
        <time>2022-02-14T13:17:01.02Z</time>
      </trkpt>
      <trkpt lat="45.57783" lon="3.27104">
        <ele>479.25</ele>
        <time>2022-02-14T13:17:02.20Z</time>
      </trkpt>
      <trkpt lat="45.57841" lon="3.27089">
        <ele>483.5</ele>
        <time>2022-02-14T13:17:13.96Z</time>
      </trkpt>
      <trkpt lat="45.57863" lon="3.27083">
        <ele>484.75</ele>
        <time>2022-02-14T13:17:18.43Z</time>
      </trkpt>
      <trkpt lat="45.57872" lon="3.27082">
        <ele>485.25</ele>
        <time>2022-02-14T13:17:20.13Z</time>
      </trkpt>
      <trkpt lat="45.57949" lon="3.27078">
        <ele>491</ele>
        <time>2022-02-14T13:17:35.70Z</time>
      </trkpt>
      <trkpt lat="45.57957" lon="3.27077">
        <ele>491.5</ele>
        <time>2022-02-14T13:17:37.28Z</time>
      </trkpt>
      <trkpt lat="45.58013" lon="3.27077">
        <ele>495.5</ele>
        <time>2022-02-14T13:17:48.34Z</time>
      </trkpt>
      <trkpt lat="45.58037" lon="3.27079">
        <ele>497</ele>
        <time>2022-02-14T13:17:53.29Z</time>
      </trkpt>
      <trkpt lat="45.58108" lon="3.27094">
        <ele>501</ele>
        <time>2022-02-14T13:18:07.67Z</time>
      </trkpt>
      <trkpt lat="45.58139" lon="3.27103">
        <ele>502.25</ele>
        <time>2022-02-14T13:18:13.97Z</time>
      </trkpt>
      <trkpt lat="45.58166" lon="3.27114">
        <ele>503</ele>
        <time>2022-02-14T13:18:19.47Z</time>
      </trkpt>
      <trkpt lat="45.58188" lon="3.27125">
        <ele>504.25</ele>
        <time>2022-02-14T13:18:24.22Z</time>
      </trkpt>
      <trkpt lat="45.58208" lon="3.27141">
        <ele>504.75</ele>
        <time>2022-02-14T13:18:28.71Z</time>
      </trkpt>
      <trkpt lat="45.58306" lon="3.27234">
        <ele>508.25</ele>
        <time>2022-02-14T13:18:52.32Z</time>
      </trkpt>
      <trkpt lat="45.5833" lon="3.27251">
        <ele>508.75</ele>
        <time>2022-02-14T13:18:57.54Z</time>
      </trkpt>
      <trkpt lat="45.58355" lon="3.27265">
        <ele>510.25</ele>
        <time>2022-02-14T13:19:02.91Z</time>
      </trkpt>
      <trkpt lat="45.58423" lon="3.27296">
        <ele>513.75</ele>
        <time>2022-02-14T13:19:17.38Z</time>
      </trkpt>
      <trkpt lat="45.58437" lon="3.27302">
        <ele>514.25</ele>
        <time>2022-02-14T13:19:20.21Z</time>
      </trkpt>
      <trkpt lat="45.58473" lon="3.2732">
        <ele>515.75</ele>
        <time>2022-02-14T13:19:27.80Z</time>
      </trkpt>
      <trkpt lat="45.58506" lon="3.27339">
        <ele>517.25</ele>
        <time>2022-02-14T13:19:34.85Z</time>
      </trkpt>
      <trkpt lat="45.58591" lon="3.27393">
        <ele>520</ele>
        <time>2022-02-14T13:19:53.66Z</time>
      </trkpt>
      <trkpt lat="45.58612" lon="3.27408">
        <ele>519.25</ele>
        <time>2022-02-14T13:19:58.30Z</time>
      </trkpt>
      <trkpt lat="45.58622" lon="3.27417">
        <ele>519</ele>
        <time>2022-02-14T13:20:00.59Z</time>
      </trkpt>
      <trkpt lat="45.5863" lon="3.27425">
        <ele>519</ele>
        <time>2022-02-14T13:20:02.54Z</time>
      </trkpt>
      <trkpt lat="45.58643" lon="3.27443">
        <ele>519</ele>
        <time>2022-02-14T13:20:06.21Z</time>
      </trkpt>
      <trkpt lat="45.58646" lon="3.27447">
        <ele>519</ele>
        <time>2022-02-14T13:20:06.93Z</time>
      </trkpt>
      <trkpt lat="45.58734" lon="3.27592">
        <ele>518.25</ele>
        <time>2022-02-14T13:20:33.83Z</time>
      </trkpt>
      <trkpt lat="45.5877" lon="3.27659">
        <ele>517</ele>
        <time>2022-02-14T13:20:45.72Z</time>
      </trkpt>
      <trkpt lat="45.58824" lon="3.27767">
        <ele>518</ele>
        <time>2022-02-14T13:21:04.29Z</time>
      </trkpt>
      <trkpt lat="45.58839" lon="3.27794">
        <ele>518.75</ele>
        <time>2022-02-14T13:21:09.09Z</time>
      </trkpt>
      <trkpt lat="45.58845" lon="3.27802">
        <ele>519</ele>
        <time>2022-02-14T13:21:10.71Z</time>
      </trkpt>
      <trkpt lat="45.58851" lon="3.27811">
        <ele>519.5</ele>
        <time>2022-02-14T13:21:12.50Z</time>
      </trkpt>
      <trkpt lat="45.58866" lon="3.27825">
        <ele>519.75</ele>
        <time>2022-02-14T13:21:15.97Z</time>
      </trkpt>
      <trkpt lat="45.58933" lon="3.27879">
        <ele>522</ele>
        <time>2022-02-14T13:21:31.46Z</time>
      </trkpt>
      <trkpt lat="45.58947" lon="3.27893">
        <ele>523</ele>
        <time>2022-02-14T13:21:34.79Z</time>
      </trkpt>
      <trkpt lat="45.58955" lon="3.27903">
        <ele>523.75</ele>
        <time>2022-02-14T13:21:36.92Z</time>
      </trkpt>
      <trkpt lat="45.58963" lon="3.27916">
        <ele>524.75</ele>
        <time>2022-02-14T13:21:39.39Z</time>
      </trkpt>
      <trkpt lat="45.58978" lon="3.27944">
        <ele>526.25</ele>
        <time>2022-02-14T13:21:44.26Z</time>
      </trkpt>
      <trkpt lat="45.59009" lon="3.28015">
        <ele>529.5</ele>
        <time>2022-02-14T13:21:55.99Z</time>
      </trkpt>
      <trkpt lat="45.59126" lon="3.28288">
        <ele>532.25</ele>
        <time>2022-02-14T13:22:40.84Z</time>
      </trkpt>
      <trkpt lat="45.59154" lon="3.28357">
        <ele>532.25</ele>
        <time>2022-02-14T13:22:51.93Z</time>
      </trkpt>
      <trkpt lat="45.59177" lon="3.28419">
        <ele>533</ele>
        <time>2022-02-14T13:23:01.77Z</time>
      </trkpt>
      <trkpt lat="45.59191" lon="3.28465">
        <ele>533</ele>
        <time>2022-02-14T13:23:08.81Z</time>
      </trkpt>
      <trkpt lat="45.59209" lon="3.28526">
        <ele>533.25</ele>
        <time>2022-02-14T13:23:18.19Z</time>
      </trkpt>
      <trkpt lat="45.59225" lon="3.28589">
        <ele>534</ele>
        <time>2022-02-14T13:23:27.47Z</time>
      </trkpt>
      <trkpt lat="45.59236" lon="3.28642">
        <ele>534.5</ele>
        <time>2022-02-14T13:23:35.27Z</time>
      </trkpt>
      <trkpt lat="45.59245" lon="3.28671">
        <ele>534.5</ele>
        <time>2022-02-14T13:23:39.73Z</time>
      </trkpt>
      <trkpt lat="45.59251" lon="3.28685">
        <ele>534.75</ele>
        <time>2022-02-14T13:23:42.01Z</time>
      </trkpt>
      <trkpt lat="45.59264" lon="3.28707">
        <ele>534.5</ele>
        <time>2022-02-14T13:23:45.98Z</time>
      </trkpt>
      <trkpt lat="45.59296" lon="3.28759">
        <ele>533.25</ele>
        <time>2022-02-14T13:23:55.60Z</time>
      </trkpt>
      <trkpt lat="45.59309" lon="3.28785">
        <ele>532.25</ele>
        <time>2022-02-14T13:24:00.11Z</time>
      </trkpt>
      <trkpt lat="45.59322" lon="3.28814">
        <ele>531.5</ele>
        <time>2022-02-14T13:24:04.98Z</time>
      </trkpt>
      <trkpt lat="45.59333" lon="3.28843">
        <ele>531.25</ele>
        <time>2022-02-14T13:24:09.58Z</time>
      </trkpt>
      <trkpt lat="45.5934" lon="3.28862">
        <ele>531.25</ele>
        <time>2022-02-14T13:24:12.58Z</time>
      </trkpt>
      <trkpt lat="45.59365" lon="3.28951">
        <ele>530.25</ele>
        <time>2022-02-14T13:24:26.03Z</time>
      </trkpt>
      <trkpt lat="45.59369" lon="3.28964">
        <ele>530</ele>
        <time>2022-02-14T13:24:27.93Z</time>
      </trkpt>
      <trkpt lat="45.59375" lon="3.28979">
        <ele>529.5</ele>
        <time>2022-02-14T13:24:30.45Z</time>
      </trkpt>
      <trkpt lat="45.59383" lon="3.28993">
        <ele>529</ele>
        <time>2022-02-14T13:24:32.93Z</time>
      </trkpt>
      <trkpt lat="45.59391" lon="3.29005">
        <ele>528.5</ele>
        <time>2022-02-14T13:24:35.24Z</time>
      </trkpt>
      <trkpt lat="45.5941" lon="3.29028">
        <ele>527.5</ele>
        <time>2022-02-14T13:24:40.22Z</time>
      </trkpt>
      <trkpt lat="45.59426" lon="3.29043">
        <ele>527.25</ele>
        <time>2022-02-14T13:24:44.07Z</time>
      </trkpt>
      <trkpt lat="45.59443" lon="3.29058">
        <ele>527.25</ele>
        <time>2022-02-14T13:24:48.02Z</time>
      </trkpt>
      <trkpt lat="45.59449" lon="3.29062">
        <ele>527.25</ele>
        <time>2022-02-14T13:24:49.46Z</time>
      </trkpt>
      <trkpt lat="45.59462" lon="3.2907">
        <ele>527.25</ele>
        <time>2022-02-14T13:24:52.28Z</time>
      </trkpt>
      <trkpt lat="45.59487" lon="3.29082">
        <ele>527</ele>
        <time>2022-02-14T13:24:57.46Z</time>
      </trkpt>
      <trkpt lat="45.59516" lon="3.29097">
        <ele>527</ele>
        <time>2022-02-14T13:25:03.75Z</time>
      </trkpt>
      <trkpt lat="45.59563" lon="3.29118">
        <ele>528</ele>
        <time>2022-02-14T13:25:13.50Z</time>
      </trkpt>
      <trkpt lat="45.59617" lon="3.29145">
        <ele>529.75</ele>
        <time>2022-02-14T13:25:25.05Z</time>
      </trkpt>
      <trkpt lat="45.59662" lon="3.29165">
        <ele>530.75</ele>
        <time>2022-02-14T13:25:34.45Z</time>
      </trkpt>
      <trkpt lat="45.59708" lon="3.29183">
        <ele>531</ele>
        <time>2022-02-14T13:25:43.95Z</time>
      </trkpt>
      <trkpt lat="45.59726" lon="3.29188">
        <ele>531.5</ele>
        <time>2022-02-14T13:25:47.59Z</time>
      </trkpt>
      <trkpt lat="45.59742" lon="3.29191">
        <ele>531.75</ele>
        <time>2022-02-14T13:25:50.74Z</time>
      </trkpt>
      <trkpt lat="45.5983" lon="3.29198">
        <ele>534</ele>
        <time>2022-02-14T13:26:08.35Z</time>
      </trkpt>
      <trkpt lat="45.59838" lon="3.29201">
        <ele>534.25</ele>
        <time>2022-02-14T13:26:10.13Z</time>
      </trkpt>
      <trkpt lat="45.59847" lon="3.29207">
        <ele>534.75</ele>
        <time>2022-02-14T13:26:12.11Z</time>
      </trkpt>
      <trkpt lat="45.59856" lon="3.29215">
        <ele>535</ele>
        <time>2022-02-14T13:26:14.31Z</time>
      </trkpt>
      <trkpt lat="45.59868" lon="3.29231">
        <ele>535.25</ele>
        <time>2022-02-14T13:26:17.51Z</time>
      </trkpt>
      <trkpt lat="45.59925" lon="3.29345">
        <ele>537.75</ele>
        <time>2022-02-14T13:26:37.11Z</time>
      </trkpt>
      <trkpt lat="45.59951" lon="3.29396">
        <ele>539.5</ele>
        <time>2022-02-14T13:26:45.88Z</time>
      </trkpt>
      <trkpt lat="45.59966" lon="3.29428">
        <ele>540.5</ele>
        <time>2022-02-14T13:26:51.42Z</time>
      </trkpt>
      <trkpt lat="45.59973" lon="3.29445">
        <ele>541</ele>
        <time>2022-02-14T13:26:54.05Z</time>
      </trkpt>
      <trkpt lat="45.59977" lon="3.2946">
        <ele>541</ele>
        <time>2022-02-14T13:26:56.40Z</time>
      </trkpt>
      <trkpt lat="45.59979" lon="3.29476">
        <ele>541</ele>
        <time>2022-02-14T13:26:58.68Z</time>
      </trkpt>
      <trkpt lat="45.5998" lon="3.29498">
        <ele>540.75</ele>
        <time>2022-02-14T13:27:01.69Z</time>
      </trkpt>
      <trkpt lat="45.59979" lon="3.29527">
        <ele>542</ele>
        <time>2022-02-14T13:27:05.81Z</time>
      </trkpt>
      <trkpt lat="45.59977" lon="3.29552">
        <ele>543</ele>
        <time>2022-02-14T13:27:09.22Z</time>
      </trkpt>
      <trkpt lat="45.59972" lon="3.29573">
        <ele>544</ele>
        <time>2022-02-14T13:27:12.45Z</time>
      </trkpt>
      <trkpt lat="45.59994" lon="3.29587">
        <ele>545.75</ele>
        <time>2022-02-14T13:27:17.28Z</time>
      </trkpt>
      <trkpt lat="45.60015" lon="3.29596">
        <ele>547</ele>
        <time>2022-02-14T13:27:21.67Z</time>
      </trkpt>
      <trkpt lat="45.60065" lon="3.29609">
        <ele>549.75</ele>
        <time>2022-02-14T13:27:31.85Z</time>
      </trkpt>
      <trkpt lat="45.60077" lon="3.29609">
        <ele>550.25</ele>
        <time>2022-02-14T13:27:34.34Z</time>
      </trkpt>
      <trkpt lat="45.60087" lon="3.29604">
        <ele>550.5</ele>
        <time>2022-02-14T13:27:36.47Z</time>
      </trkpt>
      <trkpt lat="45.60097" lon="3.29593">
        <ele>550.75</ele>
        <time>2022-02-14T13:27:38.88Z</time>
      </trkpt>
      <trkpt lat="45.60116" lon="3.29554">
        <ele>552.25</ele>
        <time>2022-02-14T13:27:45.52Z</time>
      </trkpt>
      <trkpt lat="45.60141" lon="3.29497">
        <ele>555.25</ele>
        <time>2022-02-14T13:27:55.02Z</time>
      </trkpt>
      <trkpt lat="45.60147" lon="3.29454">
        <ele>556.5</ele>
        <time>2022-02-14T13:28:01.19Z</time>
      </trkpt>
      <trkpt lat="45.60151" lon="3.29352">
        <ele>558.25</ele>
        <time>2022-02-14T13:28:15.44Z</time>
      </trkpt>
      <trkpt lat="45.60152" lon="3.29339">
        <ele>558.5</ele>
        <time>2022-02-14T13:28:17.32Z</time>
      </trkpt>
      <trkpt lat="45.60172" lon="3.29252">
        <ele>562.5</ele>
        <time>2022-02-14T13:28:30.05Z</time>
      </trkpt>
      <trkpt lat="45.60174" lon="3.29227">
        <ele>563.75</ele>
        <time>2022-02-14T13:28:33.70Z</time>
      </trkpt>
      <trkpt lat="45.60174" lon="3.29207">
        <ele>564.25</ele>
        <time>2022-02-14T13:28:36.45Z</time>
      </trkpt>
      <trkpt lat="45.60168" lon="3.29174">
        <ele>564.75</ele>
        <time>2022-02-14T13:28:41.24Z</time>
      </trkpt>
      <trkpt lat="45.60165" lon="3.29138">
        <ele>566.25</ele>
        <time>2022-02-14T13:28:46.20Z</time>
      </trkpt>
      <trkpt lat="45.60168" lon="3.29098">
        <ele>568.25</ele>
        <time>2022-02-14T13:28:51.93Z</time>
      </trkpt>
      <trkpt lat="45.60172" lon="3.29064">
        <ele>570.25</ele>
        <time>2022-02-14T13:28:56.71Z</time>
      </trkpt>
      <trkpt lat="45.60182" lon="3.29035">
        <ele>572</ele>
        <time>2022-02-14T13:29:01.22Z</time>
      </trkpt>
      <trkpt lat="45.6023" lon="3.28934">
        <ele>577</ele>
        <time>2022-02-14T13:29:18.27Z</time>
      </trkpt>
      <trkpt lat="45.60239" lon="3.28913">
        <ele>577.75</ele>
        <time>2022-02-14T13:29:21.74Z</time>
      </trkpt>
      <trkpt lat="45.60245" lon="3.28887">
        <ele>578.25</ele>
        <time>2022-02-14T13:29:25.56Z</time>
      </trkpt>
      <trkpt lat="45.6026" lon="3.28788">
        <ele>582</ele>
        <time>2022-02-14T13:29:39.82Z</time>
      </trkpt>
      <trkpt lat="45.60287" lon="3.28588">
        <ele>588.75</ele>
        <time>2022-02-14T13:30:08.24Z</time>
      </trkpt>
      <trkpt lat="45.60288" lon="3.28579">
        <ele>588.5</ele>
        <time>2022-02-14T13:30:09.48Z</time>
      </trkpt>
      <trkpt lat="45.60289" lon="3.2857">
        <ele>588.25</ele>
        <time>2022-02-14T13:30:10.89Z</time>
      </trkpt>
      <trkpt lat="45.60294" lon="3.28542">
        <ele>587.5</ele>
        <time>2022-02-14T13:30:14.85Z</time>
      </trkpt>
      <trkpt lat="45.60296" lon="3.28528">
        <ele>587.25</ele>
        <time>2022-02-14T13:30:16.89Z</time>
      </trkpt>
      <trkpt lat="45.60299" lon="3.28518">
        <ele>587.25</ele>
        <time>2022-02-14T13:30:18.40Z</time>
      </trkpt>
      <trkpt lat="45.60309" lon="3.28495">
        <ele>587.75</ele>
        <time>2022-02-14T13:30:22.17Z</time>
      </trkpt>
      <trkpt lat="45.60318" lon="3.28481">
        <ele>587</ele>
        <time>2022-02-14T13:30:24.85Z</time>
      </trkpt>
      <trkpt lat="45.60337" lon="3.28457">
        <ele>586.75</ele>
        <time>2022-02-14T13:30:29.93Z</time>
      </trkpt>
      <trkpt lat="45.60359" lon="3.28435">
        <ele>587.25</ele>
        <time>2022-02-14T13:30:35.28Z</time>
      </trkpt>
      <trkpt lat="45.60392" lon="3.2841">
        <ele>589.5</ele>
        <time>2022-02-14T13:30:42.78Z</time>
      </trkpt>
      <trkpt lat="45.60417" lon="3.28394">
        <ele>590.5</ele>
        <time>2022-02-14T13:30:48.27Z</time>
      </trkpt>
      <trkpt lat="45.60437" lon="3.28385">
        <ele>590.5</ele>
        <time>2022-02-14T13:30:52.35Z</time>
      </trkpt>
      <trkpt lat="45.60458" lon="3.2838">
        <ele>591.25</ele>
        <time>2022-02-14T13:30:56.60Z</time>
      </trkpt>
      <trkpt lat="45.60492" lon="3.28376">
        <ele>593.25</ele>
        <time>2022-02-14T13:31:03.54Z</time>
      </trkpt>
      <trkpt lat="45.60519" lon="3.28377">
        <ele>594.25</ele>
        <time>2022-02-14T13:31:08.96Z</time>
      </trkpt>
      <trkpt lat="45.60542" lon="3.28381">
        <ele>595</ele>
        <time>2022-02-14T13:31:13.60Z</time>
      </trkpt>
      <trkpt lat="45.60562" lon="3.2839">
        <ele>596.5</ele>
        <time>2022-02-14T13:31:17.81Z</time>
      </trkpt>
      <trkpt lat="45.60598" lon="3.28411">
        <ele>599.75</ele>
        <time>2022-02-14T13:31:25.47Z</time>
      </trkpt>
      <trkpt lat="45.60616" lon="3.28416">
        <ele>601.5</ele>
        <time>2022-02-14T13:31:29.12Z</time>
      </trkpt>
      <trkpt lat="45.60631" lon="3.28416">
        <ele>602</ele>
        <time>2022-02-14T13:31:32.20Z</time>
      </trkpt>
      <trkpt lat="45.60646" lon="3.28411">
        <ele>602.25</ele>
        <time>2022-02-14T13:31:35.19Z</time>
      </trkpt>
      <trkpt lat="45.60687" lon="3.28391">
        <ele>602.25</ele>
        <time>2022-02-14T13:31:43.90Z</time>
      </trkpt>
      <trkpt lat="45.60701" lon="3.2839">
        <ele>603</ele>
        <time>2022-02-14T13:31:46.77Z</time>
      </trkpt>
      <trkpt lat="45.60723" lon="3.28393">
        <ele>604.5</ele>
        <time>2022-02-14T13:31:51.20Z</time>
      </trkpt>
      <trkpt lat="45.60742" lon="3.28387">
        <ele>605.25</ele>
        <time>2022-02-14T13:31:54.95Z</time>
      </trkpt>
      <trkpt lat="45.60791" lon="3.28351">
        <ele>606.25</ele>
        <time>2022-02-14T13:32:06.11Z</time>
      </trkpt>
      <trkpt lat="45.60804" lon="3.28333">
        <ele>606.25</ele>
        <time>2022-02-14T13:32:09.64Z</time>
      </trkpt>
      <trkpt lat="45.60809" lon="3.28316">
        <ele>606.75</ele>
        <time>2022-02-14T13:32:12.25Z</time>
      </trkpt>
      <trkpt lat="45.60822" lon="3.28266">
        <ele>608.25</ele>
        <time>2022-02-14T13:32:19.72Z</time>
      </trkpt>
      <trkpt lat="45.60847" lon="3.28201">
        <ele>609</ele>
        <time>2022-02-14T13:32:30.10Z</time>
      </trkpt>
      <trkpt lat="45.60873" lon="3.28153">
        <ele>610</ele>
        <time>2022-02-14T13:32:38.52Z</time>
      </trkpt>
      <trkpt lat="45.60904" lon="3.28114">
        <ele>613</ele>
        <time>2022-02-14T13:32:46.81Z</time>
      </trkpt>
      <trkpt lat="45.60916" lon="3.28093">
        <ele>614</ele>
        <time>2022-02-14T13:32:50.58Z</time>
      </trkpt>
      <trkpt lat="45.60924" lon="3.28067">
        <ele>615.25</ele>
        <time>2022-02-14T13:32:54.55Z</time>
      </trkpt>
      <trkpt lat="45.60942" lon="3.27996">
        <ele>618.25</ele>
        <time>2022-02-14T13:33:05.11Z</time>
      </trkpt>
      <trkpt lat="45.60954" lon="3.27955">
        <ele>619.25</ele>
        <time>2022-02-14T13:33:11.34Z</time>
      </trkpt>
      <trkpt lat="45.60965" lon="3.27929">
        <ele>620</ele>
        <time>2022-02-14T13:33:15.64Z</time>
      </trkpt>
      <trkpt lat="45.6098" lon="3.27905">
        <ele>621</ele>
        <time>2022-02-14T13:33:20.07Z</time>
      </trkpt>
      <trkpt lat="45.61101" lon="3.27768">
        <ele>626.25</ele>
        <time>2022-02-14T13:33:50.94Z</time>
      </trkpt>
      <trkpt lat="45.61187" lon="3.277">
        <ele>631.75</ele>
        <time>2022-02-14T13:34:10.66Z</time>
      </trkpt>
      <trkpt lat="45.61238" lon="3.27641">
        <ele>634.5</ele>
        <time>2022-02-14T13:34:23.77Z</time>
      </trkpt>
      <trkpt lat="45.61274" lon="3.27582">
        <ele>634.75</ele>
        <time>2022-02-14T13:34:34.69Z</time>
      </trkpt>
      <trkpt lat="45.61291" lon="3.27563">
        <ele>635.5</ele>
        <time>2022-02-14T13:34:39.09Z</time>
      </trkpt>
      <trkpt lat="45.61319" lon="3.27546">
        <ele>637.25</ele>
        <time>2022-02-14T13:34:45Z</time>
      </trkpt>
      <trkpt lat="45.61389" lon="3.27512">
        <ele>640.25</ele>
        <time>2022-02-14T13:34:59.96Z</time>
      </trkpt>
      <trkpt lat="45.61395" lon="3.2751">
        <ele>640.25</ele>
        <time>2022-02-14T13:35:01.07Z</time>
      </trkpt>
      <trkpt lat="45.61403" lon="3.27507">
        <ele>640.5</ele>
        <time>2022-02-14T13:35:02.75Z</time>
      </trkpt>
      <trkpt lat="45.61418" lon="3.27509">
        <ele>641.5</ele>
        <time>2022-02-14T13:35:05.74Z</time>
      </trkpt>
      <trkpt lat="45.61444" lon="3.27518">
        <ele>642.75</ele>
        <time>2022-02-14T13:35:11.23Z</time>
      </trkpt>
      <trkpt lat="45.61463" lon="3.27521">
        <ele>643.5</ele>
        <time>2022-02-14T13:35:15.04Z</time>
      </trkpt>
      <trkpt lat="45.61482" lon="3.27519">
        <ele>644</ele>
        <time>2022-02-14T13:35:18.83Z</time>
      </trkpt>
      <trkpt lat="45.6149" lon="3.27515">
        <ele>643.75</ele>
        <time>2022-02-14T13:35:20.44Z</time>
      </trkpt>
      <trkpt lat="45.61496" lon="3.27512">
        <ele>643.75</ele>
        <time>2022-02-14T13:35:21.68Z</time>
      </trkpt>
      <trkpt lat="45.61507" lon="3.27495">
        <ele>643.5</ele>
        <time>2022-02-14T13:35:24.95Z</time>
      </trkpt>
      <trkpt lat="45.61524" lon="3.27461">
        <ele>644</ele>
        <time>2022-02-14T13:35:30.83Z</time>
      </trkpt>
      <trkpt lat="45.61579" lon="3.27306">
        <ele>646.5</ele>
        <time>2022-02-14T13:35:55.14Z</time>
      </trkpt>
      <trkpt lat="45.61583" lon="3.27275">
        <ele>646.75</ele>
        <time>2022-02-14T13:35:59.60Z</time>
      </trkpt>
      <trkpt lat="45.6158" lon="3.27196">
        <ele>648.5</ele>
        <time>2022-02-14T13:36:10.60Z</time>
      </trkpt>
      <trkpt lat="45.61585" lon="3.27168">
        <ele>650</ele>
        <time>2022-02-14T13:36:14.67Z</time>
      </trkpt>
      <trkpt lat="45.61593" lon="3.27142">
        <ele>650.75</ele>
        <time>2022-02-14T13:36:18.66Z</time>
      </trkpt>
      <trkpt lat="45.61606" lon="3.27114">
        <ele>652</ele>
        <time>2022-02-14T13:36:23.43Z</time>
      </trkpt>
      <trkpt lat="45.61642" lon="3.27056">
        <ele>653.75</ele>
        <time>2022-02-14T13:36:34.30Z</time>
      </trkpt>
      <trkpt lat="45.61649" lon="3.27035">
        <ele>653.75</ele>
        <time>2022-02-14T13:36:37.50Z</time>
      </trkpt>
      <trkpt lat="45.61655" lon="3.27008">
        <ele>653.25</ele>
        <time>2022-02-14T13:36:41.42Z</time>
      </trkpt>
      <trkpt lat="45.61659" lon="3.26951">
        <ele>651.5</ele>
        <time>2022-02-14T13:36:49.47Z</time>
      </trkpt>
      <trkpt lat="45.61656" lon="3.26929">
        <ele>651</ele>
        <time>2022-02-14T13:36:52.55Z</time>
      </trkpt>
      <trkpt lat="45.61653" lon="3.26897">
        <ele>650.25</ele>
        <time>2022-02-14T13:36:57.06Z</time>
      </trkpt>
      <trkpt lat="45.61641" lon="3.26804">
        <ele>646</ele>
        <time>2022-02-14T13:37:10.39Z</time>
      </trkpt>
      <trkpt lat="45.61586" lon="3.26665">
        <ele>638.5</ele>
        <time>2022-02-14T13:37:32.67Z</time>
      </trkpt>
      <trkpt lat="45.61563" lon="3.26633">
        <ele>636.25</ele>
        <time>2022-02-14T13:37:39.07Z</time>
      </trkpt>
      <trkpt lat="45.61509" lon="3.26593">
        <ele>634.75</ele>
        <time>2022-02-14T13:37:51.17Z</time>
      </trkpt>
      <trkpt lat="45.6144" lon="3.26569">
        <ele>637.5</ele>
        <time>2022-02-14T13:38:05.41Z</time>
      </trkpt>
      <trkpt lat="45.61384" lon="3.26521">
        <ele>630.75</ele>
        <time>2022-02-14T13:38:18.50Z</time>
      </trkpt>
      <trkpt lat="45.61234" lon="3.26426">
        <ele>625.25</ele>
        <time>2022-02-14T13:38:51.33Z</time>
      </trkpt>
      <trkpt lat="45.61221" lon="3.26412">
        <ele>624.5</ele>
        <time>2022-02-14T13:38:54.69Z</time>
      </trkpt>
      <trkpt lat="45.61215" lon="3.26398">
        <ele>623</ele>
        <time>2022-02-14T13:38:56.94Z</time>
      </trkpt>
      <trkpt lat="45.61217" lon="3.26376">
        <ele>619.75</ele>
        <time>2022-02-14T13:39:00.02Z</time>
      </trkpt>
      <trkpt lat="45.61224" lon="3.26362">
        <ele>617.25</ele>
        <time>2022-02-14T13:39:02.35Z</time>
      </trkpt>
      <trkpt lat="45.61234" lon="3.26354">
        <ele>615.25</ele>
        <time>2022-02-14T13:39:04.72Z</time>
      </trkpt>
      <trkpt lat="45.61249" lon="3.26353">
        <ele>613.5</ele>
        <time>2022-02-14T13:39:07.81Z</time>
      </trkpt>
      <trkpt lat="45.61286" lon="3.26373">
        <ele>613.5</ele>
        <time>2022-02-14T13:39:15.74Z</time>
      </trkpt>
      <trkpt lat="45.61302" lon="3.26374">
        <ele>612.5</ele>
        <time>2022-02-14T13:39:18.86Z</time>
      </trkpt>
      <trkpt lat="45.61403" lon="3.26356">
        <ele>605.5</ele>
        <time>2022-02-14T13:39:39.29Z</time>
      </trkpt>
      <trkpt lat="45.6154" lon="3.26326">
        <ele>599.75</ele>
        <time>2022-02-14T13:40:07.01Z</time>
      </trkpt>
      <trkpt lat="45.61565" lon="3.2632">
        <ele>599</ele>
        <time>2022-02-14T13:40:12.11Z</time>
      </trkpt>
      <trkpt lat="45.61575" lon="3.26308">
        <ele>598</ele>
        <time>2022-02-14T13:40:14.71Z</time>
      </trkpt>
      <trkpt lat="45.61577" lon="3.26293">
        <ele>597</ele>
        <time>2022-02-14T13:40:16.77Z</time>
      </trkpt>
      <trkpt lat="45.61578" lon="3.26287">
        <ele>596.5</ele>
        <time>2022-02-14T13:40:17.64Z</time>
      </trkpt>
      <trkpt lat="45.61571" lon="3.26191">
        <ele>591</ele>
        <time>2022-02-14T13:40:31.13Z</time>
      </trkpt>
      <trkpt lat="45.6158" lon="3.26141">
        <ele>589</ele>
        <time>2022-02-14T13:40:38.29Z</time>
      </trkpt>
      <trkpt lat="45.616" lon="3.26052">
        <ele>584.25</ele>
        <time>2022-02-14T13:40:51.44Z</time>
      </trkpt>
      <trkpt lat="45.61614" lon="3.26028">
        <ele>582.75</ele>
        <time>2022-02-14T13:40:55.80Z</time>
      </trkpt>
      <trkpt lat="45.61634" lon="3.26009">
        <ele>581.75</ele>
        <time>2022-02-14T13:41:00.61Z</time>
      </trkpt>
      <trkpt lat="45.61677" lon="3.25975">
        <ele>579.25</ele>
        <time>2022-02-14T13:41:10.47Z</time>
      </trkpt>
      <trkpt lat="45.61713" lon="3.25938">
        <ele>576</ele>
        <time>2022-02-14T13:41:19.40Z</time>
      </trkpt>
      <trkpt lat="45.61753" lon="3.25895">
        <ele>573.75</ele>
        <time>2022-02-14T13:41:29.31Z</time>
      </trkpt>
      <trkpt lat="45.6176" lon="3.25887">
        <ele>573.25</ele>
        <time>2022-02-14T13:41:31.10Z</time>
      </trkpt>
      <trkpt lat="45.61777" lon="3.25866">
        <ele>572.5</ele>
        <time>2022-02-14T13:41:35.61Z</time>
      </trkpt>
      <trkpt lat="45.61786" lon="3.25855">
        <ele>572.25</ele>
        <time>2022-02-14T13:41:37.95Z</time>
      </trkpt>
      <trkpt lat="45.61808" lon="3.25838">
        <ele>572.25</ele>
        <time>2022-02-14T13:41:42.89Z</time>
      </trkpt>
      <trkpt lat="45.61858" lon="3.25814">
        <ele>571.75</ele>
        <time>2022-02-14T13:41:53.46Z</time>
      </trkpt>
      <trkpt lat="45.6188" lon="3.25803">
        <ele>570.5</ele>
        <time>2022-02-14T13:41:58.28Z</time>
      </trkpt>
      <trkpt lat="45.619" lon="3.25796">
        <ele>569.25</ele>
        <time>2022-02-14T13:42:02.34Z</time>
      </trkpt>
      <trkpt lat="45.61932" lon="3.25791">
        <ele>567.25</ele>
        <time>2022-02-14T13:42:08.73Z</time>
      </trkpt>
      <trkpt lat="45.61949" lon="3.25787">
        <ele>566</ele>
        <time>2022-02-14T13:42:12.20Z</time>
      </trkpt>
      <trkpt lat="45.61962" lon="3.25778">
        <ele>565</ele>
        <time>2022-02-14T13:42:15.18Z</time>
      </trkpt>
      <trkpt lat="45.61994" lon="3.25746">
        <ele>562.5</ele>
        <time>2022-02-14T13:42:22.91Z</time>
      </trkpt>
      <trkpt lat="45.6202" lon="3.25717">
        <ele>561.25</ele>
        <time>2022-02-14T13:42:29.56Z</time>
      </trkpt>
      <trkpt lat="45.62041" lon="3.25699">
        <ele>560</ele>
        <time>2022-02-14T13:42:34.45Z</time>
      </trkpt>
      <trkpt lat="45.62069" lon="3.25685">
        <ele>558.25</ele>
        <time>2022-02-14T13:42:40.39Z</time>
      </trkpt>
      <trkpt lat="45.62132" lon="3.25665">
        <ele>552.75</ele>
        <time>2022-02-14T13:42:53.20Z</time>
      </trkpt>
      <trkpt lat="45.62213" lon="3.25638">
        <ele>548.25</ele>
        <time>2022-02-14T13:43:09.88Z</time>
      </trkpt>
      <trkpt lat="45.62298" lon="3.256">
        <ele>543.25</ele>
        <time>2022-02-14T13:43:27.71Z</time>
      </trkpt>
      <trkpt lat="45.62312" lon="3.25593">
        <ele>542.25</ele>
        <time>2022-02-14T13:43:30.67Z</time>
      </trkpt>
      <trkpt lat="45.62343" lon="3.25573">
        <ele>541</ele>
        <time>2022-02-14T13:43:37.55Z</time>
      </trkpt>
      <trkpt lat="45.62438" lon="3.25507">
        <ele>537.75</ele>
        <time>2022-02-14T13:43:58.58Z</time>
      </trkpt>
      <trkpt lat="45.62465" lon="3.25485">
        <ele>537.25</ele>
        <time>2022-02-14T13:44:04.90Z</time>
      </trkpt>
      <trkpt lat="45.62483" lon="3.25466">
        <ele>536.75</ele>
        <time>2022-02-14T13:44:09.29Z</time>
      </trkpt>
      <trkpt lat="45.625" lon="3.25444">
        <ele>536.25</ele>
        <time>2022-02-14T13:44:13.86Z</time>
      </trkpt>
      <trkpt lat="45.62578" lon="3.25343">
        <ele>534.25</ele>
        <time>2022-02-14T13:44:35.03Z</time>
      </trkpt>
      <trkpt lat="45.62599" lon="3.25323">
        <ele>533.75</ele>
        <time>2022-02-14T13:44:40.07Z</time>
      </trkpt>
      <trkpt lat="45.62666" lon="3.25274">
        <ele>530.5</ele>
        <time>2022-02-14T13:44:54.96Z</time>
      </trkpt>
      <trkpt lat="45.62726" lon="3.25223">
        <ele>528.25</ele>
        <time>2022-02-14T13:45:08.95Z</time>
      </trkpt>
      <trkpt lat="45.62746" lon="3.2521">
        <ele>527.25</ele>
        <time>2022-02-14T13:45:13.38Z</time>
      </trkpt>
      <trkpt lat="45.62768" lon="3.25199">
        <ele>526</ele>
        <time>2022-02-14T13:45:18.02Z</time>
      </trkpt>
      <trkpt lat="45.62815" lon="3.25186">
        <ele>522</ele>
        <time>2022-02-14T13:45:27.63Z</time>
      </trkpt>
      <trkpt lat="45.62833" lon="3.25179">
        <ele>520.5</ele>
        <time>2022-02-14T13:45:31.41Z</time>
      </trkpt>
      <trkpt lat="45.62864" lon="3.25164">
        <ele>517.75</ele>
        <time>2022-02-14T13:45:37.84Z</time>
      </trkpt>
      <trkpt lat="45.62923" lon="3.2513">
        <ele>514.25</ele>
        <time>2022-02-14T13:45:50.58Z</time>
      </trkpt>
      <trkpt lat="45.62953" lon="3.25117">
        <ele>513.75</ele>
        <time>2022-02-14T13:45:56.96Z</time>
      </trkpt>
      <trkpt lat="45.6298" lon="3.25111">
        <ele>512.75</ele>
        <time>2022-02-14T13:46:02.35Z</time>
      </trkpt>
      <trkpt lat="45.62988" lon="3.25109">
        <ele>512.5</ele>
        <time>2022-02-14T13:46:03.94Z</time>
      </trkpt>
      <trkpt lat="45.63013" lon="3.25107">
        <ele>511.25</ele>
        <time>2022-02-14T13:46:09.06Z</time>
      </trkpt>
      <trkpt lat="45.6302" lon="3.25106">
        <ele>511</ele>
        <time>2022-02-14T13:46:10.33Z</time>
      </trkpt>
      <trkpt lat="45.63076" lon="3.25114">
        <ele>508.25</ele>
        <time>2022-02-14T13:46:21.65Z</time>
      </trkpt>
      <trkpt lat="45.63105" lon="3.25106">
        <ele>506.75</ele>
        <time>2022-02-14T13:46:27.53Z</time>
      </trkpt>
      <trkpt lat="45.63125" lon="3.25097">
        <ele>505.75</ele>
        <time>2022-02-14T13:46:31.68Z</time>
      </trkpt>
      <trkpt lat="45.63247" lon="3.25022">
        <ele>500.5</ele>
        <time>2022-02-14T13:46:58.33Z</time>
      </trkpt>
      <trkpt lat="45.63379" lon="3.24935">
        <ele>496</ele>
        <time>2022-02-14T13:47:27.30Z</time>
      </trkpt>
      <trkpt lat="45.63461" lon="3.24876">
        <ele>493</ele>
        <time>2022-02-14T13:47:45.65Z</time>
      </trkpt>
      <trkpt lat="45.63488" lon="3.24852">
        <ele>492</ele>
        <time>2022-02-14T13:47:52.12Z</time>
      </trkpt>
      <trkpt lat="45.63549" lon="3.24793">
        <ele>489.25</ele>
        <time>2022-02-14T13:48:06.89Z</time>
      </trkpt>
      <trkpt lat="45.63592" lon="3.24741">
        <ele>487.5</ele>
        <time>2022-02-14T13:48:18.12Z</time>
      </trkpt>
      <trkpt lat="45.63631" lon="3.24701">
        <ele>485</ele>
        <time>2022-02-14T13:48:27.73Z</time>
      </trkpt>
      <trkpt lat="45.63635" lon="3.24696">
        <ele>484.5</ele>
        <time>2022-02-14T13:48:28.73Z</time>
      </trkpt>
      <trkpt lat="45.63683" lon="3.24678">
        <ele>480.75</ele>
        <time>2022-02-14T13:48:38.62Z</time>
      </trkpt>
      <trkpt lat="45.6377" lon="3.24658">
        <ele>475.25</ele>
        <time>2022-02-14T13:48:56.15Z</time>
      </trkpt>
      <trkpt lat="45.63818" lon="3.24651">
        <ele>473.5</ele>
        <time>2022-02-14T13:49:05.92Z</time>
      </trkpt>
      <trkpt lat="45.63838" lon="3.24652">
        <ele>473</ele>
        <time>2022-02-14T13:49:09.82Z</time>
      </trkpt>
      <trkpt lat="45.63857" lon="3.24656">
        <ele>473</ele>
        <time>2022-02-14T13:49:13.72Z</time>
      </trkpt>
      <trkpt lat="45.63882" lon="3.24663">
        <ele>473</ele>
        <time>2022-02-14T13:49:18.87Z</time>
      </trkpt>
      <trkpt lat="45.63908" lon="3.24673">
        <ele>473</ele>
        <time>2022-02-14T13:49:24.26Z</time>
      </trkpt>
      <trkpt lat="45.63925" lon="3.24687">
        <ele>473.25</ele>
        <time>2022-02-14T13:49:28.15Z</time>
      </trkpt>
      <trkpt lat="45.63974" lon="3.24737">
        <ele>474.25</ele>
        <time>2022-02-14T13:49:40.18Z</time>
      </trkpt>
      <trkpt lat="45.63987" lon="3.24715">
        <ele>474</ele>
        <time>2022-02-14T13:49:44.09Z</time>
      </trkpt>
      <trkpt lat="45.64009" lon="3.24677">
        <ele>473.75</ele>
        <time>2022-02-14T13:49:50.98Z</time>
      </trkpt>
      <trkpt lat="45.64011" lon="3.24675">
        <ele>474</ele>
        <time>2022-02-14T13:49:51.50Z</time>
      </trkpt>
      <trkpt lat="45.64027" lon="3.24649">
        <ele>475</ele>
        <time>2022-02-14T13:49:56.25Z</time>
      </trkpt>
      <trkpt lat="45.64036" lon="3.24638">
        <ele>475.5</ele>
        <time>2022-02-14T13:49:58.75Z</time>
      </trkpt>
      <trkpt lat="45.64063" lon="3.24614">
        <ele>477.5</ele>
        <time>2022-02-14T13:50:05.04Z</time>
      </trkpt>
      <trkpt lat="45.64071" lon="3.24603">
        <ele>478</ele>
        <time>2022-02-14T13:50:07.37Z</time>
      </trkpt>
      <trkpt lat="45.64096" lon="3.24569">
        <ele>477.75</ele>
        <time>2022-02-14T13:50:14.17Z</time>
      </trkpt>
      <trkpt lat="45.64129" lon="3.24527">
        <ele>476.5</ele>
        <time>2022-02-14T13:50:22.99Z</time>
      </trkpt>
      <trkpt lat="45.64135" lon="3.2452">
        <ele>476.5</ele>
        <time>2022-02-14T13:50:24.66Z</time>
      </trkpt>
      <trkpt lat="45.64139" lon="3.2452">
        <ele>476.75</ele>
        <time>2022-02-14T13:50:25.46Z</time>
      </trkpt>
      <trkpt lat="45.64156" lon="3.24525">
        <ele>477.5</ele>
        <time>2022-02-14T13:50:28.89Z</time>
      </trkpt>
      <trkpt lat="45.6416" lon="3.24525">
        <ele>477.75</ele>
        <time>2022-02-14T13:50:29.71Z</time>
      </trkpt>
      <trkpt lat="45.64164" lon="3.24526">
        <ele>477.75</ele>
        <time>2022-02-14T13:50:30.44Z</time>
      </trkpt>
      <trkpt lat="45.64167" lon="3.24532">
        <ele>478</ele>
        <time>2022-02-14T13:50:31.53Z</time>
      </trkpt>
      <trkpt lat="45.64171" lon="3.24534">
        <ele>478</ele>
        <time>2022-02-14T13:50:32.36Z</time>
      </trkpt>
      <trkpt lat="45.64175" lon="3.24533">
        <ele>478</ele>
        <time>2022-02-14T13:50:33.25Z</time>
      </trkpt>
      <trkpt lat="45.64192" lon="3.24533">
        <ele>478</ele>
        <time>2022-02-14T13:50:36.51Z</time>
      </trkpt>
      <trkpt lat="45.64206" lon="3.24533">
        <ele>478</ele>
        <time>2022-02-14T13:50:39.37Z</time>
      </trkpt>
      <trkpt lat="45.64217" lon="3.24534">
        <ele>478</ele>
        <time>2022-02-14T13:50:41.61Z</time>
      </trkpt>
      <trkpt lat="45.64221" lon="3.24534">
        <ele>478</ele>
        <time>2022-02-14T13:50:42.37Z</time>
      </trkpt>
      <trkpt lat="45.64221" lon="3.24529">
        <ele>478</ele>
        <time>2022-02-14T13:50:43.06Z</time>
      </trkpt>
      <trkpt lat="45.64224" lon="3.24517">
        <ele>477.5</ele>
        <time>2022-02-14T13:50:44.75Z</time>
      </trkpt>
      <trkpt lat="45.64232" lon="3.24501">
        <ele>477</ele>
        <time>2022-02-14T13:50:47.55Z</time>
      </trkpt>
      <trkpt lat="45.64236" lon="3.24494">
        <ele>477</ele>
        <time>2022-02-14T13:50:48.77Z</time>
      </trkpt>
      <trkpt lat="45.64239" lon="3.24489">
        <ele>477</ele>
        <time>2022-02-14T13:50:49.65Z</time>
      </trkpt>
      <trkpt lat="45.64243" lon="3.24482">
        <ele>477</ele>
        <time>2022-02-14T13:50:51Z</time>
      </trkpt>
      <trkpt lat="45.64261" lon="3.24454">
        <ele>477</ele>
        <time>2022-02-14T13:50:56.32Z</time>
      </trkpt>
      <trkpt lat="45.64263" lon="3.2445">
        <ele>477</ele>
        <time>2022-02-14T13:50:56.96Z</time>
      </trkpt>
      <trkpt lat="45.64266" lon="3.24445">
        <ele>477</ele>
        <time>2022-02-14T13:50:57.93Z</time>
      </trkpt>
      <trkpt lat="45.64305" lon="3.24374">
        <ele>475</ele>
        <time>2022-02-14T13:51:10.53Z</time>
      </trkpt>
      <trkpt lat="45.64315" lon="3.24356">
        <ele>474.5</ele>
        <time>2022-02-14T13:51:13.70Z</time>
      </trkpt>
      <trkpt lat="45.64318" lon="3.2436">
        <ele>474.5</ele>
        <time>2022-02-14T13:51:14.50Z</time>
      </trkpt>
      <trkpt lat="45.64321" lon="3.24362">
        <ele>474.5</ele>
        <time>2022-02-14T13:51:15.14Z</time>
      </trkpt>
      <trkpt lat="45.64332" lon="3.24373">
        <ele>474.75</ele>
        <time>2022-02-14T13:51:17.79Z</time>
      </trkpt>
      <trkpt lat="45.64334" lon="3.24376">
        <ele>475</ele>
        <time>2022-02-14T13:51:18.47Z</time>
      </trkpt>
      <trkpt lat="45.6436" lon="3.24399">
        <ele>476</ele>
        <time>2022-02-14T13:51:24.47Z</time>
      </trkpt>
      <trkpt lat="45.64414" lon="3.2442">
        <ele>478.75</ele>
        <time>2022-02-14T13:51:35.65Z</time>
      </trkpt>
      <trkpt lat="45.64418" lon="3.2443">
        <ele>479</ele>
        <time>2022-02-14T13:51:37.38Z</time>
      </trkpt>
      <trkpt lat="45.64422" lon="3.2445">
        <ele>479.25</ele>
        <time>2022-02-14T13:51:40.24Z</time>
      </trkpt>
      <trkpt lat="45.64428" lon="3.24494">
        <ele>479.75</ele>
        <time>2022-02-14T13:51:46.54Z</time>
      </trkpt>
      <trkpt lat="45.64432" lon="3.24535">
        <ele>480.25</ele>
        <time>2022-02-14T13:51:52.35Z</time>
      </trkpt>
      <trkpt lat="45.64433" lon="3.24545">
        <ele>480.25</ele>
        <time>2022-02-14T13:51:53.76Z</time>
      </trkpt>
      <trkpt lat="45.64436" lon="3.24584">
        <ele>480.5</ele>
        <time>2022-02-14T13:51:59.19Z</time>
      </trkpt>
      <trkpt lat="45.64435" lon="3.24594">
        <ele>480.5</ele>
        <time>2022-02-14T13:52:00.57Z</time>
      </trkpt>
      <trkpt lat="45.64441" lon="3.24596">
        <ele>480.25</ele>
        <time>2022-02-14T13:52:01.80Z</time>
      </trkpt>
      <trkpt lat="45.6449" lon="3.24592">
        <ele>479</ele>
        <time>2022-02-14T13:52:11.58Z</time>
      </trkpt>
      <trkpt lat="45.64497" lon="3.24592">
        <ele>478.75</ele>
        <time>2022-02-14T13:52:12.84Z</time>
      </trkpt>
      <trkpt lat="45.64499" lon="3.24593">
        <ele>478.75</ele>
        <time>2022-02-14T13:52:13.29Z</time>
      </trkpt>
      <trkpt lat="45.64501" lon="3.2459">
        <ele>478.75</ele>
        <time>2022-02-14T13:52:13.96Z</time>
      </trkpt>
      <trkpt lat="45.64503" lon="3.24588">
        <ele>478.75</ele>
        <time>2022-02-14T13:52:14.48Z</time>
      </trkpt>
      <trkpt lat="45.64525" lon="3.24582">
        <ele>478</ele>
        <time>2022-02-14T13:52:18.79Z</time>
      </trkpt>
      <trkpt lat="45.64541" lon="3.2458">
        <ele>477.5</ele>
        <time>2022-02-14T13:52:22.17Z</time>
      </trkpt>
      <trkpt lat="45.64565" lon="3.24573">
        <ele>476.5</ele>
        <time>2022-02-14T13:52:26.98Z</time>
      </trkpt>
      <trkpt lat="45.64602" lon="3.24558">
        <ele>474.5</ele>
        <time>2022-02-14T13:52:34.63Z</time>
      </trkpt>
      <trkpt lat="45.64625" lon="3.24548">
        <ele>472.75</ele>
        <time>2022-02-14T13:52:39.41Z</time>
      </trkpt>
      <trkpt lat="45.64633" lon="3.24542">
        <ele>472.25</ele>
        <time>2022-02-14T13:52:41.22Z</time>
      </trkpt>
      <trkpt lat="45.64655" lon="3.24522">
        <ele>470.25</ele>
        <time>2022-02-14T13:52:46.44Z</time>
      </trkpt>
      <trkpt lat="45.64683" lon="3.24499">
        <ele>468.75</ele>
        <time>2022-02-14T13:52:52.97Z</time>
      </trkpt>
      <trkpt lat="45.64701" lon="3.24486">
        <ele>468.25</ele>
        <time>2022-02-14T13:52:56.95Z</time>
      </trkpt>
      <trkpt lat="45.64704" lon="3.24484">
        <ele>468.25</ele>
        <time>2022-02-14T13:52:57.66Z</time>
      </trkpt>
      <trkpt lat="45.64735" lon="3.2446">
        <ele>467.25</ele>
        <time>2022-02-14T13:53:04.76Z</time>
      </trkpt>
      <trkpt lat="45.64753" lon="3.24442">
        <ele>466.5</ele>
        <time>2022-02-14T13:53:09.03Z</time>
      </trkpt>
      <trkpt lat="45.64769" lon="3.24419">
        <ele>465.5</ele>
        <time>2022-02-14T13:53:13.68Z</time>
      </trkpt>
      <trkpt lat="45.64778" lon="3.24402">
        <ele>465</ele>
        <time>2022-02-14T13:53:16.61Z</time>
      </trkpt>
      <trkpt lat="45.64805" lon="3.24371">
        <ele>463</ele>
        <time>2022-02-14T13:53:23.60Z</time>
      </trkpt>
      <trkpt lat="45.64806" lon="3.24368">
        <ele>463</ele>
        <time>2022-02-14T13:53:24.03Z</time>
      </trkpt>
      <trkpt lat="45.64831" lon="3.2437">
        <ele>461.75</ele>
        <time>2022-02-14T13:53:29.02Z</time>
      </trkpt>
      <trkpt lat="45.64887" lon="3.24395">
        <ele>460</ele>
        <time>2022-02-14T13:53:40.72Z</time>
      </trkpt>
      <trkpt lat="45.649" lon="3.24397">
        <ele>459.25</ele>
        <time>2022-02-14T13:53:43.26Z</time>
      </trkpt>
      <trkpt lat="45.64906" lon="3.24395">
        <ele>459</ele>
        <time>2022-02-14T13:53:44.61Z</time>
      </trkpt>
      <trkpt lat="45.6492" lon="3.2439">
        <ele>458</ele>
        <time>2022-02-14T13:53:47.34Z</time>
      </trkpt>
      <trkpt lat="45.64993" lon="3.24341">
        <ele>453.5</ele>
        <time>2022-02-14T13:54:03.63Z</time>
      </trkpt>
      <trkpt lat="45.65035" lon="3.24305">
        <ele>451.25</ele>
        <time>2022-02-14T13:54:13.36Z</time>
      </trkpt>
      <trkpt lat="45.6505" lon="3.24291">
        <ele>450.5</ele>
        <time>2022-02-14T13:54:16.89Z</time>
      </trkpt>
      <trkpt lat="45.65055" lon="3.24287">
        <ele>450.25</ele>
        <time>2022-02-14T13:54:17.97Z</time>
      </trkpt>
      <trkpt lat="45.6506" lon="3.24285">
        <ele>450</ele>
        <time>2022-02-14T13:54:19.11Z</time>
      </trkpt>
      <trkpt lat="45.65071" lon="3.24281">
        <ele>449.5</ele>
        <time>2022-02-14T13:54:21.28Z</time>
      </trkpt>
      <trkpt lat="45.65085" lon="3.2428">
        <ele>448.75</ele>
        <time>2022-02-14T13:54:24.16Z</time>
      </trkpt>
      <trkpt lat="45.651" lon="3.24281">
        <ele>448</ele>
        <time>2022-02-14T13:54:27.20Z</time>
      </trkpt>
      <trkpt lat="45.6511" lon="3.24284">
        <ele>447.75</ele>
        <time>2022-02-14T13:54:29.15Z</time>
      </trkpt>
      <trkpt lat="45.65117" lon="3.24288">
        <ele>447.25</ele>
        <time>2022-02-14T13:54:30.81Z</time>
      </trkpt>
      <trkpt lat="45.65129" lon="3.24296">
        <ele>446.75</ele>
        <time>2022-02-14T13:54:33.36Z</time>
      </trkpt>
      <trkpt lat="45.6514" lon="3.24307">
        <ele>446</ele>
        <time>2022-02-14T13:54:36.06Z</time>
      </trkpt>
      <trkpt lat="45.65147" lon="3.24316">
        <ele>445.25</ele>
        <time>2022-02-14T13:54:38.03Z</time>
      </trkpt>
      <trkpt lat="45.65155" lon="3.24328">
        <ele>444.75</ele>
        <time>2022-02-14T13:54:40.23Z</time>
      </trkpt>
      <trkpt lat="45.65161" lon="3.24343">
        <ele>444.25</ele>
        <time>2022-02-14T13:54:42.61Z</time>
      </trkpt>
      <trkpt lat="45.65178" lon="3.24402">
        <ele>443.25</ele>
        <time>2022-02-14T13:54:51.49Z</time>
      </trkpt>
      <trkpt lat="45.6518" lon="3.24407">
        <ele>443.25</ele>
        <time>2022-02-14T13:54:52.39Z</time>
      </trkpt>
      <trkpt lat="45.65183" lon="3.24411">
        <ele>443</ele>
        <time>2022-02-14T13:54:53.15Z</time>
      </trkpt>
      <trkpt lat="45.65191" lon="3.24419">
        <ele>442</ele>
        <time>2022-02-14T13:54:55.20Z</time>
      </trkpt>
      <trkpt lat="45.65194" lon="3.2442">
        <ele>441.75</ele>
        <time>2022-02-14T13:54:55.72Z</time>
      </trkpt>
      <trkpt lat="45.652" lon="3.24422">
        <ele>441</ele>
        <time>2022-02-14T13:54:56.94Z</time>
      </trkpt>
      <trkpt lat="45.65208" lon="3.2442">
        <ele>440</ele>
        <time>2022-02-14T13:54:58.71Z</time>
      </trkpt>
      <trkpt lat="45.65213" lon="3.24416">
        <ele>439.25</ele>
        <time>2022-02-14T13:54:59.82Z</time>
      </trkpt>
      <trkpt lat="45.65218" lon="3.24411">
        <ele>438.5</ele>
        <time>2022-02-14T13:55:00.98Z</time>
      </trkpt>
      <trkpt lat="45.65223" lon="3.24402">
        <ele>437.75</ele>
        <time>2022-02-14T13:55:02.54Z</time>
      </trkpt>
      <trkpt lat="45.65224" lon="3.24396">
        <ele>437.5</ele>
        <time>2022-02-14T13:55:03.48Z</time>
      </trkpt>
      <trkpt lat="45.65225" lon="3.24386">
        <ele>437</ele>
        <time>2022-02-14T13:55:04.83Z</time>
      </trkpt>
      <trkpt lat="45.65224" lon="3.2437">
        <ele>436.5</ele>
        <time>2022-02-14T13:55:07.16Z</time>
      </trkpt>
      <trkpt lat="45.65222" lon="3.24341">
        <ele>436</ele>
        <time>2022-02-14T13:55:11.16Z</time>
      </trkpt>
      <trkpt lat="45.65224" lon="3.24315">
        <ele>436.5</ele>
        <time>2022-02-14T13:55:14.88Z</time>
      </trkpt>
      <trkpt lat="45.65227" lon="3.24296">
        <ele>437</ele>
        <time>2022-02-14T13:55:17.58Z</time>
      </trkpt>
      <trkpt lat="45.65233" lon="3.2428">
        <ele>437.25</ele>
        <time>2022-02-14T13:55:20.05Z</time>
      </trkpt>
      <trkpt lat="45.6525" lon="3.24262">
        <ele>436.25</ele>
        <time>2022-02-14T13:55:24.34Z</time>
      </trkpt>
      <trkpt lat="45.65267" lon="3.24251">
        <ele>432.5</ele>
        <time>2022-02-14T13:55:28.15Z</time>
      </trkpt>
      <trkpt lat="45.65276" lon="3.24245">
        <ele>430.75</ele>
        <time>2022-02-14T13:55:29.98Z</time>
      </trkpt>
      <trkpt lat="45.65289" lon="3.24231">
        <ele>428.25</ele>
        <time>2022-02-14T13:55:33.22Z</time>
      </trkpt>
      <trkpt lat="45.65301" lon="3.24209">
        <ele>426.5</ele>
        <time>2022-02-14T13:55:37.17Z</time>
      </trkpt>
      <trkpt lat="45.65309" lon="3.24192">
        <ele>426</ele>
        <time>2022-02-14T13:55:40.02Z</time>
      </trkpt>
      <trkpt lat="45.65322" lon="3.24156">
        <ele>425.25</ele>
        <time>2022-02-14T13:55:45.78Z</time>
      </trkpt>
      <trkpt lat="45.65333" lon="3.24099">
        <ele>423.75</ele>
        <time>2022-02-14T13:55:53.92Z</time>
      </trkpt>
      <trkpt lat="45.65339" lon="3.24072">
        <ele>421.75</ele>
        <time>2022-02-14T13:55:57.91Z</time>
      </trkpt>
      <trkpt lat="45.65348" lon="3.24048">
        <ele>418.5</ele>
        <time>2022-02-14T13:56:01.78Z</time>
      </trkpt>
      <trkpt lat="45.6536" lon="3.24027">
        <ele>415.25</ele>
        <time>2022-02-14T13:56:05.51Z</time>
      </trkpt>
      <trkpt lat="45.65396" lon="3.23978">
        <ele>408.25</ele>
        <time>2022-02-14T13:56:15.53Z</time>
      </trkpt>
      <trkpt lat="45.65415" lon="3.2395">
        <ele>406.25</ele>
        <time>2022-02-14T13:56:20.91Z</time>
      </trkpt>
      <trkpt lat="45.65422" lon="3.23934">
        <ele>405.75</ele>
        <time>2022-02-14T13:56:23.51Z</time>
      </trkpt>
      <trkpt lat="45.65427" lon="3.23917">
        <ele>405.75</ele>
        <time>2022-02-14T13:56:26.18Z</time>
      </trkpt>
      <trkpt lat="45.6543" lon="3.23899">
        <ele>404.25</ele>
        <time>2022-02-14T13:56:28.80Z</time>
      </trkpt>
      <trkpt lat="45.65431" lon="3.23881">
        <ele>403.25</ele>
        <time>2022-02-14T13:56:31.28Z</time>
      </trkpt>
      <trkpt lat="45.65429" lon="3.23857">
        <ele>402.5</ele>
        <time>2022-02-14T13:56:34.66Z</time>
      </trkpt>
      <trkpt lat="45.65407" lon="3.23767">
        <ele>401.75</ele>
        <time>2022-02-14T13:56:47.93Z</time>
      </trkpt>
      <trkpt lat="45.65394" lon="3.2371">
        <ele>400.25</ele>
        <time>2022-02-14T13:56:56.32Z</time>
      </trkpt>
      <trkpt lat="45.65394" lon="3.23694">
        <ele>399</ele>
        <time>2022-02-14T13:56:58.60Z</time>
      </trkpt>
      <trkpt lat="45.65397" lon="3.2366">
        <ele>396</ele>
        <time>2022-02-14T13:57:03.33Z</time>
      </trkpt>
      <trkpt lat="45.65405" lon="3.23597">
        <ele>392</ele>
        <time>2022-02-14T13:57:12.36Z</time>
      </trkpt>
      <trkpt lat="45.65405" lon="3.23563">
        <ele>390</ele>
        <time>2022-02-14T13:57:17.05Z</time>
      </trkpt>
      <trkpt lat="45.654" lon="3.23533">
        <ele>389</ele>
        <time>2022-02-14T13:57:21.34Z</time>
      </trkpt>
      <trkpt lat="45.65382" lon="3.23478">
        <ele>389.5</ele>
        <time>2022-02-14T13:57:29.93Z</time>
      </trkpt>
      <trkpt lat="45.65377" lon="3.23441">
        <ele>388.5</ele>
        <time>2022-02-14T13:57:35.15Z</time>
      </trkpt>
      <trkpt lat="45.6538" lon="3.23371">
        <ele>384.75</ele>
        <time>2022-02-14T13:57:45.02Z</time>
      </trkpt>
      <trkpt lat="45.6538" lon="3.23344">
        <ele>384</ele>
        <time>2022-02-14T13:57:48.72Z</time>
      </trkpt>
      <trkpt lat="45.65375" lon="3.23297">
        <ele>384.5</ele>
        <time>2022-02-14T13:57:55.44Z</time>
      </trkpt>
      <trkpt lat="45.65376" lon="3.23281">
        <ele>383.75</ele>
        <time>2022-02-14T13:57:57.69Z</time>
      </trkpt>
      <trkpt lat="45.65382" lon="3.23269">
        <ele>382</ele>
        <time>2022-02-14T13:57:59.75Z</time>
      </trkpt>
      <trkpt lat="45.65401" lon="3.23255">
        <ele>376.75</ele>
        <time>2022-02-14T13:58:04.02Z</time>
      </trkpt>
      <trkpt lat="45.65399" lon="3.23274">
        <ele>377.5</ele>
        <time>2022-02-14T13:58:06.72Z</time>
      </trkpt>
      <trkpt lat="45.65394" lon="3.23307">
        <ele>379.25</ele>
        <time>2022-02-14T13:58:11.41Z</time>
      </trkpt>
      <trkpt lat="45.65387" lon="3.23441">
        <ele>385.5</ele>
        <time>2022-02-14T13:58:30.26Z</time>
      </trkpt>
      <trkpt lat="45.65393" lon="3.23476">
        <ele>386.5</ele>
        <time>2022-02-14T13:58:35.23Z</time>
      </trkpt>
      <trkpt lat="45.65406" lon="3.23512">
        <ele>386.25</ele>
        <time>2022-02-14T13:58:40.95Z</time>
      </trkpt>
      <trkpt lat="45.65425" lon="3.23558">
        <ele>386.25</ele>
        <time>2022-02-14T13:58:48.40Z</time>
      </trkpt>
      <trkpt lat="45.65434" lon="3.23611">
        <ele>387.25</ele>
        <time>2022-02-14T13:58:56.05Z</time>
      </trkpt>
      <trkpt lat="45.65437" lon="3.23665">
        <ele>388.5</ele>
        <time>2022-02-14T13:59:03.64Z</time>
      </trkpt>
      <trkpt lat="45.65443" lon="3.23701">
        <ele>390</ele>
        <time>2022-02-14T13:59:08.80Z</time>
      </trkpt>
      <trkpt lat="45.65453" lon="3.23739">
        <ele>390.75</ele>
        <time>2022-02-14T13:59:14.46Z</time>
      </trkpt>
      <trkpt lat="45.65464" lon="3.23761">
        <ele>389.75</ele>
        <time>2022-02-14T13:59:18.33Z</time>
      </trkpt>
      <trkpt lat="45.65495" lon="3.23797">
        <ele>385.75</ele>
        <time>2022-02-14T13:59:26.35Z</time>
      </trkpt>
      <trkpt lat="45.65502" lon="3.23814">
        <ele>385.75</ele>
        <time>2022-02-14T13:59:29.04Z</time>
      </trkpt>
      <trkpt lat="45.65505" lon="3.23832">
        <ele>387.25</ele>
        <time>2022-02-14T13:59:31.58Z</time>
      </trkpt>
      <trkpt lat="45.65489" lon="3.2395">
        <ele>392</ele>
        <time>2022-02-14T13:59:48.37Z</time>
      </trkpt>
      <trkpt lat="45.65487" lon="3.23967">
        <ele>392.25</ele>
        <time>2022-02-14T13:59:50.84Z</time>
      </trkpt>
      <trkpt lat="45.65487" lon="3.23971">
        <ele>392.25</ele>
        <time>2022-02-14T13:59:51.42Z</time>
      </trkpt>
      <trkpt lat="45.65499" lon="3.23986">
        <ele>390</ele>
        <time>2022-02-14T13:59:54.73Z</time>
      </trkpt>
      <trkpt lat="45.65509" lon="3.23995">
        <ele>392</ele>
        <time>2022-02-14T13:59:57.10Z</time>
      </trkpt>
      <trkpt lat="45.65513" lon="3.24003">
        <ele>393</ele>
        <time>2022-02-14T13:59:58.41Z</time>
      </trkpt>
      <trkpt lat="45.65513" lon="3.24034">
        <ele>394</ele>
        <time>2022-02-14T14:00:02.67Z</time>
      </trkpt>
      <trkpt lat="45.65523" lon="3.24073">
        <ele>397</ele>
        <time>2022-02-14T14:00:08.46Z</time>
      </trkpt>
      <trkpt lat="45.65528" lon="3.24084">
        <ele>398.25</ele>
        <time>2022-02-14T14:00:10.44Z</time>
      </trkpt>
      <trkpt lat="45.65536" lon="3.24096">
        <ele>400.5</ele>
        <time>2022-02-14T14:00:12.71Z</time>
      </trkpt>
      <trkpt lat="45.65549" lon="3.24111">
        <ele>403</ele>
        <time>2022-02-14T14:00:16.05Z</time>
      </trkpt>
      <trkpt lat="45.65577" lon="3.24186">
        <ele>405.5</ele>
        <time>2022-02-14T14:00:27.92Z</time>
      </trkpt>
      <trkpt lat="45.65605" lon="3.24253">
        <ele>406</ele>
        <time>2022-02-14T14:00:38.88Z</time>
      </trkpt>
      <trkpt lat="45.65638" lon="3.24296">
        <ele>406</ele>
        <time>2022-02-14T14:00:47.74Z</time>
      </trkpt>
      <trkpt lat="45.65658" lon="3.24325">
        <ele>403.5</ele>
        <time>2022-02-14T14:00:53.42Z</time>
      </trkpt>
      <trkpt lat="45.65705" lon="3.24436">
        <ele>413.25</ele>
        <time>2022-02-14T14:01:11.60Z</time>
      </trkpt>
      <trkpt lat="45.65724" lon="3.24476">
        <ele>414.5</ele>
        <time>2022-02-14T14:01:18.31Z</time>
      </trkpt>
      <trkpt lat="45.65764" lon="3.24534">
        <ele>415.25</ele>
        <time>2022-02-14T14:01:29.72Z</time>
      </trkpt>
      <trkpt lat="45.65855" lon="3.24631">
        <ele>418.5</ele>
        <time>2022-02-14T14:01:52.47Z</time>
      </trkpt>
      <trkpt lat="45.65856" lon="3.24635">
        <ele>418.5</ele>
        <time>2022-02-14T14:01:52.94Z</time>
      </trkpt>
      <trkpt lat="45.6586" lon="3.24681">
        <ele>420.75</ele>
        <time>2022-02-14T14:01:59.48Z</time>
      </trkpt>
      <trkpt lat="45.65856" lon="3.24738">
        <ele>424</ele>
        <time>2022-02-14T14:02:07.55Z</time>
      </trkpt>
      <trkpt lat="45.65853" lon="3.24765">
        <ele>425.25</ele>
        <time>2022-02-14T14:02:11.39Z</time>
      </trkpt>
      <trkpt lat="45.65846" lon="3.24791">
        <ele>425.5</ele>
        <time>2022-02-14T14:02:15.19Z</time>
      </trkpt>
      <trkpt lat="45.65845" lon="3.24815">
        <ele>426.25</ele>
        <time>2022-02-14T14:02:18.65Z</time>
      </trkpt>
      <trkpt lat="45.65847" lon="3.2484">
        <ele>427.5</ele>
        <time>2022-02-14T14:02:22.11Z</time>
      </trkpt>
      <trkpt lat="45.65852" lon="3.24866">
        <ele>428.25</ele>
        <time>2022-02-14T14:02:25.92Z</time>
      </trkpt>
      <trkpt lat="45.65862" lon="3.2489">
        <ele>429</ele>
        <time>2022-02-14T14:02:29.72Z</time>
      </trkpt>
      <trkpt lat="45.65874" lon="3.2491">
        <ele>429.5</ele>
        <time>2022-02-14T14:02:33.58Z</time>
      </trkpt>
      <trkpt lat="45.65887" lon="3.24925">
        <ele>429.75</ele>
        <time>2022-02-14T14:02:36.83Z</time>
      </trkpt>
      <trkpt lat="45.65906" lon="3.24938">
        <ele>429.5</ele>
        <time>2022-02-14T14:02:40.98Z</time>
      </trkpt>
      <trkpt lat="45.65939" lon="3.24956">
        <ele>430.25</ele>
        <time>2022-02-14T14:02:48.12Z</time>
      </trkpt>
      <trkpt lat="45.66049" lon="3.24997">
        <ele>434.5</ele>
        <time>2022-02-14T14:03:10.85Z</time>
      </trkpt>
      <trkpt lat="45.6613" lon="3.25016">
        <ele>441</ele>
        <time>2022-02-14T14:03:27.35Z</time>
      </trkpt>
      <trkpt lat="45.66163" lon="3.25024">
        <ele>443.25</ele>
        <time>2022-02-14T14:03:33.92Z</time>
      </trkpt>
      <trkpt lat="45.66202" lon="3.25045">
        <ele>446.5</ele>
        <time>2022-02-14T14:03:42.21Z</time>
      </trkpt>
      <trkpt lat="45.66247" lon="3.25074">
        <ele>448.75</ele>
        <time>2022-02-14T14:03:52.10Z</time>
      </trkpt>
      <trkpt lat="45.66297" lon="3.25104">
        <ele>450.75</ele>
        <time>2022-02-14T14:04:03.03Z</time>
      </trkpt>
      <trkpt lat="45.66338" lon="3.25141">
        <ele>450</ele>
        <time>2022-02-14T14:04:12.68Z</time>
      </trkpt>
      <trkpt lat="45.66341" lon="3.25144">
        <ele>449.75</ele>
        <time>2022-02-14T14:04:13.37Z</time>
      </trkpt>
      <trkpt lat="45.66375" lon="3.25178">
        <ele>449</ele>
        <time>2022-02-14T14:04:21.82Z</time>
      </trkpt>
      <trkpt lat="45.66407" lon="3.2521">
        <ele>449.75</ele>
        <time>2022-02-14T14:04:29.54Z</time>
      </trkpt>
      <trkpt lat="45.66436" lon="3.25248">
        <ele>451</ele>
        <time>2022-02-14T14:04:37.42Z</time>
      </trkpt>
      <trkpt lat="45.66452" lon="3.25289">
        <ele>450.5</ele>
        <time>2022-02-14T14:04:43.97Z</time>
      </trkpt>
      <trkpt lat="45.66491" lon="3.25365">
        <ele>450.5</ele>
        <time>2022-02-14T14:04:57.23Z</time>
      </trkpt>
      <trkpt lat="45.66511" lon="3.25391">
        <ele>451.75</ele>
        <time>2022-02-14T14:05:02.59Z</time>
      </trkpt>
      <trkpt lat="45.66565" lon="3.25462">
        <ele>456</ele>
        <time>2022-02-14T14:05:17.24Z</time>
      </trkpt>
      <trkpt lat="45.66606" lon="3.25557">
        <ele>456.25</ele>
        <time>2022-02-14T14:05:32.85Z</time>
      </trkpt>
      <trkpt lat="45.66632" lon="3.25616">
        <ele>458</ele>
        <time>2022-02-14T14:05:42.58Z</time>
      </trkpt>
      <trkpt lat="45.66675" lon="3.25699">
        <ele>459.25</ele>
        <time>2022-02-14T14:05:56.99Z</time>
      </trkpt>
      <trkpt lat="45.66677" lon="3.25707">
        <ele>459</ele>
        <time>2022-02-14T14:05:58.18Z</time>
      </trkpt>
      <trkpt lat="45.66679" lon="3.25714">
        <ele>459</ele>
        <time>2022-02-14T14:05:59.24Z</time>
      </trkpt>
      <trkpt lat="45.66679" lon="3.25717">
        <ele>458.75</ele>
        <time>2022-02-14T14:05:59.66Z</time>
      </trkpt>
      <trkpt lat="45.6668" lon="3.2573">
        <ele>458.25</ele>
        <time>2022-02-14T14:06:01.49Z</time>
      </trkpt>
      <trkpt lat="45.66674" lon="3.25768">
        <ele>458.25</ele>
        <time>2022-02-14T14:06:06.97Z</time>
      </trkpt>
      <trkpt lat="45.66665" lon="3.25815">
        <ele>460.75</ele>
        <time>2022-02-14T14:06:13.79Z</time>
      </trkpt>
      <trkpt lat="45.66661" lon="3.25836">
        <ele>461.75</ele>
        <time>2022-02-14T14:06:16.81Z</time>
      </trkpt>
      <trkpt lat="45.66679" lon="3.25844">
        <ele>462.25</ele>
        <time>2022-02-14T14:06:20.55Z</time>
      </trkpt>
      <trkpt lat="45.66698" lon="3.25846">
        <ele>462.5</ele>
        <time>2022-02-14T14:06:24.29Z</time>
      </trkpt>
      <trkpt lat="45.66705" lon="3.25846">
        <ele>462.25</ele>
        <time>2022-02-14T14:06:25.69Z</time>
      </trkpt>
      <trkpt lat="45.66745" lon="3.25842">
        <ele>461.75</ele>
        <time>2022-02-14T14:06:33.77Z</time>
      </trkpt>
      <trkpt lat="45.66756" lon="3.25843">
        <ele>462</ele>
        <time>2022-02-14T14:06:36Z</time>
      </trkpt>
      <trkpt lat="45.6676" lon="3.25843">
        <ele>462</ele>
        <time>2022-02-14T14:06:36.70Z</time>
      </trkpt>
      <trkpt lat="45.66775" lon="3.25849">
        <ele>463</ele>
        <time>2022-02-14T14:06:39.93Z</time>
      </trkpt>
      <trkpt lat="45.66805" lon="3.25869">
        <ele>465.5</ele>
        <time>2022-02-14T14:06:46.52Z</time>
      </trkpt>
      <trkpt lat="45.66827" lon="3.25886">
        <ele>467.25</ele>
        <time>2022-02-14T14:06:51.44Z</time>
      </trkpt>
      <trkpt lat="45.6683" lon="3.25888">
        <ele>467.5</ele>
        <time>2022-02-14T14:06:52.10Z</time>
      </trkpt>
      <trkpt lat="45.66855" lon="3.25907">
        <ele>468.5</ele>
        <time>2022-02-14T14:06:57.80Z</time>
      </trkpt>
      <trkpt lat="45.66863" lon="3.25911">
        <ele>468.5</ele>
        <time>2022-02-14T14:06:59.52Z</time>
      </trkpt>
      <trkpt lat="45.66906" lon="3.25929">
        <ele>468.75</ele>
        <time>2022-02-14T14:07:08.47Z</time>
      </trkpt>
      <trkpt lat="45.6693" lon="3.25941">
        <ele>470.25</ele>
        <time>2022-02-14T14:07:13.60Z</time>
      </trkpt>
      <trkpt lat="45.66944" lon="3.25949">
        <ele>471.25</ele>
        <time>2022-02-14T14:07:16.52Z</time>
      </trkpt>
      <trkpt lat="45.66967" lon="3.25967">
        <ele>472.75</ele>
        <time>2022-02-14T14:07:21.73Z</time>
      </trkpt>
      <trkpt lat="45.6697" lon="3.25969">
        <ele>473</ele>
        <time>2022-02-14T14:07:22.39Z</time>
      </trkpt>
      <trkpt lat="45.66985" lon="3.25983">
        <ele>473.5</ele>
        <time>2022-02-14T14:07:26Z</time>
      </trkpt>
      <trkpt lat="45.67011" lon="3.26011">
        <ele>475</ele>
        <time>2022-02-14T14:07:32.51Z</time>
      </trkpt>
      <trkpt lat="45.6703" lon="3.26028">
        <ele>477</ele>
        <time>2022-02-14T14:07:37.14Z</time>
      </trkpt>
      <trkpt lat="45.67052" lon="3.2605">
        <ele>478.75</ele>
        <time>2022-02-14T14:07:42.33Z</time>
      </trkpt>
      <trkpt lat="45.67081" lon="3.26047">
        <ele>477.75</ele>
        <time>2022-02-14T14:07:48.14Z</time>
      </trkpt>
      <trkpt lat="45.67088" lon="3.26045">
        <ele>477.75</ele>
        <time>2022-02-14T14:07:49.64Z</time>
      </trkpt>
      <trkpt lat="45.67097" lon="3.26041">
        <ele>477.5</ele>
        <time>2022-02-14T14:07:51.54Z</time>
      </trkpt>
      <trkpt lat="45.67104" lon="3.26037">
        <ele>477.25</ele>
        <time>2022-02-14T14:07:52.99Z</time>
      </trkpt>
      <trkpt lat="45.67107" lon="3.26033">
        <ele>477.25</ele>
        <time>2022-02-14T14:07:53.80Z</time>
      </trkpt>
      <trkpt lat="45.67111" lon="3.26026">
        <ele>476.75</ele>
        <time>2022-02-14T14:07:55.14Z</time>
      </trkpt>
      <trkpt lat="45.67139" lon="3.2596">
        <ele>476.25</ele>
        <time>2022-02-14T14:08:05.80Z</time>
      </trkpt>
      <trkpt lat="45.67142" lon="3.25954">
        <ele>476.5</ele>
        <time>2022-02-14T14:08:06.93Z</time>
      </trkpt>
      <trkpt lat="45.67149" lon="3.25945">
        <ele>477</ele>
        <time>2022-02-14T14:08:08.75Z</time>
      </trkpt>
      <trkpt lat="45.67152" lon="3.25943">
        <ele>477.25</ele>
        <time>2022-02-14T14:08:09.52Z</time>
      </trkpt>
      <trkpt lat="45.67159" lon="3.2594">
        <ele>477.75</ele>
        <time>2022-02-14T14:08:10.93Z</time>
      </trkpt>
      <trkpt lat="45.67174" lon="3.25936">
        <ele>478.75</ele>
        <time>2022-02-14T14:08:13.91Z</time>
      </trkpt>
      <trkpt lat="45.67211" lon="3.25932">
        <ele>481.25</ele>
        <time>2022-02-14T14:08:21.31Z</time>
      </trkpt>
      <trkpt lat="45.67261" lon="3.25924">
        <ele>484.75</ele>
        <time>2022-02-14T14:08:31.50Z</time>
      </trkpt>
      <trkpt lat="45.67283" lon="3.25917">
        <ele>486.75</ele>
        <time>2022-02-14T14:08:36.02Z</time>
      </trkpt>
      <trkpt lat="45.67305" lon="3.25907">
        <ele>489.5</ele>
        <time>2022-02-14T14:08:40.47Z</time>
      </trkpt>
      <trkpt lat="45.67326" lon="3.25894">
        <ele>492</ele>
        <time>2022-02-14T14:08:45.14Z</time>
      </trkpt>
      <trkpt lat="45.67334" lon="3.25888">
        <ele>493</ele>
        <time>2022-02-14T14:08:46.95Z</time>
      </trkpt>
      <trkpt lat="45.67342" lon="3.25882">
        <ele>493.75</ele>
        <time>2022-02-14T14:08:48.67Z</time>
      </trkpt>
      <trkpt lat="45.67349" lon="3.25873">
        <ele>494.25</ele>
        <time>2022-02-14T14:08:50.58Z</time>
      </trkpt>
      <trkpt lat="45.67391" lon="3.25821">
        <ele>496.25</ele>
        <time>2022-02-14T14:09:01.75Z</time>
      </trkpt>
      <trkpt lat="45.67416" lon="3.25792">
        <ele>497.25</ele>
        <time>2022-02-14T14:09:08.20Z</time>
      </trkpt>
      <trkpt lat="45.67439" lon="3.2577">
        <ele>499.25</ele>
        <time>2022-02-14T14:09:13.65Z</time>
      </trkpt>
      <trkpt lat="45.67462" lon="3.25744">
        <ele>500.25</ele>
        <time>2022-02-14T14:09:19.44Z</time>
      </trkpt>
      <trkpt lat="45.67494" lon="3.25706">
        <ele>501.5</ele>
        <time>2022-02-14T14:09:27.91Z</time>
      </trkpt>
      <trkpt lat="45.67512" lon="3.25689">
        <ele>502</ele>
        <time>2022-02-14T14:09:32.12Z</time>
      </trkpt>
      <trkpt lat="45.67535" lon="3.25671">
        <ele>502.75</ele>
        <time>2022-02-14T14:09:37.30Z</time>
      </trkpt>
      <trkpt lat="45.67692" lon="3.25568">
        <ele>515</ele>
        <time>2022-02-14T14:10:11.87Z</time>
      </trkpt>
      <trkpt lat="45.67696" lon="3.25566">
        <ele>515.5</ele>
        <time>2022-02-14T14:10:12.78Z</time>
      </trkpt>
      <trkpt lat="45.67721" lon="3.2556">
        <ele>518</ele>
        <time>2022-02-14T14:10:17.91Z</time>
      </trkpt>
      <trkpt lat="45.67748" lon="3.25566">
        <ele>519.75</ele>
        <time>2022-02-14T14:10:23.26Z</time>
      </trkpt>
      <trkpt lat="45.67982" lon="3.25673">
        <ele>539</ele>
        <time>2022-02-14T14:11:12.47Z</time>
      </trkpt>
      <trkpt lat="45.68003" lon="3.25699">
        <ele>542.75</ele>
        <time>2022-02-14T14:11:17.93Z</time>
      </trkpt>
      <trkpt lat="45.6802" lon="3.2573">
        <ele>546.75</ele>
        <time>2022-02-14T14:11:23.55Z</time>
      </trkpt>
      <trkpt lat="45.68064" lon="3.2578">
        <ele>551.5</ele>
        <time>2022-02-14T14:11:34.77Z</time>
      </trkpt>
      <trkpt lat="45.68089" lon="3.258">
        <ele>552.25</ele>
        <time>2022-02-14T14:11:40.54Z</time>
      </trkpt>
      <trkpt lat="45.68196" lon="3.25831">
        <ele>555.5</ele>
        <time>2022-02-14T14:12:02.30Z</time>
      </trkpt>
      <trkpt lat="45.68244" lon="3.25832">
        <ele>558.5</ele>
        <time>2022-02-14T14:12:11.86Z</time>
      </trkpt>
      <trkpt lat="45.68309" lon="3.25826">
        <ele>561.75</ele>
        <time>2022-02-14T14:12:24.89Z</time>
      </trkpt>
      <trkpt lat="45.68355" lon="3.25838">
        <ele>564</ele>
        <time>2022-02-14T14:12:34.23Z</time>
      </trkpt>
      <trkpt lat="45.68502" lon="3.25806">
        <ele>568</ele>
        <time>2022-02-14T14:13:03.96Z</time>
      </trkpt>
      <trkpt lat="45.6851" lon="3.25804">
        <ele>567.5</ele>
        <time>2022-02-14T14:13:05.62Z</time>
      </trkpt>
      <trkpt lat="45.68522" lon="3.258">
        <ele>566.75</ele>
        <time>2022-02-14T14:13:08.11Z</time>
      </trkpt>
      <trkpt lat="45.6856" lon="3.25813">
        <ele>564</ele>
        <time>2022-02-14T14:13:16.04Z</time>
      </trkpt>
      <trkpt lat="45.68625" lon="3.25847">
        <ele>554.75</ele>
        <time>2022-02-14T14:13:29.70Z</time>
      </trkpt>
      <trkpt lat="45.68641" lon="3.25865">
        <ele>552</ele>
        <time>2022-02-14T14:13:33.80Z</time>
      </trkpt>
      <trkpt lat="45.68648" lon="3.25887">
        <ele>551.25</ele>
        <time>2022-02-14T14:13:37.18Z</time>
      </trkpt>
      <trkpt lat="45.68646" lon="3.25914">
        <ele>552</ele>
        <time>2022-02-14T14:13:40.95Z</time>
      </trkpt>
      <trkpt lat="45.6864" lon="3.25951">
        <ele>554.75</ele>
        <time>2022-02-14T14:13:46.27Z</time>
      </trkpt>
      <trkpt lat="45.68651" lon="3.25986">
        <ele>554.75</ele>
        <time>2022-02-14T14:13:51.55Z</time>
      </trkpt>
      <trkpt lat="45.6872" lon="3.26012">
        <ele>545.5</ele>
        <time>2022-02-14T14:14:05.93Z</time>
      </trkpt>
      <trkpt lat="45.68766" lon="3.26042">
        <ele>542.75</ele>
        <time>2022-02-14T14:14:16.03Z</time>
      </trkpt>
      <trkpt lat="45.68814" lon="3.26053">
        <ele>539</ele>
        <time>2022-02-14T14:14:25.68Z</time>
      </trkpt>
      <trkpt lat="45.68833" lon="3.26071">
        <ele>539.25</ele>
        <time>2022-02-14T14:14:30.22Z</time>
      </trkpt>
      <trkpt lat="45.6885" lon="3.26098">
        <ele>540.25</ele>
        <time>2022-02-14T14:14:35.41Z</time>
      </trkpt>
      <trkpt lat="45.68892" lon="3.26145">
        <ele>540.25</ele>
        <time>2022-02-14T14:14:46.02Z</time>
      </trkpt>
      <trkpt lat="45.68912" lon="3.26158">
        <ele>539.25</ele>
        <time>2022-02-14T14:14:50.47Z</time>
      </trkpt>
      <trkpt lat="45.68936" lon="3.26154">
        <ele>537.75</ele>
        <time>2022-02-14T14:14:55.29Z</time>
      </trkpt>
      <trkpt lat="45.6895" lon="3.26146">
        <ele>536.5</ele>
        <time>2022-02-14T14:14:58.24Z</time>
      </trkpt>
      <trkpt lat="45.69" lon="3.26115">
        <ele>530.25</ele>
        <time>2022-02-14T14:15:09.21Z</time>
      </trkpt>
      <trkpt lat="45.69024" lon="3.26105">
        <ele>527.5</ele>
        <time>2022-02-14T14:15:14.20Z</time>
      </trkpt>
      <trkpt lat="45.69047" lon="3.26102">
        <ele>526.25</ele>
        <time>2022-02-14T14:15:18.86Z</time>
      </trkpt>
      <trkpt lat="45.69144" lon="3.26139">
        <ele>523.75</ele>
        <time>2022-02-14T14:15:38.85Z</time>
      </trkpt>
      <trkpt lat="45.69229" lon="3.26198">
        <ele>524</ele>
        <time>2022-02-14T14:15:57.77Z</time>
      </trkpt>
      <trkpt lat="45.69249" lon="3.2621">
        <ele>523.75</ele>
        <time>2022-02-14T14:16:02.18Z</time>
      </trkpt>
      <trkpt lat="45.69272" lon="3.26217">
        <ele>522.5</ele>
        <time>2022-02-14T14:16:06.75Z</time>
      </trkpt>
      <trkpt lat="45.69301" lon="3.26219">
        <ele>519.5</ele>
        <time>2022-02-14T14:16:12.56Z</time>
      </trkpt>
      <trkpt lat="45.69326" lon="3.26216">
        <ele>516</ele>
        <time>2022-02-14T14:16:17.59Z</time>
      </trkpt>
      <trkpt lat="45.69349" lon="3.26204">
        <ele>513.5</ele>
        <time>2022-02-14T14:16:22.49Z</time>
      </trkpt>
      <trkpt lat="45.69392" lon="3.26168">
        <ele>509.5</ele>
        <time>2022-02-14T14:16:32.45Z</time>
      </trkpt>
      <trkpt lat="45.69408" lon="3.26149">
        <ele>507.75</ele>
        <time>2022-02-14T14:16:36.56Z</time>
      </trkpt>
      <trkpt lat="45.69434" lon="3.26127">
        <ele>505.25</ele>
        <time>2022-02-14T14:16:42.61Z</time>
      </trkpt>
      <trkpt lat="45.69453" lon="3.26114">
        <ele>503.25</ele>
        <time>2022-02-14T14:16:46.84Z</time>
      </trkpt>
      <trkpt lat="45.69479" lon="3.26102">
        <ele>501.5</ele>
        <time>2022-02-14T14:16:52.28Z</time>
      </trkpt>
      <trkpt lat="45.69507" lon="3.26095">
        <ele>499.5</ele>
        <time>2022-02-14T14:16:57.97Z</time>
      </trkpt>
      <trkpt lat="45.69528" lon="3.26094">
        <ele>497.25</ele>
        <time>2022-02-14T14:17:02.32Z</time>
      </trkpt>
      <trkpt lat="45.69547" lon="3.261">
        <ele>496.25</ele>
        <time>2022-02-14T14:17:06.23Z</time>
      </trkpt>
      <trkpt lat="45.69576" lon="3.2612">
        <ele>495.5</ele>
        <time>2022-02-14T14:17:12.49Z</time>
      </trkpt>
      <trkpt lat="45.69603" lon="3.26147">
        <ele>495.25</ele>
        <time>2022-02-14T14:17:19.09Z</time>
      </trkpt>
      <trkpt lat="45.69621" lon="3.26164">
        <ele>494.5</ele>
        <time>2022-02-14T14:17:23.45Z</time>
      </trkpt>
      <trkpt lat="45.69635" lon="3.26167">
        <ele>493.25</ele>
        <time>2022-02-14T14:17:26.23Z</time>
      </trkpt>
      <trkpt lat="45.69663" lon="3.26162">
        <ele>488.75</ele>
        <time>2022-02-14T14:17:31.94Z</time>
      </trkpt>
      <trkpt lat="45.69691" lon="3.26163">
        <ele>485.75</ele>
        <time>2022-02-14T14:17:37.44Z</time>
      </trkpt>
      <trkpt lat="45.69718" lon="3.26176">
        <ele>484.5</ele>
        <time>2022-02-14T14:17:43.30Z</time>
      </trkpt>
      <trkpt lat="45.69751" lon="3.26197">
        <ele>483.5</ele>
        <time>2022-02-14T14:17:50.50Z</time>
      </trkpt>
      <trkpt lat="45.69804" lon="3.26217">
        <ele>482.75</ele>
        <time>2022-02-14T14:18:01.41Z</time>
      </trkpt>
      <trkpt lat="45.69861" lon="3.26234">
        <ele>481</ele>
        <time>2022-02-14T14:18:13.01Z</time>
      </trkpt>
      <trkpt lat="45.69904" lon="3.26244">
        <ele>479.25</ele>
        <time>2022-02-14T14:18:21.77Z</time>
      </trkpt>
      <trkpt lat="45.69932" lon="3.2626">
        <ele>476.75</ele>
        <time>2022-02-14T14:18:27.70Z</time>
      </trkpt>
      <trkpt lat="45.69952" lon="3.26278">
        <ele>474.25</ele>
        <time>2022-02-14T14:18:32.59Z</time>
      </trkpt>
      <trkpt lat="45.69985" lon="3.26323">
        <ele>471.5</ele>
        <time>2022-02-14T14:18:41.67Z</time>
      </trkpt>
      <trkpt lat="45.70005" lon="3.26346">
        <ele>470</ele>
        <time>2022-02-14T14:18:46.69Z</time>
      </trkpt>
      <trkpt lat="45.70027" lon="3.26358">
        <ele>468.25</ele>
        <time>2022-02-14T14:18:51.57Z</time>
      </trkpt>
      <trkpt lat="45.7007" lon="3.26366">
        <ele>464</ele>
        <time>2022-02-14T14:19:00.24Z</time>
      </trkpt>
      <trkpt lat="45.70113" lon="3.26371">
        <ele>461.75</ele>
        <time>2022-02-14T14:19:08.71Z</time>
      </trkpt>
      <trkpt lat="45.70156" lon="3.26375">
        <ele>460.25</ele>
        <time>2022-02-14T14:19:17.41Z</time>
      </trkpt>
      <trkpt lat="45.7018" lon="3.26372">
        <ele>459.25</ele>
        <time>2022-02-14T14:19:22.30Z</time>
      </trkpt>
      <trkpt lat="45.70208" lon="3.26365">
        <ele>458</ele>
        <time>2022-02-14T14:19:27.92Z</time>
      </trkpt>
      <trkpt lat="45.70246" lon="3.26353">
        <ele>455.75</ele>
        <time>2022-02-14T14:19:35.75Z</time>
      </trkpt>
      <trkpt lat="45.70261" lon="3.26345">
        <ele>455.25</ele>
        <time>2022-02-14T14:19:38.86Z</time>
      </trkpt>
      <trkpt lat="45.70356" lon="3.26273">
        <ele>446.25</ele>
        <time>2022-02-14T14:20:00.36Z</time>
      </trkpt>
      <trkpt lat="45.70378" lon="3.26257">
        <ele>444.5</ele>
        <time>2022-02-14T14:20:05.27Z</time>
      </trkpt>
      <trkpt lat="45.70454" lon="3.26181">
        <ele>437.75</ele>
        <time>2022-02-14T14:20:23.87Z</time>
      </trkpt>
      <trkpt lat="45.70488" lon="3.26159">
        <ele>435.5</ele>
        <time>2022-02-14T14:20:31.32Z</time>
      </trkpt>
      <trkpt lat="45.70508" lon="3.26154">
        <ele>434</ele>
        <time>2022-02-14T14:20:35.31Z</time>
      </trkpt>
      <trkpt lat="45.70526" lon="3.26151">
        <ele>432.25</ele>
        <time>2022-02-14T14:20:38.97Z</time>
      </trkpt>
      <trkpt lat="45.70547" lon="3.2615">
        <ele>430.5</ele>
        <time>2022-02-14T14:20:43.15Z</time>
      </trkpt>
      <trkpt lat="45.70568" lon="3.26151">
        <ele>428.75</ele>
        <time>2022-02-14T14:20:47.40Z</time>
      </trkpt>
      <trkpt lat="45.70589" lon="3.26154">
        <ele>426.75</ele>
        <time>2022-02-14T14:20:51.53Z</time>
      </trkpt>
      <trkpt lat="45.70631" lon="3.26164">
        <ele>422.25</ele>
        <time>2022-02-14T14:21:00.16Z</time>
      </trkpt>
      <trkpt lat="45.70644" lon="3.2617">
        <ele>420.75</ele>
        <time>2022-02-14T14:21:02.89Z</time>
      </trkpt>
      <trkpt lat="45.70743" lon="3.2621">
        <ele>416.25</ele>
        <time>2022-02-14T14:21:23.50Z</time>
      </trkpt>
      <trkpt lat="45.70759" lon="3.26211">
        <ele>415.75</ele>
        <time>2022-02-14T14:21:26.66Z</time>
      </trkpt>
      <trkpt lat="45.70774" lon="3.26209">
        <ele>415.5</ele>
        <time>2022-02-14T14:21:29.59Z</time>
      </trkpt>
      <trkpt lat="45.70786" lon="3.26204">
        <ele>415.5</ele>
        <time>2022-02-14T14:21:32.23Z</time>
      </trkpt>
      <trkpt lat="45.70798" lon="3.26202">
        <ele>415.5</ele>
        <time>2022-02-14T14:21:34.63Z</time>
      </trkpt>
      <trkpt lat="45.70804" lon="3.26202">
        <ele>415.5</ele>
        <time>2022-02-14T14:21:35.76Z</time>
      </trkpt>
      <trkpt lat="45.70809" lon="3.26203">
        <ele>415.25</ele>
        <time>2022-02-14T14:21:36.84Z</time>
      </trkpt>
      <trkpt lat="45.70819" lon="3.26206">
        <ele>415</ele>
        <time>2022-02-14T14:21:38.92Z</time>
      </trkpt>
      <trkpt lat="45.7083" lon="3.26213">
        <ele>414.75</ele>
        <time>2022-02-14T14:21:41.29Z</time>
      </trkpt>
      <trkpt lat="45.70841" lon="3.26223">
        <ele>414.25</ele>
        <time>2022-02-14T14:21:43.79Z</time>
      </trkpt>
      <trkpt lat="45.70889" lon="3.26277">
        <ele>412.25</ele>
        <time>2022-02-14T14:21:56.06Z</time>
      </trkpt>
      <trkpt lat="45.70905" lon="3.26286">
        <ele>411.75</ele>
        <time>2022-02-14T14:21:59.54Z</time>
      </trkpt>
      <trkpt lat="45.70921" lon="3.26291">
        <ele>411.25</ele>
        <time>2022-02-14T14:22:02.72Z</time>
      </trkpt>
      <trkpt lat="45.70937" lon="3.26293">
        <ele>410.75</ele>
        <time>2022-02-14T14:22:05.96Z</time>
      </trkpt>
      <trkpt lat="45.71111" lon="3.26278">
        <ele>402.5</ele>
        <time>2022-02-14T14:22:40.83Z</time>
      </trkpt>
      <trkpt lat="45.71128" lon="3.26274">
        <ele>402</ele>
        <time>2022-02-14T14:22:44.23Z</time>
      </trkpt>
      <trkpt lat="45.71133" lon="3.26272">
        <ele>402</ele>
        <time>2022-02-14T14:22:45.41Z</time>
      </trkpt>
      <trkpt lat="45.71171" lon="3.26255">
        <ele>401.75</ele>
        <time>2022-02-14T14:22:53.17Z</time>
      </trkpt>
      <trkpt lat="45.71197" lon="3.26241">
        <ele>402.75</ele>
        <time>2022-02-14T14:22:58.91Z</time>
      </trkpt>
      <trkpt lat="45.71221" lon="3.26232">
        <ele>403.25</ele>
        <time>2022-02-14T14:23:03.84Z</time>
      </trkpt>
      <trkpt lat="45.71232" lon="3.26231">
        <ele>403.25</ele>
        <time>2022-02-14T14:23:05.95Z</time>
      </trkpt>
      <trkpt lat="45.71283" lon="3.26237">
        <ele>404.25</ele>
        <time>2022-02-14T14:23:16.20Z</time>
      </trkpt>
      <trkpt lat="45.71293" lon="3.26234">
        <ele>404.5</ele>
        <time>2022-02-14T14:23:18.24Z</time>
      </trkpt>
      <trkpt lat="45.71307" lon="3.26227">
        <ele>405</ele>
        <time>2022-02-14T14:23:21.25Z</time>
      </trkpt>
      <trkpt lat="45.71306" lon="3.26239">
        <ele>405</ele>
        <time>2022-02-14T14:23:23.03Z</time>
      </trkpt>
      <trkpt lat="45.713" lon="3.26288">
        <ele>403.25</ele>
        <time>2022-02-14T14:23:29.84Z</time>
      </trkpt>
      <trkpt lat="45.71286" lon="3.26311">
        <ele>402</ele>
        <time>2022-02-14T14:23:34.13Z</time>
      </trkpt>
      <trkpt lat="45.7121" lon="3.26339">
        <ele>398.75</ele>
        <time>2022-02-14T14:23:49.84Z</time>
      </trkpt>
      <trkpt lat="45.71205" lon="3.26341">
        <ele>398.5</ele>
        <time>2022-02-14T14:23:50.99Z</time>
      </trkpt>
      <trkpt lat="45.71198" lon="3.26354">
        <ele>398</ele>
        <time>2022-02-14T14:23:53.25Z</time>
      </trkpt>
      <trkpt lat="45.71191" lon="3.26374">
        <ele>397.5</ele>
        <time>2022-02-14T14:23:56.40Z</time>
      </trkpt>
      <trkpt lat="45.71191" lon="3.26404">
        <ele>396.75</ele>
        <time>2022-02-14T14:24:00.51Z</time>
      </trkpt>
      <trkpt lat="45.712" lon="3.26502">
        <ele>394.25</ele>
        <time>2022-02-14T14:24:14.31Z</time>
      </trkpt>
      <trkpt lat="45.71203" lon="3.26544">
        <ele>393.25</ele>
        <time>2022-02-14T14:24:20.21Z</time>
      </trkpt>
      <trkpt lat="45.71192" lon="3.26658">
        <ele>393.5</ele>
        <time>2022-02-14T14:24:36.38Z</time>
      </trkpt>
      <trkpt lat="45.71194" lon="3.26694">
        <ele>394.25</ele>
        <time>2022-02-14T14:24:41.42Z</time>
      </trkpt>
      <trkpt lat="45.71211" lon="3.26791">
        <ele>397.75</ele>
        <time>2022-02-14T14:24:55.36Z</time>
      </trkpt>
      <trkpt lat="45.71216" lon="3.26858">
        <ele>401.5</ele>
        <time>2022-02-14T14:25:04.74Z</time>
      </trkpt>
      <trkpt lat="45.71213" lon="3.26938">
        <ele>407</ele>
        <time>2022-02-14T14:25:15.92Z</time>
      </trkpt>
      <trkpt lat="45.71207" lon="3.27018">
        <ele>413.5</ele>
        <time>2022-02-14T14:25:27.21Z</time>
      </trkpt>
      <trkpt lat="45.71202" lon="3.2704">
        <ele>414.5</ele>
        <time>2022-02-14T14:25:30.39Z</time>
      </trkpt>
      <trkpt lat="45.71192" lon="3.27057">
        <ele>415.5</ele>
        <time>2022-02-14T14:25:33.56Z</time>
      </trkpt>
      <trkpt lat="45.7117" lon="3.27077">
        <ele>417.5</ele>
        <time>2022-02-14T14:25:38.73Z</time>
      </trkpt>
      <trkpt lat="45.71161" lon="3.27088">
        <ele>418</ele>
        <time>2022-02-14T14:25:41.06Z</time>
      </trkpt>
      <trkpt lat="45.71158" lon="3.27092">
        <ele>418.25</ele>
        <time>2022-02-14T14:25:41.91Z</time>
      </trkpt>
      <trkpt lat="45.7115" lon="3.27109">
        <ele>418.5</ele>
        <time>2022-02-14T14:25:44.70Z</time>
      </trkpt>
      <trkpt lat="45.71128" lon="3.27195">
        <ele>419.75</ele>
        <time>2022-02-14T14:25:57.47Z</time>
      </trkpt>
      <trkpt lat="45.71149" lon="3.27209">
        <ele>418.75</ele>
        <time>2022-02-14T14:26:01.94Z</time>
      </trkpt>
      <trkpt lat="45.71176" lon="3.27217">
        <ele>417.5</ele>
        <time>2022-02-14T14:26:07.57Z</time>
      </trkpt>
      <trkpt lat="45.71195" lon="3.27222">
        <ele>416.75</ele>
        <time>2022-02-14T14:26:11.48Z</time>
      </trkpt>
      <trkpt lat="45.71239" lon="3.27236">
        <ele>415</ele>
        <time>2022-02-14T14:26:20.44Z</time>
      </trkpt>
      <trkpt lat="45.71318" lon="3.27258">
        <ele>412.25</ele>
        <time>2022-02-14T14:26:36.50Z</time>
      </trkpt>
      <trkpt lat="45.71395" lon="3.27271">
        <ele>410.5</ele>
        <time>2022-02-14T14:26:51.92Z</time>
      </trkpt>
      <trkpt lat="45.71421" lon="3.27279">
        <ele>409.5</ele>
        <time>2022-02-14T14:26:57.29Z</time>
      </trkpt>
      <trkpt lat="45.71463" lon="3.27301">
        <ele>405.75</ele>
        <time>2022-02-14T14:27:06.27Z</time>
      </trkpt>
      <trkpt lat="45.71519" lon="3.27345">
        <ele>402.75</ele>
        <time>2022-02-14T14:27:19.11Z</time>
      </trkpt>
      <trkpt lat="45.71624" lon="3.27379">
        <ele>398.25</ele>
        <time>2022-02-14T14:27:40.61Z</time>
      </trkpt>
      <trkpt lat="45.72048" lon="3.27576">
        <ele>388.5</ele>
        <time>2022-02-14T14:29:09.62Z</time>
      </trkpt>
      <trkpt lat="45.72394" lon="3.27802">
        <ele>385.25</ele>
        <time>2022-02-14T14:30:25.82Z</time>
      </trkpt>
      <trkpt lat="45.72413" lon="3.27823">
        <ele>386</ele>
        <time>2022-02-14T14:30:30.56Z</time>
      </trkpt>
      <trkpt lat="45.72431" lon="3.27845">
        <ele>386.25</ele>
        <time>2022-02-14T14:30:35.23Z</time>
      </trkpt>
      <trkpt lat="45.72446" lon="3.27859">
        <ele>385.75</ele>
        <time>2022-02-14T14:30:38.87Z</time>
      </trkpt>
      <trkpt lat="45.72457" lon="3.2786">
        <ele>385.25</ele>
        <time>2022-02-14T14:30:40.97Z</time>
      </trkpt>
      <trkpt lat="45.72466" lon="3.27857">
        <ele>384.75</ele>
        <time>2022-02-14T14:30:42.87Z</time>
      </trkpt>
      <trkpt lat="45.72486" lon="3.27851">
        <ele>383.5</ele>
        <time>2022-02-14T14:30:46.96Z</time>
      </trkpt>
      <trkpt lat="45.725" lon="3.2784">
        <ele>382.25</ele>
        <time>2022-02-14T14:30:50.14Z</time>
      </trkpt>
      <trkpt lat="45.72511" lon="3.27831">
        <ele>381.25</ele>
        <time>2022-02-14T14:30:52.62Z</time>
      </trkpt>
      <trkpt lat="45.72528" lon="3.27829">
        <ele>380.5</ele>
        <time>2022-02-14T14:30:56.13Z</time>
      </trkpt>
      <trkpt lat="45.72593" lon="3.27847">
        <ele>379.5</ele>
        <time>2022-02-14T14:31:09.41Z</time>
      </trkpt>
      <trkpt lat="45.72605" lon="3.27856">
        <ele>380</ele>
        <time>2022-02-14T14:31:12.12Z</time>
      </trkpt>
      <trkpt lat="45.72634" lon="3.2789">
        <ele>382.25</ele>
        <time>2022-02-14T14:31:19.59Z</time>
      </trkpt>
      <trkpt lat="45.72649" lon="3.279">
        <ele>382.75</ele>
        <time>2022-02-14T14:31:22.97Z</time>
      </trkpt>
      <trkpt lat="45.72667" lon="3.27901">
        <ele>382.5</ele>
        <time>2022-02-14T14:31:26.51Z</time>
      </trkpt>
      <trkpt lat="45.72771" lon="3.2789">
        <ele>380</ele>
        <time>2022-02-14T14:31:47.40Z</time>
      </trkpt>
      <trkpt lat="45.72811" lon="3.27888">
        <ele>379.25</ele>
        <time>2022-02-14T14:31:55.37Z</time>
      </trkpt>
      <trkpt lat="45.72841" lon="3.27891">
        <ele>379.25</ele>
        <time>2022-02-14T14:32:01.36Z</time>
      </trkpt>
      <trkpt lat="45.72866" lon="3.27908">
        <ele>380</ele>
        <time>2022-02-14T14:32:06.96Z</time>
      </trkpt>
      <trkpt lat="45.7295" lon="3.27977">
        <ele>379.75</ele>
        <time>2022-02-14T14:32:26.28Z</time>
      </trkpt>
      <trkpt lat="45.73021" lon="3.2802">
        <ele>380.25</ele>
        <time>2022-02-14T14:32:41.79Z</time>
      </trkpt>
      <trkpt lat="45.73135" lon="3.28079">
        <ele>381.5</ele>
        <time>2022-02-14T14:33:05.94Z</time>
      </trkpt>
      <trkpt lat="45.73156" lon="3.28088">
        <ele>381.75</ele>
        <time>2022-02-14T14:33:10.37Z</time>
      </trkpt>
      <trkpt lat="45.73176" lon="3.28088">
        <ele>382</ele>
        <time>2022-02-14T14:33:14.39Z</time>
      </trkpt>
      <trkpt lat="45.73222" lon="3.28053">
        <ele>381</ele>
        <time>2022-02-14T14:33:24.77Z</time>
      </trkpt>
      <trkpt lat="45.73264" lon="3.28">
        <ele>379.25</ele>
        <time>2022-02-14T14:33:35.91Z</time>
      </trkpt>
      <trkpt lat="45.73292" lon="3.27938">
        <ele>378</ele>
        <time>2022-02-14T14:33:46.22Z</time>
      </trkpt>
      <trkpt lat="45.73305" lon="3.27895">
        <ele>377</ele>
        <time>2022-02-14T14:33:52.71Z</time>
      </trkpt>
      <trkpt lat="45.73325" lon="3.27823">
        <ele>375.75</ele>
        <time>2022-02-14T14:34:03.51Z</time>
      </trkpt>
      <trkpt lat="45.73332" lon="3.27758">
        <ele>374</ele>
        <time>2022-02-14T14:34:12.74Z</time>
      </trkpt>
      <trkpt lat="45.73347" lon="3.27646">
        <ele>372.25</ele>
        <time>2022-02-14T14:34:28.70Z</time>
      </trkpt>
      <trkpt lat="45.73356" lon="3.27599">
        <ele>371.75</ele>
        <time>2022-02-14T14:34:35.46Z</time>
      </trkpt>
      <trkpt lat="45.73374" lon="3.27548">
        <ele>371.5</ele>
        <time>2022-02-14T14:34:43.34Z</time>
      </trkpt>
      <trkpt lat="45.73432" lon="3.27429">
        <ele>371.25</ele>
        <time>2022-02-14T14:35:03.66Z</time>
      </trkpt>
      <trkpt lat="45.7345" lon="3.27364">
        <ele>371.5</ele>
        <time>2022-02-14T14:35:13.47Z</time>
      </trkpt>
      <trkpt lat="45.73466" lon="3.27313">
        <ele>370.75</ele>
        <time>2022-02-14T14:35:21.32Z</time>
      </trkpt>
      <trkpt lat="45.73481" lon="3.27274">
        <ele>369.25</ele>
        <time>2022-02-14T14:35:27.48Z</time>
      </trkpt>
      <trkpt lat="45.73504" lon="3.27242">
        <ele>367.75</ele>
        <time>2022-02-14T14:35:33.89Z</time>
      </trkpt>
      <trkpt lat="45.73528" lon="3.27211">
        <ele>367.5</ele>
        <time>2022-02-14T14:35:40.36Z</time>
      </trkpt>
      <trkpt lat="45.73548" lon="3.2718">
        <ele>366.25</ele>
        <time>2022-02-14T14:35:46.33Z</time>
      </trkpt>
      <trkpt lat="45.73618" lon="3.27047">
        <ele>364.5</ele>
        <time>2022-02-14T14:36:09.52Z</time>
      </trkpt>
      <trkpt lat="45.73651" lon="3.26978">
        <ele>363.5</ele>
        <time>2022-02-14T14:36:21.09Z</time>
      </trkpt>
      <trkpt lat="45.73673" lon="3.26936">
        <ele>362.5</ele>
        <time>2022-02-14T14:36:28.48Z</time>
      </trkpt>
      <trkpt lat="45.73692" lon="3.26905">
        <ele>362.5</ele>
        <time>2022-02-14T14:36:34.29Z</time>
      </trkpt>
      <trkpt lat="45.73708" lon="3.26888">
        <ele>362.5</ele>
        <time>2022-02-14T14:36:38.30Z</time>
      </trkpt>
      <trkpt lat="45.73766" lon="3.26837">
        <ele>362.75</ele>
        <time>2022-02-14T14:36:51.79Z</time>
      </trkpt>
      <trkpt lat="45.73835" lon="3.26774">
        <ele>364.5</ele>
        <time>2022-02-14T14:37:08.29Z</time>
      </trkpt>
      <trkpt lat="45.73852" lon="3.26763">
        <ele>364</ele>
        <time>2022-02-14T14:37:11.88Z</time>
      </trkpt>
      <trkpt lat="45.73867" lon="3.26757">
        <ele>363.75</ele>
        <time>2022-02-14T14:37:15.10Z</time>
      </trkpt>
      <trkpt lat="45.73855" lon="3.26732">
        <ele>362.75</ele>
        <time>2022-02-14T14:37:19.35Z</time>
      </trkpt>
      <trkpt lat="45.73837" lon="3.26689">
        <ele>361</ele>
        <time>2022-02-14T14:37:26.25Z</time>
      </trkpt>
      <trkpt lat="45.73831" lon="3.26657">
        <ele>359.75</ele>
        <time>2022-02-14T14:37:30.90Z</time>
      </trkpt>
      <trkpt lat="45.7383" lon="3.2663">
        <ele>359</ele>
        <time>2022-02-14T14:37:34.78Z</time>
      </trkpt>
      <trkpt lat="45.73833" lon="3.26605">
        <ele>358.5</ele>
        <time>2022-02-14T14:37:38.24Z</time>
      </trkpt>
      <trkpt lat="45.73916" lon="3.26302">
        <ele>355.75</ele>
        <time>2022-02-14T14:38:23.75Z</time>
      </trkpt>
      <trkpt lat="45.73935" lon="3.26256">
        <ele>355.25</ele>
        <time>2022-02-14T14:38:31.18Z</time>
      </trkpt>
      <trkpt lat="45.73951" lon="3.26227">
        <ele>355.5</ele>
        <time>2022-02-14T14:38:36.37Z</time>
      </trkpt>
      <trkpt lat="45.73966" lon="3.26208">
        <ele>355.75</ele>
        <time>2022-02-14T14:38:40.40Z</time>
      </trkpt>
      <trkpt lat="45.73983" lon="3.26189">
        <ele>356.5</ele>
        <time>2022-02-14T14:38:44.71Z</time>
      </trkpt>
      <trkpt lat="45.74083" lon="3.26089">
        <ele>356.25</ele>
        <time>2022-02-14T14:39:09.06Z</time>
      </trkpt>
      <trkpt lat="45.74094" lon="3.26078">
        <ele>356.25</ele>
        <time>2022-02-14T14:39:11.75Z</time>
      </trkpt>
      <trkpt lat="45.74106" lon="3.26062">
        <ele>356.25</ele>
        <time>2022-02-14T14:39:15Z</time>
      </trkpt>
      <trkpt lat="45.74121" lon="3.26039">
        <ele>356.25</ele>
        <time>2022-02-14T14:39:19.30Z</time>
      </trkpt>
      <trkpt lat="45.74131" lon="3.26015">
        <ele>355.5</ele>
        <time>2022-02-14T14:39:23.34Z</time>
      </trkpt>
      <trkpt lat="45.74142" lon="3.25979">
        <ele>355.5</ele>
        <time>2022-02-14T14:39:28.76Z</time>
      </trkpt>
      <trkpt lat="45.74145" lon="3.25958">
        <ele>355.75</ele>
        <time>2022-02-14T14:39:31.71Z</time>
      </trkpt>
      <trkpt lat="45.74147" lon="3.25936">
        <ele>356</ele>
        <time>2022-02-14T14:39:34.93Z</time>
      </trkpt>
      <trkpt lat="45.74147" lon="3.25847">
        <ele>355.75</ele>
        <time>2022-02-14T14:39:47.35Z</time>
      </trkpt>
      <trkpt lat="45.74144" lon="3.25594">
        <ele>353.75</ele>
        <time>2022-02-14T14:40:22.65Z</time>
      </trkpt>
      <trkpt lat="45.74146" lon="3.25582">
        <ele>354</ele>
        <time>2022-02-14T14:40:24.33Z</time>
      </trkpt>
      <trkpt lat="45.74149" lon="3.2558">
        <ele>354</ele>
        <time>2022-02-14T14:40:24.97Z</time>
      </trkpt>
      <trkpt lat="45.7415" lon="3.25578">
        <ele>354.25</ele>
        <time>2022-02-14T14:40:25.29Z</time>
      </trkpt>
      <trkpt lat="45.74151" lon="3.25573">
        <ele>354.5</ele>
        <time>2022-02-14T14:40:26.07Z</time>
      </trkpt>
      <trkpt lat="45.7415" lon="3.25568">
        <ele>354.5</ele>
        <time>2022-02-14T14:40:26.85Z</time>
      </trkpt>
      <trkpt lat="45.74149" lon="3.25566">
        <ele>354.5</ele>
        <time>2022-02-14T14:40:27.25Z</time>
      </trkpt>
      <trkpt lat="45.74145" lon="3.25564">
        <ele>354.5</ele>
        <time>2022-02-14T14:40:28.07Z</time>
      </trkpt>
      <trkpt lat="45.74141" lon="3.25566">
        <ele>354.25</ele>
        <time>2022-02-14T14:40:28.90Z</time>
      </trkpt>
      <trkpt lat="45.74128" lon="3.25542">
        <ele>354.25</ele>
        <time>2022-02-14T14:40:33.01Z</time>
      </trkpt>
      <trkpt lat="45.74048" lon="3.25408">
        <ele>353.25</ele>
        <time>2022-02-14T14:40:57.59Z</time>
      </trkpt>
      <trkpt lat="45.74029" lon="3.25377">
        <ele>353.5</ele>
        <time>2022-02-14T14:41:03.44Z</time>
      </trkpt>
      <trkpt lat="45.74016" lon="3.25343">
        <ele>353.5</ele>
        <time>2022-02-14T14:41:08.79Z</time>
      </trkpt>
      <trkpt lat="45.74009" lon="3.25331">
        <ele>353.25</ele>
        <time>2022-02-14T14:41:10.98Z</time>
      </trkpt>
      <trkpt lat="45.74" lon="3.25315">
        <ele>353</ele>
        <time>2022-02-14T14:41:13.91Z</time>
      </trkpt>
      <trkpt lat="45.73924" lon="3.25154">
        <ele>353</ele>
        <time>2022-02-14T14:41:41.09Z</time>
      </trkpt>
      <trkpt lat="45.73907" lon="3.25114">
        <ele>352.25</ele>
        <time>2022-02-14T14:41:47.57Z</time>
      </trkpt>
      <trkpt lat="45.73903" lon="3.25083">
        <ele>352</ele>
        <time>2022-02-14T14:41:51.92Z</time>
      </trkpt>
      <trkpt lat="45.73903" lon="3.25061">
        <ele>352</ele>
        <time>2022-02-14T14:41:54.97Z</time>
      </trkpt>
      <trkpt lat="45.73902" lon="3.25052">
        <ele>351.75</ele>
        <time>2022-02-14T14:41:56.32Z</time>
      </trkpt>
      <trkpt lat="45.73906" lon="3.25019">
        <ele>351.75</ele>
        <time>2022-02-14T14:42:00.86Z</time>
      </trkpt>
      <trkpt lat="45.73912" lon="3.24984">
        <ele>351</ele>
        <time>2022-02-14T14:42:05.97Z</time>
      </trkpt>
      <trkpt lat="45.73915" lon="3.24969">
        <ele>350.25</ele>
        <time>2022-02-14T14:42:08.17Z</time>
      </trkpt>
      <trkpt lat="45.73903" lon="3.24961">
        <ele>350</ele>
        <time>2022-02-14T14:42:10.81Z</time>
      </trkpt>
      <trkpt lat="45.73888" lon="3.24932">
        <ele>349</ele>
        <time>2022-02-14T14:42:15.79Z</time>
      </trkpt>
      <trkpt lat="45.73892" lon="3.24947">
        <ele>349.5</ele>
        <time>2022-02-14T14:42:17.97Z</time>
      </trkpt>
      <trkpt lat="45.739" lon="3.24981">
        <ele>350.75</ele>
        <time>2022-02-14T14:42:23.08Z</time>
      </trkpt>
      <trkpt lat="45.7391" lon="3.24983">
        <ele>351</ele>
        <time>2022-02-14T14:42:24.97Z</time>
      </trkpt>
      <trkpt lat="45.73912" lon="3.24984">
        <ele>351</ele>
        <time>2022-02-14T14:42:25.47Z</time>
      </trkpt>
      <trkpt lat="45.73916" lon="3.24983">
        <ele>351</ele>
        <time>2022-02-14T14:42:26.29Z</time>
      </trkpt>
      <trkpt lat="45.73937" lon="3.24935">
        <ele>352</ele>
        <time>2022-02-14T14:42:34.09Z</time>
      </trkpt>
      <trkpt lat="45.73951" lon="3.24899">
        <ele>351.75</ele>
        <time>2022-02-14T14:42:39.84Z</time>
      </trkpt>
      <trkpt lat="45.73984" lon="3.24829">
        <ele>350.5</ele>
        <time>2022-02-14T14:42:51.73Z</time>
      </trkpt>
      <trkpt lat="45.74003" lon="3.24796">
        <ele>349</ele>
        <time>2022-02-14T14:42:57.57Z</time>
      </trkpt>
      <trkpt lat="45.74023" lon="3.24767">
        <ele>348.25</ele>
        <time>2022-02-14T14:43:03.37Z</time>
      </trkpt>
      <trkpt lat="45.74064" lon="3.24722">
        <ele>349</ele>
        <time>2022-02-14T14:43:13.73Z</time>
      </trkpt>
      <trkpt lat="45.74102" lon="3.24684">
        <ele>350</ele>
        <time>2022-02-14T14:43:22.95Z</time>
      </trkpt>
      <trkpt lat="45.74148" lon="3.24643">
        <ele>348.75</ele>
        <time>2022-02-14T14:43:33.86Z</time>
      </trkpt>
      <trkpt lat="45.74195" lon="3.24607">
        <ele>347.5</ele>
        <time>2022-02-14T14:43:44.39Z</time>
      </trkpt>
      <trkpt lat="45.74253" lon="3.24569">
        <ele>346</ele>
        <time>2022-02-14T14:43:57.28Z</time>
      </trkpt>
      <trkpt lat="45.74384" lon="3.24475">
        <ele>345.75</ele>
        <time>2022-02-14T14:44:26.53Z</time>
      </trkpt>
      <trkpt lat="45.74441" lon="3.24441">
        <ele>344</ele>
        <time>2022-02-14T14:44:38.82Z</time>
      </trkpt>
      <trkpt lat="45.74529" lon="3.24401">
        <ele>343.5</ele>
        <time>2022-02-14T14:44:57.40Z</time>
      </trkpt>
      <trkpt lat="45.74545" lon="3.24392">
        <ele>343.25</ele>
        <time>2022-02-14T14:45:00.76Z</time>
      </trkpt>
      <trkpt lat="45.74559" lon="3.24379">
        <ele>342.5</ele>
        <time>2022-02-14T14:45:04.08Z</time>
      </trkpt>
      <trkpt lat="45.74569" lon="3.24367">
        <ele>342</ele>
        <time>2022-02-14T14:45:06.72Z</time>
      </trkpt>
      <trkpt lat="45.74599" lon="3.24321">
        <ele>340</ele>
        <time>2022-02-14T14:45:15.45Z</time>
      </trkpt>
      <trkpt lat="45.74633" lon="3.24276">
        <ele>339.75</ele>
        <time>2022-02-14T14:45:24.77Z</time>
      </trkpt>
      <trkpt lat="45.74655" lon="3.24251">
        <ele>339.5</ele>
        <time>2022-02-14T14:45:30.36Z</time>
      </trkpt>
      <trkpt lat="45.74686" lon="3.24225">
        <ele>339.5</ele>
        <time>2022-02-14T14:45:37.48Z</time>
      </trkpt>
      <trkpt lat="45.74731" lon="3.24199">
        <ele>339.5</ele>
        <time>2022-02-14T14:45:47.33Z</time>
      </trkpt>
      <trkpt lat="45.74742" lon="3.24192">
        <ele>339.25</ele>
        <time>2022-02-14T14:45:49.60Z</time>
      </trkpt>
      <trkpt lat="45.7475" lon="3.24183">
        <ele>338.75</ele>
        <time>2022-02-14T14:45:51.69Z</time>
      </trkpt>
      <trkpt lat="45.74791" lon="3.2413">
        <ele>338.5</ele>
        <time>2022-02-14T14:46:02.77Z</time>
      </trkpt>
      <trkpt lat="45.7481" lon="3.24109">
        <ele>338.25</ele>
        <time>2022-02-14T14:46:07.54Z</time>
      </trkpt>
      <trkpt lat="45.7482" lon="3.24098">
        <ele>338.25</ele>
        <time>2022-02-14T14:46:10.14Z</time>
      </trkpt>
      <trkpt lat="45.74839" lon="3.24083">
        <ele>338</ele>
        <time>2022-02-14T14:46:14.33Z</time>
      </trkpt>
      <trkpt lat="45.7485" lon="3.24074">
        <ele>338.25</ele>
        <time>2022-02-14T14:46:16.93Z</time>
      </trkpt>
      <trkpt lat="45.74872" lon="3.24063">
        <ele>338.75</ele>
        <time>2022-02-14T14:46:21.60Z</time>
      </trkpt>
      <trkpt lat="45.74891" lon="3.24055">
        <ele>339</ele>
        <time>2022-02-14T14:46:25.46Z</time>
      </trkpt>
      <trkpt lat="45.74894" lon="3.24054">
        <ele>339</ele>
        <time>2022-02-14T14:46:26.23Z</time>
      </trkpt>
      <trkpt lat="45.74919" lon="3.24047">
        <ele>339.75</ele>
        <time>2022-02-14T14:46:31.30Z</time>
      </trkpt>
      <trkpt lat="45.74929" lon="3.24038">
        <ele>339.75</ele>
        <time>2022-02-14T14:46:33.66Z</time>
      </trkpt>
      <trkpt lat="45.74932" lon="3.24033">
        <ele>339.75</ele>
        <time>2022-02-14T14:46:34.51Z</time>
      </trkpt>
      <trkpt lat="45.74969" lon="3.24071">
        <ele>342.5</ele>
        <time>2022-02-14T14:46:43.61Z</time>
      </trkpt>
      <trkpt lat="45.74985" lon="3.24085">
        <ele>343.25</ele>
        <time>2022-02-14T14:46:47.41Z</time>
      </trkpt>
      <trkpt lat="45.74994" lon="3.24093">
        <ele>343.5</ele>
        <time>2022-02-14T14:46:49.40Z</time>
      </trkpt>
      <trkpt lat="45.75017" lon="3.24111">
        <ele>343.75</ele>
        <time>2022-02-14T14:46:54.71Z</time>
      </trkpt>
      <trkpt lat="45.75037" lon="3.24127">
        <ele>344</ele>
        <time>2022-02-14T14:46:59.35Z</time>
      </trkpt>
      <trkpt lat="45.75087" lon="3.24167">
        <ele>345</ele>
        <time>2022-02-14T14:47:10.74Z</time>
      </trkpt>
      <trkpt lat="45.75117" lon="3.24193">
        <ele>347.25</ele>
        <time>2022-02-14T14:47:17.82Z</time>
      </trkpt>
      <trkpt lat="45.75156" lon="3.2422">
        <ele>349.25</ele>
        <time>2022-02-14T14:47:26.40Z</time>
      </trkpt>
      <trkpt lat="45.75203" lon="3.24243">
        <ele>352.25</ele>
        <time>2022-02-14T14:47:36.35Z</time>
      </trkpt>
      <trkpt lat="45.75218" lon="3.24244">
        <ele>353.5</ele>
        <time>2022-02-14T14:47:39.45Z</time>
      </trkpt>
      <trkpt lat="45.75226" lon="3.24241">
        <ele>354</ele>
        <time>2022-02-14T14:47:40.96Z</time>
      </trkpt>
      <trkpt lat="45.75237" lon="3.24231">
        <ele>354.5</ele>
        <time>2022-02-14T14:47:43.52Z</time>
      </trkpt>
      <trkpt lat="45.75307" lon="3.24153">
        <ele>357.5</ele>
        <time>2022-02-14T14:48:01.24Z</time>
      </trkpt>
      <trkpt lat="45.75315" lon="3.24146">
        <ele>358</ele>
        <time>2022-02-14T14:48:03.17Z</time>
      </trkpt>
      <trkpt lat="45.7532" lon="3.24141">
        <ele>358.25</ele>
        <time>2022-02-14T14:48:04.48Z</time>
      </trkpt>
      <trkpt lat="45.75341" lon="3.24131">
        <ele>359.75</ele>
        <time>2022-02-14T14:48:08.79Z</time>
      </trkpt>
      <trkpt lat="45.75342" lon="3.2413">
        <ele>359.75</ele>
        <time>2022-02-14T14:48:09.05Z</time>
      </trkpt>
      <trkpt lat="45.75375" lon="3.24113">
        <ele>362.5</ele>
        <time>2022-02-14T14:48:16.02Z</time>
      </trkpt>
      <trkpt lat="45.75392" lon="3.24104">
        <ele>363.75</ele>
        <time>2022-02-14T14:48:19.79Z</time>
      </trkpt>
      <trkpt lat="45.75394" lon="3.24103">
        <ele>363.75</ele>
        <time>2022-02-14T14:48:20.21Z</time>
      </trkpt>
      <trkpt lat="45.7541" lon="3.24095">
        <ele>364.75</ele>
        <time>2022-02-14T14:48:23.44Z</time>
      </trkpt>
      <trkpt lat="45.75419" lon="3.24092">
        <ele>365.75</ele>
        <time>2022-02-14T14:48:25.37Z</time>
      </trkpt>
      <trkpt lat="45.75436" lon="3.24082">
        <ele>367.75</ele>
        <time>2022-02-14T14:48:29.05Z</time>
      </trkpt>
      <trkpt lat="45.75441" lon="3.24078">
        <ele>368.25</ele>
        <time>2022-02-14T14:48:30.26Z</time>
      </trkpt>
      <trkpt lat="45.75459" lon="3.24064">
        <ele>369.5</ele>
        <time>2022-02-14T14:48:34.38Z</time>
      </trkpt>
      <trkpt lat="45.75528" lon="3.24012">
        <ele>370.75</ele>
        <time>2022-02-14T14:48:49.98Z</time>
      </trkpt>
      <trkpt lat="45.75565" lon="3.23989">
        <ele>371</ele>
        <time>2022-02-14T14:48:58.05Z</time>
      </trkpt>
      <trkpt lat="45.75606" lon="3.23965">
        <ele>369.25</ele>
        <time>2022-02-14T14:49:06.74Z</time>
      </trkpt>
      <trkpt lat="45.75628" lon="3.2395">
        <ele>367.75</ele>
        <time>2022-02-14T14:49:11.68Z</time>
      </trkpt>
      <trkpt lat="45.75647" lon="3.23929">
        <ele>365.75</ele>
        <time>2022-02-14T14:49:16.46Z</time>
      </trkpt>
      <trkpt lat="45.75662" lon="3.23913">
        <ele>364.5</ele>
        <time>2022-02-14T14:49:20.15Z</time>
      </trkpt>
      <trkpt lat="45.75678" lon="3.23885">
        <ele>361.75</ele>
        <time>2022-02-14T14:49:25.19Z</time>
      </trkpt>
      <trkpt lat="45.75696" lon="3.23863">
        <ele>359.5</ele>
        <time>2022-02-14T14:49:29.98Z</time>
      </trkpt>
      <trkpt lat="45.75711" lon="3.23854">
        <ele>358.75</ele>
        <time>2022-02-14T14:49:33.33Z</time>
      </trkpt>
      <trkpt lat="45.75731" lon="3.23846">
        <ele>358.25</ele>
        <time>2022-02-14T14:49:37.41Z</time>
      </trkpt>
      <trkpt lat="45.75864" lon="3.23807">
        <ele>351.25</ele>
        <time>2022-02-14T14:50:04.56Z</time>
      </trkpt>
      <trkpt lat="45.75891" lon="3.23804">
        <ele>350.75</ele>
        <time>2022-02-14T14:50:09.91Z</time>
      </trkpt>
      <trkpt lat="45.75926" lon="3.2381">
        <ele>351</ele>
        <time>2022-02-14T14:50:16.99Z</time>
      </trkpt>
      <trkpt lat="45.75939" lon="3.23817">
        <ele>351</ele>
        <time>2022-02-14T14:50:19.79Z</time>
      </trkpt>
      <trkpt lat="45.75953" lon="3.23826">
        <ele>351.5</ele>
        <time>2022-02-14T14:50:22.92Z</time>
      </trkpt>
      <trkpt lat="45.75971" lon="3.23843">
        <ele>352.5</ele>
        <time>2022-02-14T14:50:27.24Z</time>
      </trkpt>
      <trkpt lat="45.75987" lon="3.23856">
        <ele>353.25</ele>
        <time>2022-02-14T14:50:30.93Z</time>
      </trkpt>
      <trkpt lat="45.76004" lon="3.23866">
        <ele>353.75</ele>
        <time>2022-02-14T14:50:34.59Z</time>
      </trkpt>
      <trkpt lat="45.76017" lon="3.23873">
        <ele>354.25</ele>
        <time>2022-02-14T14:50:37.28Z</time>
      </trkpt>
      <trkpt lat="45.7603" lon="3.23877">
        <ele>354.25</ele>
        <time>2022-02-14T14:50:39.94Z</time>
      </trkpt>
      <trkpt lat="45.76044" lon="3.23876">
        <ele>354</ele>
        <time>2022-02-14T14:50:42.80Z</time>
      </trkpt>
      <trkpt lat="45.76065" lon="3.23869">
        <ele>352.5</ele>
        <time>2022-02-14T14:50:47.20Z</time>
      </trkpt>
      <trkpt lat="45.76147" lon="3.23816">
        <ele>346.25</ele>
        <time>2022-02-14T14:51:05.16Z</time>
      </trkpt>
      <trkpt lat="45.76154" lon="3.23812">
        <ele>346</ele>
        <time>2022-02-14T14:51:06.62Z</time>
      </trkpt>
      <trkpt lat="45.76188" lon="3.23799">
        <ele>344.5</ele>
        <time>2022-02-14T14:51:13.71Z</time>
      </trkpt>
      <trkpt lat="45.762" lon="3.23796">
        <ele>344</ele>
        <time>2022-02-14T14:51:16.02Z</time>
      </trkpt>
      <trkpt lat="45.76214" lon="3.23794">
        <ele>343.25</ele>
        <time>2022-02-14T14:51:18.84Z</time>
      </trkpt>
      <trkpt lat="45.76231" lon="3.23795">
        <ele>342.75</ele>
        <time>2022-02-14T14:51:22.34Z</time>
      </trkpt>
      <trkpt lat="45.76258" lon="3.23805">
        <ele>342.75</ele>
        <time>2022-02-14T14:51:27.75Z</time>
      </trkpt>
      <trkpt lat="45.76343" lon="3.23849">
        <ele>344.5</ele>
        <time>2022-02-14T14:51:46.01Z</time>
      </trkpt>
      <trkpt lat="45.76358" lon="3.23855">
        <ele>344.25</ele>
        <time>2022-02-14T14:51:49.10Z</time>
      </trkpt>
      <trkpt lat="45.76375" lon="3.2386">
        <ele>344</ele>
        <time>2022-02-14T14:51:52.59Z</time>
      </trkpt>
      <trkpt lat="45.7639" lon="3.23863">
        <ele>343.75</ele>
        <time>2022-02-14T14:51:55.58Z</time>
      </trkpt>
      <trkpt lat="45.76415" lon="3.23864">
        <ele>343.25</ele>
        <time>2022-02-14T14:52:00.47Z</time>
      </trkpt>
      <trkpt lat="45.76427" lon="3.23863">
        <ele>342.75</ele>
        <time>2022-02-14T14:52:02.91Z</time>
      </trkpt>
      <trkpt lat="45.76522" lon="3.23844">
        <ele>337</ele>
        <time>2022-02-14T14:52:22.20Z</time>
      </trkpt>
      <trkpt lat="45.76549" lon="3.23831">
        <ele>335</ele>
        <time>2022-02-14T14:52:27.83Z</time>
      </trkpt>
      <trkpt lat="45.76559" lon="3.23825">
        <ele>334.25</ele>
        <time>2022-02-14T14:52:29.96Z</time>
      </trkpt>
      <trkpt lat="45.76561" lon="3.23829">
        <ele>334.75</ele>
        <time>2022-02-14T14:52:30.71Z</time>
      </trkpt>
      <trkpt lat="45.76564" lon="3.23833">
        <ele>335</ele>
        <time>2022-02-14T14:52:31.46Z</time>
      </trkpt>
      <trkpt lat="45.76567" lon="3.23835">
        <ele>335.25</ele>
        <time>2022-02-14T14:52:32.22Z</time>
      </trkpt>
      <trkpt lat="45.76571" lon="3.23835">
        <ele>335.25</ele>
        <time>2022-02-14T14:52:32.93Z</time>
      </trkpt>
      <trkpt lat="45.76574" lon="3.23834">
        <ele>335</ele>
        <time>2022-02-14T14:52:33.60Z</time>
      </trkpt>
      <trkpt lat="45.76577" lon="3.23832">
        <ele>334.75</ele>
        <time>2022-02-14T14:52:34.28Z</time>
      </trkpt>
      <trkpt lat="45.7658" lon="3.23829">
        <ele>334.5</ele>
        <time>2022-02-14T14:52:34.98Z</time>
      </trkpt>
      <trkpt lat="45.76581" lon="3.23827">
        <ele>334.25</ele>
        <time>2022-02-14T14:52:35.38Z</time>
      </trkpt>
      <trkpt lat="45.76594" lon="3.23821">
        <ele>333.5</ele>
        <time>2022-02-14T14:52:38.10Z</time>
      </trkpt>
      <trkpt lat="45.76608" lon="3.23818">
        <ele>333</ele>
        <time>2022-02-14T14:52:40.86Z</time>
      </trkpt>
      <trkpt lat="45.76638" lon="3.23818">
        <ele>332.5</ele>
        <time>2022-02-14T14:52:46.88Z</time>
      </trkpt>
      <trkpt lat="45.76664" lon="3.23817">
        <ele>332</ele>
        <time>2022-02-14T14:52:52.13Z</time>
      </trkpt>
      <trkpt lat="45.76678" lon="3.23815">
        <ele>331.5</ele>
        <time>2022-02-14T14:52:54.84Z</time>
      </trkpt>
      <trkpt lat="45.76722" lon="3.23801">
        <ele>329.5</ele>
        <time>2022-02-14T14:53:04Z</time>
      </trkpt>
      <trkpt lat="45.7675" lon="3.23792">
        <ele>328.5</ele>
        <time>2022-02-14T14:53:09.57Z</time>
      </trkpt>
      <trkpt lat="45.7678" lon="3.23782">
        <ele>326.25</ele>
        <time>2022-02-14T14:53:15.75Z</time>
      </trkpt>
      <trkpt lat="45.76791" lon="3.23781">
        <ele>326</ele>
        <time>2022-02-14T14:53:18.11Z</time>
      </trkpt>
      <trkpt lat="45.76813" lon="3.23785">
        <ele>325.5</ele>
        <time>2022-02-14T14:53:22.40Z</time>
      </trkpt>
      <trkpt lat="45.76906" lon="3.23802">
        <ele>321.75</ele>
        <time>2022-02-14T14:53:41.17Z</time>
      </trkpt>
      <trkpt lat="45.76931" lon="3.23806">
        <ele>321.5</ele>
        <time>2022-02-14T14:53:46.26Z</time>
      </trkpt>
      <trkpt lat="45.76943" lon="3.23807">
        <ele>321.75</ele>
        <time>2022-02-14T14:53:48.73Z</time>
      </trkpt>
      <trkpt lat="45.76951" lon="3.23808">
        <ele>321.75</ele>
        <time>2022-02-14T14:53:50.35Z</time>
      </trkpt>
      <trkpt lat="45.76969" lon="3.23812">
        <ele>322.25</ele>
        <time>2022-02-14T14:53:53.90Z</time>
      </trkpt>
      <trkpt lat="45.77023" lon="3.23822">
        <ele>322.75</ele>
        <time>2022-02-14T14:54:04.82Z</time>
      </trkpt>
      <trkpt lat="45.77096" lon="3.23834">
        <ele>321.5</ele>
        <time>2022-02-14T14:54:19.50Z</time>
      </trkpt>
      <trkpt lat="45.77104" lon="3.23837">
        <ele>321.5</ele>
        <time>2022-02-14T14:54:21.12Z</time>
      </trkpt>
      <trkpt lat="45.77116" lon="3.23838">
        <ele>321.25</ele>
        <time>2022-02-14T14:54:23.59Z</time>
      </trkpt>
      <trkpt lat="45.77118" lon="3.2384">
        <ele>321.5</ele>
        <time>2022-02-14T14:54:24.03Z</time>
      </trkpt>
      <trkpt lat="45.77118" lon="3.23856">
        <ele>322.5</ele>
        <time>2022-02-14T14:54:26.33Z</time>
      </trkpt>
      <trkpt lat="45.77138" lon="3.2386">
        <ele>322.25</ele>
        <time>2022-02-14T14:54:30.35Z</time>
      </trkpt>
      <trkpt lat="45.77153" lon="3.23863">
        <ele>322</ele>
        <time>2022-02-14T14:54:33.34Z</time>
      </trkpt>
      <trkpt lat="45.77168" lon="3.23864">
        <ele>321.75</ele>
        <time>2022-02-14T14:54:36.30Z</time>
      </trkpt>
      <trkpt lat="45.77188" lon="3.23865">
        <ele>321.25</ele>
        <time>2022-02-14T14:54:40.38Z</time>
      </trkpt>
      <trkpt lat="45.77204" lon="3.23864">
        <ele>320.75</ele>
        <time>2022-02-14T14:54:43.42Z</time>
      </trkpt>
      <trkpt lat="45.77248" lon="3.23876">
        <ele>320.5</ele>
        <time>2022-02-14T14:54:52.36Z</time>
      </trkpt>
      <trkpt lat="45.77257" lon="3.23878">
        <ele>320.25</ele>
        <time>2022-02-14T14:54:54.22Z</time>
      </trkpt>
      <trkpt lat="45.77286" lon="3.23796">
        <ele>315.25</ele>
        <time>2022-02-14T14:55:07.15Z</time>
      </trkpt>
      <trkpt lat="45.77289" lon="3.2379">
        <ele>315</ele>
        <time>2022-02-14T14:55:08.15Z</time>
      </trkpt>
      <trkpt lat="45.77321" lon="3.23693">
        <ele>315</ele>
        <time>2022-02-14T14:55:23.12Z</time>
      </trkpt>
      <trkpt lat="45.77348" lon="3.23612">
        <ele>315.75</ele>
        <time>2022-02-14T14:55:35.58Z</time>
      </trkpt>
      <trkpt lat="45.77349" lon="3.23607">
        <ele>315.75</ele>
        <time>2022-02-14T14:55:36.39Z</time>
      </trkpt>
      <trkpt lat="45.77351" lon="3.23602">
        <ele>316</ele>
        <time>2022-02-14T14:55:37.19Z</time>
      </trkpt>
      <trkpt lat="45.77407" lon="3.23429">
        <ele>319</ele>
        <time>2022-02-14T14:56:03.77Z</time>
      </trkpt>
      <trkpt lat="45.77414" lon="3.23415">
        <ele>319.75</ele>
        <time>2022-02-14T14:56:06.09Z</time>
      </trkpt>
      <trkpt lat="45.77423" lon="3.23412">
        <ele>320.25</ele>
        <time>2022-02-14T14:56:08.03Z</time>
      </trkpt>
      <trkpt lat="45.77438" lon="3.23416">
        <ele>321</ele>
        <time>2022-02-14T14:56:10.97Z</time>
      </trkpt>
      <trkpt lat="45.77459" lon="3.23428">
        <ele>321.25</ele>
        <time>2022-02-14T14:56:15.58Z</time>
      </trkpt>
      <trkpt lat="45.77487" lon="3.23451">
        <ele>321.25</ele>
        <time>2022-02-14T14:56:22.01Z</time>
      </trkpt>
      <trkpt lat="45.77487" lon="3.23456">
        <ele>321</ele>
        <time>2022-02-14T14:56:22.76Z</time>
      </trkpt>
      <trkpt lat="45.77489" lon="3.23461">
        <ele>320.75</ele>
        <time>2022-02-14T14:56:23.50Z</time>
      </trkpt>
      <trkpt lat="45.77491" lon="3.23465">
        <ele>320.75</ele>
        <time>2022-02-14T14:56:24.23Z</time>
      </trkpt>
      <trkpt lat="45.77495" lon="3.23469">
        <ele>320.5</ele>
        <time>2022-02-14T14:56:25.15Z</time>
      </trkpt>
      <trkpt lat="45.77499" lon="3.23471">
        <ele>320.5</ele>
        <time>2022-02-14T14:56:26.04Z</time>
      </trkpt>
      <trkpt lat="45.77504" lon="3.23471">
        <ele>320.75</ele>
        <time>2022-02-14T14:56:26.96Z</time>
      </trkpt>
      <trkpt lat="45.77508" lon="3.23468">
        <ele>321</ele>
        <time>2022-02-14T14:56:27.93Z</time>
      </trkpt>
      <trkpt lat="45.77512" lon="3.23463">
        <ele>321.5</ele>
        <time>2022-02-14T14:56:28.91Z</time>
      </trkpt>
      <trkpt lat="45.77524" lon="3.23459">
        <ele>322</ele>
        <time>2022-02-14T14:56:31.32Z</time>
      </trkpt>
      <trkpt lat="45.77577" lon="3.23463">
        <ele>323.5</ele>
        <time>2022-02-14T14:56:41.91Z</time>
      </trkpt>
      <trkpt lat="45.77635" lon="3.23504">
        <ele>322</ele>
        <time>2022-02-14T14:56:54.86Z</time>
      </trkpt>
      <trkpt lat="45.77688" lon="3.23536">
        <ele>321</ele>
        <time>2022-02-14T14:57:06.35Z</time>
      </trkpt>
      <trkpt lat="45.77716" lon="3.23555">
        <ele>320</ele>
        <time>2022-02-14T14:57:12.62Z</time>
      </trkpt>
      <trkpt lat="45.77766" lon="3.23592">
        <ele>319</ele>
        <time>2022-02-14T14:57:23.90Z</time>
      </trkpt>
      <trkpt lat="45.77792" lon="3.23608">
        <ele>318.5</ele>
        <time>2022-02-14T14:57:29.65Z</time>
      </trkpt>
      <trkpt lat="45.77812" lon="3.23617">
        <ele>318.25</ele>
        <time>2022-02-14T14:57:33.77Z</time>
      </trkpt>
      <trkpt lat="45.77913" lon="3.23649">
        <ele>319.5</ele>
        <time>2022-02-14T14:57:54.49Z</time>
      </trkpt>
      <trkpt lat="45.77943" lon="3.23657">
        <ele>319.75</ele>
        <time>2022-02-14T14:58:00.57Z</time>
      </trkpt>
      <trkpt lat="45.77991" lon="3.23673">
        <ele>320.5</ele>
        <time>2022-02-14T14:58:10.40Z</time>
      </trkpt>
      <trkpt lat="45.78029" lon="3.23686">
        <ele>321</ele>
        <time>2022-02-14T14:58:18.22Z</time>
      </trkpt>
      <trkpt lat="45.78059" lon="3.23693">
        <ele>321.75</ele>
        <time>2022-02-14T14:58:24.29Z</time>
      </trkpt>
      <trkpt lat="45.78096" lon="3.23699">
        <ele>322</ele>
        <time>2022-02-14T14:58:31.75Z</time>
      </trkpt>
      <trkpt lat="45.7815" lon="3.23708">
        <ele>322</ele>
        <time>2022-02-14T14:58:42.59Z</time>
      </trkpt>
      <trkpt lat="45.78178" lon="3.23718">
        <ele>322</ele>
        <time>2022-02-14T14:58:48.37Z</time>
      </trkpt>
      <trkpt lat="45.78206" lon="3.23732">
        <ele>322.25</ele>
        <time>2022-02-14T14:58:54.29Z</time>
      </trkpt>
      <trkpt lat="45.78293" lon="3.23773">
        <ele>322.75</ele>
        <time>2022-02-14T14:59:12.69Z</time>
      </trkpt>
      <trkpt lat="45.78325" lon="3.23782">
        <ele>322.25</ele>
        <time>2022-02-14T14:59:19.10Z</time>
      </trkpt>
      <trkpt lat="45.78356" lon="3.23786">
        <ele>322.25</ele>
        <time>2022-02-14T14:59:25.27Z</time>
      </trkpt>
      <trkpt lat="45.78465" lon="3.23796">
        <ele>322.5</ele>
        <time>2022-02-14T14:59:47.21Z</time>
      </trkpt>
      <trkpt lat="45.78509" lon="3.23801">
        <ele>322.5</ele>
        <time>2022-02-14T14:59:56.12Z</time>
      </trkpt>
      <trkpt lat="45.78627" lon="3.2383">
        <ele>322.75</ele>
        <time>2022-02-14T15:00:19.93Z</time>
      </trkpt>
      <trkpt lat="45.78669" lon="3.23836">
        <ele>323</ele>
        <time>2022-02-14T15:00:28.39Z</time>
      </trkpt>
      <trkpt lat="45.78739" lon="3.23841">
        <ele>323.75</ele>
        <time>2022-02-14T15:00:42.52Z</time>
      </trkpt>
      <trkpt lat="45.78781" lon="3.23843">
        <ele>323.5</ele>
        <time>2022-02-14T15:00:50.87Z</time>
      </trkpt>
      <trkpt lat="45.78832" lon="3.23851">
        <ele>323</ele>
        <time>2022-02-14T15:01:01.05Z</time>
      </trkpt>
      <trkpt lat="45.78837" lon="3.23852">
        <ele>323</ele>
        <time>2022-02-14T15:01:02.10Z</time>
      </trkpt>
      <trkpt lat="45.78847" lon="3.23854">
        <ele>323</ele>
        <time>2022-02-14T15:01:04.12Z</time>
      </trkpt>
      <trkpt lat="45.78864" lon="3.23859">
        <ele>322.75</ele>
        <time>2022-02-14T15:01:07.52Z</time>
      </trkpt>
      <trkpt lat="45.78897" lon="3.23873">
        <ele>322.5</ele>
        <time>2022-02-14T15:01:14.45Z</time>
      </trkpt>
      <trkpt lat="45.78918" lon="3.23881">
        <ele>322.5</ele>
        <time>2022-02-14T15:01:18.79Z</time>
      </trkpt>
      <trkpt lat="45.78926" lon="3.23884">
        <ele>322.5</ele>
        <time>2022-02-14T15:01:20.58Z</time>
      </trkpt>
      <trkpt lat="45.78929" lon="3.23885">
        <ele>322.5</ele>
        <time>2022-02-14T15:01:21.06Z</time>
      </trkpt>
      <trkpt lat="45.7897" lon="3.23902">
        <ele>322.25</ele>
        <time>2022-02-14T15:01:29.70Z</time>
      </trkpt>
      <trkpt lat="45.79027" lon="3.23925">
        <ele>321.5</ele>
        <time>2022-02-14T15:01:41.48Z</time>
      </trkpt>
      <trkpt lat="45.79033" lon="3.23927">
        <ele>321.5</ele>
        <time>2022-02-14T15:01:42.71Z</time>
      </trkpt>
      <trkpt lat="45.7905" lon="3.23934">
        <ele>321.25</ele>
        <time>2022-02-14T15:01:46.24Z</time>
      </trkpt>
      <trkpt lat="45.79068" lon="3.23941">
        <ele>320.75</ele>
        <time>2022-02-14T15:01:49.99Z</time>
      </trkpt>
      <trkpt lat="45.79119" lon="3.23958">
        <ele>321</ele>
        <time>2022-02-14T15:02:00.43Z</time>
      </trkpt>
      <trkpt lat="45.79123" lon="3.23959">
        <ele>321</ele>
        <time>2022-02-14T15:02:01.27Z</time>
      </trkpt>
      <trkpt lat="45.79139" lon="3.23963">
        <ele>321.25</ele>
        <time>2022-02-14T15:02:04.46Z</time>
      </trkpt>
      <trkpt lat="45.79174" lon="3.23971">
        <ele>321.75</ele>
        <time>2022-02-14T15:02:11.61Z</time>
      </trkpt>
      <trkpt lat="45.79179" lon="3.23974">
        <ele>321.5</ele>
        <time>2022-02-14T15:02:12.69Z</time>
      </trkpt>
      <trkpt lat="45.79197" lon="3.23979">
        <ele>321.75</ele>
        <time>2022-02-14T15:02:16.36Z</time>
      </trkpt>
      <trkpt lat="45.79206" lon="3.24001">
        <ele>321.25</ele>
        <time>2022-02-14T15:02:19.86Z</time>
      </trkpt>
      <trkpt lat="45.79217" lon="3.24049">
        <ele>320.75</ele>
        <time>2022-02-14T15:02:26.89Z</time>
      </trkpt>
      <trkpt lat="45.79219" lon="3.24057">
        <ele>320.75</ele>
        <time>2022-02-14T15:02:28.13Z</time>
      </trkpt>
      <trkpt lat="45.79241" lon="3.24142">
        <ele>318.75</ele>
        <time>2022-02-14T15:02:40.80Z</time>
      </trkpt>
      <trkpt lat="45.79251" lon="3.2418">
        <ele>317.5</ele>
        <time>2022-02-14T15:02:46.42Z</time>
      </trkpt>
      <trkpt lat="45.7928" lon="3.24293">
        <ele>314.25</ele>
        <time>2022-02-14T15:03:03.21Z</time>
      </trkpt>
      <trkpt lat="45.7929" lon="3.24333">
        <ele>313.25</ele>
        <time>2022-02-14T15:03:09.15Z</time>
      </trkpt>
      <trkpt lat="45.793" lon="3.24365">
        <ele>313.25</ele>
        <time>2022-02-14T15:03:13.99Z</time>
      </trkpt>
      <trkpt lat="45.79312" lon="3.24393">
        <ele>313.5</ele>
        <time>2022-02-14T15:03:18.55Z</time>
      </trkpt>
      <trkpt lat="45.79323" lon="3.24416">
        <ele>313.5</ele>
        <time>2022-02-14T15:03:22.45Z</time>
      </trkpt>
      <trkpt lat="45.79335" lon="3.24435">
        <ele>313.25</ele>
        <time>2022-02-14T15:03:26.01Z</time>
      </trkpt>
      <trkpt lat="45.79341" lon="3.24443">
        <ele>313.25</ele>
        <time>2022-02-14T15:03:27.70Z</time>
      </trkpt>
      <trkpt lat="45.79345" lon="3.24449">
        <ele>313.25</ele>
        <time>2022-02-14T15:03:28.88Z</time>
      </trkpt>
      <trkpt lat="45.79367" lon="3.24474">
        <ele>313.25</ele>
        <time>2022-02-14T15:03:34.52Z</time>
      </trkpt>
      <trkpt lat="45.79451" lon="3.24557">
        <ele>316</ele>
        <time>2022-02-14T15:03:54.94Z</time>
      </trkpt>
      <trkpt lat="45.79462" lon="3.2457">
        <ele>316.25</ele>
        <time>2022-02-14T15:03:57.74Z</time>
      </trkpt>
      <trkpt lat="45.79482" lon="3.24592">
        <ele>316.75</ele>
        <time>2022-02-14T15:04:02.84Z</time>
      </trkpt>
      <trkpt lat="45.79499" lon="3.24614">
        <ele>317</ele>
        <time>2022-02-14T15:04:07.36Z</time>
      </trkpt>
      <trkpt lat="45.79548" lon="3.2469">
        <ele>321</ele>
        <time>2022-02-14T15:04:21.88Z</time>
      </trkpt>
      <trkpt lat="45.79553" lon="3.24697">
        <ele>320.75</ele>
        <time>2022-02-14T15:04:23.22Z</time>
      </trkpt>
      <trkpt lat="45.79557" lon="3.24704">
        <ele>320.5</ele>
        <time>2022-02-14T15:04:24.53Z</time>
      </trkpt>
      <trkpt lat="45.79573" lon="3.24729">
        <ele>318.75</ele>
        <time>2022-02-14T15:04:29.16Z</time>
      </trkpt>
      <trkpt lat="45.79594" lon="3.24762">
        <ele>319.5</ele>
        <time>2022-02-14T15:04:35.49Z</time>
      </trkpt>
      <trkpt lat="45.79604" lon="3.24784">
        <ele>322</ele>
        <time>2022-02-14T15:04:39.13Z</time>
      </trkpt>
      <trkpt lat="45.79614" lon="3.24814">
        <ele>323.75</ele>
        <time>2022-02-14T15:04:43.79Z</time>
      </trkpt>
      <trkpt lat="45.79624" lon="3.24858">
        <ele>324.25</ele>
        <time>2022-02-14T15:04:50.22Z</time>
      </trkpt>
      <trkpt lat="45.79632" lon="3.24896">
        <ele>324.25</ele>
        <time>2022-02-14T15:04:55.67Z</time>
      </trkpt>
      <trkpt lat="45.7964" lon="3.24929">
        <ele>323.75</ele>
        <time>2022-02-14T15:05:00.58Z</time>
      </trkpt>
      <trkpt lat="45.79669" lon="3.25018">
        <ele>321.5</ele>
        <time>2022-02-14T15:05:14.24Z</time>
      </trkpt>
      <trkpt lat="45.79704" lon="3.2513">
        <ele>323.75</ele>
        <time>2022-02-14T15:05:31.39Z</time>
      </trkpt>
      <trkpt lat="45.79726" lon="3.25204">
        <ele>323.25</ele>
        <time>2022-02-14T15:05:42.72Z</time>
      </trkpt>
      <trkpt lat="45.79734" lon="3.25231">
        <ele>323</ele>
        <time>2022-02-14T15:05:46.75Z</time>
      </trkpt>
      <trkpt lat="45.79734" lon="3.25242">
        <ele>322.5</ele>
        <time>2022-02-14T15:05:48.18Z</time>
      </trkpt>
      <trkpt lat="45.79738" lon="3.25261">
        <ele>322</ele>
        <time>2022-02-14T15:05:51Z</time>
      </trkpt>
      <trkpt lat="45.79747" lon="3.25296">
        <ele>321.75</ele>
        <time>2022-02-14T15:05:56.29Z</time>
      </trkpt>
      <trkpt lat="45.79755" lon="3.25321">
        <ele>322</ele>
        <time>2022-02-14T15:05:59.99Z</time>
      </trkpt>
      <trkpt lat="45.79758" lon="3.25327">
        <ele>322</ele>
        <time>2022-02-14T15:06:01.02Z</time>
      </trkpt>
      <trkpt lat="45.79773" lon="3.25341">
        <ele>323</ele>
        <time>2022-02-14T15:06:04.58Z</time>
      </trkpt>
      <trkpt lat="45.79774" lon="3.25355">
        <ele>322.75</ele>
        <time>2022-02-14T15:06:06.52Z</time>
      </trkpt>
      <trkpt lat="45.79772" lon="3.25364">
        <ele>322</ele>
        <time>2022-02-14T15:06:07.94Z</time>
      </trkpt>
      <trkpt lat="45.7977" lon="3.25372">
        <ele>321.75</ele>
        <time>2022-02-14T15:06:09.09Z</time>
      </trkpt>
      <trkpt lat="45.79768" lon="3.25383">
        <ele>321</ele>
        <time>2022-02-14T15:06:10.67Z</time>
      </trkpt>
      <trkpt lat="45.7976" lon="3.25399">
        <ele>319.5</ele>
        <time>2022-02-14T15:06:13.42Z</time>
      </trkpt>
      <trkpt lat="45.79749" lon="3.2544">
        <ele>318.25</ele>
        <time>2022-02-14T15:06:19.52Z</time>
      </trkpt>
      <trkpt lat="45.7974" lon="3.25496">
        <ele>318.25</ele>
        <time>2022-02-14T15:06:27.53Z</time>
      </trkpt>
      <trkpt lat="45.79726" lon="3.25566">
        <ele>317.25</ele>
        <time>2022-02-14T15:06:37.79Z</time>
      </trkpt>
      <trkpt lat="45.79722" lon="3.25584">
        <ele>316.75</ele>
        <time>2022-02-14T15:06:40.38Z</time>
      </trkpt>
      <trkpt lat="45.7972" lon="3.25605">
        <ele>316.25</ele>
        <time>2022-02-14T15:06:43.37Z</time>
      </trkpt>
      <trkpt lat="45.79726" lon="3.2575">
        <ele>314</ele>
        <time>2022-02-14T15:07:03.56Z</time>
      </trkpt>
      <trkpt lat="45.79729" lon="3.25828">
        <ele>313.25</ele>
        <time>2022-02-14T15:07:14.38Z</time>
      </trkpt>
      <trkpt lat="45.79729" lon="3.25837">
        <ele>313.25</ele>
        <time>2022-02-14T15:07:15.65Z</time>
      </trkpt>
      <trkpt lat="45.79729" lon="3.25845">
        <ele>313</ele>
        <time>2022-02-14T15:07:16.79Z</time>
      </trkpt>
      <trkpt lat="45.79738" lon="3.25849">
        <ele>314</ele>
        <time>2022-02-14T15:07:18.80Z</time>
      </trkpt>
      <trkpt lat="45.79751" lon="3.25851">
        <ele>315.25</ele>
        <time>2022-02-14T15:07:21.31Z</time>
      </trkpt>
      <trkpt lat="45.79825" lon="3.25856">
        <ele>319.5</ele>
        <time>2022-02-14T15:07:36.27Z</time>
      </trkpt>
      <trkpt lat="45.79831" lon="3.25859">
        <ele>319.75</ele>
        <time>2022-02-14T15:07:37.42Z</time>
      </trkpt>
      <trkpt lat="45.79836" lon="3.25863">
        <ele>319.75</ele>
        <time>2022-02-14T15:07:38.68Z</time>
      </trkpt>
      <trkpt lat="45.7984" lon="3.25869">
        <ele>319.5</ele>
        <time>2022-02-14T15:07:39.78Z</time>
      </trkpt>
      <trkpt lat="45.79845" lon="3.25872">
        <ele>319.5</ele>
        <time>2022-02-14T15:07:40.89Z</time>
      </trkpt>
      <trkpt lat="45.7985" lon="3.25873">
        <ele>319.25</ele>
        <time>2022-02-14T15:07:41.86Z</time>
      </trkpt>
      <trkpt lat="45.79855" lon="3.25873">
        <ele>319.25</ele>
        <time>2022-02-14T15:07:42.83Z</time>
      </trkpt>
      <trkpt lat="45.79859" lon="3.2587">
        <ele>319.5</ele>
        <time>2022-02-14T15:07:43.80Z</time>
      </trkpt>
      <trkpt lat="45.79863" lon="3.25865">
        <ele>319.5</ele>
        <time>2022-02-14T15:07:44.77Z</time>
      </trkpt>
      <trkpt lat="45.79865" lon="3.25859">
        <ele>319.75</ele>
        <time>2022-02-14T15:07:45.75Z</time>
      </trkpt>
      <trkpt lat="45.79876" lon="3.25854">
        <ele>319.75</ele>
        <time>2022-02-14T15:07:48Z</time>
      </trkpt>
      <trkpt lat="45.79884" lon="3.25851">
        <ele>319.75</ele>
        <time>2022-02-14T15:07:49.59Z</time>
      </trkpt>
      <trkpt lat="45.79893" lon="3.25851">
        <ele>319.75</ele>
        <time>2022-02-14T15:07:51.55Z</time>
      </trkpt>
      <trkpt lat="45.79902" lon="3.25855">
        <ele>319.5</ele>
        <time>2022-02-14T15:07:53.32Z</time>
      </trkpt>
      <trkpt lat="45.79922" lon="3.2587">
        <ele>319</ele>
        <time>2022-02-14T15:07:57.81Z</time>
      </trkpt>
      <trkpt lat="45.80052" lon="3.26065">
        <ele>315.5</ele>
        <time>2022-02-14T15:08:35.45Z</time>
      </trkpt>
      <trkpt lat="45.80098" lon="3.26131">
        <ele>313.75</ele>
        <time>2022-02-14T15:08:48.51Z</time>
      </trkpt>
      <trkpt lat="45.80116" lon="3.26153">
        <ele>313.5</ele>
        <time>2022-02-14T15:08:53.16Z</time>
      </trkpt>
      <trkpt lat="45.80155" lon="3.26183">
        <ele>313</ele>
        <time>2022-02-14T15:09:02.03Z</time>
      </trkpt>
      <trkpt lat="45.80232" lon="3.26223">
        <ele>311.25</ele>
        <time>2022-02-14T15:09:18.36Z</time>
      </trkpt>
      <trkpt lat="45.80297" lon="3.26256">
        <ele>312.5</ele>
        <time>2022-02-14T15:09:32.14Z</time>
      </trkpt>
      <trkpt lat="45.80346" lon="3.2628">
        <ele>313.5</ele>
        <time>2022-02-14T15:09:42.55Z</time>
      </trkpt>
      <trkpt lat="45.80402" lon="3.26306">
        <ele>314</ele>
        <time>2022-02-14T15:09:54.29Z</time>
      </trkpt>
      <trkpt lat="45.8043" lon="3.26319">
        <ele>314.25</ele>
        <time>2022-02-14T15:10:00.18Z</time>
      </trkpt>
      <trkpt lat="45.80473" lon="3.26331">
        <ele>314.5</ele>
        <time>2022-02-14T15:10:09.01Z</time>
      </trkpt>
      <trkpt lat="45.80499" lon="3.26339">
        <ele>314.75</ele>
        <time>2022-02-14T15:10:14.33Z</time>
      </trkpt>
      <trkpt lat="45.80543" lon="3.26355">
        <ele>313</ele>
        <time>2022-02-14T15:10:23.32Z</time>
      </trkpt>
      <trkpt lat="45.80633" lon="3.2638">
        <ele>309.75</ele>
        <time>2022-02-14T15:10:41.77Z</time>
      </trkpt>
      <trkpt lat="45.80665" lon="3.26382">
        <ele>308.5</ele>
        <time>2022-02-14T15:10:48.14Z</time>
      </trkpt>
      <trkpt lat="45.80707" lon="3.26382">
        <ele>308.5</ele>
        <time>2022-02-14T15:10:56.60Z</time>
      </trkpt>
      <trkpt lat="45.80776" lon="3.26381">
        <ele>308.5</ele>
        <time>2022-02-14T15:11:10.34Z</time>
      </trkpt>
      <trkpt lat="45.80876" lon="3.26377">
        <ele>310.25</ele>
        <time>2022-02-14T15:11:30.33Z</time>
      </trkpt>
      <trkpt lat="45.80915" lon="3.26365">
        <ele>311</ele>
        <time>2022-02-14T15:11:38.26Z</time>
      </trkpt>
      <trkpt lat="45.81" lon="3.26329">
        <ele>310.75</ele>
        <time>2022-02-14T15:11:56.03Z</time>
      </trkpt>
      <trkpt lat="45.81054" lon="3.26312">
        <ele>310</ele>
        <time>2022-02-14T15:12:07.03Z</time>
      </trkpt>
      <trkpt lat="45.81081" lon="3.26311">
        <ele>309.5</ele>
        <time>2022-02-14T15:12:12.55Z</time>
      </trkpt>
      <trkpt lat="45.81104" lon="3.26314">
        <ele>310</ele>
        <time>2022-02-14T15:12:17.22Z</time>
      </trkpt>
      <trkpt lat="45.81142" lon="3.2633">
        <ele>311.25</ele>
        <time>2022-02-14T15:12:25.10Z</time>
      </trkpt>
      <trkpt lat="45.81252" lon="3.2639">
        <ele>311.5</ele>
        <time>2022-02-14T15:12:48.66Z</time>
      </trkpt>
      <trkpt lat="45.81292" lon="3.26408">
        <ele>310.75</ele>
        <time>2022-02-14T15:12:56.97Z</time>
      </trkpt>
      <trkpt lat="45.81404" lon="3.26446">
        <ele>310.5</ele>
        <time>2022-02-14T15:13:19.88Z</time>
      </trkpt>
      <trkpt lat="45.81445" lon="3.26453">
        <ele>309.5</ele>
        <time>2022-02-14T15:13:28.20Z</time>
      </trkpt>
      <trkpt lat="45.81555" lon="3.26443">
        <ele>310.5</ele>
        <time>2022-02-14T15:13:50.26Z</time>
      </trkpt>
      <trkpt lat="45.81592" lon="3.26432">
        <ele>312.5</ele>
        <time>2022-02-14T15:13:57.74Z</time>
      </trkpt>
      <trkpt lat="45.81608" lon="3.26419">
        <ele>312.75</ele>
        <time>2022-02-14T15:14:01.46Z</time>
      </trkpt>
      <trkpt lat="45.8162" lon="3.26404">
        <ele>312.5</ele>
        <time>2022-02-14T15:14:04.74Z</time>
      </trkpt>
      <trkpt lat="45.81628" lon="3.2638">
        <ele>312.25</ele>
        <time>2022-02-14T15:14:08.49Z</time>
      </trkpt>
      <trkpt lat="45.81637" lon="3.26286">
        <ele>312.25</ele>
        <time>2022-02-14T15:14:21.71Z</time>
      </trkpt>
      <trkpt lat="45.81644" lon="3.26228">
        <ele>312.75</ele>
        <time>2022-02-14T15:14:29.90Z</time>
      </trkpt>
      <trkpt lat="45.81656" lon="3.2616">
        <ele>314</ele>
        <time>2022-02-14T15:14:39.64Z</time>
      </trkpt>
      <trkpt lat="45.817" lon="3.25921">
        <ele>317.5</ele>
        <time>2022-02-14T15:15:14.18Z</time>
      </trkpt>
      <trkpt lat="45.81706" lon="3.25871">
        <ele>316.75</ele>
        <time>2022-02-14T15:15:21.22Z</time>
      </trkpt>
      <trkpt lat="45.81713" lon="3.25778">
        <ele>316.5</ele>
        <time>2022-02-14T15:15:34.16Z</time>
      </trkpt>
      <trkpt lat="45.8172" lon="3.2573">
        <ele>316.75</ele>
        <time>2022-02-14T15:15:41.07Z</time>
      </trkpt>
      <trkpt lat="45.81728" lon="3.25704">
        <ele>317</ele>
        <time>2022-02-14T15:15:45.09Z</time>
      </trkpt>
      <trkpt lat="45.81734" lon="3.25696">
        <ele>317.25</ele>
        <time>2022-02-14T15:15:46.62Z</time>
      </trkpt>
      <trkpt lat="45.81736" lon="3.25695">
        <ele>317.25</ele>
        <time>2022-02-14T15:15:47.19Z</time>
      </trkpt>
      <trkpt lat="45.81741" lon="3.25691">
        <ele>317.5</ele>
        <time>2022-02-14T15:15:48.30Z</time>
      </trkpt>
      <trkpt lat="45.81745" lon="3.25686">
        <ele>317.5</ele>
        <time>2022-02-14T15:15:49.40Z</time>
      </trkpt>
      <trkpt lat="45.81748" lon="3.25679">
        <ele>317.75</ele>
        <time>2022-02-14T15:15:50.48Z</time>
      </trkpt>
      <trkpt lat="45.81756" lon="3.25671">
        <ele>317.75</ele>
        <time>2022-02-14T15:15:52.40Z</time>
      </trkpt>
      <trkpt lat="45.81768" lon="3.25667">
        <ele>317.75</ele>
        <time>2022-02-14T15:15:54.88Z</time>
      </trkpt>
      <trkpt lat="45.81796" lon="3.2567">
        <ele>317.75</ele>
        <time>2022-02-14T15:16:00.52Z</time>
      </trkpt>
      <trkpt lat="45.81841" lon="3.25687">
        <ele>317.75</ele>
        <time>2022-02-14T15:16:09.87Z</time>
      </trkpt>
      <trkpt lat="45.81875" lon="3.25706">
        <ele>317.75</ele>
        <time>2022-02-14T15:16:16.99Z</time>
      </trkpt>
      <trkpt lat="45.81901" lon="3.25724">
        <ele>318.5</ele>
        <time>2022-02-14T15:16:22.91Z</time>
      </trkpt>
      <trkpt lat="45.82293" lon="3.25991">
        <ele>317.5</ele>
        <time>2022-02-14T15:17:49.58Z</time>
      </trkpt>
      <trkpt lat="45.82353" lon="3.26046">
        <ele>317.25</ele>
        <time>2022-02-14T15:18:03.86Z</time>
      </trkpt>
      <trkpt lat="45.82399" lon="3.26115">
        <ele>315.75</ele>
        <time>2022-02-14T15:18:17.17Z</time>
      </trkpt>
      <trkpt lat="45.82441" lon="3.26229">
        <ele>312.5</ele>
        <time>2022-02-14T15:18:35.12Z</time>
      </trkpt>
      <trkpt lat="45.82481" lon="3.26342">
        <ele>311</ele>
        <time>2022-02-14T15:18:52.80Z</time>
      </trkpt>
      <trkpt lat="45.82511" lon="3.26392">
        <ele>312.75</ele>
        <time>2022-02-14T15:19:01.95Z</time>
      </trkpt>
      <trkpt lat="45.82547" lon="3.26434">
        <ele>313.25</ele>
        <time>2022-02-14T15:19:11.36Z</time>
      </trkpt>
      <trkpt lat="45.82585" lon="3.2646">
        <ele>313.5</ele>
        <time>2022-02-14T15:19:19.70Z</time>
      </trkpt>
      <trkpt lat="45.8259" lon="3.26463">
        <ele>313.5</ele>
        <time>2022-02-14T15:19:20.70Z</time>
      </trkpt>
      <trkpt lat="45.82721" lon="3.26522">
        <ele>312.75</ele>
        <time>2022-02-14T15:19:48.28Z</time>
      </trkpt>
      <trkpt lat="45.82756" lon="3.26538">
        <ele>312.5</ele>
        <time>2022-02-14T15:19:55.68Z</time>
      </trkpt>
      <trkpt lat="45.82819" lon="3.26569">
        <ele>313.5</ele>
        <time>2022-02-14T15:20:08.89Z</time>
      </trkpt>
      <trkpt lat="45.82858" lon="3.26593">
        <ele>313.25</ele>
        <time>2022-02-14T15:20:17.39Z</time>
      </trkpt>
      <trkpt lat="45.82918" lon="3.26637">
        <ele>312.5</ele>
        <time>2022-02-14T15:20:30.94Z</time>
      </trkpt>
      <trkpt lat="45.82975" lon="3.26682">
        <ele>313</ele>
        <time>2022-02-14T15:20:43.84Z</time>
      </trkpt>
      <trkpt lat="45.82996" lon="3.267">
        <ele>313.25</ele>
        <time>2022-02-14T15:20:48.81Z</time>
      </trkpt>
      <trkpt lat="45.83066" lon="3.26756">
        <ele>313.75</ele>
        <time>2022-02-14T15:21:04.85Z</time>
      </trkpt>
      <trkpt lat="45.83153" lon="3.2681">
        <ele>312</ele>
        <time>2022-02-14T15:21:23.70Z</time>
      </trkpt>
      <trkpt lat="45.8316" lon="3.26815">
        <ele>312</ele>
        <time>2022-02-14T15:21:25.42Z</time>
      </trkpt>
      <trkpt lat="45.83285" lon="3.26871">
        <ele>313</ele>
        <time>2022-02-14T15:21:51.50Z</time>
      </trkpt>
      <trkpt lat="45.8337" lon="3.26913">
        <ele>314.75</ele>
        <time>2022-02-14T15:22:09.49Z</time>
      </trkpt>
      <trkpt lat="45.83471" lon="3.26964">
        <ele>312.5</ele>
        <time>2022-02-14T15:22:30.83Z</time>
      </trkpt>
      <trkpt lat="45.83525" lon="3.26991">
        <ele>312.25</ele>
        <time>2022-02-14T15:22:42.31Z</time>
      </trkpt>
      <trkpt lat="45.83607" lon="3.27012">
        <ele>312</ele>
        <time>2022-02-14T15:22:58.98Z</time>
      </trkpt>
      <trkpt lat="45.83622" lon="3.27011">
        <ele>311.5</ele>
        <time>2022-02-14T15:23:02.02Z</time>
      </trkpt>
      <trkpt lat="45.8367" lon="3.27008">
        <ele>309.75</ele>
        <time>2022-02-14T15:23:11.71Z</time>
      </trkpt>
      <trkpt lat="45.83786" lon="3.27004">
        <ele>308</ele>
        <time>2022-02-14T15:23:34.86Z</time>
      </trkpt>
      <trkpt lat="45.83802" lon="3.27005">
        <ele>308.5</ele>
        <time>2022-02-14T15:23:38.06Z</time>
      </trkpt>
      <trkpt lat="45.83881" lon="3.27021">
        <ele>310.75</ele>
        <time>2022-02-14T15:23:53.92Z</time>
      </trkpt>
      <trkpt lat="45.83901" lon="3.2703">
        <ele>311</ele>
        <time>2022-02-14T15:23:58.06Z</time>
      </trkpt>
      <trkpt lat="45.83915" lon="3.27042">
        <ele>310.75</ele>
        <time>2022-02-14T15:24:01.34Z</time>
      </trkpt>
      <trkpt lat="45.83946" lon="3.27077">
        <ele>310.25</ele>
        <time>2022-02-14T15:24:09.36Z</time>
      </trkpt>
      <trkpt lat="45.83991" lon="3.27136">
        <ele>311.5</ele>
        <time>2022-02-14T15:24:21.44Z</time>
      </trkpt>
      <trkpt lat="45.84021" lon="3.27167">
        <ele>311.75</ele>
        <time>2022-02-14T15:24:28.96Z</time>
      </trkpt>
      <trkpt lat="45.84088" lon="3.27224">
        <ele>312.5</ele>
        <time>2022-02-14T15:24:44.55Z</time>
      </trkpt>
      <trkpt lat="45.8427" lon="3.27381">
        <ele>313.25</ele>
        <time>2022-02-14T15:25:26.96Z</time>
      </trkpt>
      <trkpt lat="45.84365" lon="3.27481">
        <ele>316</ele>
        <time>2022-02-14T15:25:50.60Z</time>
      </trkpt>
      <trkpt lat="45.84404" lon="3.27525">
        <ele>317</ele>
        <time>2022-02-14T15:26:00.44Z</time>
      </trkpt>
      <trkpt lat="45.84427" lon="3.27557">
        <ele>317</ele>
        <time>2022-02-14T15:26:06.86Z</time>
      </trkpt>
      <trkpt lat="45.8444" lon="3.27582">
        <ele>317.5</ele>
        <time>2022-02-14T15:26:11.24Z</time>
      </trkpt>
      <trkpt lat="45.8445" lon="3.27606">
        <ele>318</ele>
        <time>2022-02-14T15:26:15.09Z</time>
      </trkpt>
      <trkpt lat="45.84461" lon="3.27639">
        <ele>318.75</ele>
        <time>2022-02-14T15:26:20.20Z</time>
      </trkpt>
      <trkpt lat="45.84563" lon="3.27991">
        <ele>316</ele>
        <time>2022-02-14T15:27:13.33Z</time>
      </trkpt>
      <trkpt lat="45.84576" lon="3.28018">
        <ele>315.5</ele>
        <time>2022-02-14T15:27:17.85Z</time>
      </trkpt>
      <trkpt lat="45.84588" lon="3.28038">
        <ele>315.25</ele>
        <time>2022-02-14T15:27:21.59Z</time>
      </trkpt>
      <trkpt lat="45.846" lon="3.28056">
        <ele>315.25</ele>
        <time>2022-02-14T15:27:24.97Z</time>
      </trkpt>
      <trkpt lat="45.84615" lon="3.28073">
        <ele>315.25</ele>
        <time>2022-02-14T15:27:28.76Z</time>
      </trkpt>
      <trkpt lat="45.84702" lon="3.28159">
        <ele>312.5</ele>
        <time>2022-02-14T15:27:49.87Z</time>
      </trkpt>
      <trkpt lat="45.84784" lon="3.28243">
        <ele>309.25</ele>
        <time>2022-02-14T15:28:10.12Z</time>
      </trkpt>
      <trkpt lat="45.84846" lon="3.28306">
        <ele>309.25</ele>
        <time>2022-02-14T15:28:25.32Z</time>
      </trkpt>
      <trkpt lat="45.84865" lon="3.28317">
        <ele>309.5</ele>
        <time>2022-02-14T15:28:29.45Z</time>
      </trkpt>
      <trkpt lat="45.8488" lon="3.28326">
        <ele>309.5</ele>
        <time>2022-02-14T15:28:32.54Z</time>
      </trkpt>
      <trkpt lat="45.84914" lon="3.28335">
        <ele>310.5</ele>
        <time>2022-02-14T15:28:39.62Z</time>
      </trkpt>
      <trkpt lat="45.84985" lon="3.28346">
        <ele>310.5</ele>
        <time>2022-02-14T15:28:53.87Z</time>
      </trkpt>
      <trkpt lat="45.85026" lon="3.28356">
        <ele>310.75</ele>
        <time>2022-02-14T15:29:02.11Z</time>
      </trkpt>
      <trkpt lat="45.85068" lon="3.28376">
        <ele>310.25</ele>
        <time>2022-02-14T15:29:11.02Z</time>
      </trkpt>
      <trkpt lat="45.8511" lon="3.28406">
        <ele>308.5</ele>
        <time>2022-02-14T15:29:20.33Z</time>
      </trkpt>
      <trkpt lat="45.85152" lon="3.28448">
        <ele>306.75</ele>
        <time>2022-02-14T15:29:30.62Z</time>
      </trkpt>
      <trkpt lat="45.85184" lon="3.28495">
        <ele>306.75</ele>
        <time>2022-02-14T15:29:39.79Z</time>
      </trkpt>
      <trkpt lat="45.85275" lon="3.28643">
        <ele>307.25</ele>
        <time>2022-02-14T15:30:07.30Z</time>
      </trkpt>
      <trkpt lat="45.85363" lon="3.28786">
        <ele>308</ele>
        <time>2022-02-14T15:30:33.89Z</time>
      </trkpt>
      <trkpt lat="45.85468" lon="3.28953">
        <ele>308.5</ele>
        <time>2022-02-14T15:31:05.21Z</time>
      </trkpt>
      <trkpt lat="45.85491" lon="3.28998">
        <ele>308.75</ele>
        <time>2022-02-14T15:31:12.94Z</time>
      </trkpt>
      <trkpt lat="45.85509" lon="3.29044">
        <ele>308</ele>
        <time>2022-02-14T15:31:20.33Z</time>
      </trkpt>
      <trkpt lat="45.85594" lon="3.2928">
        <ele>304.75</ele>
        <time>2022-02-14T15:31:57.37Z</time>
      </trkpt>
      <trkpt lat="45.85639" lon="3.29392">
        <ele>303.5</ele>
        <time>2022-02-14T15:32:15.33Z</time>
      </trkpt>
      <trkpt lat="45.85717" lon="3.29642">
        <ele>303.5</ele>
        <time>2022-02-14T15:32:53.46Z</time>
      </trkpt>
      <trkpt lat="45.85734" lon="3.2968">
        <ele>304.25</ele>
        <time>2022-02-14T15:32:59.78Z</time>
      </trkpt>
      <trkpt lat="45.85777" lon="3.29774">
        <ele>304.75</ele>
        <time>2022-02-14T15:33:15.43Z</time>
      </trkpt>
      <trkpt lat="45.85821" lon="3.29912">
        <ele>304.75</ele>
        <time>2022-02-14T15:33:36.58Z</time>
      </trkpt>
      <trkpt lat="45.85838" lon="3.29949">
        <ele>305.5</ele>
        <time>2022-02-14T15:33:42.80Z</time>
      </trkpt>
      <trkpt lat="45.85855" lon="3.29969">
        <ele>305.75</ele>
        <time>2022-02-14T15:33:47.20Z</time>
      </trkpt>
      <trkpt lat="45.85881" lon="3.29992">
        <ele>306</ele>
        <time>2022-02-14T15:33:53.24Z</time>
      </trkpt>
      <trkpt lat="45.85891" lon="3.3">
        <ele>306.25</ele>
        <time>2022-02-14T15:33:55.50Z</time>
      </trkpt>
      <trkpt lat="45.85929" lon="3.30029">
        <ele>307</ele>
        <time>2022-02-14T15:34:04.25Z</time>
      </trkpt>
      <trkpt lat="45.85936" lon="3.30034">
        <ele>307</ele>
        <time>2022-02-14T15:34:05.65Z</time>
      </trkpt>
      <trkpt lat="45.85949" lon="3.30044">
        <ele>307</ele>
        <time>2022-02-14T15:34:08.67Z</time>
      </trkpt>
      <trkpt lat="45.85979" lon="3.30073">
        <ele>307</ele>
        <time>2022-02-14T15:34:15.89Z</time>
      </trkpt>
      <trkpt lat="45.8599" lon="3.30081">
        <ele>307</ele>
        <time>2022-02-14T15:34:18.33Z</time>
      </trkpt>
      <trkpt lat="45.85993" lon="3.30091">
        <ele>307</ele>
        <time>2022-02-14T15:34:19.89Z</time>
      </trkpt>
      <trkpt lat="45.85992" lon="3.30114">
        <ele>307.5</ele>
        <time>2022-02-14T15:34:23.04Z</time>
      </trkpt>
      <trkpt lat="45.85994" lon="3.3012">
        <ele>307.75</ele>
        <time>2022-02-14T15:34:23.95Z</time>
      </trkpt>
      <trkpt lat="45.86016" lon="3.3016">
        <ele>309</ele>
        <time>2022-02-14T15:34:31.23Z</time>
      </trkpt>
      <trkpt lat="45.86079" lon="3.30228">
        <ele>308.25</ele>
        <time>2022-02-14T15:34:46.89Z</time>
      </trkpt>
      <trkpt lat="45.86092" lon="3.30244">
        <ele>308.25</ele>
        <time>2022-02-14T15:34:50.23Z</time>
      </trkpt>
      <trkpt lat="45.86118" lon="3.30276">
        <ele>307.75</ele>
        <time>2022-02-14T15:34:57.09Z</time>
      </trkpt>
      <trkpt lat="45.86125" lon="3.30284">
        <ele>307.75</ele>
        <time>2022-02-14T15:34:58.95Z</time>
      </trkpt>
      <trkpt lat="45.86176" lon="3.30344">
        <ele>305.5</ele>
        <time>2022-02-14T15:35:12.09Z</time>
      </trkpt>
      <trkpt lat="45.86183" lon="3.3035">
        <ele>304.5</ele>
        <time>2022-02-14T15:35:13.72Z</time>
      </trkpt>
      <trkpt lat="45.86191" lon="3.30355">
        <ele>303.75</ele>
        <time>2022-02-14T15:35:15.54Z</time>
      </trkpt>
      <trkpt lat="45.8621" lon="3.3036">
        <ele>303</ele>
        <time>2022-02-14T15:35:19.31Z</time>
      </trkpt>
      <trkpt lat="45.86213" lon="3.30362">
        <ele>302.75</ele>
        <time>2022-02-14T15:35:20.05Z</time>
      </trkpt>
      <trkpt lat="45.86216" lon="3.30364">
        <ele>302.5</ele>
        <time>2022-02-14T15:35:20.64Z</time>
      </trkpt>
      <trkpt lat="45.86215" lon="3.30367">
        <ele>302.25</ele>
        <time>2022-02-14T15:35:21.03Z</time>
      </trkpt>
      <trkpt lat="45.86217" lon="3.30372">
        <ele>301.75</ele>
        <time>2022-02-14T15:35:21.78Z</time>
      </trkpt>
      <trkpt lat="45.8622" lon="3.30374">
        <ele>301.25</ele>
        <time>2022-02-14T15:35:22.54Z</time>
      </trkpt>
      <trkpt lat="45.86221" lon="3.30377">
        <ele>301</ele>
        <time>2022-02-14T15:35:23.07Z</time>
      </trkpt>
      <trkpt lat="45.86222" lon="3.30383">
        <ele>300.5</ele>
        <time>2022-02-14T15:35:23.86Z</time>
      </trkpt>
      <trkpt lat="45.86221" lon="3.30404">
        <ele>298.25</ele>
        <time>2022-02-14T15:35:26.80Z</time>
      </trkpt>
      <trkpt lat="45.8622" lon="3.30412">
        <ele>297.5</ele>
        <time>2022-02-14T15:35:27.88Z</time>
      </trkpt>
      <trkpt lat="45.86213" lon="3.30495">
        <ele>295</ele>
        <time>2022-02-14T15:35:39.54Z</time>
      </trkpt>
      <trkpt lat="45.86205" lon="3.30541">
        <ele>294</ele>
        <time>2022-02-14T15:35:46.15Z</time>
      </trkpt>
      <trkpt lat="45.86197" lon="3.30587">
        <ele>292.75</ele>
        <time>2022-02-14T15:35:52.80Z</time>
      </trkpt>
      <trkpt lat="45.86161" lon="3.30763">
        <ele>294</ele>
        <time>2022-02-14T15:36:18.28Z</time>
      </trkpt>
      <trkpt lat="45.86151" lon="3.30817">
        <ele>295</ele>
        <time>2022-02-14T15:36:26.07Z</time>
      </trkpt>
      <trkpt lat="45.86141" lon="3.30863">
        <ele>295.25</ele>
        <time>2022-02-14T15:36:32.79Z</time>
      </trkpt>
      <trkpt lat="45.86127" lon="3.30933">
        <ele>295</ele>
        <time>2022-02-14T15:36:42.93Z</time>
      </trkpt>
      <trkpt lat="45.86124" lon="3.30932">
        <ele>295.25</ele>
        <time>2022-02-14T15:36:43.55Z</time>
      </trkpt>
      <trkpt lat="45.86103" lon="3.30933">
        <ele>295.75</ele>
        <time>2022-02-14T15:36:47.75Z</time>
      </trkpt>
      <trkpt lat="45.85894" lon="3.30952">
        <ele>294</ele>
        <time>2022-02-14T15:37:29.56Z</time>
      </trkpt>
      <trkpt lat="45.8588" lon="3.30955">
        <ele>294</ele>
        <time>2022-02-14T15:37:32.47Z</time>
      </trkpt>
      <trkpt lat="45.85862" lon="3.30962">
        <ele>293.75</ele>
        <time>2022-02-14T15:37:36.18Z</time>
      </trkpt>
      <trkpt lat="45.85769" lon="3.31018">
        <ele>292.25</ele>
        <time>2022-02-14T15:37:56.36Z</time>
      </trkpt>
      <trkpt lat="45.85752" lon="3.31023">
        <ele>292.25</ele>
        <time>2022-02-14T15:37:59.81Z</time>
      </trkpt>
      <trkpt lat="45.85728" lon="3.3102">
        <ele>292.5</ele>
        <time>2022-02-14T15:38:04.60Z</time>
      </trkpt>
      <trkpt lat="45.85688" lon="3.31005">
        <ele>292.75</ele>
        <time>2022-02-14T15:38:12.86Z</time>
      </trkpt>
      <trkpt lat="45.85658" lon="3.31">
        <ele>293.25</ele>
        <time>2022-02-14T15:38:18.92Z</time>
      </trkpt>
      <trkpt lat="45.85617" lon="3.30996">
        <ele>295.25</ele>
        <time>2022-02-14T15:38:27.01Z</time>
      </trkpt>
      <trkpt lat="45.85593" lon="3.3099">
        <ele>296.25</ele>
        <time>2022-02-14T15:38:32.02Z</time>
      </trkpt>
      <trkpt lat="45.85565" lon="3.30976">
        <ele>295.75</ele>
        <time>2022-02-14T15:38:37.97Z</time>
      </trkpt>
      <trkpt lat="45.85534" lon="3.30958">
        <ele>294.5</ele>
        <time>2022-02-14T15:38:44.53Z</time>
      </trkpt>
      <trkpt lat="45.85518" lon="3.30951">
        <ele>293.75</ele>
        <time>2022-02-14T15:38:47.90Z</time>
      </trkpt>
      <trkpt lat="45.85499" lon="3.30948">
        <ele>293.25</ele>
        <time>2022-02-14T15:38:51.65Z</time>
      </trkpt>
      <trkpt lat="45.85479" lon="3.30951">
        <ele>293.25</ele>
        <time>2022-02-14T15:38:55.81Z</time>
      </trkpt>
      <trkpt lat="45.85459" lon="3.30957">
        <ele>293.25</ele>
        <time>2022-02-14T15:38:59.78Z</time>
      </trkpt>
      <trkpt lat="45.85444" lon="3.3097">
        <ele>293.5</ele>
        <time>2022-02-14T15:39:03.28Z</time>
      </trkpt>
      <trkpt lat="45.85433" lon="3.30982">
        <ele>293.75</ele>
        <time>2022-02-14T15:39:06.02Z</time>
      </trkpt>
      <trkpt lat="45.85379" lon="3.31053">
        <ele>294.25</ele>
        <time>2022-02-14T15:39:20.74Z</time>
      </trkpt>
      <trkpt lat="45.8537" lon="3.31069">
        <ele>294.25</ele>
        <time>2022-02-14T15:39:23.61Z</time>
      </trkpt>
      <trkpt lat="45.85359" lon="3.31091">
        <ele>294.5</ele>
        <time>2022-02-14T15:39:27.32Z</time>
      </trkpt>
      <trkpt lat="45.85308" lon="3.31217">
        <ele>294.5</ele>
        <time>2022-02-14T15:39:47.67Z</time>
      </trkpt>
      <trkpt lat="45.85218" lon="3.31443">
        <ele>293.5</ele>
        <time>2022-02-14T15:40:23.97Z</time>
      </trkpt>
      <trkpt lat="45.85206" lon="3.31471">
        <ele>293.25</ele>
        <time>2022-02-14T15:40:28.51Z</time>
      </trkpt>
      <trkpt lat="45.852" lon="3.31482">
        <ele>293.25</ele>
        <time>2022-02-14T15:40:30.53Z</time>
      </trkpt>
      <trkpt lat="45.85184" lon="3.31508">
        <ele>293</ele>
        <time>2022-02-14T15:40:35.27Z</time>
      </trkpt>
      <trkpt lat="45.85104" lon="3.31625">
        <ele>294.25</ele>
        <time>2022-02-14T15:40:58.14Z</time>
      </trkpt>
      <trkpt lat="45.85059" lon="3.31694">
        <ele>295.5</ele>
        <time>2022-02-14T15:41:11.32Z</time>
      </trkpt>
      <trkpt lat="45.85049" lon="3.31713">
        <ele>295.5</ele>
        <time>2022-02-14T15:41:14.55Z</time>
      </trkpt>
      <trkpt lat="45.85034" lon="3.31781">
        <ele>296.5</ele>
        <time>2022-02-14T15:41:24.57Z</time>
      </trkpt>
      <trkpt lat="45.85017" lon="3.31853">
        <ele>299.25</ele>
        <time>2022-02-14T15:41:35.17Z</time>
      </trkpt>
      <trkpt lat="45.85006" lon="3.31878">
        <ele>301.75</ele>
        <time>2022-02-14T15:41:39.28Z</time>
      </trkpt>
      <trkpt lat="45.84993" lon="3.31892">
        <ele>303</ele>
        <time>2022-02-14T15:41:42.44Z</time>
      </trkpt>
      <trkpt lat="45.84978" lon="3.31902">
        <ele>303.75</ele>
        <time>2022-02-14T15:41:45.86Z</time>
      </trkpt>
      <trkpt lat="45.84954" lon="3.31906">
        <ele>303.75</ele>
        <time>2022-02-14T15:41:50.53Z</time>
      </trkpt>
      <trkpt lat="45.84895" lon="3.31902">
        <ele>303.75</ele>
        <time>2022-02-14T15:42:02.48Z</time>
      </trkpt>
      <trkpt lat="45.84857" lon="3.31895">
        <ele>305.5</ele>
        <time>2022-02-14T15:42:10.03Z</time>
      </trkpt>
      <trkpt lat="45.84807" lon="3.31862">
        <ele>307.5</ele>
        <time>2022-02-14T15:42:21.02Z</time>
      </trkpt>
      <trkpt lat="45.84787" lon="3.31859">
        <ele>309</ele>
        <time>2022-02-14T15:42:25.08Z</time>
      </trkpt>
      <trkpt lat="45.84773" lon="3.31872">
        <ele>309.5</ele>
        <time>2022-02-14T15:42:28.42Z</time>
      </trkpt>
      <trkpt lat="45.84754" lon="3.31949">
        <ele>308.5</ele>
        <time>2022-02-14T15:42:39.79Z</time>
      </trkpt>
      <trkpt lat="45.84751" lon="3.31961">
        <ele>308.5</ele>
        <time>2022-02-14T15:42:41.60Z</time>
      </trkpt>
      <trkpt lat="45.8481" lon="3.31971">
        <ele>308.5</ele>
        <time>2022-02-14T15:42:53.48Z</time>
      </trkpt>
      <trkpt lat="45.84864" lon="3.3199">
        <ele>308.25</ele>
        <time>2022-02-14T15:43:04.59Z</time>
      </trkpt>
      <trkpt lat="45.84953" lon="3.32042">
        <ele>307.75</ele>
        <time>2022-02-14T15:43:23.75Z</time>
      </trkpt>
      <trkpt lat="45.85057" lon="3.32116">
        <ele>306.5</ele>
        <time>2022-02-14T15:43:47.02Z</time>
      </trkpt>
      <trkpt lat="45.85148" lon="3.32203">
        <ele>307.75</ele>
        <time>2022-02-14T15:44:09.03Z</time>
      </trkpt>
      <trkpt lat="45.85266" lon="3.32318">
        <ele>306.75</ele>
        <time>2022-02-14T15:44:37.44Z</time>
      </trkpt>
      <trkpt lat="45.85304" lon="3.32351">
        <ele>306.25</ele>
        <time>2022-02-14T15:44:46.26Z</time>
      </trkpt>
      <trkpt lat="45.85337" lon="3.3238">
        <ele>306.5</ele>
        <time>2022-02-14T15:44:54.01Z</time>
      </trkpt>
      <trkpt lat="45.85421" lon="3.32452">
        <ele>306</ele>
        <time>2022-02-14T15:45:13.70Z</time>
      </trkpt>
      <trkpt lat="45.85579" lon="3.32579">
        <ele>306</ele>
        <time>2022-02-14T15:45:49.84Z</time>
      </trkpt>
      <trkpt lat="45.85686" lon="3.32638">
        <ele>303.5</ele>
        <time>2022-02-14T15:46:12.72Z</time>
      </trkpt>
      <trkpt lat="45.85719" lon="3.32678">
        <ele>304</ele>
        <time>2022-02-14T15:46:21.42Z</time>
      </trkpt>
      <trkpt lat="45.85831" lon="3.32828">
        <ele>304</ele>
        <time>2022-02-14T15:46:52.03Z</time>
      </trkpt>
      <trkpt lat="45.8588" lon="3.32912">
        <ele>304</ele>
        <time>2022-02-14T15:47:07.28Z</time>
      </trkpt>
      <trkpt lat="45.85913" lon="3.3296">
        <ele>304</ele>
        <time>2022-02-14T15:47:16.75Z</time>
      </trkpt>
      <trkpt lat="45.85943" lon="3.32992">
        <ele>303.75</ele>
        <time>2022-02-14T15:47:24.09Z</time>
      </trkpt>
      <trkpt lat="45.85946" lon="3.32996">
        <ele>303.75</ele>
        <time>2022-02-14T15:47:25.06Z</time>
      </trkpt>
      <trkpt lat="45.85954" lon="3.33002">
        <ele>303.75</ele>
        <time>2022-02-14T15:47:26.79Z</time>
      </trkpt>
      <trkpt lat="45.85973" lon="3.3302">
        <ele>303.75</ele>
        <time>2022-02-14T15:47:31.31Z</time>
      </trkpt>
      <trkpt lat="45.85979" lon="3.33028">
        <ele>303.75</ele>
        <time>2022-02-14T15:47:32.98Z</time>
      </trkpt>
      <trkpt lat="45.86042" lon="3.33122">
        <ele>304.25</ele>
        <time>2022-02-14T15:47:51.15Z</time>
      </trkpt>
      <trkpt lat="45.86123" lon="3.33249">
        <ele>300.5</ele>
        <time>2022-02-14T15:48:15.04Z</time>
      </trkpt>
      <trkpt lat="45.86155" lon="3.3336">
        <ele>298</ele>
        <time>2022-02-14T15:48:31.90Z</time>
      </trkpt>
      <trkpt lat="45.86171" lon="3.33416">
        <ele>297.75</ele>
        <time>2022-02-14T15:48:40.29Z</time>
      </trkpt>
      <trkpt lat="45.86172" lon="3.33419">
        <ele>297.75</ele>
        <time>2022-02-14T15:48:40.78Z</time>
      </trkpt>
      <trkpt lat="45.86185" lon="3.33453">
        <ele>297.25</ele>
        <time>2022-02-14T15:48:46.12Z</time>
      </trkpt>
      <trkpt lat="45.86197" lon="3.33485">
        <ele>297.25</ele>
        <time>2022-02-14T15:48:51.16Z</time>
      </trkpt>
      <trkpt lat="45.8621" lon="3.33502">
        <ele>297.5</ele>
        <time>2022-02-14T15:48:54.72Z</time>
      </trkpt>
      <trkpt lat="45.86227" lon="3.33511">
        <ele>297.75</ele>
        <time>2022-02-14T15:48:58.32Z</time>
      </trkpt>
      <trkpt lat="45.86272" lon="3.33533">
        <ele>299.25</ele>
        <time>2022-02-14T15:49:07.77Z</time>
      </trkpt>
      <trkpt lat="45.86282" lon="3.3354">
        <ele>299.5</ele>
        <time>2022-02-14T15:49:10.07Z</time>
      </trkpt>
      <trkpt lat="45.86299" lon="3.3355">
        <ele>300.25</ele>
        <time>2022-02-14T15:49:13.65Z</time>
      </trkpt>
      <trkpt lat="45.86309" lon="3.3355">
        <ele>300.5</ele>
        <time>2022-02-14T15:49:15.81Z</time>
      </trkpt>
      <trkpt lat="45.86346" lon="3.33551">
        <ele>301.25</ele>
        <time>2022-02-14T15:49:23.14Z</time>
      </trkpt>
      <trkpt lat="45.86365" lon="3.33544">
        <ele>301.25</ele>
        <time>2022-02-14T15:49:26.93Z</time>
      </trkpt>
      <trkpt lat="45.86388" lon="3.33529">
        <ele>300.5</ele>
        <time>2022-02-14T15:49:32.17Z</time>
      </trkpt>
      <trkpt lat="45.86412" lon="3.33522">
        <ele>300.25</ele>
        <time>2022-02-14T15:49:36.97Z</time>
      </trkpt>
      <trkpt lat="45.86446" lon="3.33517">
        <ele>300</ele>
        <time>2022-02-14T15:49:43.78Z</time>
      </trkpt>
      <trkpt lat="45.86468" lon="3.33515">
        <ele>300.25</ele>
        <time>2022-02-14T15:49:48.18Z</time>
      </trkpt>
      <trkpt lat="45.86522" lon="3.33509">
        <ele>299.75</ele>
        <time>2022-02-14T15:49:58.97Z</time>
      </trkpt>
      <trkpt lat="45.86571" lon="3.33502">
        <ele>298.25</ele>
        <time>2022-02-14T15:50:08.89Z</time>
      </trkpt>
      <trkpt lat="45.86617" lon="3.33495">
        <ele>297.75</ele>
        <time>2022-02-14T15:50:18.06Z</time>
      </trkpt>
      <trkpt lat="45.86634" lon="3.33495">
        <ele>297.75</ele>
        <time>2022-02-14T15:50:21.48Z</time>
      </trkpt>
      <trkpt lat="45.86644" lon="3.33497">
        <ele>297.75</ele>
        <time>2022-02-14T15:50:23.52Z</time>
      </trkpt>
      <trkpt lat="45.86649" lon="3.33498">
        <ele>297.75</ele>
        <time>2022-02-14T15:50:24.67Z</time>
      </trkpt>
      <trkpt lat="45.8667" lon="3.33508">
        <ele>298.5</ele>
        <time>2022-02-14T15:50:29.08Z</time>
      </trkpt>
      <trkpt lat="45.86709" lon="3.3354">
        <ele>300.5</ele>
        <time>2022-02-14T15:50:38.06Z</time>
      </trkpt>
      <trkpt lat="45.86752" lon="3.33579">
        <ele>301.75</ele>
        <time>2022-02-14T15:50:48.21Z</time>
      </trkpt>
      <trkpt lat="45.86764" lon="3.33585">
        <ele>301.75</ele>
        <time>2022-02-14T15:50:50.62Z</time>
      </trkpt>
      <trkpt lat="45.86801" lon="3.33604">
        <ele>301.5</ele>
        <time>2022-02-14T15:50:58.64Z</time>
      </trkpt>
      <trkpt lat="45.8683" lon="3.33613">
        <ele>301.25</ele>
        <time>2022-02-14T15:51:04.47Z</time>
      </trkpt>
      <trkpt lat="45.86859" lon="3.3362">
        <ele>301</ele>
        <time>2022-02-14T15:51:10.41Z</time>
      </trkpt>
      <trkpt lat="45.86896" lon="3.33625">
        <ele>300.5</ele>
        <time>2022-02-14T15:51:17.84Z</time>
      </trkpt>
      <trkpt lat="45.86964" lon="3.33631">
        <ele>300.75</ele>
        <time>2022-02-14T15:51:31.38Z</time>
      </trkpt>
      <trkpt lat="45.86993" lon="3.33636">
        <ele>301.25</ele>
        <time>2022-02-14T15:51:37.27Z</time>
      </trkpt>
      <trkpt lat="45.87024" lon="3.33644">
        <ele>301.25</ele>
        <time>2022-02-14T15:51:43.59Z</time>
      </trkpt>
      <trkpt lat="45.87051" lon="3.33655">
        <ele>301</ele>
        <time>2022-02-14T15:51:49.14Z</time>
      </trkpt>
      <trkpt lat="45.87074" lon="3.33667">
        <ele>300.75</ele>
        <time>2022-02-14T15:51:54.12Z</time>
      </trkpt>
      <trkpt lat="45.87123" lon="3.33699">
        <ele>299.75</ele>
        <time>2022-02-14T15:52:04.82Z</time>
      </trkpt>
      <trkpt lat="45.87159" lon="3.33727">
        <ele>298.5</ele>
        <time>2022-02-14T15:52:12.97Z</time>
      </trkpt>
      <trkpt lat="45.87188" lon="3.33755">
        <ele>297.25</ele>
        <time>2022-02-14T15:52:20.01Z</time>
      </trkpt>
      <trkpt lat="45.87217" lon="3.33786">
        <ele>296.5</ele>
        <time>2022-02-14T15:52:27.22Z</time>
      </trkpt>
      <trkpt lat="45.87237" lon="3.33811">
        <ele>296.5</ele>
        <time>2022-02-14T15:52:32.57Z</time>
      </trkpt>
      <trkpt lat="45.87254" lon="3.33841">
        <ele>296.5</ele>
        <time>2022-02-14T15:52:37.88Z</time>
      </trkpt>
      <trkpt lat="45.87277" lon="3.33894">
        <ele>294.75</ele>
        <time>2022-02-14T15:52:46.63Z</time>
      </trkpt>
      <trkpt lat="45.87292" lon="3.33929">
        <ele>294.5</ele>
        <time>2022-02-14T15:52:52.33Z</time>
      </trkpt>
      <trkpt lat="45.87303" lon="3.33963">
        <ele>295.5</ele>
        <time>2022-02-14T15:52:57.59Z</time>
      </trkpt>
      <trkpt lat="45.87319" lon="3.34018">
        <ele>297.25</ele>
        <time>2022-02-14T15:53:05.84Z</time>
      </trkpt>
      <trkpt lat="45.87329" lon="3.34056">
        <ele>298.25</ele>
        <time>2022-02-14T15:53:11.61Z</time>
      </trkpt>
      <trkpt lat="45.87344" lon="3.34103">
        <ele>298.75</ele>
        <time>2022-02-14T15:53:18.70Z</time>
      </trkpt>
      <trkpt lat="45.87355" lon="3.34135">
        <ele>298.75</ele>
        <time>2022-02-14T15:53:23.73Z</time>
      </trkpt>
      <trkpt lat="45.87367" lon="3.34159">
        <ele>299</ele>
        <time>2022-02-14T15:53:27.82Z</time>
      </trkpt>
      <trkpt lat="45.87382" lon="3.34182">
        <ele>299.25</ele>
        <time>2022-02-14T15:53:32.11Z</time>
      </trkpt>
      <trkpt lat="45.87395" lon="3.34198">
        <ele>299.25</ele>
        <time>2022-02-14T15:53:35.56Z</time>
      </trkpt>
      <trkpt lat="45.87411" lon="3.34216">
        <ele>299</ele>
        <time>2022-02-14T15:53:39.76Z</time>
      </trkpt>
      <trkpt lat="45.87429" lon="3.3423">
        <ele>298.5</ele>
        <time>2022-02-14T15:53:43.77Z</time>
      </trkpt>
      <trkpt lat="45.87451" lon="3.34243">
        <ele>298</ele>
        <time>2022-02-14T15:53:48.56Z</time>
      </trkpt>
      <trkpt lat="45.8752" lon="3.34279">
        <ele>297.75</ele>
        <time>2022-02-14T15:54:03.23Z</time>
      </trkpt>
      <trkpt lat="45.87537" lon="3.34291">
        <ele>298.5</ele>
        <time>2022-02-14T15:54:07.04Z</time>
      </trkpt>
      <trkpt lat="45.87555" lon="3.34307">
        <ele>299.5</ele>
        <time>2022-02-14T15:54:11.30Z</time>
      </trkpt>
      <trkpt lat="45.87568" lon="3.34321">
        <ele>300.25</ele>
        <time>2022-02-14T15:54:14.48Z</time>
      </trkpt>
      <trkpt lat="45.87627" lon="3.3439">
        <ele>299.75</ele>
        <time>2022-02-14T15:54:29.73Z</time>
      </trkpt>
      <trkpt lat="45.87682" lon="3.34444">
        <ele>298.25</ele>
        <time>2022-02-14T15:54:43.04Z</time>
      </trkpt>
      <trkpt lat="45.8771" lon="3.34464">
        <ele>297.5</ele>
        <time>2022-02-14T15:54:49.34Z</time>
      </trkpt>
      <trkpt lat="45.87723" lon="3.34476">
        <ele>297.25</ele>
        <time>2022-02-14T15:54:52.35Z</time>
      </trkpt>
      <trkpt lat="45.87741" lon="3.34499">
        <ele>297</ele>
        <time>2022-02-14T15:54:57.25Z</time>
      </trkpt>
      <trkpt lat="45.87761" lon="3.34528">
        <ele>297.5</ele>
        <time>2022-02-14T15:55:02.93Z</time>
      </trkpt>
      <trkpt lat="45.87775" lon="3.34552">
        <ele>298</ele>
        <time>2022-02-14T15:55:07.27Z</time>
      </trkpt>
      <trkpt lat="45.87789" lon="3.34577">
        <ele>298.75</ele>
        <time>2022-02-14T15:55:11.65Z</time>
      </trkpt>
      <trkpt lat="45.87806" lon="3.34612">
        <ele>299.25</ele>
        <time>2022-02-14T15:55:17.61Z</time>
      </trkpt>
      <trkpt lat="45.87818" lon="3.34633">
        <ele>299.75</ele>
        <time>2022-02-14T15:55:21.48Z</time>
      </trkpt>
      <trkpt lat="45.8785" lon="3.34679">
        <ele>300.5</ele>
        <time>2022-02-14T15:55:30.48Z</time>
      </trkpt>
      <trkpt lat="45.87867" lon="3.34701">
        <ele>300.25</ele>
        <time>2022-02-14T15:55:35.09Z</time>
      </trkpt>
      <trkpt lat="45.87881" lon="3.34717">
        <ele>300</ele>
        <time>2022-02-14T15:55:38.63Z</time>
      </trkpt>
      <trkpt lat="45.87926" lon="3.34769">
        <ele>300</ele>
        <time>2022-02-14T15:55:50.20Z</time>
      </trkpt>
      <trkpt lat="45.8795" lon="3.34792">
        <ele>300</ele>
        <time>2022-02-14T15:55:56.09Z</time>
      </trkpt>
      <trkpt lat="45.87971" lon="3.34804">
        <ele>299.75</ele>
        <time>2022-02-14T15:56:00.56Z</time>
      </trkpt>
      <trkpt lat="45.88002" lon="3.34819">
        <ele>299.75</ele>
        <time>2022-02-14T15:56:07.07Z</time>
      </trkpt>
      <trkpt lat="45.88027" lon="3.3483">
        <ele>299.5</ele>
        <time>2022-02-14T15:56:12.23Z</time>
      </trkpt>
      <trkpt lat="45.88054" lon="3.34836">
        <ele>299.25</ele>
        <time>2022-02-14T15:56:17.72Z</time>
      </trkpt>
      <trkpt lat="45.88079" lon="3.34839">
        <ele>299</ele>
        <time>2022-02-14T15:56:22.67Z</time>
      </trkpt>
      <trkpt lat="45.88131" lon="3.34847">
        <ele>297.25</ele>
        <time>2022-02-14T15:56:33.25Z</time>
      </trkpt>
      <trkpt lat="45.88141" lon="3.34851">
        <ele>297</ele>
        <time>2022-02-14T15:56:35.22Z</time>
      </trkpt>
      <trkpt lat="45.88146" lon="3.34853">
        <ele>297</ele>
        <time>2022-02-14T15:56:36.33Z</time>
      </trkpt>
      <trkpt lat="45.88161" lon="3.34863">
        <ele>296.75</ele>
        <time>2022-02-14T15:56:39.62Z</time>
      </trkpt>
      <trkpt lat="45.88214" lon="3.34918">
        <ele>296.75</ele>
        <time>2022-02-14T15:56:52.77Z</time>
      </trkpt>
      <trkpt lat="45.88232" lon="3.34936">
        <ele>297</ele>
        <time>2022-02-14T15:56:57.01Z</time>
      </trkpt>
      <trkpt lat="45.88243" lon="3.34945">
        <ele>297</ele>
        <time>2022-02-14T15:56:59.61Z</time>
      </trkpt>
      <trkpt lat="45.88263" lon="3.34963">
        <ele>297.25</ele>
        <time>2022-02-14T15:57:04.27Z</time>
      </trkpt>
      <trkpt lat="45.8828" lon="3.34973">
        <ele>297.5</ele>
        <time>2022-02-14T15:57:08.13Z</time>
      </trkpt>
      <trkpt lat="45.88301" lon="3.34983">
        <ele>297.5</ele>
        <time>2022-02-14T15:57:12.49Z</time>
      </trkpt>
      <trkpt lat="45.8836" lon="3.35009">
        <ele>298.25</ele>
        <time>2022-02-14T15:57:24.81Z</time>
      </trkpt>
      <trkpt lat="45.88377" lon="3.35014">
        <ele>298.25</ele>
        <time>2022-02-14T15:57:28.21Z</time>
      </trkpt>
      <trkpt lat="45.88408" lon="3.3502">
        <ele>298.5</ele>
        <time>2022-02-14T15:57:34.50Z</time>
      </trkpt>
      <trkpt lat="45.88483" lon="3.35033">
        <ele>299</ele>
        <time>2022-02-14T15:57:49.67Z</time>
      </trkpt>
      <trkpt lat="45.88501" lon="3.35033">
        <ele>299</ele>
        <time>2022-02-14T15:57:53.27Z</time>
      </trkpt>
      <trkpt lat="45.88514" lon="3.35032">
        <ele>298.25</ele>
        <time>2022-02-14T15:57:55.77Z</time>
      </trkpt>
      <trkpt lat="45.88537" lon="3.35028">
        <ele>296.75</ele>
        <time>2022-02-14T15:58:00.43Z</time>
      </trkpt>
      <trkpt lat="45.88565" lon="3.3502">
        <ele>294.75</ele>
        <time>2022-02-14T15:58:06.24Z</time>
      </trkpt>
      <trkpt lat="45.88661" lon="3.35">
        <ele>293.75</ele>
        <time>2022-02-14T15:58:25.63Z</time>
      </trkpt>
      <trkpt lat="45.88685" lon="3.34991">
        <ele>294.5</ele>
        <time>2022-02-14T15:58:30.53Z</time>
      </trkpt>
      <trkpt lat="45.88709" lon="3.34981">
        <ele>295</ele>
        <time>2022-02-14T15:58:35.61Z</time>
      </trkpt>
      <trkpt lat="45.88794" lon="3.34941">
        <ele>294.75</ele>
        <time>2022-02-14T15:58:53.43Z</time>
      </trkpt>
      <trkpt lat="45.88801" lon="3.34937">
        <ele>294.5</ele>
        <time>2022-02-14T15:58:54.88Z</time>
      </trkpt>
      <trkpt lat="45.88857" lon="3.34902">
        <ele>294</ele>
        <time>2022-02-14T15:59:07.12Z</time>
      </trkpt>
      <trkpt lat="45.88876" lon="3.34895">
        <ele>294</ele>
        <time>2022-02-14T15:59:11.09Z</time>
      </trkpt>
      <trkpt lat="45.88923" lon="3.34883">
        <ele>294.25</ele>
        <time>2022-02-14T15:59:20.69Z</time>
      </trkpt>
      <trkpt lat="45.88936" lon="3.34883">
        <ele>294.75</ele>
        <time>2022-02-14T15:59:23.29Z</time>
      </trkpt>
      <trkpt lat="45.88954" lon="3.34886">
        <ele>295.5</ele>
        <time>2022-02-14T15:59:26.85Z</time>
      </trkpt>
      <trkpt lat="45.88968" lon="3.34893">
        <ele>296.5</ele>
        <time>2022-02-14T15:59:29.87Z</time>
      </trkpt>
      <trkpt lat="45.89004" lon="3.34916">
        <ele>299.75</ele>
        <time>2022-02-14T15:59:37.65Z</time>
      </trkpt>
      <trkpt lat="45.89023" lon="3.34926">
        <ele>300</ele>
        <time>2022-02-14T15:59:41.86Z</time>
      </trkpt>
      <trkpt lat="45.89045" lon="3.34935">
        <ele>300</ele>
        <time>2022-02-14T15:59:46.29Z</time>
      </trkpt>
      <trkpt lat="45.89063" lon="3.34939">
        <ele>299.75</ele>
        <time>2022-02-14T15:59:50.07Z</time>
      </trkpt>
      <trkpt lat="45.89086" lon="3.3494">
        <ele>299.25</ele>
        <time>2022-02-14T15:59:54.65Z</time>
      </trkpt>
      <trkpt lat="45.89104" lon="3.34945">
        <ele>298.5</ele>
        <time>2022-02-14T15:59:58.23Z</time>
      </trkpt>
      <trkpt lat="45.89177" lon="3.34975">
        <ele>297</ele>
        <time>2022-02-14T16:00:13.47Z</time>
      </trkpt>
      <trkpt lat="45.8919" lon="3.34981">
        <ele>297</ele>
        <time>2022-02-14T16:00:16.18Z</time>
      </trkpt>
      <trkpt lat="45.8921" lon="3.3499">
        <ele>296.75</ele>
        <time>2022-02-14T16:00:20.43Z</time>
      </trkpt>
      <trkpt lat="45.89231" lon="3.34992">
        <ele>296.25</ele>
        <time>2022-02-14T16:00:24.56Z</time>
      </trkpt>
      <trkpt lat="45.89255" lon="3.3499">
        <ele>295.25</ele>
        <time>2022-02-14T16:00:29.31Z</time>
      </trkpt>
      <trkpt lat="45.89269" lon="3.34985">
        <ele>294.75</ele>
        <time>2022-02-14T16:00:32.26Z</time>
      </trkpt>
      <trkpt lat="45.89282" lon="3.34984">
        <ele>294.25</ele>
        <time>2022-02-14T16:00:34.89Z</time>
      </trkpt>
      <trkpt lat="45.89296" lon="3.34987">
        <ele>294</ele>
        <time>2022-02-14T16:00:37.73Z</time>
      </trkpt>
      <trkpt lat="45.89307" lon="3.34993">
        <ele>293.75</ele>
        <time>2022-02-14T16:00:40.08Z</time>
      </trkpt>
      <trkpt lat="45.89329" lon="3.35006">
        <ele>293.5</ele>
        <time>2022-02-14T16:00:44.82Z</time>
      </trkpt>
      <trkpt lat="45.89403" lon="3.35063">
        <ele>294.75</ele>
        <time>2022-02-14T16:01:01.61Z</time>
      </trkpt>
      <trkpt lat="45.89443" lon="3.35088">
        <ele>293.75</ele>
        <time>2022-02-14T16:01:10.38Z</time>
      </trkpt>
      <trkpt lat="45.89523" lon="3.35143">
        <ele>292.25</ele>
        <time>2022-02-14T16:01:28.10Z</time>
      </trkpt>
      <trkpt lat="45.89544" lon="3.35159">
        <ele>292</ele>
        <time>2022-02-14T16:01:32.71Z</time>
      </trkpt>
      <trkpt lat="45.89609" lon="3.35221">
        <ele>292.5</ele>
        <time>2022-02-14T16:01:48.35Z</time>
      </trkpt>
      <trkpt lat="45.89642" lon="3.35257">
        <ele>291.75</ele>
        <time>2022-02-14T16:01:56.73Z</time>
      </trkpt>
      <trkpt lat="45.89768" lon="3.35411">
        <ele>295.5</ele>
        <time>2022-02-14T16:02:29.81Z</time>
      </trkpt>
      <trkpt lat="45.89804" lon="3.35457">
        <ele>295</ele>
        <time>2022-02-14T16:02:39.47Z</time>
      </trkpt>
      <trkpt lat="45.89825" lon="3.35477">
        <ele>292.5</ele>
        <time>2022-02-14T16:02:44.49Z</time>
      </trkpt>
      <trkpt lat="45.89849" lon="3.355">
        <ele>291</ele>
        <time>2022-02-14T16:02:50.20Z</time>
      </trkpt>
      <trkpt lat="45.89875" lon="3.35519">
        <ele>291.75</ele>
        <time>2022-02-14T16:02:56.04Z</time>
      </trkpt>
      <trkpt lat="45.89982" lon="3.35593">
        <ele>288.5</ele>
        <time>2022-02-14T16:03:19.82Z</time>
      </trkpt>
      <trkpt lat="45.90069" lon="3.3565">
        <ele>288.75</ele>
        <time>2022-02-14T16:03:38.98Z</time>
      </trkpt>
      <trkpt lat="45.90159" lon="3.3571">
        <ele>286.25</ele>
        <time>2022-02-14T16:03:58.71Z</time>
      </trkpt>
      <trkpt lat="45.90185" lon="3.3573">
        <ele>285.75</ele>
        <time>2022-02-14T16:04:04.65Z</time>
      </trkpt>
      <trkpt lat="45.90206" lon="3.35747">
        <ele>285.5</ele>
        <time>2022-02-14T16:04:09.42Z</time>
      </trkpt>
      <trkpt lat="45.90221" lon="3.35763">
        <ele>285.5</ele>
        <time>2022-02-14T16:04:13.26Z</time>
      </trkpt>
      <trkpt lat="45.90239" lon="3.35782">
        <ele>285.75</ele>
        <time>2022-02-14T16:04:17.76Z</time>
      </trkpt>
      <trkpt lat="45.90252" lon="3.35799">
        <ele>286</ele>
        <time>2022-02-14T16:04:21.18Z</time>
      </trkpt>
      <trkpt lat="45.90264" lon="3.35822">
        <ele>286.5</ele>
        <time>2022-02-14T16:04:25.19Z</time>
      </trkpt>
      <trkpt lat="45.90295" lon="3.35884">
        <ele>287.5</ele>
        <time>2022-02-14T16:04:35.92Z</time>
      </trkpt>
      <trkpt lat="45.90371" lon="3.36014">
        <ele>286</ele>
        <time>2022-02-14T16:04:59.45Z</time>
      </trkpt>
      <trkpt lat="45.90392" lon="3.36055">
        <ele>286.25</ele>
        <time>2022-02-14T16:05:06.64Z</time>
      </trkpt>
      <trkpt lat="45.90412" lon="3.36094">
        <ele>286</ele>
        <time>2022-02-14T16:05:13.26Z</time>
      </trkpt>
      <trkpt lat="45.9042" lon="3.36116">
        <ele>286</ele>
        <time>2022-02-14T16:05:16.75Z</time>
      </trkpt>
      <trkpt lat="45.90422" lon="3.36129">
        <ele>286</ele>
        <time>2022-02-14T16:05:18.59Z</time>
      </trkpt>
      <trkpt lat="45.90423" lon="3.36146">
        <ele>286</ele>
        <time>2022-02-14T16:05:21.04Z</time>
      </trkpt>
      <trkpt lat="45.90422" lon="3.36172">
        <ele>286.25</ele>
        <time>2022-02-14T16:05:24.65Z</time>
      </trkpt>
      <trkpt lat="45.90414" lon="3.36241">
        <ele>288</ele>
        <time>2022-02-14T16:05:34.40Z</time>
      </trkpt>
      <trkpt lat="45.90408" lon="3.36311">
        <ele>295</ele>
        <time>2022-02-14T16:05:44.20Z</time>
      </trkpt>
      <trkpt lat="45.90409" lon="3.36341">
        <ele>297.25</ele>
        <time>2022-02-14T16:05:48.42Z</time>
      </trkpt>
      <trkpt lat="45.90413" lon="3.36368">
        <ele>298.25</ele>
        <time>2022-02-14T16:05:52.22Z</time>
      </trkpt>
      <trkpt lat="45.90441" lon="3.36453">
        <ele>298.75</ele>
        <time>2022-02-14T16:06:05.27Z</time>
      </trkpt>
      <trkpt lat="45.90451" lon="3.36479">
        <ele>297.75</ele>
        <time>2022-02-14T16:06:09.46Z</time>
      </trkpt>
      <trkpt lat="45.90462" lon="3.36499">
        <ele>296.25</ele>
        <time>2022-02-14T16:06:12.98Z</time>
      </trkpt>
      <trkpt lat="45.90478" lon="3.36523">
        <ele>294.25</ele>
        <time>2022-02-14T16:06:17.58Z</time>
      </trkpt>
      <trkpt lat="45.90499" lon="3.36551">
        <ele>290.75</ele>
        <time>2022-02-14T16:06:23.41Z</time>
      </trkpt>
      <trkpt lat="45.90601" lon="3.36689">
        <ele>291</ele>
        <time>2022-02-14T16:06:51.38Z</time>
      </trkpt>
      <trkpt lat="45.90635" lon="3.36736">
        <ele>291</ele>
        <time>2022-02-14T16:07:00.85Z</time>
      </trkpt>
      <trkpt lat="45.90655" lon="3.36763">
        <ele>291</ele>
        <time>2022-02-14T16:07:06.35Z</time>
      </trkpt>
      <trkpt lat="45.90674" lon="3.36782">
        <ele>290.75</ele>
        <time>2022-02-14T16:07:10.96Z</time>
      </trkpt>
      <trkpt lat="45.90687" lon="3.36789">
        <ele>290.75</ele>
        <time>2022-02-14T16:07:13.67Z</time>
      </trkpt>
      <trkpt lat="45.90774" lon="3.36809">
        <ele>290</ele>
        <time>2022-02-14T16:07:31.41Z</time>
      </trkpt>
      <trkpt lat="45.9083" lon="3.36821">
        <ele>290</ele>
        <time>2022-02-14T16:07:42.56Z</time>
      </trkpt>
      <trkpt lat="45.90845" lon="3.36821">
        <ele>290</ele>
        <time>2022-02-14T16:07:45.70Z</time>
      </trkpt>
      <trkpt lat="45.90854" lon="3.3682">
        <ele>290</ele>
        <time>2022-02-14T16:07:47.51Z</time>
      </trkpt>
      <trkpt lat="45.9087" lon="3.36811">
        <ele>290.25</ele>
        <time>2022-02-14T16:07:50.87Z</time>
      </trkpt>
      <trkpt lat="45.90897" lon="3.36789">
        <ele>290.5</ele>
        <time>2022-02-14T16:07:57.11Z</time>
      </trkpt>
      <trkpt lat="45.90909" lon="3.36782">
        <ele>290.5</ele>
        <time>2022-02-14T16:07:59.72Z</time>
      </trkpt>
      <trkpt lat="45.90942" lon="3.36767">
        <ele>290</ele>
        <time>2022-02-14T16:08:06.62Z</time>
      </trkpt>
      <trkpt lat="45.90956" lon="3.36763">
        <ele>289.5</ele>
        <time>2022-02-14T16:08:09.53Z</time>
      </trkpt>
      <trkpt lat="45.90973" lon="3.36762">
        <ele>289</ele>
        <time>2022-02-14T16:08:12.80Z</time>
      </trkpt>
      <trkpt lat="45.90983" lon="3.36764">
        <ele>288.75</ele>
        <time>2022-02-14T16:08:14.84Z</time>
      </trkpt>
      <trkpt lat="45.91028" lon="3.36777">
        <ele>288.5</ele>
        <time>2022-02-14T16:08:24.02Z</time>
      </trkpt>
      <trkpt lat="45.91068" lon="3.36789">
        <ele>288.75</ele>
        <time>2022-02-14T16:08:32.26Z</time>
      </trkpt>
      <trkpt lat="45.91202" lon="3.36837">
        <ele>289</ele>
        <time>2022-02-14T16:08:59.78Z</time>
      </trkpt>
      <trkpt lat="45.9122" lon="3.36846">
        <ele>288.75</ele>
        <time>2022-02-14T16:09:03.66Z</time>
      </trkpt>
      <trkpt lat="45.9123" lon="3.36856">
        <ele>288.75</ele>
        <time>2022-02-14T16:09:06.10Z</time>
      </trkpt>
      <trkpt lat="45.91239" lon="3.3687">
        <ele>288.75</ele>
        <time>2022-02-14T16:09:08.74Z</time>
      </trkpt>
      <trkpt lat="45.91246" lon="3.36884">
        <ele>289</ele>
        <time>2022-02-14T16:09:11.09Z</time>
      </trkpt>
      <trkpt lat="45.91252" lon="3.36893">
        <ele>289.25</ele>
        <time>2022-02-14T16:09:12.83Z</time>
      </trkpt>
      <trkpt lat="45.9128" lon="3.3692">
        <ele>289.75</ele>
        <time>2022-02-14T16:09:19.72Z</time>
      </trkpt>
      <trkpt lat="45.91289" lon="3.36928">
        <ele>289.75</ele>
        <time>2022-02-14T16:09:21.82Z</time>
      </trkpt>
      <trkpt lat="45.91313" lon="3.3695">
        <ele>290</ele>
        <time>2022-02-14T16:09:27.54Z</time>
      </trkpt>
      <trkpt lat="45.9132" lon="3.3696">
        <ele>290.25</ele>
        <time>2022-02-14T16:09:29.41Z</time>
      </trkpt>
      <trkpt lat="45.91347" lon="3.37021">
        <ele>291.5</ele>
        <time>2022-02-14T16:09:39.43Z</time>
      </trkpt>
      <trkpt lat="45.91353" lon="3.37031">
        <ele>291.75</ele>
        <time>2022-02-14T16:09:41.34Z</time>
      </trkpt>
      <trkpt lat="45.91363" lon="3.37041">
        <ele>291.75</ele>
        <time>2022-02-14T16:09:43.72Z</time>
      </trkpt>
      <trkpt lat="45.91388" lon="3.37063">
        <ele>292</ele>
        <time>2022-02-14T16:09:49.65Z</time>
      </trkpt>
      <trkpt lat="45.91401" lon="3.37076">
        <ele>292</ele>
        <time>2022-02-14T16:09:52.80Z</time>
      </trkpt>
      <trkpt lat="45.91428" lon="3.37111">
        <ele>292.75</ele>
        <time>2022-02-14T16:10:00.11Z</time>
      </trkpt>
      <trkpt lat="45.91447" lon="3.37129">
        <ele>292.75</ele>
        <time>2022-02-14T16:10:04.58Z</time>
      </trkpt>
      <trkpt lat="45.91489" lon="3.37159">
        <ele>292</ele>
        <time>2022-02-14T16:10:14.01Z</time>
      </trkpt>
      <trkpt lat="45.91531" lon="3.37183">
        <ele>291.75</ele>
        <time>2022-02-14T16:10:23.04Z</time>
      </trkpt>
      <trkpt lat="45.91569" lon="3.37205">
        <ele>291.25</ele>
        <time>2022-02-14T16:10:31.19Z</time>
      </trkpt>
      <trkpt lat="45.91618" lon="3.37236">
        <ele>290.75</ele>
        <time>2022-02-14T16:10:41.97Z</time>
      </trkpt>
      <trkpt lat="45.91681" lon="3.37276">
        <ele>290</ele>
        <time>2022-02-14T16:10:55.75Z</time>
      </trkpt>
      <trkpt lat="45.91699" lon="3.37283">
        <ele>290</ele>
        <time>2022-02-14T16:10:59.46Z</time>
      </trkpt>
      <trkpt lat="45.91715" lon="3.37287">
        <ele>290</ele>
        <time>2022-02-14T16:11:02.65Z</time>
      </trkpt>
      <trkpt lat="45.91754" lon="3.37295">
        <ele>289.75</ele>
        <time>2022-02-14T16:11:10.47Z</time>
      </trkpt>
      <trkpt lat="45.91764" lon="3.37301">
        <ele>289.75</ele>
        <time>2022-02-14T16:11:12.70Z</time>
      </trkpt>
      <trkpt lat="45.9177" lon="3.37307">
        <ele>289.75</ele>
        <time>2022-02-14T16:11:14.17Z</time>
      </trkpt>
      <trkpt lat="45.91778" lon="3.37317">
        <ele>289.75</ele>
        <time>2022-02-14T16:11:16.26Z</time>
      </trkpt>
      <trkpt lat="45.91786" lon="3.3734">
        <ele>290</ele>
        <time>2022-02-14T16:11:19.82Z</time>
      </trkpt>
      <trkpt lat="45.91794" lon="3.37351">
        <ele>289.5</ele>
        <time>2022-02-14T16:11:22.16Z</time>
      </trkpt>
      <trkpt lat="45.91805" lon="3.37362">
        <ele>289.25</ele>
        <time>2022-02-14T16:11:24.73Z</time>
      </trkpt>
      <trkpt lat="45.91817" lon="3.3737">
        <ele>288.75</ele>
        <time>2022-02-14T16:11:27.45Z</time>
      </trkpt>
      <trkpt lat="45.91847" lon="3.37385">
        <ele>287.5</ele>
        <time>2022-02-14T16:11:33.69Z</time>
      </trkpt>
      <trkpt lat="45.91855" lon="3.37393">
        <ele>287</ele>
        <time>2022-02-14T16:11:35.68Z</time>
      </trkpt>
      <trkpt lat="45.91861" lon="3.37403">
        <ele>286.75</ele>
        <time>2022-02-14T16:11:37.44Z</time>
      </trkpt>
      <trkpt lat="45.9187" lon="3.37428">
        <ele>286.25</ele>
        <time>2022-02-14T16:11:41.43Z</time>
      </trkpt>
      <trkpt lat="45.91887" lon="3.37495">
        <ele>286.25</ele>
        <time>2022-02-14T16:11:51.33Z</time>
      </trkpt>
      <trkpt lat="45.91895" lon="3.37512">
        <ele>286</ele>
        <time>2022-02-14T16:11:54.16Z</time>
      </trkpt>
      <trkpt lat="45.91905" lon="3.37529">
        <ele>286</ele>
        <time>2022-02-14T16:11:57.34Z</time>
      </trkpt>
      <trkpt lat="45.91931" lon="3.37565">
        <ele>285.75</ele>
        <time>2022-02-14T16:12:04.48Z</time>
      </trkpt>
      <trkpt lat="45.91939" lon="3.3758">
        <ele>285.5</ele>
        <time>2022-02-14T16:12:07.18Z</time>
      </trkpt>
      <trkpt lat="45.91959" lon="3.37629">
        <ele>284.75</ele>
        <time>2022-02-14T16:12:15.08Z</time>
      </trkpt>
      <trkpt lat="45.91986" lon="3.37711">
        <ele>284</ele>
        <time>2022-02-14T16:12:27.62Z</time>
      </trkpt>
      <trkpt lat="45.92007" lon="3.37783">
        <ele>283</ele>
        <time>2022-02-14T16:12:38.56Z</time>
      </trkpt>
      <trkpt lat="45.92032" lon="3.37908">
        <ele>282</ele>
        <time>2022-02-14T16:12:56.60Z</time>
      </trkpt>
      <trkpt lat="45.9204" lon="3.37936">
        <ele>282</ele>
        <time>2022-02-14T16:13:00.89Z</time>
      </trkpt>
      <trkpt lat="45.92048" lon="3.37957">
        <ele>282</ele>
        <time>2022-02-14T16:13:04.15Z</time>
      </trkpt>
      <trkpt lat="45.92059" lon="3.37983">
        <ele>282</ele>
        <time>2022-02-14T16:13:08.46Z</time>
      </trkpt>
      <trkpt lat="45.92097" lon="3.38064">
        <ele>282.5</ele>
        <time>2022-02-14T16:13:22.03Z</time>
      </trkpt>
      <trkpt lat="45.92114" lon="3.38105">
        <ele>282.25</ele>
        <time>2022-02-14T16:13:28.68Z</time>
      </trkpt>
      <trkpt lat="45.92129" lon="3.38147">
        <ele>282.25</ele>
        <time>2022-02-14T16:13:35.27Z</time>
      </trkpt>
      <trkpt lat="45.92174" lon="3.38258">
        <ele>282.75</ele>
        <time>2022-02-14T16:13:53.08Z</time>
      </trkpt>
      <trkpt lat="45.92203" lon="3.38326">
        <ele>282.25</ele>
        <time>2022-02-14T16:14:04.18Z</time>
      </trkpt>
      <trkpt lat="45.92207" lon="3.3834">
        <ele>282.25</ele>
        <time>2022-02-14T16:14:06.39Z</time>
      </trkpt>
      <trkpt lat="45.92209" lon="3.38354">
        <ele>282.25</ele>
        <time>2022-02-14T16:14:08.32Z</time>
      </trkpt>
      <trkpt lat="45.92209" lon="3.38368">
        <ele>282.25</ele>
        <time>2022-02-14T16:14:10.23Z</time>
      </trkpt>
      <trkpt lat="45.92208" lon="3.38382">
        <ele>282</ele>
        <time>2022-02-14T16:14:12.17Z</time>
      </trkpt>
      <trkpt lat="45.92204" lon="3.38398">
        <ele>282</ele>
        <time>2022-02-14T16:14:14.58Z</time>
      </trkpt>
      <trkpt lat="45.92159" lon="3.38539">
        <ele>284.25</ele>
        <time>2022-02-14T16:14:36.07Z</time>
      </trkpt>
      <trkpt lat="45.92091" lon="3.38749">
        <ele>287.25</ele>
        <time>2022-02-14T16:15:08.33Z</time>
      </trkpt>
      <trkpt lat="45.92085" lon="3.3877">
        <ele>287.25</ele>
        <time>2022-02-14T16:15:11.56Z</time>
      </trkpt>
      <trkpt lat="45.92085" lon="3.38777">
        <ele>287.25</ele>
        <time>2022-02-14T16:15:12.54Z</time>
      </trkpt>
      <trkpt lat="45.92084" lon="3.38783">
        <ele>287</ele>
        <time>2022-02-14T16:15:13.37Z</time>
      </trkpt>
      <trkpt lat="45.92084" lon="3.38797">
        <ele>286.75</ele>
        <time>2022-02-14T16:15:15.25Z</time>
      </trkpt>
      <trkpt lat="45.92087" lon="3.38811">
        <ele>286.25</ele>
        <time>2022-02-14T16:15:17.30Z</time>
      </trkpt>
      <trkpt lat="45.92092" lon="3.38825">
        <ele>285.75</ele>
        <time>2022-02-14T16:15:19.58Z</time>
      </trkpt>
      <trkpt lat="45.92096" lon="3.38834">
        <ele>285.5</ele>
        <time>2022-02-14T16:15:21.07Z</time>
      </trkpt>
      <trkpt lat="45.92098" lon="3.38838">
        <ele>285.25</ele>
        <time>2022-02-14T16:15:21.75Z</time>
      </trkpt>
      <trkpt lat="45.92151" lon="3.38898">
        <ele>282.75</ele>
        <time>2022-02-14T16:15:35.26Z</time>
      </trkpt>
      <trkpt lat="45.92215" lon="3.38973">
        <ele>282.5</ele>
        <time>2022-02-14T16:15:51.69Z</time>
      </trkpt>
      <trkpt lat="45.92223" lon="3.38985">
        <ele>282.75</ele>
        <time>2022-02-14T16:15:53.97Z</time>
      </trkpt>
      <trkpt lat="45.92231" lon="3.39001">
        <ele>283</ele>
        <time>2022-02-14T16:15:56.75Z</time>
      </trkpt>
      <trkpt lat="45.92244" lon="3.39031">
        <ele>283</ele>
        <time>2022-02-14T16:16:01.62Z</time>
      </trkpt>
      <trkpt lat="45.92263" lon="3.39079">
        <ele>282.5</ele>
        <time>2022-02-14T16:16:09.33Z</time>
      </trkpt>
      <trkpt lat="45.92275" lon="3.39104">
        <ele>283</ele>
        <time>2022-02-14T16:16:13.57Z</time>
      </trkpt>
      <trkpt lat="45.92286" lon="3.39122">
        <ele>283.25</ele>
        <time>2022-02-14T16:16:16.92Z</time>
      </trkpt>
      <trkpt lat="45.923" lon="3.39137">
        <ele>283</ele>
        <time>2022-02-14T16:16:20.37Z</time>
      </trkpt>
      <trkpt lat="45.92331" lon="3.39166">
        <ele>282</ele>
        <time>2022-02-14T16:16:27.85Z</time>
      </trkpt>
      <trkpt lat="45.92342" lon="3.39178">
        <ele>282</ele>
        <time>2022-02-14T16:16:30.51Z</time>
      </trkpt>
      <trkpt lat="45.92389" lon="3.39246">
        <ele>281.75</ele>
        <time>2022-02-14T16:16:43.93Z</time>
      </trkpt>
      <trkpt lat="45.92399" lon="3.39262">
        <ele>282</ele>
        <time>2022-02-14T16:16:46.92Z</time>
      </trkpt>
      <trkpt lat="45.92405" lon="3.39278">
        <ele>282</ele>
        <time>2022-02-14T16:16:49.36Z</time>
      </trkpt>
      <trkpt lat="45.92418" lon="3.39319">
        <ele>281.75</ele>
        <time>2022-02-14T16:16:55.63Z</time>
      </trkpt>
      <trkpt lat="45.92431" lon="3.39373">
        <ele>284</ele>
        <time>2022-02-14T16:17:03.60Z</time>
      </trkpt>
      <trkpt lat="45.92438" lon="3.39427">
        <ele>287</ele>
        <time>2022-02-14T16:17:11.26Z</time>
      </trkpt>
      <trkpt lat="45.92443" lon="3.39443">
        <ele>288</ele>
        <time>2022-02-14T16:17:13.66Z</time>
      </trkpt>
      <trkpt lat="45.92448" lon="3.39455">
        <ele>288.5</ele>
        <time>2022-02-14T16:17:15.64Z</time>
      </trkpt>
      <trkpt lat="45.92456" lon="3.39471">
        <ele>288.75</ele>
        <time>2022-02-14T16:17:18.39Z</time>
      </trkpt>
      <trkpt lat="45.92493" lon="3.39534">
        <ele>288.25</ele>
        <time>2022-02-14T16:17:29.87Z</time>
      </trkpt>
      <trkpt lat="45.92518" lon="3.39572">
        <ele>288.5</ele>
        <time>2022-02-14T16:17:37.11Z</time>
      </trkpt>
      <trkpt lat="45.92554" lon="3.39622">
        <ele>288</ele>
        <time>2022-02-14T16:17:47.13Z</time>
      </trkpt>
      <trkpt lat="45.92557" lon="3.39636">
        <ele>288</ele>
        <time>2022-02-14T16:17:49.21Z</time>
      </trkpt>
      <trkpt lat="45.92557" lon="3.39649">
        <ele>288</ele>
        <time>2022-02-14T16:17:51.01Z</time>
      </trkpt>
      <trkpt lat="45.92553" lon="3.39665">
        <ele>288.75</ele>
        <time>2022-02-14T16:17:53.35Z</time>
      </trkpt>
      <trkpt lat="45.92552" lon="3.3968">
        <ele>288.75</ele>
        <time>2022-02-14T16:17:55.57Z</time>
      </trkpt>
      <trkpt lat="45.92552" lon="3.39688">
        <ele>288.75</ele>
        <time>2022-02-14T16:17:56.65Z</time>
      </trkpt>
      <trkpt lat="45.92552" lon="3.397">
        <ele>288.75</ele>
        <time>2022-02-14T16:17:58.27Z</time>
      </trkpt>
      <trkpt lat="45.92555" lon="3.39715">
        <ele>288.25</ele>
        <time>2022-02-14T16:18:00.47Z</time>
      </trkpt>
      <trkpt lat="45.92558" lon="3.39726">
        <ele>287.75</ele>
        <time>2022-02-14T16:18:02.20Z</time>
      </trkpt>
      <trkpt lat="45.92565" lon="3.39737">
        <ele>287</ele>
        <time>2022-02-14T16:18:04.21Z</time>
      </trkpt>
      <trkpt lat="45.92574" lon="3.39745">
        <ele>286</ele>
        <time>2022-02-14T16:18:06.36Z</time>
      </trkpt>
      <trkpt lat="45.92579" lon="3.39746">
        <ele>285.5</ele>
        <time>2022-02-14T16:18:07.31Z</time>
      </trkpt>
      <trkpt lat="45.92588" lon="3.3975">
        <ele>284.75</ele>
        <time>2022-02-14T16:18:09.22Z</time>
      </trkpt>
      <trkpt lat="45.92622" lon="3.39756">
        <ele>284</ele>
        <time>2022-02-14T16:18:15.96Z</time>
      </trkpt>
      <trkpt lat="45.92631" lon="3.39761">
        <ele>284</ele>
        <time>2022-02-14T16:18:18.01Z</time>
      </trkpt>
      <trkpt lat="45.92679" lon="3.39799">
        <ele>284.5</ele>
        <time>2022-02-14T16:18:28.93Z</time>
      </trkpt>
      <trkpt lat="45.92699" lon="3.39812">
        <ele>284.25</ele>
        <time>2022-02-14T16:18:33.30Z</time>
      </trkpt>
      <trkpt lat="45.92755" lon="3.39836">
        <ele>283</ele>
        <time>2022-02-14T16:18:45.05Z</time>
      </trkpt>
      <trkpt lat="45.92776" lon="3.39848">
        <ele>283.25</ele>
        <time>2022-02-14T16:18:49.45Z</time>
      </trkpt>
      <trkpt lat="45.92792" lon="3.39858">
        <ele>283.5</ele>
        <time>2022-02-14T16:18:52.95Z</time>
      </trkpt>
      <trkpt lat="45.92822" lon="3.39885">
        <ele>284</ele>
        <time>2022-02-14T16:19:00.03Z</time>
      </trkpt>
      <trkpt lat="45.92831" lon="3.3989">
        <ele>284</ele>
        <time>2022-02-14T16:19:02.06Z</time>
      </trkpt>
      <trkpt lat="45.92843" lon="3.39895">
        <ele>284</ele>
        <time>2022-02-14T16:19:04.42Z</time>
      </trkpt>
      <trkpt lat="45.92862" lon="3.39904">
        <ele>283.75</ele>
        <time>2022-02-14T16:19:08.58Z</time>
      </trkpt>
      <trkpt lat="45.92878" lon="3.39914">
        <ele>283.75</ele>
        <time>2022-02-14T16:19:11.96Z</time>
      </trkpt>
      <trkpt lat="45.92889" lon="3.39927">
        <ele>283.75</ele>
        <time>2022-02-14T16:19:14.85Z</time>
      </trkpt>
      <trkpt lat="45.92897" lon="3.39938">
        <ele>283.5</ele>
        <time>2022-02-14T16:19:17.02Z</time>
      </trkpt>
      <trkpt lat="45.92941" lon="3.40029">
        <ele>282.75</ele>
        <time>2022-02-14T16:19:32.47Z</time>
      </trkpt>
      <trkpt lat="45.92947" lon="3.40049">
        <ele>282.5</ele>
        <time>2022-02-14T16:19:35.51Z</time>
      </trkpt>
      <trkpt lat="45.9295" lon="3.40066">
        <ele>282.25</ele>
        <time>2022-02-14T16:19:37.96Z</time>
      </trkpt>
      <trkpt lat="45.92958" lon="3.40129">
        <ele>282.75</ele>
        <time>2022-02-14T16:19:46.77Z</time>
      </trkpt>
      <trkpt lat="45.92967" lon="3.40186">
        <ele>283.5</ele>
        <time>2022-02-14T16:19:54.95Z</time>
      </trkpt>
      <trkpt lat="45.92978" lon="3.40238">
        <ele>284.5</ele>
        <time>2022-02-14T16:20:02.46Z</time>
      </trkpt>
      <trkpt lat="45.92985" lon="3.40263">
        <ele>284.5</ele>
        <time>2022-02-14T16:20:06.26Z</time>
      </trkpt>
      <trkpt lat="45.92995" lon="3.40287">
        <ele>284</ele>
        <time>2022-02-14T16:20:10.12Z</time>
      </trkpt>
      <trkpt lat="45.9301" lon="3.40323">
        <ele>283.25</ele>
        <time>2022-02-14T16:20:16.08Z</time>
      </trkpt>
      <trkpt lat="45.93016" lon="3.40338">
        <ele>283</ele>
        <time>2022-02-14T16:20:18.34Z</time>
      </trkpt>
      <trkpt lat="45.93019" lon="3.40367">
        <ele>283.75</ele>
        <time>2022-02-14T16:20:22.42Z</time>
      </trkpt>
      <trkpt lat="45.93023" lon="3.40385">
        <ele>284.25</ele>
        <time>2022-02-14T16:20:25.04Z</time>
      </trkpt>
      <trkpt lat="45.93041" lon="3.40474">
        <ele>285</ele>
        <time>2022-02-14T16:20:37.97Z</time>
      </trkpt>
      <trkpt lat="45.93054" lon="3.40523">
        <ele>285.25</ele>
        <time>2022-02-14T16:20:45.28Z</time>
      </trkpt>
      <trkpt lat="45.93067" lon="3.40558">
        <ele>285</ele>
        <time>2022-02-14T16:20:50.78Z</time>
      </trkpt>
      <trkpt lat="45.93085" lon="3.40598">
        <ele>284.25</ele>
        <time>2022-02-14T16:20:57.45Z</time>
      </trkpt>
      <trkpt lat="45.93098" lon="3.40627">
        <ele>284.25</ele>
        <time>2022-02-14T16:21:02.18Z</time>
      </trkpt>
      <trkpt lat="45.93106" lon="3.40658">
        <ele>284.5</ele>
        <time>2022-02-14T16:21:06.86Z</time>
      </trkpt>
      <trkpt lat="45.9312" lon="3.40713">
        <ele>283.25</ele>
        <time>2022-02-14T16:21:14.97Z</time>
      </trkpt>
      <trkpt lat="45.93136" lon="3.40771">
        <ele>282.75</ele>
        <time>2022-02-14T16:21:23.67Z</time>
      </trkpt>
      <trkpt lat="45.93146" lon="3.40817">
        <ele>282.75</ele>
        <time>2022-02-14T16:21:30.33Z</time>
      </trkpt>
      <trkpt lat="45.93163" lon="3.40886">
        <ele>283.25</ele>
        <time>2022-02-14T16:21:40.48Z</time>
      </trkpt>
      <trkpt lat="45.93174" lon="3.40924">
        <ele>283.5</ele>
        <time>2022-02-14T16:21:46.25Z</time>
      </trkpt>
      <trkpt lat="45.93214" lon="3.41021">
        <ele>283.5</ele>
        <time>2022-02-14T16:22:01.93Z</time>
      </trkpt>
      <trkpt lat="45.93232" lon="3.41051">
        <ele>283.25</ele>
        <time>2022-02-14T16:22:07.39Z</time>
      </trkpt>
      <trkpt lat="45.93251" lon="3.41078">
        <ele>282.75</ele>
        <time>2022-02-14T16:22:12.76Z</time>
      </trkpt>
      <trkpt lat="45.93269" lon="3.41101">
        <ele>282.5</ele>
        <time>2022-02-14T16:22:17.58Z</time>
      </trkpt>
      <trkpt lat="45.93281" lon="3.4111">
        <ele>282</ele>
        <time>2022-02-14T16:22:20.42Z</time>
      </trkpt>
      <trkpt lat="45.93297" lon="3.41115">
        <ele>281.75</ele>
        <time>2022-02-14T16:22:23.58Z</time>
      </trkpt>
      <trkpt lat="45.93312" lon="3.41115">
        <ele>281.5</ele>
        <time>2022-02-14T16:22:26.70Z</time>
      </trkpt>
      <trkpt lat="45.93356" lon="3.41112">
        <ele>280.5</ele>
        <time>2022-02-14T16:22:35.36Z</time>
      </trkpt>
      <trkpt lat="45.93378" lon="3.41113">
        <ele>280</ele>
        <time>2022-02-14T16:22:39.90Z</time>
      </trkpt>
      <trkpt lat="45.93401" lon="3.41117">
        <ele>279.5</ele>
        <time>2022-02-14T16:22:44.39Z</time>
      </trkpt>
      <trkpt lat="45.93422" lon="3.41126">
        <ele>279.5</ele>
        <time>2022-02-14T16:22:48.83Z</time>
      </trkpt>
      <trkpt lat="45.93436" lon="3.41138">
        <ele>279.5</ele>
        <time>2022-02-14T16:22:52.17Z</time>
      </trkpt>
      <trkpt lat="45.93451" lon="3.41156">
        <ele>279.75</ele>
        <time>2022-02-14T16:22:56.04Z</time>
      </trkpt>
      <trkpt lat="45.93483" lon="3.41201">
        <ele>280.25</ele>
        <time>2022-02-14T16:23:04.99Z</time>
      </trkpt>
      <trkpt lat="45.93494" lon="3.41221">
        <ele>280.5</ele>
        <time>2022-02-14T16:23:08.60Z</time>
      </trkpt>
      <trkpt lat="45.93512" lon="3.41261">
        <ele>280.75</ele>
        <time>2022-02-14T16:23:15.15Z</time>
      </trkpt>
      <trkpt lat="45.93519" lon="3.41272">
        <ele>280.75</ele>
        <time>2022-02-14T16:23:17.25Z</time>
      </trkpt>
      <trkpt lat="45.93538" lon="3.41291">
        <ele>280.5</ele>
        <time>2022-02-14T16:23:21.93Z</time>
      </trkpt>
      <trkpt lat="45.93568" lon="3.41309">
        <ele>280</ele>
        <time>2022-02-14T16:23:28.39Z</time>
      </trkpt>
      <trkpt lat="45.93652" lon="3.41365">
        <ele>278.75</ele>
        <time>2022-02-14T16:23:46.94Z</time>
      </trkpt>
      <trkpt lat="45.93667" lon="3.41378">
        <ele>279</ele>
        <time>2022-02-14T16:23:50.40Z</time>
      </trkpt>
      <trkpt lat="45.93706" lon="3.41417">
        <ele>280</ele>
        <time>2022-02-14T16:23:59.97Z</time>
      </trkpt>
      <trkpt lat="45.93756" lon="3.4145">
        <ele>280.25</ele>
        <time>2022-02-14T16:24:11.03Z</time>
      </trkpt>
      <trkpt lat="45.93824" lon="3.41498">
        <ele>280</ele>
        <time>2022-02-14T16:24:26.07Z</time>
      </trkpt>
      <trkpt lat="45.93882" lon="3.41539">
        <ele>279.75</ele>
        <time>2022-02-14T16:24:38.90Z</time>
      </trkpt>
      <trkpt lat="45.93892" lon="3.4155">
        <ele>279.75</ele>
        <time>2022-02-14T16:24:41.55Z</time>
      </trkpt>
      <trkpt lat="45.93899" lon="3.41563">
        <ele>279.5</ele>
        <time>2022-02-14T16:24:43.82Z</time>
      </trkpt>
      <trkpt lat="45.93915" lon="3.41615">
        <ele>279</ele>
        <time>2022-02-14T16:24:51.70Z</time>
      </trkpt>
      <trkpt lat="45.93922" lon="3.41632">
        <ele>278.75</ele>
        <time>2022-02-14T16:24:54.44Z</time>
      </trkpt>
      <trkpt lat="45.93933" lon="3.41648">
        <ele>278.75</ele>
        <time>2022-02-14T16:24:57.60Z</time>
      </trkpt>
      <trkpt lat="45.93943" lon="3.4166">
        <ele>278.5</ele>
        <time>2022-02-14T16:25:00.18Z</time>
      </trkpt>
      <trkpt lat="45.93985" lon="3.41697">
        <ele>278.75</ele>
        <time>2022-02-14T16:25:10.09Z</time>
      </trkpt>
      <trkpt lat="45.93999" lon="3.41712">
        <ele>279</ele>
        <time>2022-02-14T16:25:13.56Z</time>
      </trkpt>
      <trkpt lat="45.94009" lon="3.41729">
        <ele>279</ele>
        <time>2022-02-14T16:25:16.59Z</time>
      </trkpt>
      <trkpt lat="45.94021" lon="3.41753">
        <ele>279.25</ele>
        <time>2022-02-14T16:25:20.66Z</time>
      </trkpt>
      <trkpt lat="45.94032" lon="3.41782">
        <ele>279</ele>
        <time>2022-02-14T16:25:25.37Z</time>
      </trkpt>
      <trkpt lat="45.94043" lon="3.41819">
        <ele>278.75</ele>
        <time>2022-02-14T16:25:30.93Z</time>
      </trkpt>
      <trkpt lat="45.94087" lon="3.42007">
        <ele>278.75</ele>
        <time>2022-02-14T16:25:58.46Z</time>
      </trkpt>
      <trkpt lat="45.941" lon="3.42069">
        <ele>279</ele>
        <time>2022-02-14T16:26:07.53Z</time>
      </trkpt>
      <trkpt lat="45.94104" lon="3.42103">
        <ele>279.75</ele>
        <time>2022-02-14T16:26:12.27Z</time>
      </trkpt>
      <trkpt lat="45.94107" lon="3.42142">
        <ele>281.5</ele>
        <time>2022-02-14T16:26:17.82Z</time>
      </trkpt>
      <trkpt lat="45.94105" lon="3.42173">
        <ele>283.25</ele>
        <time>2022-02-14T16:26:22.10Z</time>
      </trkpt>
      <trkpt lat="45.94103" lon="3.42203">
        <ele>286.25</ele>
        <time>2022-02-14T16:26:26.34Z</time>
      </trkpt>
      <trkpt lat="45.94103" lon="3.42228">
        <ele>288.5</ele>
        <time>2022-02-14T16:26:29.78Z</time>
      </trkpt>
      <trkpt lat="45.94105" lon="3.42253">
        <ele>290.5</ele>
        <time>2022-02-14T16:26:33.25Z</time>
      </trkpt>
      <trkpt lat="45.94111" lon="3.42284">
        <ele>292.25</ele>
        <time>2022-02-14T16:26:37.76Z</time>
      </trkpt>
      <trkpt lat="45.9412" lon="3.42312">
        <ele>293.25</ele>
        <time>2022-02-14T16:26:42Z</time>
      </trkpt>
      <trkpt lat="45.9413" lon="3.42355">
        <ele>293.75</ele>
        <time>2022-02-14T16:26:48.34Z</time>
      </trkpt>
      <trkpt lat="45.94136" lon="3.42392">
        <ele>293.5</ele>
        <time>2022-02-14T16:26:53.58Z</time>
      </trkpt>
      <trkpt lat="45.94145" lon="3.42455">
        <ele>291.25</ele>
        <time>2022-02-14T16:27:02.59Z</time>
      </trkpt>
      <trkpt lat="45.94152" lon="3.42499">
        <ele>288.75</ele>
        <time>2022-02-14T16:27:08.88Z</time>
      </trkpt>
      <trkpt lat="45.94158" lon="3.42524">
        <ele>288.25</ele>
        <time>2022-02-14T16:27:12.53Z</time>
      </trkpt>
      <trkpt lat="45.94168" lon="3.42547">
        <ele>287.25</ele>
        <time>2022-02-14T16:27:16.23Z</time>
      </trkpt>
      <trkpt lat="45.94175" lon="3.42559">
        <ele>287</ele>
        <time>2022-02-14T16:27:18.44Z</time>
      </trkpt>
      <trkpt lat="45.94182" lon="3.42572">
        <ele>286.75</ele>
        <time>2022-02-14T16:27:20.72Z</time>
      </trkpt>
      <trkpt lat="45.94195" lon="3.42592">
        <ele>286</ele>
        <time>2022-02-14T16:27:24.50Z</time>
      </trkpt>
      <trkpt lat="45.94232" lon="3.42628">
        <ele>284</ele>
        <time>2022-02-14T16:27:33.55Z</time>
      </trkpt>
      <trkpt lat="45.9425" lon="3.4265">
        <ele>283.5</ele>
        <time>2022-02-14T16:27:38.25Z</time>
      </trkpt>
      <trkpt lat="45.9426" lon="3.42664">
        <ele>283.25</ele>
        <time>2022-02-14T16:27:41.11Z</time>
      </trkpt>
      <trkpt lat="45.94268" lon="3.42681">
        <ele>283</ele>
        <time>2022-02-14T16:27:43.93Z</time>
      </trkpt>
      <trkpt lat="45.94283" lon="3.42716">
        <ele>283</ele>
        <time>2022-02-14T16:27:49.57Z</time>
      </trkpt>
      <trkpt lat="45.94322" lon="3.42803">
        <ele>284</ele>
        <time>2022-02-14T16:28:03.97Z</time>
      </trkpt>
      <trkpt lat="45.94384" lon="3.42952">
        <ele>282.5</ele>
        <time>2022-02-14T16:28:28.14Z</time>
      </trkpt>
      <trkpt lat="45.94441" lon="3.43073">
        <ele>281.25</ele>
        <time>2022-02-14T16:28:48.47Z</time>
      </trkpt>
      <trkpt lat="45.94467" lon="3.4312">
        <ele>281.75</ele>
        <time>2022-02-14T16:28:56.72Z</time>
      </trkpt>
      <trkpt lat="45.94479" lon="3.43143">
        <ele>282.25</ele>
        <time>2022-02-14T16:29:00.91Z</time>
      </trkpt>
      <trkpt lat="45.94499" lon="3.43191">
        <ele>283.5</ele>
        <time>2022-02-14T16:29:08.68Z</time>
      </trkpt>
      <trkpt lat="45.94511" lon="3.43216">
        <ele>283.25</ele>
        <time>2022-02-14T16:29:12.86Z</time>
      </trkpt>
      <trkpt lat="45.9452" lon="3.43226">
        <ele>283</ele>
        <time>2022-02-14T16:29:15.15Z</time>
      </trkpt>
      <trkpt lat="45.94522" lon="3.43228">
        <ele>283</ele>
        <time>2022-02-14T16:29:15.54Z</time>
      </trkpt>
      <trkpt lat="45.94536" lon="3.43236">
        <ele>282.25</ele>
        <time>2022-02-14T16:29:18.68Z</time>
      </trkpt>
      <trkpt lat="45.94576" lon="3.43253">
        <ele>280.25</ele>
        <time>2022-02-14T16:29:26.88Z</time>
      </trkpt>
      <trkpt lat="45.94625" lon="3.43275">
        <ele>279</ele>
        <time>2022-02-14T16:29:37.14Z</time>
      </trkpt>
      <trkpt lat="45.94628" lon="3.43277">
        <ele>278.75</ele>
        <time>2022-02-14T16:29:37.94Z</time>
      </trkpt>
      <trkpt lat="45.94657" lon="3.4329">
        <ele>278</ele>
        <time>2022-02-14T16:29:43.93Z</time>
      </trkpt>
      <trkpt lat="45.9467" lon="3.43303">
        <ele>277.5</ele>
        <time>2022-02-14T16:29:47.17Z</time>
      </trkpt>
      <trkpt lat="45.94683" lon="3.43321">
        <ele>276.75</ele>
        <time>2022-02-14T16:29:50.73Z</time>
      </trkpt>
      <trkpt lat="45.94691" lon="3.43337">
        <ele>276.25</ele>
        <time>2022-02-14T16:29:53.39Z</time>
      </trkpt>
      <trkpt lat="45.94698" lon="3.43361">
        <ele>275.75</ele>
        <time>2022-02-14T16:29:57.08Z</time>
      </trkpt>
      <trkpt lat="45.94704" lon="3.43394">
        <ele>275.5</ele>
        <time>2022-02-14T16:30:01.88Z</time>
      </trkpt>
      <trkpt lat="45.94718" lon="3.43474">
        <ele>274.75</ele>
        <time>2022-02-14T16:30:13.21Z</time>
      </trkpt>
      <trkpt lat="45.94721" lon="3.43505">
        <ele>274.25</ele>
        <time>2022-02-14T16:30:17.60Z</time>
      </trkpt>
      <trkpt lat="45.94723" lon="3.43556">
        <ele>273.5</ele>
        <time>2022-02-14T16:30:24.76Z</time>
      </trkpt>
      <trkpt lat="45.94723" lon="3.43602">
        <ele>273.25</ele>
        <time>2022-02-14T16:30:31.10Z</time>
      </trkpt>
      <trkpt lat="45.94711" lon="3.43719">
        <ele>273.5</ele>
        <time>2022-02-14T16:30:47.53Z</time>
      </trkpt>
      <trkpt lat="45.9471" lon="3.43743">
        <ele>273.75</ele>
        <time>2022-02-14T16:30:50.84Z</time>
      </trkpt>
      <trkpt lat="45.94711" lon="3.43762">
        <ele>274</ele>
        <time>2022-02-14T16:30:53.54Z</time>
      </trkpt>
      <trkpt lat="45.94715" lon="3.43785">
        <ele>274</ele>
        <time>2022-02-14T16:30:56.83Z</time>
      </trkpt>
      <trkpt lat="45.94723" lon="3.43812">
        <ele>274</ele>
        <time>2022-02-14T16:31:00.92Z</time>
      </trkpt>
      <trkpt lat="45.94738" lon="3.43859">
        <ele>274</ele>
        <time>2022-02-14T16:31:08.09Z</time>
      </trkpt>
      <trkpt lat="45.94744" lon="3.43882">
        <ele>274</ele>
        <time>2022-02-14T16:31:11.52Z</time>
      </trkpt>
      <trkpt lat="45.94748" lon="3.43905">
        <ele>274</ele>
        <time>2022-02-14T16:31:14.85Z</time>
      </trkpt>
      <trkpt lat="45.94751" lon="3.43927">
        <ele>274</ele>
        <time>2022-02-14T16:31:17.88Z</time>
      </trkpt>
      <trkpt lat="45.94751" lon="3.43948">
        <ele>274.25</ele>
        <time>2022-02-14T16:31:20.90Z</time>
      </trkpt>
      <trkpt lat="45.94749" lon="3.43971">
        <ele>274.5</ele>
        <time>2022-02-14T16:31:24.07Z</time>
      </trkpt>
      <trkpt lat="45.94737" lon="3.44044">
        <ele>274.5</ele>
        <time>2022-02-14T16:31:34.49Z</time>
      </trkpt>
      <trkpt lat="45.94732" lon="3.44079">
        <ele>274.25</ele>
        <time>2022-02-14T16:31:39.41Z</time>
      </trkpt>
      <trkpt lat="45.94729" lon="3.44109">
        <ele>273.75</ele>
        <time>2022-02-14T16:31:43.63Z</time>
      </trkpt>
      <trkpt lat="45.94727" lon="3.44142">
        <ele>273.5</ele>
        <time>2022-02-14T16:31:48.26Z</time>
      </trkpt>
      <trkpt lat="45.94728" lon="3.44176">
        <ele>273.25</ele>
        <time>2022-02-14T16:31:53Z</time>
      </trkpt>
      <trkpt lat="45.9473" lon="3.44228">
        <ele>273.25</ele>
        <time>2022-02-14T16:32:00.25Z</time>
      </trkpt>
      <trkpt lat="45.94733" lon="3.44257">
        <ele>273.5</ele>
        <time>2022-02-14T16:32:04.35Z</time>
      </trkpt>
      <trkpt lat="45.94738" lon="3.44288">
        <ele>274</ele>
        <time>2022-02-14T16:32:08.79Z</time>
      </trkpt>
      <trkpt lat="45.94746" lon="3.44326">
        <ele>274.75</ele>
        <time>2022-02-14T16:32:14.26Z</time>
      </trkpt>
      <trkpt lat="45.948" lon="3.44528">
        <ele>273</ele>
        <time>2022-02-14T16:32:44.30Z</time>
      </trkpt>
      <trkpt lat="45.94814" lon="3.44578">
        <ele>273</ele>
        <time>2022-02-14T16:32:51.87Z</time>
      </trkpt>
      <trkpt lat="45.94832" lon="3.44627">
        <ele>273.5</ele>
        <time>2022-02-14T16:32:59.54Z</time>
      </trkpt>
      <trkpt lat="45.94848" lon="3.44666">
        <ele>273.75</ele>
        <time>2022-02-14T16:33:05.89Z</time>
      </trkpt>
      <trkpt lat="45.94945" lon="3.44862">
        <ele>274.75</ele>
        <time>2022-02-14T16:33:39.38Z</time>
      </trkpt>
      <trkpt lat="45.94963" lon="3.44896">
        <ele>275.25</ele>
        <time>2022-02-14T16:33:45.28Z</time>
      </trkpt>
      <trkpt lat="45.94975" lon="3.44914">
        <ele>275.75</ele>
        <time>2022-02-14T16:33:48.68Z</time>
      </trkpt>
      <trkpt lat="45.9499" lon="3.44929">
        <ele>276.5</ele>
        <time>2022-02-14T16:33:52.32Z</time>
      </trkpt>
      <trkpt lat="45.95005" lon="3.44941">
        <ele>277</ele>
        <time>2022-02-14T16:33:55.82Z</time>
      </trkpt>
      <trkpt lat="45.95048" lon="3.44962">
        <ele>275.75</ele>
        <time>2022-02-14T16:34:04.96Z</time>
      </trkpt>
      <trkpt lat="45.95064" lon="3.44974">
        <ele>275.25</ele>
        <time>2022-02-14T16:34:08.46Z</time>
      </trkpt>
      <trkpt lat="45.95085" lon="3.44992">
        <ele>274.5</ele>
        <time>2022-02-14T16:34:13.27Z</time>
      </trkpt>
      <trkpt lat="45.95103" lon="3.45012">
        <ele>274.5</ele>
        <time>2022-02-14T16:34:17.97Z</time>
      </trkpt>
      <trkpt lat="45.95115" lon="3.4503">
        <ele>274.5</ele>
        <time>2022-02-14T16:34:21.43Z</time>
      </trkpt>
      <trkpt lat="45.95124" lon="3.45044">
        <ele>274.5</ele>
        <time>2022-02-14T16:34:23.99Z</time>
      </trkpt>
      <trkpt lat="45.95174" lon="3.45157">
        <ele>276.75</ele>
        <time>2022-02-14T16:34:42.63Z</time>
      </trkpt>
      <trkpt lat="45.95185" lon="3.45178">
        <ele>276.75</ele>
        <time>2022-02-14T16:34:46.30Z</time>
      </trkpt>
      <trkpt lat="45.95203" lon="3.45203">
        <ele>276</ele>
        <time>2022-02-14T16:34:51.19Z</time>
      </trkpt>
      <trkpt lat="45.95219" lon="3.45219">
        <ele>275.25</ele>
        <time>2022-02-14T16:34:55.20Z</time>
      </trkpt>
      <trkpt lat="45.9524" lon="3.45235">
        <ele>274.25</ele>
        <time>2022-02-14T16:34:59.97Z</time>
      </trkpt>
      <trkpt lat="45.95262" lon="3.45248">
        <ele>273.5</ele>
        <time>2022-02-14T16:35:04.62Z</time>
      </trkpt>
      <trkpt lat="45.95308" lon="3.45271">
        <ele>273</ele>
        <time>2022-02-14T16:35:14.48Z</time>
      </trkpt>
      <trkpt lat="45.95419" lon="3.45322">
        <ele>273.5</ele>
        <time>2022-02-14T16:35:37.69Z</time>
      </trkpt>
      <trkpt lat="45.95468" lon="3.45346">
        <ele>274</ele>
        <time>2022-02-14T16:35:48.16Z</time>
      </trkpt>
      <trkpt lat="45.95488" lon="3.4536">
        <ele>274.25</ele>
        <time>2022-02-14T16:35:52.62Z</time>
      </trkpt>
      <trkpt lat="45.95506" lon="3.45376">
        <ele>274.25</ele>
        <time>2022-02-14T16:35:56.85Z</time>
      </trkpt>
      <trkpt lat="45.95524" lon="3.45396">
        <ele>274.5</ele>
        <time>2022-02-14T16:36:01.38Z</time>
      </trkpt>
      <trkpt lat="45.95547" lon="3.45427">
        <ele>274.75</ele>
        <time>2022-02-14T16:36:07.59Z</time>
      </trkpt>
      <trkpt lat="45.95562" lon="3.45454">
        <ele>274</ele>
        <time>2022-02-14T16:36:12.38Z</time>
      </trkpt>
      <trkpt lat="45.95574" lon="3.45482">
        <ele>273.5</ele>
        <time>2022-02-14T16:36:16.96Z</time>
      </trkpt>
      <trkpt lat="45.95583" lon="3.45507">
        <ele>273</ele>
        <time>2022-02-14T16:36:20.96Z</time>
      </trkpt>
      <trkpt lat="45.95595" lon="3.45555">
        <ele>272.75</ele>
        <time>2022-02-14T16:36:28Z</time>
      </trkpt>
      <trkpt lat="45.95646" lon="3.45747">
        <ele>273.25</ele>
        <time>2022-02-14T16:36:56.61Z</time>
      </trkpt>
      <trkpt lat="45.95662" lon="3.45785">
        <ele>273</ele>
        <time>2022-02-14T16:37:02.76Z</time>
      </trkpt>
      <trkpt lat="45.95675" lon="3.45814">
        <ele>272.75</ele>
        <time>2022-02-14T16:37:07.55Z</time>
      </trkpt>
      <trkpt lat="45.95696" lon="3.45846">
        <ele>272.5</ele>
        <time>2022-02-14T16:37:13.69Z</time>
      </trkpt>
      <trkpt lat="45.95733" lon="3.45884">
        <ele>272.5</ele>
        <time>2022-02-14T16:37:22.69Z</time>
      </trkpt>
      <trkpt lat="45.95926" lon="3.46057">
        <ele>273.25</ele>
        <time>2022-02-14T16:38:08.15Z</time>
      </trkpt>
      <trkpt lat="45.95957" lon="3.46079">
        <ele>273.75</ele>
        <time>2022-02-14T16:38:15.13Z</time>
      </trkpt>
      <trkpt lat="45.96102" lon="3.46169">
        <ele>274</ele>
        <time>2022-02-14T16:38:46.80Z</time>
      </trkpt>
      <trkpt lat="45.96168" lon="3.46217">
        <ele>271</ele>
        <time>2022-02-14T16:39:01.62Z</time>
      </trkpt>
      <trkpt lat="45.96209" lon="3.46249">
        <ele>271</ele>
        <time>2022-02-14T16:39:10.77Z</time>
      </trkpt>
      <trkpt lat="45.96301" lon="3.46322">
        <ele>272</ele>
        <time>2022-02-14T16:39:31.83Z</time>
      </trkpt>
      <trkpt lat="45.96304" lon="3.46326">
        <ele>272</ele>
        <time>2022-02-14T16:39:32.72Z</time>
      </trkpt>
      <trkpt lat="45.96336" lon="3.46245">
        <ele>270.75</ele>
        <time>2022-02-14T16:39:45.49Z</time>
      </trkpt>
      <trkpt lat="45.96348" lon="3.46178">
        <ele>270</ele>
        <time>2022-02-14T16:39:55.26Z</time>
      </trkpt>
      <trkpt lat="45.96353" lon="3.46098">
        <ele>270</ele>
        <time>2022-02-14T16:40:06.39Z</time>
      </trkpt>
      <trkpt lat="45.96344" lon="3.45898">
        <ele>271.25</ele>
        <time>2022-02-14T16:40:34.25Z</time>
      </trkpt>
      <trkpt lat="45.96348" lon="3.45819">
        <ele>272.5</ele>
        <time>2022-02-14T16:40:45.25Z</time>
      </trkpt>
      <trkpt lat="45.96364" lon="3.45729">
        <ele>273</ele>
        <time>2022-02-14T16:40:58.20Z</time>
      </trkpt>
      <trkpt lat="45.96391" lon="3.45659">
        <ele>273</ele>
        <time>2022-02-14T16:41:09.28Z</time>
      </trkpt>
      <trkpt lat="45.96394" lon="3.4565">
        <ele>273</ele>
        <time>2022-02-14T16:41:10.68Z</time>
      </trkpt>
      <trkpt lat="45.96397" lon="3.45644">
        <ele>272.75</ele>
        <time>2022-02-14T16:41:11.72Z</time>
      </trkpt>
      <trkpt lat="45.96444" lon="3.45563">
        <ele>271.5</ele>
        <time>2022-02-14T16:41:26.42Z</time>
      </trkpt>
      <trkpt lat="45.96493" lon="3.45497">
        <ele>270.75</ele>
        <time>2022-02-14T16:41:39.76Z</time>
      </trkpt>
      <trkpt lat="45.96681" lon="3.45206">
        <ele>269.5</ele>
        <time>2022-02-14T16:42:35.06Z</time>
      </trkpt>
      <trkpt lat="45.96784" lon="3.45043">
        <ele>273.75</ele>
        <time>2022-02-14T16:43:05.56Z</time>
      </trkpt>
      <trkpt lat="45.96854" lon="3.44922">
        <ele>273.5</ele>
        <time>2022-02-14T16:43:27.46Z</time>
      </trkpt>
      <trkpt lat="45.96941" lon="3.44774">
        <ele>273.25</ele>
        <time>2022-02-14T16:43:54.36Z</time>
      </trkpt>
      <trkpt lat="45.97028" lon="3.44621">
        <ele>282.75</ele>
        <time>2022-02-14T16:44:21.92Z</time>
      </trkpt>
      <trkpt lat="45.97055" lon="3.4457">
        <ele>284.25</ele>
        <time>2022-02-14T16:44:30.79Z</time>
      </trkpt>
      <trkpt lat="45.9707" lon="3.44533">
        <ele>284.25</ele>
        <time>2022-02-14T16:44:36.89Z</time>
      </trkpt>
      <trkpt lat="45.97079" lon="3.44512">
        <ele>284</ele>
        <time>2022-02-14T16:44:40.21Z</time>
      </trkpt>
      <trkpt lat="45.97106" lon="3.44445">
        <ele>285.75</ele>
        <time>2022-02-14T16:44:51.08Z</time>
      </trkpt>
      <trkpt lat="45.97121" lon="3.44415">
        <ele>286.25</ele>
        <time>2022-02-14T16:44:56.07Z</time>
      </trkpt>
      <trkpt lat="45.97133" lon="3.444">
        <ele>286.5</ele>
        <time>2022-02-14T16:44:59.29Z</time>
      </trkpt>
      <trkpt lat="45.97136" lon="3.44394">
        <ele>286.75</ele>
        <time>2022-02-14T16:45:00.27Z</time>
      </trkpt>
      <trkpt lat="45.97143" lon="3.44389">
        <ele>286.75</ele>
        <time>2022-02-14T16:45:01.87Z</time>
      </trkpt>
      <trkpt lat="45.97152" lon="3.44389">
        <ele>287</ele>
        <time>2022-02-14T16:45:03.57Z</time>
      </trkpt>
      <trkpt lat="45.97159" lon="3.44397">
        <ele>287</ele>
        <time>2022-02-14T16:45:05.47Z</time>
      </trkpt>
      <trkpt lat="45.97165" lon="3.44404">
        <ele>287</ele>
        <time>2022-02-14T16:45:07.01Z</time>
      </trkpt>
      <trkpt lat="45.97167" lon="3.44406">
        <ele>287</ele>
        <time>2022-02-14T16:45:07.40Z</time>
      </trkpt>
      <trkpt lat="45.97186" lon="3.44429">
        <ele>288.25</ele>
        <time>2022-02-14T16:45:12.51Z</time>
      </trkpt>
      <trkpt lat="45.97224" lon="3.44462">
        <ele>290.5</ele>
        <time>2022-02-14T16:45:21.40Z</time>
      </trkpt>
      <trkpt lat="45.97239" lon="3.44484">
        <ele>291.25</ele>
        <time>2022-02-14T16:45:25.49Z</time>
      </trkpt>
      <trkpt lat="45.97265" lon="3.44519">
        <ele>292.75</ele>
        <time>2022-02-14T16:45:32.76Z</time>
      </trkpt>
      <trkpt lat="45.97296" lon="3.44547">
        <ele>294.75</ele>
        <time>2022-02-14T16:45:40.12Z</time>
      </trkpt>
      <trkpt lat="45.97306" lon="3.44557">
        <ele>295.25</ele>
        <time>2022-02-14T16:45:42.47Z</time>
      </trkpt>
      <trkpt lat="45.97318" lon="3.44576">
        <ele>296</ele>
        <time>2022-02-14T16:45:46.01Z</time>
      </trkpt>
      <trkpt lat="45.97329" lon="3.44596">
        <ele>296.5</ele>
        <time>2022-02-14T16:45:49.55Z</time>
      </trkpt>
      <trkpt lat="45.97348" lon="3.44628">
        <ele>296.25</ele>
        <time>2022-02-14T16:45:55.38Z</time>
      </trkpt>
      <trkpt lat="45.97374" lon="3.44652">
        <ele>295.75</ele>
        <time>2022-02-14T16:46:01.69Z</time>
      </trkpt>
      <trkpt lat="45.97379" lon="3.44656">
        <ele>295.5</ele>
        <time>2022-02-14T16:46:02.73Z</time>
      </trkpt>
      <trkpt lat="45.97401" lon="3.44667">
        <ele>295</ele>
        <time>2022-02-14T16:46:07.38Z</time>
      </trkpt>
      <trkpt lat="45.97422" lon="3.44677">
        <ele>294.5</ele>
        <time>2022-02-14T16:46:11.82Z</time>
      </trkpt>
      <trkpt lat="45.97469" lon="3.44708">
        <ele>293.75</ele>
        <time>2022-02-14T16:46:22.19Z</time>
      </trkpt>
      <trkpt lat="45.97488" lon="3.44723">
        <ele>294</ele>
        <time>2022-02-14T16:46:26.48Z</time>
      </trkpt>
      <trkpt lat="45.97512" lon="3.4475">
        <ele>294.75</ele>
        <time>2022-02-14T16:46:32.55Z</time>
      </trkpt>
      <trkpt lat="45.97528" lon="3.44764">
        <ele>294</ele>
        <time>2022-02-14T16:46:36.39Z</time>
      </trkpt>
      <trkpt lat="45.97573" lon="3.44792">
        <ele>293.5</ele>
        <time>2022-02-14T16:46:46.20Z</time>
      </trkpt>
      <trkpt lat="45.97594" lon="3.44803">
        <ele>293.75</ele>
        <time>2022-02-14T16:46:50.52Z</time>
      </trkpt>
      <trkpt lat="45.97629" lon="3.4481">
        <ele>293.75</ele>
        <time>2022-02-14T16:46:57.64Z</time>
      </trkpt>
      <trkpt lat="45.97658" lon="3.44822">
        <ele>294</ele>
        <time>2022-02-14T16:47:03.75Z</time>
      </trkpt>
      <trkpt lat="45.97684" lon="3.4483">
        <ele>294.25</ele>
        <time>2022-02-14T16:47:09.03Z</time>
      </trkpt>
      <trkpt lat="45.97707" lon="3.44831">
        <ele>294.5</ele>
        <time>2022-02-14T16:47:13.65Z</time>
      </trkpt>
      <trkpt lat="45.97732" lon="3.4483">
        <ele>294.75</ele>
        <time>2022-02-14T16:47:18.64Z</time>
      </trkpt>
      <trkpt lat="45.97746" lon="3.44827">
        <ele>295</ele>
        <time>2022-02-14T16:47:21.56Z</time>
      </trkpt>
      <trkpt lat="45.97751" lon="3.44827">
        <ele>295</ele>
        <time>2022-02-14T16:47:22.39Z</time>
      </trkpt>
      <trkpt lat="45.97767" lon="3.44828">
        <ele>295.25</ele>
        <time>2022-02-14T16:47:25.77Z</time>
      </trkpt>
      <trkpt lat="45.9778" lon="3.44833">
        <ele>295.25</ele>
        <time>2022-02-14T16:47:28.38Z</time>
      </trkpt>
      <trkpt lat="45.97796" lon="3.44842">
        <ele>294.5</ele>
        <time>2022-02-14T16:47:31.79Z</time>
      </trkpt>
      <trkpt lat="45.97814" lon="3.44853">
        <ele>293.25</ele>
        <time>2022-02-14T16:47:35.69Z</time>
      </trkpt>
      <trkpt lat="45.97835" lon="3.44859">
        <ele>292.5</ele>
        <time>2022-02-14T16:47:40.06Z</time>
      </trkpt>
      <trkpt lat="45.97857" lon="3.44862">
        <ele>292</ele>
        <time>2022-02-14T16:47:44.51Z</time>
      </trkpt>
      <trkpt lat="45.97877" lon="3.44861">
        <ele>291.75</ele>
        <time>2022-02-14T16:47:48.42Z</time>
      </trkpt>
      <trkpt lat="45.97895" lon="3.44856">
        <ele>292.25</ele>
        <time>2022-02-14T16:47:52.23Z</time>
      </trkpt>
      <trkpt lat="45.9796" lon="3.4483">
        <ele>293</ele>
        <time>2022-02-14T16:48:05.65Z</time>
      </trkpt>
      <trkpt lat="45.97982" lon="3.44824">
        <ele>292.5</ele>
        <time>2022-02-14T16:48:10.03Z</time>
      </trkpt>
      <trkpt lat="45.98027" lon="3.44822">
        <ele>291.75</ele>
        <time>2022-02-14T16:48:19.11Z</time>
      </trkpt>
      <trkpt lat="45.98071" lon="3.44816">
        <ele>292</ele>
        <time>2022-02-14T16:48:28.05Z</time>
      </trkpt>
      <trkpt lat="45.98097" lon="3.44807">
        <ele>292.5</ele>
        <time>2022-02-14T16:48:33.26Z</time>
      </trkpt>
      <trkpt lat="45.98151" lon="3.44802">
        <ele>291.5</ele>
        <time>2022-02-14T16:48:44.16Z</time>
      </trkpt>
      <trkpt lat="45.98167" lon="3.448">
        <ele>291.25</ele>
        <time>2022-02-14T16:48:47.42Z</time>
      </trkpt>
      <trkpt lat="45.98196" lon="3.4479">
        <ele>292.75</ele>
        <time>2022-02-14T16:48:53.35Z</time>
      </trkpt>
      <trkpt lat="45.98224" lon="3.44782">
        <ele>294</ele>
        <time>2022-02-14T16:48:58.95Z</time>
      </trkpt>
      <trkpt lat="45.98248" lon="3.44777">
        <ele>294.75</ele>
        <time>2022-02-14T16:49:03.86Z</time>
      </trkpt>
      <trkpt lat="45.98276" lon="3.44775">
        <ele>294.75</ele>
        <time>2022-02-14T16:49:09.42Z</time>
      </trkpt>
      <trkpt lat="45.98319" lon="3.44782">
        <ele>293.75</ele>
        <time>2022-02-14T16:49:18.23Z</time>
      </trkpt>
      <trkpt lat="45.9836" lon="3.4479">
        <ele>293</ele>
        <time>2022-02-14T16:49:26.47Z</time>
      </trkpt>
      <trkpt lat="45.98419" lon="3.44803">
        <ele>291.25</ele>
        <time>2022-02-14T16:49:38.36Z</time>
      </trkpt>
      <trkpt lat="45.98441" lon="3.44804">
        <ele>290.75</ele>
        <time>2022-02-14T16:49:42.66Z</time>
      </trkpt>
      <trkpt lat="45.98474" lon="3.448">
        <ele>290</ele>
        <time>2022-02-14T16:49:49.39Z</time>
      </trkpt>
      <trkpt lat="45.98509" lon="3.44791">
        <ele>289.75</ele>
        <time>2022-02-14T16:49:56.42Z</time>
      </trkpt>
      <trkpt lat="45.98552" lon="3.44783">
        <ele>289.75</ele>
        <time>2022-02-14T16:50:05.14Z</time>
      </trkpt>
      <trkpt lat="45.98605" lon="3.44774">
        <ele>290</ele>
        <time>2022-02-14T16:50:15.87Z</time>
      </trkpt>
      <trkpt lat="45.98629" lon="3.44768">
        <ele>290.25</ele>
        <time>2022-02-14T16:50:20.73Z</time>
      </trkpt>
      <trkpt lat="45.98685" lon="3.44745">
        <ele>290.75</ele>
        <time>2022-02-14T16:50:32.38Z</time>
      </trkpt>
      <trkpt lat="45.98701" lon="3.44742">
        <ele>290.5</ele>
        <time>2022-02-14T16:50:35.62Z</time>
      </trkpt>
      <trkpt lat="45.98726" lon="3.4475">
        <ele>290.25</ele>
        <time>2022-02-14T16:50:40.58Z</time>
      </trkpt>
      <trkpt lat="45.98764" lon="3.4477">
        <ele>290</ele>
        <time>2022-02-14T16:50:48.73Z</time>
      </trkpt>
      <trkpt lat="45.98779" lon="3.44776">
        <ele>290.25</ele>
        <time>2022-02-14T16:50:51.91Z</time>
      </trkpt>
      <trkpt lat="45.98794" lon="3.44779">
        <ele>290.5</ele>
        <time>2022-02-14T16:50:54.82Z</time>
      </trkpt>
      <trkpt lat="45.98808" lon="3.44777">
        <ele>290.5</ele>
        <time>2022-02-14T16:50:57.75Z</time>
      </trkpt>
      <trkpt lat="45.98836" lon="3.44768">
        <ele>290.75</ele>
        <time>2022-02-14T16:51:03.52Z</time>
      </trkpt>
      <trkpt lat="45.98854" lon="3.44764">
        <ele>290.75</ele>
        <time>2022-02-14T16:51:07.12Z</time>
      </trkpt>
      <trkpt lat="45.98876" lon="3.44768">
        <ele>290.75</ele>
        <time>2022-02-14T16:51:11.45Z</time>
      </trkpt>
      <trkpt lat="45.98961" lon="3.44792">
        <ele>291.25</ele>
        <time>2022-02-14T16:51:28.94Z</time>
      </trkpt>
      <trkpt lat="45.98991" lon="3.44799">
        <ele>291.75</ele>
        <time>2022-02-14T16:51:34.87Z</time>
      </trkpt>
      <trkpt lat="45.9905" lon="3.44805">
        <ele>291.25</ele>
        <time>2022-02-14T16:51:46.79Z</time>
      </trkpt>
      <trkpt lat="45.9908" lon="3.44809">
        <ele>291</ele>
        <time>2022-02-14T16:51:52.76Z</time>
      </trkpt>
      <trkpt lat="45.991" lon="3.44806">
        <ele>291</ele>
        <time>2022-02-14T16:51:56.88Z</time>
      </trkpt>
      <trkpt lat="45.99114" lon="3.44796">
        <ele>291</ele>
        <time>2022-02-14T16:51:59.95Z</time>
      </trkpt>
      <trkpt lat="45.99165" lon="3.44746">
        <ele>290.75</ele>
        <time>2022-02-14T16:52:12.31Z</time>
      </trkpt>
      <trkpt lat="45.9917" lon="3.44741">
        <ele>290.75</ele>
        <time>2022-02-14T16:52:13.54Z</time>
      </trkpt>
      <trkpt lat="45.99197" lon="3.44724">
        <ele>290.25</ele>
        <time>2022-02-14T16:52:19.42Z</time>
      </trkpt>
      <trkpt lat="45.99217" lon="3.44718">
        <ele>290.25</ele>
        <time>2022-02-14T16:52:23.51Z</time>
      </trkpt>
      <trkpt lat="45.99233" lon="3.44721">
        <ele>290.5</ele>
        <time>2022-02-14T16:52:26.63Z</time>
      </trkpt>
      <trkpt lat="45.99248" lon="3.44729">
        <ele>290.5</ele>
        <time>2022-02-14T16:52:29.88Z</time>
      </trkpt>
      <trkpt lat="45.99261" lon="3.44744">
        <ele>290.75</ele>
        <time>2022-02-14T16:52:33.23Z</time>
      </trkpt>
      <trkpt lat="45.99367" lon="3.44919">
        <ele>288.25</ele>
        <time>2022-02-14T16:53:05.46Z</time>
      </trkpt>
      <trkpt lat="45.99405" lon="3.44976">
        <ele>289.25</ele>
        <time>2022-02-14T16:53:16.37Z</time>
      </trkpt>
      <trkpt lat="45.99438" lon="3.45039">
        <ele>285.5</ele>
        <time>2022-02-14T16:53:27.33Z</time>
      </trkpt>
      <trkpt lat="45.99448" lon="3.45047">
        <ele>284.5</ele>
        <time>2022-02-14T16:53:29.67Z</time>
      </trkpt>
      <trkpt lat="45.99527" lon="3.45087">
        <ele>280.25</ele>
        <time>2022-02-14T16:53:46.46Z</time>
      </trkpt>
      <trkpt lat="45.99553" lon="3.45104">
        <ele>279.25</ele>
        <time>2022-02-14T16:53:52.23Z</time>
      </trkpt>
      <trkpt lat="45.99574" lon="3.45119">
        <ele>278.5</ele>
        <time>2022-02-14T16:53:56.93Z</time>
      </trkpt>
      <trkpt lat="45.99587" lon="3.45133">
        <ele>278</ele>
        <time>2022-02-14T16:54:00.14Z</time>
      </trkpt>
      <trkpt lat="45.99599" lon="3.45149">
        <ele>277.5</ele>
        <time>2022-02-14T16:54:03.36Z</time>
      </trkpt>
      <trkpt lat="45.9961" lon="3.4517">
        <ele>276.75</ele>
        <time>2022-02-14T16:54:06.99Z</time>
      </trkpt>
      <trkpt lat="45.99686" lon="3.45353">
        <ele>274.5</ele>
        <time>2022-02-14T16:54:36.59Z</time>
      </trkpt>
      <trkpt lat="45.99689" lon="3.45379">
        <ele>274.75</ele>
        <time>2022-02-14T16:54:40.21Z</time>
      </trkpt>
      <trkpt lat="45.99688" lon="3.45394">
        <ele>274.75</ele>
        <time>2022-02-14T16:54:42.32Z</time>
      </trkpt>
      <trkpt lat="45.99682" lon="3.45425">
        <ele>274.5</ele>
        <time>2022-02-14T16:54:46.80Z</time>
      </trkpt>
      <trkpt lat="45.99666" lon="3.45479">
        <ele>274.75</ele>
        <time>2022-02-14T16:54:54.98Z</time>
      </trkpt>
      <trkpt lat="45.99657" lon="3.45513">
        <ele>274.75</ele>
        <time>2022-02-14T16:55:00.06Z</time>
      </trkpt>
      <trkpt lat="45.99653" lon="3.4554">
        <ele>274.75</ele>
        <time>2022-02-14T16:55:03.94Z</time>
      </trkpt>
      <trkpt lat="45.99653" lon="3.45566">
        <ele>274.5</ele>
        <time>2022-02-14T16:55:07.52Z</time>
      </trkpt>
      <trkpt lat="45.99662" lon="3.45623">
        <ele>273.75</ele>
        <time>2022-02-14T16:55:15.54Z</time>
      </trkpt>
      <trkpt lat="45.99665" lon="3.45648">
        <ele>273.25</ele>
        <time>2022-02-14T16:55:19.16Z</time>
      </trkpt>
      <trkpt lat="45.99666" lon="3.45668">
        <ele>272.75</ele>
        <time>2022-02-14T16:55:21.97Z</time>
      </trkpt>
      <trkpt lat="45.99665" lon="3.45689">
        <ele>272.75</ele>
        <time>2022-02-14T16:55:24.90Z</time>
      </trkpt>
      <trkpt lat="45.99656" lon="3.45752">
        <ele>272.75</ele>
        <time>2022-02-14T16:55:33.80Z</time>
      </trkpt>
      <trkpt lat="45.99654" lon="3.45775">
        <ele>272.5</ele>
        <time>2022-02-14T16:55:37.03Z</time>
      </trkpt>
      <trkpt lat="45.99647" lon="3.4583">
        <ele>272.25</ele>
        <time>2022-02-14T16:55:44.78Z</time>
      </trkpt>
      <trkpt lat="45.99645" lon="3.45845">
        <ele>272</ele>
        <time>2022-02-14T16:55:46.89Z</time>
      </trkpt>
      <trkpt lat="45.99639" lon="3.4587">
        <ele>271.5</ele>
        <time>2022-02-14T16:55:50.59Z</time>
      </trkpt>
      <trkpt lat="45.99591" lon="3.45984">
        <ele>271.75</ele>
        <time>2022-02-14T16:56:09.13Z</time>
      </trkpt>
      <trkpt lat="45.99561" lon="3.4608">
        <ele>271.25</ele>
        <time>2022-02-14T16:56:23.79Z</time>
      </trkpt>
      <trkpt lat="45.99558" lon="3.46098">
        <ele>271</ele>
        <time>2022-02-14T16:56:26.28Z</time>
      </trkpt>
      <trkpt lat="45.99561" lon="3.4611">
        <ele>270.75</ele>
        <time>2022-02-14T16:56:28.04Z</time>
      </trkpt>
      <trkpt lat="45.99566" lon="3.46122">
        <ele>270.5</ele>
        <time>2022-02-14T16:56:29.94Z</time>
      </trkpt>
      <trkpt lat="45.99574" lon="3.46132">
        <ele>270.5</ele>
        <time>2022-02-14T16:56:32.10Z</time>
      </trkpt>
      <trkpt lat="45.99607" lon="3.46147">
        <ele>270.5</ele>
        <time>2022-02-14T16:56:39.03Z</time>
      </trkpt>
      <trkpt lat="45.99637" lon="3.46156">
        <ele>270.75</ele>
        <time>2022-02-14T16:56:45.21Z</time>
      </trkpt>
      <trkpt lat="45.99693" lon="3.46165">
        <ele>270.25</ele>
        <time>2022-02-14T16:56:56.48Z</time>
      </trkpt>
      <trkpt lat="45.99721" lon="3.46168">
        <ele>269.5</ele>
        <time>2022-02-14T16:57:01.94Z</time>
      </trkpt>
      <trkpt lat="45.99736" lon="3.46168">
        <ele>269.25</ele>
        <time>2022-02-14T16:57:05.12Z</time>
      </trkpt>
      <trkpt lat="45.99807" lon="3.46142">
        <ele>268.5</ele>
        <time>2022-02-14T16:57:19.65Z</time>
      </trkpt>
      <trkpt lat="45.99856" lon="3.46128">
        <ele>268.25</ele>
        <time>2022-02-14T16:57:29.76Z</time>
      </trkpt>
      <trkpt lat="45.99892" lon="3.46118">
        <ele>267.75</ele>
        <time>2022-02-14T16:57:36.93Z</time>
      </trkpt>
      <trkpt lat="46.00025" lon="3.46079">
        <ele>267.75</ele>
        <time>2022-02-14T16:58:04.16Z</time>
      </trkpt>
      <trkpt lat="46.00073" lon="3.46069">
        <ele>267.25</ele>
        <time>2022-02-14T16:58:13.79Z</time>
      </trkpt>
      <trkpt lat="46.00172" lon="3.46059">
        <ele>266.25</ele>
        <time>2022-02-14T16:58:33.74Z</time>
      </trkpt>
      <trkpt lat="46.00226" lon="3.46059">
        <ele>266</ele>
        <time>2022-02-14T16:58:44.54Z</time>
      </trkpt>
      <trkpt lat="46.00316" lon="3.4606">
        <ele>265.25</ele>
        <time>2022-02-14T16:59:02.56Z</time>
      </trkpt>
      <trkpt lat="46.00333" lon="3.46058">
        <ele>265.25</ele>
        <time>2022-02-14T16:59:05.99Z</time>
      </trkpt>
      <trkpt lat="46.00353" lon="3.46051">
        <ele>265.25</ele>
        <time>2022-02-14T16:59:09.95Z</time>
      </trkpt>
      <trkpt lat="46.00432" lon="3.45998">
        <ele>266</ele>
        <time>2022-02-14T16:59:27.50Z</time>
      </trkpt>
      <trkpt lat="46.00453" lon="3.45987">
        <ele>266</ele>
        <time>2022-02-14T16:59:31.89Z</time>
      </trkpt>
      <trkpt lat="46.00471" lon="3.45982">
        <ele>266.25</ele>
        <time>2022-02-14T16:59:35.67Z</time>
      </trkpt>
      <trkpt lat="46.00485" lon="3.45981">
        <ele>266.25</ele>
        <time>2022-02-14T16:59:38.45Z</time>
      </trkpt>
      <trkpt lat="46.00495" lon="3.45981">
        <ele>266.25</ele>
        <time>2022-02-14T16:59:40.33Z</time>
      </trkpt>
      <trkpt lat="46.00539" lon="3.45982">
        <ele>266</ele>
        <time>2022-02-14T16:59:49.19Z</time>
      </trkpt>
      <trkpt lat="46.00557" lon="3.45979">
        <ele>266</ele>
        <time>2022-02-14T16:59:52.80Z</time>
      </trkpt>
      <trkpt lat="46.00591" lon="3.4596">
        <ele>265.75</ele>
        <time>2022-02-14T17:00:00.13Z</time>
      </trkpt>
      <trkpt lat="46.00666" lon="3.45909">
        <ele>266</ele>
        <time>2022-02-14T17:00:16.77Z</time>
      </trkpt>
      <trkpt lat="46.00687" lon="3.45902">
        <ele>265.75</ele>
        <time>2022-02-14T17:00:21.02Z</time>
      </trkpt>
      <trkpt lat="46.00704" lon="3.45905">
        <ele>265.25</ele>
        <time>2022-02-14T17:00:24.44Z</time>
      </trkpt>
      <trkpt lat="46.00728" lon="3.45919">
        <ele>264.5</ele>
        <time>2022-02-14T17:00:29.70Z</time>
      </trkpt>
      <trkpt lat="46.00798" lon="3.45978">
        <ele>264.75</ele>
        <time>2022-02-14T17:00:45.74Z</time>
      </trkpt>
      <trkpt lat="46.00813" lon="3.45995">
        <ele>265.25</ele>
        <time>2022-02-14T17:00:49.72Z</time>
      </trkpt>
      <trkpt lat="46.00825" lon="3.46016">
        <ele>266</ele>
        <time>2022-02-14T17:00:53.47Z</time>
      </trkpt>
      <trkpt lat="46.00835" lon="3.46038">
        <ele>266.75</ele>
        <time>2022-02-14T17:00:57.14Z</time>
      </trkpt>
      <trkpt lat="46.00863" lon="3.46133">
        <ele>267.25</ele>
        <time>2022-02-14T17:01:11.42Z</time>
      </trkpt>
      <trkpt lat="46.00878" lon="3.46184">
        <ele>266.75</ele>
        <time>2022-02-14T17:01:19.08Z</time>
      </trkpt>
      <trkpt lat="46.00893" lon="3.46222">
        <ele>265.75</ele>
        <time>2022-02-14T17:01:25.21Z</time>
      </trkpt>
      <trkpt lat="46.00913" lon="3.46252">
        <ele>265</ele>
        <time>2022-02-14T17:01:31.06Z</time>
      </trkpt>
      <trkpt lat="46.00947" lon="3.46294">
        <ele>264.75</ele>
        <time>2022-02-14T17:01:39.98Z</time>
      </trkpt>
      <trkpt lat="46.00967" lon="3.46313">
        <ele>264.75</ele>
        <time>2022-02-14T17:01:44.72Z</time>
      </trkpt>
      <trkpt lat="46.00969" lon="3.46303">
        <ele>264.75</ele>
        <time>2022-02-14T17:01:46.16Z</time>
      </trkpt>
      <trkpt lat="46.00975" lon="3.46283">
        <ele>264.5</ele>
        <time>2022-02-14T17:01:49.14Z</time>
      </trkpt>
      <trkpt lat="46.00986" lon="3.46261">
        <ele>264.25</ele>
        <time>2022-02-14T17:01:52.97Z</time>
      </trkpt>
      <trkpt lat="46.00999" lon="3.46244">
        <ele>264</ele>
        <time>2022-02-14T17:01:56.51Z</time>
      </trkpt>
      <trkpt lat="46.01012" lon="3.46233">
        <ele>264</ele>
        <time>2022-02-14T17:01:59.52Z</time>
      </trkpt>
      <trkpt lat="46.01037" lon="3.46217">
        <ele>263.75</ele>
        <time>2022-02-14T17:02:04.96Z</time>
      </trkpt>
      <trkpt lat="46.01071" lon="3.46196">
        <ele>263.75</ele>
        <time>2022-02-14T17:02:12.41Z</time>
      </trkpt>
      <trkpt lat="46.01124" lon="3.46165">
        <ele>264.25</ele>
        <time>2022-02-14T17:02:23.83Z</time>
      </trkpt>
      <trkpt lat="46.0118" lon="3.46137">
        <ele>264.5</ele>
        <time>2022-02-14T17:02:35.60Z</time>
      </trkpt>
      <trkpt lat="46.0127" lon="3.4609">
        <ele>264.75</ele>
        <time>2022-02-14T17:02:54.78Z</time>
      </trkpt>
      <trkpt lat="46.01325" lon="3.4605">
        <ele>264</ele>
        <time>2022-02-14T17:03:07.11Z</time>
      </trkpt>
      <trkpt lat="46.01362" lon="3.46019">
        <ele>263.5</ele>
        <time>2022-02-14T17:03:15.77Z</time>
      </trkpt>
      <trkpt lat="46.01377" lon="3.46007">
        <ele>263.5</ele>
        <time>2022-02-14T17:03:19.11Z</time>
      </trkpt>
      <trkpt lat="46.01432" lon="3.45956">
        <ele>263</ele>
        <time>2022-02-14T17:03:32.17Z</time>
      </trkpt>
      <trkpt lat="46.01481" lon="3.45906">
        <ele>263</ele>
        <time>2022-02-14T17:03:44.21Z</time>
      </trkpt>
      <trkpt lat="46.01527" lon="3.45856">
        <ele>263.25</ele>
        <time>2022-02-14T17:03:55.76Z</time>
      </trkpt>
      <trkpt lat="46.01545" lon="3.45834">
        <ele>263.25</ele>
        <time>2022-02-14T17:04:00.44Z</time>
      </trkpt>
      <trkpt lat="46.01559" lon="3.45811">
        <ele>263.25</ele>
        <time>2022-02-14T17:04:04.68Z</time>
      </trkpt>
      <trkpt lat="46.0159" lon="3.45749">
        <ele>263</ele>
        <time>2022-02-14T17:04:15.33Z</time>
      </trkpt>
      <trkpt lat="46.01598" lon="3.45732">
        <ele>263</ele>
        <time>2022-02-14T17:04:18.19Z</time>
      </trkpt>
      <trkpt lat="46.01622" lon="3.45686">
        <ele>263.25</ele>
        <time>2022-02-14T17:04:26.17Z</time>
      </trkpt>
      <trkpt lat="46.01639" lon="3.45657">
        <ele>263.5</ele>
        <time>2022-02-14T17:04:31.44Z</time>
      </trkpt>
      <trkpt lat="46.0166" lon="3.45632">
        <ele>263.75</ele>
        <time>2022-02-14T17:04:36.92Z</time>
      </trkpt>
      <trkpt lat="46.01693" lon="3.45595">
        <ele>264</ele>
        <time>2022-02-14T17:04:45.21Z</time>
      </trkpt>
      <trkpt lat="46.01811" lon="3.45465">
        <ele>263</ele>
        <time>2022-02-14T17:05:14.91Z</time>
      </trkpt>
      <trkpt lat="46.01886" lon="3.45389">
        <ele>263.25</ele>
        <time>2022-02-14T17:05:33.25Z</time>
      </trkpt>
      <trkpt lat="46.01962" lon="3.45317">
        <ele>263.75</ele>
        <time>2022-02-14T17:05:51.48Z</time>
      </trkpt>
      <trkpt lat="46.01999" lon="3.45276">
        <ele>265.25</ele>
        <time>2022-02-14T17:06:00.72Z</time>
      </trkpt>
      <trkpt lat="46.02043" lon="3.45226">
        <ele>266.75</ele>
        <time>2022-02-14T17:06:12.02Z</time>
      </trkpt>
      <trkpt lat="46.02068" lon="3.45203">
        <ele>267.5</ele>
        <time>2022-02-14T17:06:17.87Z</time>
      </trkpt>
      <trkpt lat="46.0208" lon="3.45185">
        <ele>267.75</ele>
        <time>2022-02-14T17:06:21.37Z</time>
      </trkpt>
      <trkpt lat="46.02088" lon="3.45161">
        <ele>267.75</ele>
        <time>2022-02-14T17:06:25.02Z</time>
      </trkpt>
      <trkpt lat="46.02101" lon="3.45096">
        <ele>267.25</ele>
        <time>2022-02-14T17:06:34.48Z</time>
      </trkpt>
      <trkpt lat="46.02113" lon="3.45065">
        <ele>267.75</ele>
        <time>2022-02-14T17:06:39.37Z</time>
      </trkpt>
      <trkpt lat="46.02153" lon="3.4499">
        <ele>269</ele>
        <time>2022-02-14T17:06:52.49Z</time>
      </trkpt>
      <trkpt lat="46.02155" lon="3.44986">
        <ele>269</ele>
        <time>2022-02-14T17:06:53.32Z</time>
      </trkpt>
      <trkpt lat="46.02193" lon="3.4498">
        <ele>268</ele>
        <time>2022-02-14T17:07:00.92Z</time>
      </trkpt>
      <trkpt lat="46.02207" lon="3.44975">
        <ele>267.5</ele>
        <time>2022-02-14T17:07:03.82Z</time>
      </trkpt>
      <trkpt lat="46.02227" lon="3.44966">
        <ele>266.75</ele>
        <time>2022-02-14T17:07:07.99Z</time>
      </trkpt>
      <trkpt lat="46.0233" lon="3.4489">
        <ele>265.75</ele>
        <time>2022-02-14T17:07:31.12Z</time>
      </trkpt>
      <trkpt lat="46.02344" lon="3.44878">
        <ele>266</ele>
        <time>2022-02-14T17:07:34.35Z</time>
      </trkpt>
      <trkpt lat="46.02351" lon="3.44867">
        <ele>266</ele>
        <time>2022-02-14T17:07:36.46Z</time>
      </trkpt>
      <trkpt lat="46.02358" lon="3.44852">
        <ele>266.25</ele>
        <time>2022-02-14T17:07:39.02Z</time>
      </trkpt>
      <trkpt lat="46.02365" lon="3.44832">
        <ele>266.75</ele>
        <time>2022-02-14T17:07:42.02Z</time>
      </trkpt>
      <trkpt lat="46.02374" lon="3.44797">
        <ele>267.25</ele>
        <time>2022-02-14T17:07:47.26Z</time>
      </trkpt>
      <trkpt lat="46.0238" lon="3.44774">
        <ele>267.75</ele>
        <time>2022-02-14T17:07:50.69Z</time>
      </trkpt>
      <trkpt lat="46.02396" lon="3.44738">
        <ele>268.75</ele>
        <time>2022-02-14T17:07:56.58Z</time>
      </trkpt>
      <trkpt lat="46.02406" lon="3.44722">
        <ele>269</ele>
        <time>2022-02-14T17:07:59.53Z</time>
      </trkpt>
      <trkpt lat="46.02422" lon="3.44699">
        <ele>269.25</ele>
        <time>2022-02-14T17:08:04.07Z</time>
      </trkpt>
      <trkpt lat="46.02436" lon="3.44681">
        <ele>269</ele>
        <time>2022-02-14T17:08:07.93Z</time>
      </trkpt>
      <trkpt lat="46.02459" lon="3.44656">
        <ele>268.5</ele>
        <time>2022-02-14T17:08:13.66Z</time>
      </trkpt>
      <trkpt lat="46.02501" lon="3.44614">
        <ele>267</ele>
        <time>2022-02-14T17:08:23.91Z</time>
      </trkpt>
      <trkpt lat="46.02514" lon="3.44603">
        <ele>266.25</ele>
        <time>2022-02-14T17:08:26.93Z</time>
      </trkpt>
      <trkpt lat="46.02528" lon="3.44595">
        <ele>265.5</ele>
        <time>2022-02-14T17:08:29.82Z</time>
      </trkpt>
      <trkpt lat="46.02541" lon="3.44591">
        <ele>265</ele>
        <time>2022-02-14T17:08:32.53Z</time>
      </trkpt>
      <trkpt lat="46.02582" lon="3.44584">
        <ele>264</ele>
        <time>2022-02-14T17:08:40.70Z</time>
      </trkpt>
      <trkpt lat="46.02793" lon="3.44553">
        <ele>264.75</ele>
        <time>2022-02-14T17:09:23.25Z</time>
      </trkpt>
      <trkpt lat="46.02904" lon="3.44539">
        <ele>264.5</ele>
        <time>2022-02-14T17:09:45.58Z</time>
      </trkpt>
      <trkpt lat="46.02924" lon="3.44535">
        <ele>264.5</ele>
        <time>2022-02-14T17:09:49.51Z</time>
      </trkpt>
      <trkpt lat="46.02938" lon="3.44526">
        <ele>264.5</ele>
        <time>2022-02-14T17:09:52.58Z</time>
      </trkpt>
      <trkpt lat="46.02953" lon="3.4451">
        <ele>264.75</ele>
        <time>2022-02-14T17:09:56.33Z</time>
      </trkpt>
      <trkpt lat="46.03057" lon="3.44355">
        <ele>264.25</ele>
        <time>2022-02-14T17:10:26.22Z</time>
      </trkpt>
      <trkpt lat="46.03099" lon="3.44296">
        <ele>265.5</ele>
        <time>2022-02-14T17:10:37.93Z</time>
      </trkpt>
      <trkpt lat="46.03134" lon="3.44244">
        <ele>268</ele>
        <time>2022-02-14T17:10:47.94Z</time>
      </trkpt>
      <trkpt lat="46.03147" lon="3.4423">
        <ele>268.75</ele>
        <time>2022-02-14T17:10:51.18Z</time>
      </trkpt>
      <trkpt lat="46.03158" lon="3.44221">
        <ele>269.25</ele>
        <time>2022-02-14T17:10:53.79Z</time>
      </trkpt>
      <trkpt lat="46.03183" lon="3.44203">
        <ele>269.75</ele>
        <time>2022-02-14T17:10:59.35Z</time>
      </trkpt>
      <trkpt lat="46.03192" lon="3.44197">
        <ele>269.75</ele>
        <time>2022-02-14T17:11:01.35Z</time>
      </trkpt>
      <trkpt lat="46.032" lon="3.44191">
        <ele>269.75</ele>
        <time>2022-02-14T17:11:03.16Z</time>
      </trkpt>
      <trkpt lat="46.0321" lon="3.44185">
        <ele>269.75</ele>
        <time>2022-02-14T17:11:05.30Z</time>
      </trkpt>
      <trkpt lat="46.03217" lon="3.44179">
        <ele>269.75</ele>
        <time>2022-02-14T17:11:07Z</time>
      </trkpt>
      <trkpt lat="46.0325" lon="3.44157">
        <ele>269.5</ele>
        <time>2022-02-14T17:11:14.33Z</time>
      </trkpt>
      <trkpt lat="46.03257" lon="3.44152">
        <ele>269.75</ele>
        <time>2022-02-14T17:11:15.73Z</time>
      </trkpt>
      <trkpt lat="46.03259" lon="3.44151">
        <ele>269.75</ele>
        <time>2022-02-14T17:11:16.30Z</time>
      </trkpt>
      <trkpt lat="46.03272" lon="3.44143">
        <ele>270.25</ele>
        <time>2022-02-14T17:11:19.09Z</time>
      </trkpt>
      <trkpt lat="46.03286" lon="3.44136">
        <ele>270.5</ele>
        <time>2022-02-14T17:11:22.12Z</time>
      </trkpt>
      <trkpt lat="46.03309" lon="3.44128">
        <ele>270.5</ele>
        <time>2022-02-14T17:11:26.74Z</time>
      </trkpt>
      <trkpt lat="46.03334" lon="3.44123">
        <ele>270.5</ele>
        <time>2022-02-14T17:11:31.87Z</time>
      </trkpt>
      <trkpt lat="46.03417" lon="3.4412">
        <ele>270</ele>
        <time>2022-02-14T17:11:48.38Z</time>
      </trkpt>
      <trkpt lat="46.03456" lon="3.44119">
        <ele>270</ele>
        <time>2022-02-14T17:11:56.22Z</time>
      </trkpt>
      <trkpt lat="46.035" lon="3.44117">
        <ele>269.75</ele>
        <time>2022-02-14T17:12:04.96Z</time>
      </trkpt>
      <trkpt lat="46.03522" lon="3.44117">
        <ele>269.25</ele>
        <time>2022-02-14T17:12:09.40Z</time>
      </trkpt>
      <trkpt lat="46.03536" lon="3.44116">
        <ele>268.75</ele>
        <time>2022-02-14T17:12:12.23Z</time>
      </trkpt>
      <trkpt lat="46.03567" lon="3.44115">
        <ele>267.75</ele>
        <time>2022-02-14T17:12:18.49Z</time>
      </trkpt>
      <trkpt lat="46.03596" lon="3.44109">
        <ele>267.75</ele>
        <time>2022-02-14T17:12:24.36Z</time>
      </trkpt>
      <trkpt lat="46.03635" lon="3.44098">
        <ele>269</ele>
        <time>2022-02-14T17:12:32.18Z</time>
      </trkpt>
      <trkpt lat="46.03656" lon="3.44096">
        <ele>269.5</ele>
        <time>2022-02-14T17:12:36.49Z</time>
      </trkpt>
      <trkpt lat="46.03675" lon="3.44098">
        <ele>269.75</ele>
        <time>2022-02-14T17:12:40.30Z</time>
      </trkpt>
      <trkpt lat="46.03883" lon="3.44133">
        <ele>267.75</ele>
        <time>2022-02-14T17:13:22.04Z</time>
      </trkpt>
      <trkpt lat="46.03913" lon="3.44134">
        <ele>267.5</ele>
        <time>2022-02-14T17:13:28.06Z</time>
      </trkpt>
      <trkpt lat="46.03938" lon="3.4413">
        <ele>267</ele>
        <time>2022-02-14T17:13:33.14Z</time>
      </trkpt>
      <trkpt lat="46.03998" lon="3.4412">
        <ele>265.5</ele>
        <time>2022-02-14T17:13:45.21Z</time>
      </trkpt>
      <trkpt lat="46.04032" lon="3.44114">
        <ele>264.75</ele>
        <time>2022-02-14T17:13:52.12Z</time>
      </trkpt>
      <trkpt lat="46.04068" lon="3.4411">
        <ele>264</ele>
        <time>2022-02-14T17:13:59.37Z</time>
      </trkpt>
      <trkpt lat="46.04088" lon="3.44106">
        <ele>263.5</ele>
        <time>2022-02-14T17:14:03.37Z</time>
      </trkpt>
      <trkpt lat="46.04107" lon="3.44099">
        <ele>263.5</ele>
        <time>2022-02-14T17:14:07.33Z</time>
      </trkpt>
      <trkpt lat="46.04125" lon="3.44089">
        <ele>263.25</ele>
        <time>2022-02-14T17:14:11.22Z</time>
      </trkpt>
      <trkpt lat="46.04139" lon="3.44075">
        <ele>263.25</ele>
        <time>2022-02-14T17:14:14.46Z</time>
      </trkpt>
      <trkpt lat="46.0415" lon="3.44062">
        <ele>263.25</ele>
        <time>2022-02-14T17:14:17.37Z</time>
      </trkpt>
      <trkpt lat="46.04184" lon="3.44018">
        <ele>263.5</ele>
        <time>2022-02-14T17:14:26.46Z</time>
      </trkpt>
      <trkpt lat="46.042" lon="3.44">
        <ele>263.5</ele>
        <time>2022-02-14T17:14:30.58Z</time>
      </trkpt>
      <trkpt lat="46.0422" lon="3.43982">
        <ele>263</ele>
        <time>2022-02-14T17:14:35.32Z</time>
      </trkpt>
      <trkpt lat="46.04241" lon="3.4397">
        <ele>263</ele>
        <time>2022-02-14T17:14:39.85Z</time>
      </trkpt>
      <trkpt lat="46.04263" lon="3.43963">
        <ele>263</ele>
        <time>2022-02-14T17:14:44.26Z</time>
      </trkpt>
      <trkpt lat="46.04332" lon="3.43947">
        <ele>263</ele>
        <time>2022-02-14T17:14:58.33Z</time>
      </trkpt>
      <trkpt lat="46.04353" lon="3.43938">
        <ele>262.75</ele>
        <time>2022-02-14T17:15:02.72Z</time>
      </trkpt>
      <trkpt lat="46.04367" lon="3.43929">
        <ele>262.5</ele>
        <time>2022-02-14T17:15:05.78Z</time>
      </trkpt>
      <trkpt lat="46.0438" lon="3.43916">
        <ele>262.25</ele>
        <time>2022-02-14T17:15:08.92Z</time>
      </trkpt>
      <trkpt lat="46.04392" lon="3.43902">
        <ele>262.75</ele>
        <time>2022-02-14T17:15:11.99Z</time>
      </trkpt>
      <trkpt lat="46.04407" lon="3.43879">
        <ele>263.25</ele>
        <time>2022-02-14T17:15:16.38Z</time>
      </trkpt>
      <trkpt lat="46.04462" lon="3.43787">
        <ele>266.25</ele>
        <time>2022-02-14T17:15:33.29Z</time>
      </trkpt>
      <trkpt lat="46.04489" lon="3.43754">
        <ele>267.75</ele>
        <time>2022-02-14T17:15:40.26Z</time>
      </trkpt>
      <trkpt lat="46.04513" lon="3.43735">
        <ele>268.75</ele>
        <time>2022-02-14T17:15:45.91Z</time>
      </trkpt>
      <trkpt lat="46.04584" lon="3.43691">
        <ele>270.75</ele>
        <time>2022-02-14T17:16:01.32Z</time>
      </trkpt>
      <trkpt lat="46.04614" lon="3.43677">
        <ele>270.5</ele>
        <time>2022-02-14T17:16:07.61Z</time>
      </trkpt>
      <trkpt lat="46.04719" lon="3.43644">
        <ele>269</ele>
        <time>2022-02-14T17:16:29.07Z</time>
      </trkpt>
      <trkpt lat="46.04747" lon="3.43634">
        <ele>268.75</ele>
        <time>2022-02-14T17:16:34.75Z</time>
      </trkpt>
      <trkpt lat="46.04771" lon="3.43622">
        <ele>268.75</ele>
        <time>2022-02-14T17:16:39.85Z</time>
      </trkpt>
      <trkpt lat="46.04801" lon="3.43602">
        <ele>268.75</ele>
        <time>2022-02-14T17:16:46.60Z</time>
      </trkpt>
      <trkpt lat="46.04824" lon="3.43589">
        <ele>268.25</ele>
        <time>2022-02-14T17:16:51.59Z</time>
      </trkpt>
      <trkpt lat="46.04844" lon="3.43581">
        <ele>267.75</ele>
        <time>2022-02-14T17:16:55.57Z</time>
      </trkpt>
      <trkpt lat="46.04861" lon="3.43578">
        <ele>267.5</ele>
        <time>2022-02-14T17:16:59.14Z</time>
      </trkpt>
      <trkpt lat="46.04974" lon="3.43568">
        <ele>268</ele>
        <time>2022-02-14T17:17:21.79Z</time>
      </trkpt>
      <trkpt lat="46.04985" lon="3.43567">
        <ele>268.5</ele>
        <time>2022-02-14T17:17:23.97Z</time>
      </trkpt>
      <trkpt lat="46.05004" lon="3.43566">
        <ele>269</ele>
        <time>2022-02-14T17:17:27.61Z</time>
      </trkpt>
      <trkpt lat="46.05052" lon="3.43573">
        <ele>270.5</ele>
        <time>2022-02-14T17:17:37.26Z</time>
      </trkpt>
      <trkpt lat="46.05171" lon="3.43605">
        <ele>271.25</ele>
        <time>2022-02-14T17:18:01.54Z</time>
      </trkpt>
      <trkpt lat="46.05187" lon="3.43608">
        <ele>271.25</ele>
        <time>2022-02-14T17:18:04.69Z</time>
      </trkpt>
      <trkpt lat="46.0523" lon="3.43612">
        <ele>272</ele>
        <time>2022-02-14T17:18:13.37Z</time>
      </trkpt>
      <trkpt lat="46.05245" lon="3.43614">
        <ele>272.25</ele>
        <time>2022-02-14T17:18:16.42Z</time>
      </trkpt>
      <trkpt lat="46.05245" lon="3.43617">
        <ele>272.25</ele>
        <time>2022-02-14T17:18:16.74Z</time>
      </trkpt>
      <trkpt lat="46.05246" lon="3.43622">
        <ele>272</ele>
        <time>2022-02-14T17:18:17.51Z</time>
      </trkpt>
      <trkpt lat="46.05248" lon="3.43626">
        <ele>271.75</ele>
        <time>2022-02-14T17:18:18.26Z</time>
      </trkpt>
      <trkpt lat="46.05251" lon="3.43629">
        <ele>271.75</ele>
        <time>2022-02-14T17:18:18.95Z</time>
      </trkpt>
      <trkpt lat="46.05254" lon="3.43631">
        <ele>271.75</ele>
        <time>2022-02-14T17:18:19.64Z</time>
      </trkpt>
      <trkpt lat="46.05258" lon="3.43631">
        <ele>271.75</ele>
        <time>2022-02-14T17:18:20.32Z</time>
      </trkpt>
      <trkpt lat="46.05261" lon="3.43629">
        <ele>272</ele>
        <time>2022-02-14T17:18:21Z</time>
      </trkpt>
      <trkpt lat="46.05264" lon="3.43626">
        <ele>272.25</ele>
        <time>2022-02-14T17:18:21.69Z</time>
      </trkpt>
      <trkpt lat="46.05266" lon="3.43622">
        <ele>272.5</ele>
        <time>2022-02-14T17:18:22.37Z</time>
      </trkpt>
      <trkpt lat="46.05271" lon="3.43626">
        <ele>272.25</ele>
        <time>2022-02-14T17:18:23.49Z</time>
      </trkpt>
      <trkpt lat="46.05295" lon="3.43635">
        <ele>272.5</ele>
        <time>2022-02-14T17:18:28.49Z</time>
      </trkpt>
      <trkpt lat="46.05308" lon="3.43639">
        <ele>272.5</ele>
        <time>2022-02-14T17:18:31.15Z</time>
      </trkpt>
      <trkpt lat="46.05335" lon="3.43647">
        <ele>272.75</ele>
        <time>2022-02-14T17:18:36.72Z</time>
      </trkpt>
      <trkpt lat="46.05412" lon="3.43656">
        <ele>272.5</ele>
        <time>2022-02-14T17:18:52.20Z</time>
      </trkpt>
      <trkpt lat="46.05479" lon="3.43663">
        <ele>272</ele>
        <time>2022-02-14T17:19:05.53Z</time>
      </trkpt>
      <trkpt lat="46.05633" lon="3.43646">
        <ele>272.5</ele>
        <time>2022-02-14T17:19:36.56Z</time>
      </trkpt>
      <trkpt lat="46.05849" lon="3.43573">
        <ele>270</ele>
        <time>2022-02-14T17:20:20.86Z</time>
      </trkpt>
      <trkpt lat="46.05925" lon="3.43545">
        <ele>269.25</ele>
        <time>2022-02-14T17:20:36.59Z</time>
      </trkpt>
      <trkpt lat="46.06023" lon="3.43471">
        <ele>270</ele>
        <time>2022-02-14T17:20:58.80Z</time>
      </trkpt>
      <trkpt lat="46.0604" lon="3.43463">
        <ele>270.5</ele>
        <time>2022-02-14T17:21:02.22Z</time>
      </trkpt>
      <trkpt lat="46.06058" lon="3.4346">
        <ele>270.75</ele>
        <time>2022-02-14T17:21:05.89Z</time>
      </trkpt>
      <trkpt lat="46.06067" lon="3.43461">
        <ele>270.75</ele>
        <time>2022-02-14T17:21:07.63Z</time>
      </trkpt>
      <trkpt lat="46.06107" lon="3.43467">
        <ele>271.25</ele>
        <time>2022-02-14T17:21:15.66Z</time>
      </trkpt>
      <trkpt lat="46.06133" lon="3.43472">
        <ele>271.5</ele>
        <time>2022-02-14T17:21:21.07Z</time>
      </trkpt>
      <trkpt lat="46.06143" lon="3.43474">
        <ele>271.75</ele>
        <time>2022-02-14T17:21:22.92Z</time>
      </trkpt>
      <trkpt lat="46.06152" lon="3.43476">
        <ele>271.75</ele>
        <time>2022-02-14T17:21:24.86Z</time>
      </trkpt>
      <trkpt lat="46.06175" lon="3.43483">
        <ele>271.75</ele>
        <time>2022-02-14T17:21:29.61Z</time>
      </trkpt>
      <trkpt lat="46.06196" lon="3.43491">
        <ele>272</ele>
        <time>2022-02-14T17:21:33.85Z</time>
      </trkpt>
      <trkpt lat="46.06228" lon="3.43508">
        <ele>271.75</ele>
        <time>2022-02-14T17:21:40.65Z</time>
      </trkpt>
      <trkpt lat="46.06299" lon="3.43564">
        <ele>269.5</ele>
        <time>2022-02-14T17:21:56.89Z</time>
      </trkpt>
      <trkpt lat="46.06343" lon="3.43612">
        <ele>269.75</ele>
        <time>2022-02-14T17:22:07.94Z</time>
      </trkpt>
      <trkpt lat="46.06353" lon="3.43623">
        <ele>269.75</ele>
        <time>2022-02-14T17:22:10.37Z</time>
      </trkpt>
      <trkpt lat="46.06358" lon="3.43628">
        <ele>270</ele>
        <time>2022-02-14T17:22:11.71Z</time>
      </trkpt>
      <trkpt lat="46.06389" lon="3.43656">
        <ele>270.75</ele>
        <time>2022-02-14T17:22:18.92Z</time>
      </trkpt>
      <trkpt lat="46.06467" lon="3.43714">
        <ele>271.25</ele>
        <time>2022-02-14T17:22:36.55Z</time>
      </trkpt>
      <trkpt lat="46.06525" lon="3.43758">
        <ele>270.75</ele>
        <time>2022-02-14T17:22:49.65Z</time>
      </trkpt>
      <trkpt lat="46.0653" lon="3.43762">
        <ele>270.75</ele>
        <time>2022-02-14T17:22:50.87Z</time>
      </trkpt>
      <trkpt lat="46.06544" lon="3.43773">
        <ele>270.5</ele>
        <time>2022-02-14T17:22:53.88Z</time>
      </trkpt>
      <trkpt lat="46.06587" lon="3.43805">
        <ele>270</ele>
        <time>2022-02-14T17:23:03.63Z</time>
      </trkpt>
      <trkpt lat="46.06644" lon="3.43848">
        <ele>267.5</ele>
        <time>2022-02-14T17:23:16.49Z</time>
      </trkpt>
      <trkpt lat="46.06842" lon="3.43997">
        <ele>264.25</ele>
        <time>2022-02-14T17:24:01.16Z</time>
      </trkpt>
      <trkpt lat="46.06853" lon="3.44009">
        <ele>264.5</ele>
        <time>2022-02-14T17:24:03.93Z</time>
      </trkpt>
      <trkpt lat="46.06869" lon="3.44027">
        <ele>264.75</ele>
        <time>2022-02-14T17:24:08.03Z</time>
      </trkpt>
      <trkpt lat="46.06919" lon="3.44099">
        <ele>266.25</ele>
        <time>2022-02-14T17:24:22.10Z</time>
      </trkpt>
      <trkpt lat="46.06925" lon="3.44108">
        <ele>266.25</ele>
        <time>2022-02-14T17:24:23.80Z</time>
      </trkpt>
      <trkpt lat="46.06959" lon="3.44156">
        <ele>265.25</ele>
        <time>2022-02-14T17:24:33.42Z</time>
      </trkpt>
      <trkpt lat="46.06984" lon="3.44191">
        <ele>264.5</ele>
        <time>2022-02-14T17:24:40.28Z</time>
      </trkpt>
      <trkpt lat="46.07007" lon="3.44223">
        <ele>264.5</ele>
        <time>2022-02-14T17:24:46.85Z</time>
      </trkpt>
      <trkpt lat="46.07028" lon="3.44241">
        <ele>262.5</ele>
        <time>2022-02-14T17:24:51.69Z</time>
      </trkpt>
      <trkpt lat="46.07038" lon="3.44248">
        <ele>262.5</ele>
        <time>2022-02-14T17:24:53.85Z</time>
      </trkpt>
      <trkpt lat="46.07049" lon="3.44251">
        <ele>262.5</ele>
        <time>2022-02-14T17:24:56.07Z</time>
      </trkpt>
      <trkpt lat="46.0706" lon="3.44253">
        <ele>262.5</ele>
        <time>2022-02-14T17:24:58.40Z</time>
      </trkpt>
      <trkpt lat="46.07073" lon="3.44253">
        <ele>262.5</ele>
        <time>2022-02-14T17:25:00.90Z</time>
      </trkpt>
      <trkpt lat="46.07086" lon="3.44251">
        <ele>262.75</ele>
        <time>2022-02-14T17:25:03.52Z</time>
      </trkpt>
      <trkpt lat="46.07093" lon="3.44262">
        <ele>262.25</ele>
        <time>2022-02-14T17:25:05.68Z</time>
      </trkpt>
      <trkpt lat="46.07097" lon="3.44273">
        <ele>261.75</ele>
        <time>2022-02-14T17:25:07.31Z</time>
      </trkpt>
      <trkpt lat="46.0711" lon="3.44263">
        <ele>262.5</ele>
        <time>2022-02-14T17:25:10.30Z</time>
      </trkpt>
      <trkpt lat="46.0713" lon="3.44253">
        <ele>263.25</ele>
        <time>2022-02-14T17:25:14.51Z</time>
      </trkpt>
      <trkpt lat="46.07142" lon="3.44248">
        <ele>263.75</ele>
        <time>2022-02-14T17:25:16.92Z</time>
      </trkpt>
      <trkpt lat="46.07161" lon="3.44242">
        <ele>264</ele>
        <time>2022-02-14T17:25:20.85Z</time>
      </trkpt>
      <trkpt lat="46.07177" lon="3.44238">
        <ele>264</ele>
        <time>2022-02-14T17:25:24.06Z</time>
      </trkpt>
      <trkpt lat="46.07198" lon="3.44237">
        <ele>263.5</ele>
        <time>2022-02-14T17:25:28.24Z</time>
      </trkpt>
      <trkpt lat="46.07225" lon="3.44238">
        <ele>262.75</ele>
        <time>2022-02-14T17:25:33.83Z</time>
      </trkpt>
      <trkpt lat="46.07305" lon="3.44253">
        <ele>261.25</ele>
        <time>2022-02-14T17:25:49.92Z</time>
      </trkpt>
      <trkpt lat="46.07333" lon="3.44256">
        <ele>261</ele>
        <time>2022-02-14T17:25:55.39Z</time>
      </trkpt>
      <trkpt lat="46.0736" lon="3.44255">
        <ele>261.25</ele>
        <time>2022-02-14T17:26:00.94Z</time>
      </trkpt>
      <trkpt lat="46.07389" lon="3.4425">
        <ele>261.5</ele>
        <time>2022-02-14T17:26:06.68Z</time>
      </trkpt>
      <trkpt lat="46.07427" lon="3.44238">
        <ele>262.25</ele>
        <time>2022-02-14T17:26:14.54Z</time>
      </trkpt>
      <trkpt lat="46.07478" lon="3.44222">
        <ele>263</ele>
        <time>2022-02-14T17:26:24.92Z</time>
      </trkpt>
      <trkpt lat="46.07537" lon="3.44204">
        <ele>263.25</ele>
        <time>2022-02-14T17:26:36.98Z</time>
      </trkpt>
      <trkpt lat="46.07583" lon="3.44189">
        <ele>263</ele>
        <time>2022-02-14T17:26:46.34Z</time>
      </trkpt>
      <trkpt lat="46.07602" lon="3.44182">
        <ele>263</ele>
        <time>2022-02-14T17:26:50.35Z</time>
      </trkpt>
      <trkpt lat="46.07613" lon="3.44177">
        <ele>263</ele>
        <time>2022-02-14T17:26:52.57Z</time>
      </trkpt>
      <trkpt lat="46.07619" lon="3.44177">
        <ele>263.25</ele>
        <time>2022-02-14T17:26:53.81Z</time>
      </trkpt>
      <trkpt lat="46.07623" lon="3.44177">
        <ele>263.25</ele>
        <time>2022-02-14T17:26:54.71Z</time>
      </trkpt>
      <trkpt lat="46.07628" lon="3.44176">
        <ele>263.25</ele>
        <time>2022-02-14T17:26:55.62Z</time>
      </trkpt>
      <trkpt lat="46.07631" lon="3.44172">
        <ele>263.25</ele>
        <time>2022-02-14T17:26:56.51Z</time>
      </trkpt>
      <trkpt lat="46.07641" lon="3.44169">
        <ele>263.5</ele>
        <time>2022-02-14T17:26:58.42Z</time>
      </trkpt>
      <trkpt lat="46.07656" lon="3.44169">
        <ele>263.75</ele>
        <time>2022-02-14T17:27:01.46Z</time>
      </trkpt>
      <trkpt lat="46.07672" lon="3.44163">
        <ele>263.75</ele>
        <time>2022-02-14T17:27:04.76Z</time>
      </trkpt>
      <trkpt lat="46.07813" lon="3.44121">
        <ele>263.25</ele>
        <time>2022-02-14T17:27:33.70Z</time>
      </trkpt>
      <trkpt lat="46.07858" lon="3.44116">
        <ele>263.5</ele>
        <time>2022-02-14T17:27:42.66Z</time>
      </trkpt>
      <trkpt lat="46.07885" lon="3.44119">
        <ele>263.5</ele>
        <time>2022-02-14T17:27:48.05Z</time>
      </trkpt>
      <trkpt lat="46.07909" lon="3.44125">
        <ele>263.5</ele>
        <time>2022-02-14T17:27:52.90Z</time>
      </trkpt>
      <trkpt lat="46.07931" lon="3.44136">
        <ele>263.5</ele>
        <time>2022-02-14T17:27:57.50Z</time>
      </trkpt>
      <trkpt lat="46.07935" lon="3.44139">
        <ele>263.5</ele>
        <time>2022-02-14T17:27:58.48Z</time>
      </trkpt>
      <trkpt lat="46.07939" lon="3.44144">
        <ele>263.5</ele>
        <time>2022-02-14T17:27:59.65Z</time>
      </trkpt>
      <trkpt lat="46.07942" lon="3.44146">
        <ele>263.5</ele>
        <time>2022-02-14T17:28:00.30Z</time>
      </trkpt>
      <trkpt lat="46.07946" lon="3.44147">
        <ele>263.5</ele>
        <time>2022-02-14T17:28:00.95Z</time>
      </trkpt>
      <trkpt lat="46.0795" lon="3.44146">
        <ele>263.5</ele>
        <time>2022-02-14T17:28:01.76Z</time>
      </trkpt>
      <trkpt lat="46.07953" lon="3.44144">
        <ele>263.5</ele>
        <time>2022-02-14T17:28:02.55Z</time>
      </trkpt>
      <trkpt lat="46.07956" lon="3.4414">
        <ele>263.75</ele>
        <time>2022-02-14T17:28:03.35Z</time>
      </trkpt>
      <trkpt lat="46.07959" lon="3.44131">
        <ele>263.75</ele>
        <time>2022-02-14T17:28:04.64Z</time>
      </trkpt>
      <trkpt lat="46.07968" lon="3.44128">
        <ele>264</ele>
        <time>2022-02-14T17:28:06.52Z</time>
      </trkpt>
      <trkpt lat="46.07974" lon="3.44128">
        <ele>264</ele>
        <time>2022-02-14T17:28:07.78Z</time>
      </trkpt>
      <trkpt lat="46.0798" lon="3.44131">
        <ele>264</ele>
        <time>2022-02-14T17:28:08.95Z</time>
      </trkpt>
      <trkpt lat="46.07985" lon="3.44137">
        <ele>264</ele>
        <time>2022-02-14T17:28:10.30Z</time>
      </trkpt>
      <trkpt lat="46.07993" lon="3.44151">
        <ele>264</ele>
        <time>2022-02-14T17:28:12.85Z</time>
      </trkpt>
      <trkpt lat="46.08002" lon="3.44159">
        <ele>264</ele>
        <time>2022-02-14T17:28:14.96Z</time>
      </trkpt>
      <trkpt lat="46.08008" lon="3.44153">
        <ele>264</ele>
        <time>2022-02-14T17:28:16.48Z</time>
      </trkpt>
      <trkpt lat="46.08012" lon="3.44138">
        <ele>264.25</ele>
        <time>2022-02-14T17:28:18.57Z</time>
      </trkpt>
      <trkpt lat="46.08023" lon="3.44121">
        <ele>264.5</ele>
        <time>2022-02-14T17:28:21.88Z</time>
      </trkpt>
      <trkpt lat="46.08035" lon="3.44107">
        <ele>264.5</ele>
        <time>2022-02-14T17:28:25.03Z</time>
      </trkpt>
      <trkpt lat="46.08098" lon="3.44069">
        <ele>263.75</ele>
        <time>2022-02-14T17:28:38.66Z</time>
      </trkpt>
      <trkpt lat="46.08128" lon="3.44051">
        <ele>263.75</ele>
        <time>2022-02-14T17:28:45.17Z</time>
      </trkpt>
      <trkpt lat="46.08171" lon="3.44033">
        <ele>263.5</ele>
        <time>2022-02-14T17:28:54.09Z</time>
      </trkpt>
      <trkpt lat="46.08265" lon="3.43994">
        <ele>262.5</ele>
        <time>2022-02-14T17:29:13.74Z</time>
      </trkpt>
      <trkpt lat="46.08325" lon="3.43968">
        <ele>261.75</ele>
        <time>2022-02-14T17:29:26.26Z</time>
      </trkpt>
      <trkpt lat="46.08443" lon="3.43898">
        <ele>263.5</ele>
        <time>2022-02-14T17:29:51.67Z</time>
      </trkpt>
      <trkpt lat="46.08484" lon="3.43877">
        <ele>263.5</ele>
        <time>2022-02-14T17:30:00.41Z</time>
      </trkpt>
      <trkpt lat="46.085" lon="3.43873">
        <ele>263.5</ele>
        <time>2022-02-14T17:30:03.67Z</time>
      </trkpt>
      <trkpt lat="46.08517" lon="3.43873">
        <ele>263.5</ele>
        <time>2022-02-14T17:30:07.01Z</time>
      </trkpt>
      <trkpt lat="46.08536" lon="3.43876">
        <ele>263.25</ele>
        <time>2022-02-14T17:30:10.86Z</time>
      </trkpt>
      <trkpt lat="46.08585" lon="3.43889">
        <ele>263.25</ele>
        <time>2022-02-14T17:30:20.92Z</time>
      </trkpt>
      <trkpt lat="46.08634" lon="3.43919">
        <ele>262.75</ele>
        <time>2022-02-14T17:30:31.57Z</time>
      </trkpt>
      <trkpt lat="46.08668" lon="3.43932">
        <ele>262.5</ele>
        <time>2022-02-14T17:30:38.48Z</time>
      </trkpt>
      <trkpt lat="46.0871" lon="3.4394">
        <ele>262.75</ele>
        <time>2022-02-14T17:30:47.03Z</time>
      </trkpt>
      <trkpt lat="46.08791" lon="3.43937">
        <ele>264.5</ele>
        <time>2022-02-14T17:31:03.20Z</time>
      </trkpt>
      <trkpt lat="46.08822" lon="3.43944">
        <ele>265.5</ele>
        <time>2022-02-14T17:31:09.50Z</time>
      </trkpt>
      <trkpt lat="46.08849" lon="3.43951">
        <ele>265.75</ele>
        <time>2022-02-14T17:31:14.88Z</time>
      </trkpt>
      <trkpt lat="46.08898" lon="3.43961">
        <ele>265.5</ele>
        <time>2022-02-14T17:31:24.95Z</time>
      </trkpt>
      <trkpt lat="46.08947" lon="3.43973">
        <ele>264.5</ele>
        <time>2022-02-14T17:31:34.71Z</time>
      </trkpt>
      <trkpt lat="46.08994" lon="3.43984">
        <ele>263.25</ele>
        <time>2022-02-14T17:31:44.26Z</time>
      </trkpt>
      <trkpt lat="46.09005" lon="3.43985">
        <ele>263</ele>
        <time>2022-02-14T17:31:46.57Z</time>
      </trkpt>
      <trkpt lat="46.09013" lon="3.43984">
        <ele>262.75</ele>
        <time>2022-02-14T17:31:48.21Z</time>
      </trkpt>
      <trkpt lat="46.0902" lon="3.43981">
        <ele>262.5</ele>
        <time>2022-02-14T17:31:49.59Z</time>
      </trkpt>
      <trkpt lat="46.09028" lon="3.43971">
        <ele>262.25</ele>
        <time>2022-02-14T17:31:51.75Z</time>
      </trkpt>
      <trkpt lat="46.09032" lon="3.43961">
        <ele>262.25</ele>
        <time>2022-02-14T17:31:53.32Z</time>
      </trkpt>
      <trkpt lat="46.09041" lon="3.43922">
        <ele>262</ele>
        <time>2022-02-14T17:31:59.03Z</time>
      </trkpt>
      <trkpt lat="46.09045" lon="3.43911">
        <ele>261.5</ele>
        <time>2022-02-14T17:32:00.68Z</time>
      </trkpt>
      <trkpt lat="46.09054" lon="3.43895">
        <ele>260.25</ele>
        <time>2022-02-14T17:32:03.57Z</time>
      </trkpt>
      <trkpt lat="46.0906" lon="3.43889">
        <ele>259.75</ele>
        <time>2022-02-14T17:32:05.03Z</time>
      </trkpt>
      <trkpt lat="46.09068" lon="3.43884">
        <ele>259.25</ele>
        <time>2022-02-14T17:32:06.90Z</time>
      </trkpt>
      <trkpt lat="46.09226" lon="3.43819">
        <ele>257</ele>
        <time>2022-02-14T17:32:39.78Z</time>
      </trkpt>
      <trkpt lat="46.09247" lon="3.43814">
        <ele>257</ele>
        <time>2022-02-14T17:32:44.01Z</time>
      </trkpt>
      <trkpt lat="46.09261" lon="3.43812">
        <ele>257</ele>
        <time>2022-02-14T17:32:46.74Z</time>
      </trkpt>
      <trkpt lat="46.09274" lon="3.43813">
        <ele>257</ele>
        <time>2022-02-14T17:32:49.49Z</time>
      </trkpt>
      <trkpt lat="46.09284" lon="3.43816">
        <ele>257</ele>
        <time>2022-02-14T17:32:51.39Z</time>
      </trkpt>
      <trkpt lat="46.09325" lon="3.43837">
        <ele>257</ele>
        <time>2022-02-14T17:33:00.13Z</time>
      </trkpt>
      <trkpt lat="46.09333" lon="3.43854">
        <ele>257.25</ele>
        <time>2022-02-14T17:33:03.05Z</time>
      </trkpt>
      <trkpt lat="46.09335" lon="3.43858">
        <ele>257.25</ele>
        <time>2022-02-14T17:33:03.71Z</time>
      </trkpt>
      <trkpt lat="46.09343" lon="3.43843">
        <ele>257.25</ele>
        <time>2022-02-14T17:33:06.30Z</time>
      </trkpt>
      <trkpt lat="46.0938" lon="3.43766">
        <ele>258</ele>
        <time>2022-02-14T17:33:19.29Z</time>
      </trkpt>
      <trkpt lat="46.09384" lon="3.43759">
        <ele>258</ele>
        <time>2022-02-14T17:33:20.49Z</time>
      </trkpt>
      <trkpt lat="46.09406" lon="3.43714">
        <ele>258</ele>
        <time>2022-02-14T17:33:28.19Z</time>
      </trkpt>
      <trkpt lat="46.09437" lon="3.43651">
        <ele>257.75</ele>
        <time>2022-02-14T17:33:38.88Z</time>
      </trkpt>
      <trkpt lat="46.09441" lon="3.43641">
        <ele>257.5</ele>
        <time>2022-02-14T17:33:40.47Z</time>
      </trkpt>
      <trkpt lat="46.09457" lon="3.43607">
        <ele>257.5</ele>
        <time>2022-02-14T17:33:46.21Z</time>
      </trkpt>
      <trkpt lat="46.0946" lon="3.43601">
        <ele>257.25</ele>
        <time>2022-02-14T17:33:47.25Z</time>
      </trkpt>
      <trkpt lat="46.09463" lon="3.43596">
        <ele>257.25</ele>
        <time>2022-02-14T17:33:48.15Z</time>
      </trkpt>
      <trkpt lat="46.09466" lon="3.43594">
        <ele>257.25</ele>
        <time>2022-02-14T17:33:48.76Z</time>
      </trkpt>
      <trkpt lat="46.09468" lon="3.43592">
        <ele>257.25</ele>
        <time>2022-02-14T17:33:49.39Z</time>
      </trkpt>
      <trkpt lat="46.0947" lon="3.43588">
        <ele>257.25</ele>
        <time>2022-02-14T17:33:50Z</time>
      </trkpt>
      <trkpt lat="46.09471" lon="3.43584">
        <ele>257.25</ele>
        <time>2022-02-14T17:33:50.63Z</time>
      </trkpt>
      <trkpt lat="46.09478" lon="3.43568">
        <ele>257</ele>
        <time>2022-02-14T17:33:53.18Z</time>
      </trkpt>
      <trkpt lat="46.09496" lon="3.43533">
        <ele>256.25</ele>
        <time>2022-02-14T17:33:59.18Z</time>
      </trkpt>
      <trkpt lat="46.09499" lon="3.43527">
        <ele>256.25</ele>
        <time>2022-02-14T17:34:00.23Z</time>
      </trkpt>
      <trkpt lat="46.09524" lon="3.43494">
        <ele>255.75</ele>
        <time>2022-02-14T17:34:06.98Z</time>
      </trkpt>
      <trkpt lat="46.09559" lon="3.43453">
        <ele>255.5</ele>
        <time>2022-02-14T17:34:16.10Z</time>
      </trkpt>
      <trkpt lat="46.09571" lon="3.43438">
        <ele>255.25</ele>
        <time>2022-02-14T17:34:19.35Z</time>
      </trkpt>
      <trkpt lat="46.09602" lon="3.43401">
        <ele>255</ele>
        <time>2022-02-14T17:34:27.23Z</time>
      </trkpt>
      <trkpt lat="46.09609" lon="3.43392">
        <ele>255.25</ele>
        <time>2022-02-14T17:34:29.22Z</time>
      </trkpt>
      <trkpt lat="46.09629" lon="3.43365">
        <ele>255.5</ele>
        <time>2022-02-14T17:34:34.68Z</time>
      </trkpt>
      <trkpt lat="46.09642" lon="3.43344">
        <ele>255.5</ele>
        <time>2022-02-14T17:34:38.61Z</time>
      </trkpt>
      <trkpt lat="46.097" lon="3.43233">
        <ele>256.75</ele>
        <time>2022-02-14T17:34:57.90Z</time>
      </trkpt>
      <trkpt lat="46.09775" lon="3.43094">
        <ele>255.25</ele>
        <time>2022-02-14T17:35:22.25Z</time>
      </trkpt>
      <trkpt lat="46.09788" lon="3.43074">
        <ele>255</ele>
        <time>2022-02-14T17:35:26Z</time>
      </trkpt>
      <trkpt lat="46.09798" lon="3.43059">
        <ele>254.75</ele>
        <time>2022-02-14T17:35:29.03Z</time>
      </trkpt>
      <trkpt lat="46.09809" lon="3.43046">
        <ele>254.75</ele>
        <time>2022-02-14T17:35:31.80Z</time>
      </trkpt>
      <trkpt lat="46.09836" lon="3.4302">
        <ele>254.75</ele>
        <time>2022-02-14T17:35:38.39Z</time>
      </trkpt>
      <trkpt lat="46.0987" lon="3.42997">
        <ele>254.75</ele>
        <time>2022-02-14T17:35:45.75Z</time>
      </trkpt>
      <trkpt lat="46.10144" lon="3.42844">
        <ele>254.25</ele>
        <time>2022-02-14T17:36:44.61Z</time>
      </trkpt>
      <trkpt lat="46.10169" lon="3.42827">
        <ele>254</ele>
        <time>2022-02-14T17:36:50.18Z</time>
      </trkpt>
      <trkpt lat="46.10188" lon="3.42811">
        <ele>254.25</ele>
        <time>2022-02-14T17:36:54.48Z</time>
      </trkpt>
      <trkpt lat="46.10208" lon="3.42792">
        <ele>254.25</ele>
        <time>2022-02-14T17:36:59.29Z</time>
      </trkpt>
      <trkpt lat="46.10227" lon="3.42769">
        <ele>254.75</ele>
        <time>2022-02-14T17:37:04.22Z</time>
      </trkpt>
      <trkpt lat="46.10326" lon="3.42641">
        <ele>254.5</ele>
        <time>2022-02-14T17:37:30.92Z</time>
      </trkpt>
      <trkpt lat="46.10333" lon="3.42633">
        <ele>254.5</ele>
        <time>2022-02-14T17:37:32.59Z</time>
      </trkpt>
      <trkpt lat="46.10353" lon="3.42606">
        <ele>254.25</ele>
        <time>2022-02-14T17:37:38.17Z</time>
      </trkpt>
      <trkpt lat="46.10373" lon="3.42577">
        <ele>254.25</ele>
        <time>2022-02-14T17:37:43.76Z</time>
      </trkpt>
      <trkpt lat="46.10389" lon="3.42549">
        <ele>254.5</ele>
        <time>2022-02-14T17:37:48.77Z</time>
      </trkpt>
      <trkpt lat="46.10424" lon="3.42482">
        <ele>254</ele>
        <time>2022-02-14T17:38:00.36Z</time>
      </trkpt>
      <trkpt lat="46.10447" lon="3.42438">
        <ele>254.25</ele>
        <time>2022-02-14T17:38:08.07Z</time>
      </trkpt>
      <trkpt lat="46.10467" lon="3.42404">
        <ele>254.25</ele>
        <time>2022-02-14T17:38:14.30Z</time>
      </trkpt>
      <trkpt lat="46.10486" lon="3.4238">
        <ele>254</ele>
        <time>2022-02-14T17:38:19.38Z</time>
      </trkpt>
      <trkpt lat="46.10504" lon="3.42362">
        <ele>254</ele>
        <time>2022-02-14T17:38:23.68Z</time>
      </trkpt>
      <trkpt lat="46.10568" lon="3.42302">
        <ele>254.75</ele>
        <time>2022-02-14T17:38:38.99Z</time>
      </trkpt>
      <trkpt lat="46.1059" lon="3.42283">
        <ele>254.75</ele>
        <time>2022-02-14T17:38:44.14Z</time>
      </trkpt>
      <trkpt lat="46.10613" lon="3.42269">
        <ele>254.25</ele>
        <time>2022-02-14T17:38:49.05Z</time>
      </trkpt>
      <trkpt lat="46.10629" lon="3.4226">
        <ele>253.75</ele>
        <time>2022-02-14T17:38:52.51Z</time>
      </trkpt>
      <trkpt lat="46.10654" lon="3.4225">
        <ele>253.25</ele>
        <time>2022-02-14T17:38:57.72Z</time>
      </trkpt>
      <trkpt lat="46.10674" lon="3.42243">
        <ele>253</ele>
        <time>2022-02-14T17:39:01.79Z</time>
      </trkpt>
      <trkpt lat="46.10696" lon="3.42239">
        <ele>253</ele>
        <time>2022-02-14T17:39:06.27Z</time>
      </trkpt>
      <trkpt lat="46.10726" lon="3.42236">
        <ele>252.75</ele>
        <time>2022-02-14T17:39:12.32Z</time>
      </trkpt>
      <trkpt lat="46.1078" lon="3.42237">
        <ele>252.75</ele>
        <time>2022-02-14T17:39:23Z</time>
      </trkpt>
      <trkpt lat="46.10811" lon="3.42233">
        <ele>252.75</ele>
        <time>2022-02-14T17:39:29.36Z</time>
      </trkpt>
      <trkpt lat="46.10831" lon="3.42229">
        <ele>252.75</ele>
        <time>2022-02-14T17:39:33.37Z</time>
      </trkpt>
      <trkpt lat="46.1085" lon="3.42224">
        <ele>253.25</ele>
        <time>2022-02-14T17:39:37.25Z</time>
      </trkpt>
      <trkpt lat="46.10874" lon="3.42214">
        <ele>253.75</ele>
        <time>2022-02-14T17:39:42.20Z</time>
      </trkpt>
      <trkpt lat="46.10885" lon="3.42212">
        <ele>254</ele>
        <time>2022-02-14T17:39:44.45Z</time>
      </trkpt>
      <trkpt lat="46.10903" lon="3.42204">
        <ele>254.5</ele>
        <time>2022-02-14T17:39:48.13Z</time>
      </trkpt>
      <trkpt lat="46.1096" lon="3.42172">
        <ele>253.75</ele>
        <time>2022-02-14T17:40:00.31Z</time>
      </trkpt>
      <trkpt lat="46.10981" lon="3.4216">
        <ele>253.25</ele>
        <time>2022-02-14T17:40:04.96Z</time>
      </trkpt>
      <trkpt lat="46.10997" lon="3.42147">
        <ele>253.25</ele>
        <time>2022-02-14T17:40:08.62Z</time>
      </trkpt>
      <trkpt lat="46.11055" lon="3.42115">
        <ele>254</ele>
        <time>2022-02-14T17:40:20.92Z</time>
      </trkpt>
      <trkpt lat="46.11183" lon="3.42044">
        <ele>253</ele>
        <time>2022-02-14T17:40:48.37Z</time>
      </trkpt>
      <trkpt lat="46.11243" lon="3.42011">
        <ele>253</ele>
        <time>2022-02-14T17:41:01.27Z</time>
      </trkpt>
      <trkpt lat="46.11255" lon="3.42007">
        <ele>253</ele>
        <time>2022-02-14T17:41:03.66Z</time>
      </trkpt>
      <trkpt lat="46.11263" lon="3.42003">
        <ele>253</ele>
        <time>2022-02-14T17:41:05.36Z</time>
      </trkpt>
      <trkpt lat="46.11291" lon="3.41986">
        <ele>253.5</ele>
        <time>2022-02-14T17:41:11.52Z</time>
      </trkpt>
      <trkpt lat="46.11307" lon="3.41976">
        <ele>253.75</ele>
        <time>2022-02-14T17:41:14.97Z</time>
      </trkpt>
      <trkpt lat="46.11319" lon="3.41965">
        <ele>254</ele>
        <time>2022-02-14T17:41:17.83Z</time>
      </trkpt>
      <trkpt lat="46.1133" lon="3.41951">
        <ele>254.5</ele>
        <time>2022-02-14T17:41:20.73Z</time>
      </trkpt>
      <trkpt lat="46.1134" lon="3.41934">
        <ele>254.5</ele>
        <time>2022-02-14T17:41:23.83Z</time>
      </trkpt>
      <trkpt lat="46.11352" lon="3.41908">
        <ele>254.75</ele>
        <time>2022-02-14T17:41:28.20Z</time>
      </trkpt>
      <trkpt lat="46.11375" lon="3.41853">
        <ele>254.75</ele>
        <time>2022-02-14T17:41:37.10Z</time>
      </trkpt>
      <trkpt lat="46.11426" lon="3.41714">
        <ele>255</ele>
        <time>2022-02-14T17:41:58.86Z</time>
      </trkpt>
      <trkpt lat="46.11445" lon="3.41661">
        <ele>255.25</ele>
        <time>2022-02-14T17:42:07.08Z</time>
      </trkpt>
      <trkpt lat="46.11451" lon="3.41651">
        <ele>255.25</ele>
        <time>2022-02-14T17:42:09.06Z</time>
      </trkpt>
      <trkpt lat="46.11454" lon="3.41647">
        <ele>255.25</ele>
        <time>2022-02-14T17:42:09.80Z</time>
      </trkpt>
      <trkpt lat="46.11459" lon="3.41647">
        <ele>255.5</ele>
        <time>2022-02-14T17:42:10.76Z</time>
      </trkpt>
      <trkpt lat="46.11463" lon="3.41644">
        <ele>255.5</ele>
        <time>2022-02-14T17:42:11.73Z</time>
      </trkpt>
      <trkpt lat="46.11472" lon="3.4165">
        <ele>255.5</ele>
        <time>2022-02-14T17:42:13.61Z</time>
      </trkpt>
      <trkpt lat="46.11482" lon="3.41665">
        <ele>255.75</ele>
        <time>2022-02-14T17:42:16.52Z</time>
      </trkpt>
      <trkpt lat="46.11501" lon="3.41703">
        <ele>255.5</ele>
        <time>2022-02-14T17:42:22.97Z</time>
      </trkpt>
      <trkpt lat="46.11514" lon="3.41729">
        <ele>255.5</ele>
        <time>2022-02-14T17:42:27.48Z</time>
      </trkpt>
      <trkpt lat="46.11539" lon="3.41781">
        <ele>256</ele>
        <time>2022-02-14T17:42:36.31Z</time>
      </trkpt>
      <trkpt lat="46.11541" lon="3.41785">
        <ele>256</ele>
        <time>2022-02-14T17:42:37.03Z</time>
      </trkpt>
      <trkpt lat="46.11543" lon="3.41789">
        <ele>256</ele>
        <time>2022-02-14T17:42:37.65Z</time>
      </trkpt>
      <trkpt lat="46.11548" lon="3.41799">
        <ele>256</ele>
        <time>2022-02-14T17:42:39.37Z</time>
      </trkpt>
      <trkpt lat="46.11611" lon="3.41931">
        <ele>253.75</ele>
        <time>2022-02-14T17:43:01.63Z</time>
      </trkpt>
      <trkpt lat="46.11615" lon="3.41938">
        <ele>253.75</ele>
        <time>2022-02-14T17:43:02.79Z</time>
      </trkpt>
      <trkpt lat="46.11616" lon="3.41946">
        <ele>253.75</ele>
        <time>2022-02-14T17:43:03.91Z</time>
      </trkpt>
      <trkpt lat="46.11618" lon="3.41959">
        <ele>253.5</ele>
        <time>2022-02-14T17:43:05.79Z</time>
      </trkpt>
      <trkpt lat="46.11621" lon="3.41958">
        <ele>253.5</ele>
        <time>2022-02-14T17:43:06.42Z</time>
      </trkpt>
      <trkpt lat="46.11624" lon="3.41958">
        <ele>253.5</ele>
        <time>2022-02-14T17:43:06.99Z</time>
      </trkpt>
      <trkpt lat="46.11649" lon="3.41951">
        <ele>253.75</ele>
        <time>2022-02-14T17:43:12.12Z</time>
      </trkpt>
      <trkpt lat="46.11654" lon="3.41946">
        <ele>253.75</ele>
        <time>2022-02-14T17:43:13.27Z</time>
      </trkpt>
      <trkpt lat="46.11676" lon="3.41886">
        <ele>253.75</ele>
        <time>2022-02-14T17:43:22.68Z</time>
      </trkpt>
      <trkpt lat="46.11686" lon="3.41876">
        <ele>253.75</ele>
        <time>2022-02-14T17:43:25.18Z</time>
      </trkpt>
      <trkpt lat="46.1173" lon="3.41916">
        <ele>250.75</ele>
        <time>2022-02-14T17:43:35.61Z</time>
      </trkpt>
      <trkpt lat="46.11742" lon="3.41819">
        <ele>253.5</ele>
        <time>2022-02-14T17:43:49.22Z</time>
      </trkpt>
      <trkpt lat="46.11747" lon="3.41785">
        <ele>254</ele>
        <time>2022-02-14T17:43:54.17Z</time>
      </trkpt>
      <trkpt lat="46.11759" lon="3.41749">
        <ele>254.5</ele>
        <time>2022-02-14T17:43:59.60Z</time>
      </trkpt>
      <trkpt lat="46.11778" lon="3.41706">
        <ele>253.75</ele>
        <time>2022-02-14T17:44:06.72Z</time>
      </trkpt>
      <trkpt lat="46.11784" lon="3.41685">
        <ele>253.75</ele>
        <time>2022-02-14T17:44:09.90Z</time>
      </trkpt>
      <trkpt lat="46.11786" lon="3.41651">
        <ele>253.75</ele>
        <time>2022-02-14T17:44:14.59Z</time>
      </trkpt>
      <trkpt lat="46.11784" lon="3.41633">
        <ele>254.25</ele>
        <time>2022-02-14T17:44:17.11Z</time>
      </trkpt>
      <trkpt lat="46.11777" lon="3.41575">
        <ele>255</ele>
        <time>2022-02-14T17:44:25.21Z</time>
      </trkpt>
      <trkpt lat="46.11777" lon="3.41568">
        <ele>255.25</ele>
        <time>2022-02-14T17:44:26.19Z</time>
      </trkpt>
      <trkpt lat="46.11788" lon="3.41549">
        <ele>255</ele>
        <time>2022-02-14T17:44:29.66Z</time>
      </trkpt>
      <trkpt lat="46.11792" lon="3.41542">
        <ele>255</ele>
        <time>2022-02-14T17:44:30.98Z</time>
      </trkpt>
      <trkpt lat="46.11812" lon="3.41567">
        <ele>254</ele>
        <time>2022-02-14T17:44:36.27Z</time>
      </trkpt>
      <trkpt lat="46.11846" lon="3.41607">
        <ele>252</ele>
        <time>2022-02-14T17:44:44.97Z</time>
      </trkpt>
      <trkpt lat="46.12012" lon="3.41829">
        <ele>253</ele>
        <time>2022-02-14T17:45:30.24Z</time>
      </trkpt>
    </trkseg>
  </trk>
</gpx>